<?xml version='1.0' encoding='UTF-8'?><gpx version="1.1" creator="JPX - https://github.com/jenetics/jpx" xmlns="http://www.topografix.com/GPX/1/1"><trk><trkseg><trkpt lat="43.4078953806334" lon="10.408039180634038"><ele>21.0</ele><time>2026-04-06T07:23:30Z</time></trkpt><trkpt lat="43.407813956569306" lon="10.408037407333412"><ele>21.0</ele><time>2026-04-06T07:23:32Z</time></trkpt><trkpt lat="43.407723695271706" lon="10.408084517897468"><ele>21.0</ele><time>2026-04-06T07:23:35Z</time></trkpt><trkpt lat="43.407637186641445" lon="10.408129370265238"><ele>21.0</ele><time>2026-04-06T07:23:37Z</time></trkpt><trkpt lat="43.40755218844863" lon="10.408172137621758"><ele>21.0</ele><time>2026-04-06T07:23:39Z</time></trkpt><trkpt lat="43.407462019820024" lon="10.408227141952889"><ele>21.0</ele><time>2026-04-06T07:23:41Z</time></trkpt><trkpt lat="43.40737619707848" lon="10.408291852972638"><ele>21.0</ele><time>2026-04-06T07:23:43Z</time></trkpt><trkpt lat="43.407284943910696" lon="10.40834901712829"><ele>21.0</ele><time>2026-04-06T07:23:45Z</time></trkpt><trkpt lat="43.4071905834966" lon="10.408393478936079"><ele>21.0</ele><time>2026-04-06T07:23:47Z</time></trkpt><trkpt lat="43.40710575456485" lon="10.40844646077132"><ele>21.0</ele><time>2026-04-06T07:23:49Z</time></trkpt><trkpt lat="43.407025381545026" lon="10.408507083855456"><ele>20.6</ele><time>2026-04-06T07:23:51Z</time></trkpt><trkpt lat="43.4069463705614" lon="10.408578424916351"><ele>20.200000000000003</ele><time>2026-04-06T07:23:53Z</time></trkpt><trkpt lat="43.40686480996163" lon="10.40864317743748"><ele>19.799999999999997</ele><time>2026-04-06T07:23:55Z</time></trkpt><trkpt lat="43.40677972534706" lon="10.408707590904584"><ele>19.4</ele><time>2026-04-06T07:23:57Z</time></trkpt><trkpt lat="43.40670000708572" lon="10.408780974504252"><ele>19.0</ele><time>2026-04-06T07:23:59Z</time></trkpt><trkpt lat="43.406623735572126" lon="10.408862083880827"><ele>20.799999999999997</ele><time>2026-04-06T07:24:01Z</time></trkpt><trkpt lat="43.40654930756469" lon="10.408943769643583"><ele>22.599999999999998</ele><time>2026-04-06T07:24:03Z</time></trkpt><trkpt lat="43.40645853696762" lon="10.409008605098546"><ele>24.4</ele><time>2026-04-06T07:24:05Z</time></trkpt><trkpt lat="43.406370842106874" lon="10.409063061561003"><ele>26.2</ele><time>2026-04-06T07:24:07Z</time></trkpt><trkpt lat="43.40628189914032" lon="10.409126328591714"><ele>28.0</ele><time>2026-04-06T07:24:09Z</time></trkpt><trkpt lat="43.406192999030324" lon="10.40918852241353"><ele>28.0</ele><time>2026-04-06T07:24:11Z</time></trkpt><trkpt lat="43.406107949886206" lon="10.409271034847315"><ele>27.999999999999996</ele><time>2026-04-06T07:24:13Z</time></trkpt><trkpt lat="43.406023274629014" lon="10.409361734053414"><ele>27.999999999999996</ele><time>2026-04-06T07:24:15Z</time></trkpt><trkpt lat="43.4059467829535" lon="10.409466815150443"><ele>28.0</ele><time>2026-04-06T07:24:17Z</time></trkpt><trkpt lat="43.40586778136872" lon="10.409583828404937"><ele>28.0</ele><time>2026-04-06T07:24:19Z</time></trkpt><trkpt lat="43.40579014374901" lon="10.409704376864758"><ele>28.500000000000004</ele><time>2026-04-06T07:24:21Z</time></trkpt><trkpt lat="43.40571733714153" lon="10.409831257137572"><ele>29.0</ele><time>2026-04-06T07:24:23Z</time></trkpt><trkpt lat="43.40563642603571" lon="10.409954628559598"><ele>29.5</ele><time>2026-04-06T07:24:25Z</time></trkpt><trkpt lat="43.40559523148277" lon="10.410024459758455"><ele>30.0</ele><time>2026-04-06T07:24:26Z</time></trkpt><trkpt lat="43.40555150272659" lon="10.41009143824372"><ele>30.500000000000004</ele><time>2026-04-06T07:24:27Z</time></trkpt><trkpt lat="43.40549768788532" lon="10.410145829946154"><ele>31.0</ele><time>2026-04-06T07:24:28Z</time></trkpt><trkpt lat="43.40543829023997" lon="10.410202417885515"><ele>31.0</ele><time>2026-04-06T07:24:29Z</time></trkpt><trkpt lat="43.405384158037656" lon="10.410258150942449"><ele>31.000000000000004</ele><time>2026-04-06T07:24:30Z</time></trkpt><trkpt lat="43.40533127774984" lon="10.410315430360955"><ele>31.0</ele><time>2026-04-06T07:24:31Z</time></trkpt><trkpt lat="43.40527825782696" lon="10.410376193687549"><ele>31.0</ele><time>2026-04-06T07:24:32Z</time></trkpt><trkpt lat="43.4052237847949" lon="10.410442149845379"><ele>31.000000000000004</ele><time>2026-04-06T07:24:33Z</time></trkpt><trkpt lat="43.40517033640211" lon="10.41051323063155"><ele>31.0</ele><time>2026-04-06T07:24:34Z</time></trkpt><trkpt lat="43.40512530689339" lon="10.410596266565124"><ele>31.0</ele><time>2026-04-06T07:24:35Z</time></trkpt><trkpt lat="43.405086696245114" lon="10.410681956053427"><ele>30.833333333333336</ele><time>2026-04-06T07:24:36Z</time></trkpt><trkpt lat="43.405046439547974" lon="10.410775865905583"><ele>30.666666666666668</ele><time>2026-04-06T07:24:37Z</time></trkpt><trkpt lat="43.405003087197166" lon="10.410866061405432"><ele>30.5</ele><time>2026-04-06T07:24:38Z</time></trkpt><trkpt lat="43.40496439169547" lon="10.410969723325461"><ele>30.333333333333336</ele><time>2026-04-06T07:24:39Z</time></trkpt><trkpt lat="43.404925187220144" lon="10.411073665067498"><ele>30.166666666666668</ele><time>2026-04-06T07:24:40Z</time></trkpt><trkpt lat="43.40489080713589" lon="10.41118647430333"><ele>30.0</ele><time>2026-04-06T07:24:41Z</time></trkpt><trkpt lat="43.40485562816043" lon="10.411302178735902"><ele>29.8</ele><time>2026-04-06T07:24:42Z</time></trkpt><trkpt lat="43.40481741413915" lon="10.411415877180954"><ele>29.6</ele><time>2026-04-06T07:24:43Z</time></trkpt><trkpt lat="43.404780021763834" lon="10.411533322607621"><ele>29.4</ele><time>2026-04-06T07:24:44Z</time></trkpt><trkpt lat="43.404739729392176" lon="10.41164932434802"><ele>29.2</ele><time>2026-04-06T07:24:45Z</time></trkpt><trkpt lat="43.4047091570086" lon="10.411766496308635"><ele>29.0</ele><time>2026-04-06T07:24:46Z</time></trkpt><trkpt lat="43.40468398633714" lon="10.411891497664753"><ele>27.799999999999997</ele><time>2026-04-06T07:24:47Z</time></trkpt><trkpt lat="43.404660552847226" lon="10.412014948723108"><ele>26.599999999999998</ele><time>2026-04-06T07:24:48Z</time></trkpt><trkpt lat="43.40463484438404" lon="10.41213593330555"><ele>25.4</ele><time>2026-04-06T07:24:49Z</time></trkpt><trkpt lat="43.404612504100896" lon="10.412256641819525"><ele>24.2</ele><time>2026-04-06T07:24:50Z</time></trkpt><trkpt lat="43.4045944621198" lon="10.412377824346475"><ele>23.0</ele><time>2026-04-06T07:24:51Z</time></trkpt><trkpt lat="43.40457494903456" lon="10.412499834428454"><ele>22.5</ele><time>2026-04-06T07:24:52Z</time></trkpt><trkpt lat="43.404550905785584" lon="10.412618012669192"><ele>22.0</ele><time>2026-04-06T07:24:53Z</time></trkpt><trkpt lat="43.404532410099506" lon="10.412736887759056"><ele>21.5</ele><time>2026-04-06T07:24:54Z</time></trkpt><trkpt lat="43.40451094122195" lon="10.41285362825843"><ele>21.0</ele><time>2026-04-06T07:24:55Z</time></trkpt><trkpt lat="43.40449066773688" lon="10.412970071350516"><ele>20.5</ele><time>2026-04-06T07:24:56Z</time></trkpt><trkpt lat="43.40447117119644" lon="10.413084815316761"><ele>20.0</ele><time>2026-04-06T07:24:57Z</time></trkpt><trkpt lat="43.4044527232686" lon="10.41319768367306"><ele>20.0</ele><time>2026-04-06T07:24:58Z</time></trkpt><trkpt lat="43.404425580617456" lon="10.41330119602021"><ele>20.0</ele><time>2026-04-06T07:24:59Z</time></trkpt><trkpt lat="43.40438462192224" lon="10.413397996173952"><ele>20.0</ele><time>2026-04-06T07:25:00Z</time></trkpt><trkpt lat="43.40437621789989" lon="10.413514901134326"><ele>20.0</ele><time>2026-04-06T07:25:01Z</time></trkpt><trkpt lat="43.40436798868895" lon="10.413623648242655"><ele>20.0</ele><time>2026-04-06T07:25:02Z</time></trkpt><trkpt lat="43.404353681888416" lon="10.41372905298621"><ele>20.0</ele><time>2026-04-06T07:25:03Z</time></trkpt><trkpt lat="43.404341592506654" lon="10.413832491516132"><ele>20.0</ele><time>2026-04-06T07:25:04Z</time></trkpt><trkpt lat="43.40433129701252" lon="10.413933059333978"><ele>20.0</ele><time>2026-04-06T07:25:05Z</time></trkpt><trkpt lat="43.40432491902106" lon="10.414033862361018"><ele>20.0</ele><time>2026-04-06T07:25:06Z</time></trkpt><trkpt lat="43.404323092038055" lon="10.4141305768003"><ele>20.0</ele><time>2026-04-06T07:25:07Z</time></trkpt><trkpt lat="43.40431595780757" lon="10.414222174737532"><ele>20.0</ele><time>2026-04-06T07:25:07.999Z</time></trkpt><trkpt lat="43.40431565743283" lon="10.414322895995905"><ele>20.0</ele><time>2026-04-06T07:25:08.999Z</time></trkpt><trkpt lat="43.404315637888935" lon="10.414418371460183"><ele>20.0</ele><time>2026-04-06T07:25:09.999Z</time></trkpt><trkpt lat="43.40431045605634" lon="10.414515294597333"><ele>20.0</ele><time>2026-04-06T07:25:10.999Z</time></trkpt><trkpt lat="43.4043252871438" lon="10.414608559546993"><ele>20.0</ele><time>2026-04-06T07:25:11.999Z</time></trkpt><trkpt lat="43.40433552681494" lon="10.414700137162791"><ele>20.0</ele><time>2026-04-06T07:25:12.999Z</time></trkpt><trkpt lat="43.40434487246171" lon="10.414792776068031"><ele>20.0</ele><time>2026-04-06T07:25:13.999Z</time></trkpt><trkpt lat="43.40435495979365" lon="10.414889599985651"><ele>20.0</ele><time>2026-04-06T07:25:14.999Z</time></trkpt><trkpt lat="43.404361945155316" lon="10.414980765419095"><ele>20.0</ele><time>2026-04-06T07:25:15.999Z</time></trkpt><trkpt lat="43.40436702454818" lon="10.415078447435546"><ele>20.0</ele><time>2026-04-06T07:25:16.999Z</time></trkpt><trkpt lat="43.40437150258061" lon="10.41517055956403"><ele>19.57142857142857</ele><time>2026-04-06T07:25:17.999Z</time></trkpt><trkpt lat="43.40438470412619" lon="10.415269639195891"><ele>19.142857142857142</ele><time>2026-04-06T07:25:18.999Z</time></trkpt><trkpt lat="43.404401324572646" lon="10.41536110709505"><ele>18.714285714285715</ele><time>2026-04-06T07:25:20Z</time></trkpt><trkpt lat="43.404407438348635" lon="10.415452933049423"><ele>18.285714285714285</ele><time>2026-04-06T07:25:21Z</time></trkpt><trkpt lat="43.404432764556624" lon="10.415545395954599"><ele>17.857142857142858</ele><time>2026-04-06T07:25:22Z</time></trkpt><trkpt lat="43.404455302941265" lon="10.415629944791412"><ele>17.428571428571427</ele><time>2026-04-06T07:25:23Z</time></trkpt><trkpt lat="43.4044739329444" lon="10.41572326047236"><ele>17.0</ele><time>2026-04-06T07:25:24Z</time></trkpt><trkpt lat="43.40450308403134" lon="10.41580092263282"><ele>16.71428571428571</ele><time>2026-04-06T07:25:25Z</time></trkpt><trkpt lat="43.40453462976074" lon="10.415883135540334"><ele>16.428571428571427</ele><time>2026-04-06T07:25:26Z</time></trkpt><trkpt lat="43.4045571467082" lon="10.415970739964662"><ele>16.142857142857142</ele><time>2026-04-06T07:25:27Z</time></trkpt><trkpt lat="43.40457902644785" lon="10.416059308249002"><ele>15.857142857142856</ele><time>2026-04-06T07:25:28Z</time></trkpt><trkpt lat="43.40460271188464" lon="10.416153226313787"><ele>15.57142857142857</ele><time>2026-04-06T07:25:29Z</time></trkpt><trkpt lat="43.404624245131025" lon="10.416245751109571"><ele>15.285714285714286</ele><time>2026-04-06T07:25:30Z</time></trkpt><trkpt lat="43.40464477026972" lon="10.416341420522766"><ele>15.0</ele><time>2026-04-06T07:25:31Z</time></trkpt><trkpt lat="43.40465693587064" lon="10.416434874068255"><ele>15.0</ele><time>2026-04-06T07:25:32Z</time></trkpt><trkpt lat="43.40465432023288" lon="10.416532182043095"><ele>15.0</ele><time>2026-04-06T07:25:33Z</time></trkpt><trkpt lat="43.40464695220971" lon="10.41662909668342"><ele>15.0</ele><time>2026-04-06T07:25:34Z</time></trkpt><trkpt lat="43.40463826947249" lon="10.416726977938822"><ele>15.0</ele><time>2026-04-06T07:25:35Z</time></trkpt><trkpt lat="43.40463073995001" lon="10.416824170681279"><ele>15.0</ele><time>2026-04-06T07:25:36Z</time></trkpt><trkpt lat="43.404618851936746" lon="10.416922463966557"><ele>15.0</ele><time>2026-04-06T07:25:37Z</time></trkpt><trkpt lat="43.40460835223835" lon="10.417018033429343"><ele>15.0</ele><time>2026-04-06T07:25:38Z</time></trkpt><trkpt lat="43.40460376365929" lon="10.417116498034208"><ele>15.428571428571429</ele><time>2026-04-06T07:25:39Z</time></trkpt><trkpt lat="43.40459608763183" lon="10.417212020490979"><ele>15.857142857142858</ele><time>2026-04-06T07:25:40Z</time></trkpt><trkpt lat="43.40458414300188" lon="10.417304489397615"><ele>16.285714285714285</ele><time>2026-04-06T07:25:41Z</time></trkpt><trkpt lat="43.40457159307127" lon="10.417401660855338"><ele>16.714285714285715</ele><time>2026-04-06T07:25:42Z</time></trkpt><trkpt lat="43.40456126038745" lon="10.417497157284188"><ele>17.142857142857142</ele><time>2026-04-06T07:25:43Z</time></trkpt><trkpt lat="43.40454967056769" lon="10.417589557630105"><ele>17.571428571428573</ele><time>2026-04-06T07:25:44Z</time></trkpt><trkpt lat="43.40453956210473" lon="10.417681555991365"><ele>18.0</ele><time>2026-04-06T07:25:45Z</time></trkpt><trkpt lat="43.404531674048876" lon="10.417774617327904"><ele>18.000000000000004</ele><time>2026-04-06T07:25:46Z</time></trkpt><trkpt lat="43.40452226141608" lon="10.41786410984421"><ele>18.0</ele><time>2026-04-06T07:25:47Z</time></trkpt><trkpt lat="43.404512919368564" lon="10.417956618670111"><ele>18.0</ele><time>2026-04-06T07:25:48Z</time></trkpt><trkpt lat="43.404503375611334" lon="10.418044203582607"><ele>18.0</ele><time>2026-04-06T07:25:49Z</time></trkpt><trkpt lat="43.40449830354096" lon="10.41813661260898"><ele>18.0</ele><time>2026-04-06T07:25:50Z</time></trkpt><trkpt lat="43.40448561367421" lon="10.418228146098725"><ele>18.000000000000004</ele><time>2026-04-06T07:25:51Z</time></trkpt><trkpt lat="43.40447427363931" lon="10.418319405604835"><ele>18.0</ele><time>2026-04-06T07:25:52Z</time></trkpt><trkpt lat="43.404463779273954" lon="10.418410292543252"><ele>17.857142857142858</ele><time>2026-04-06T07:25:53Z</time></trkpt><trkpt lat="43.404457811406544" lon="10.418501166662555"><ele>17.714285714285715</ele><time>2026-04-06T07:25:54Z</time></trkpt><trkpt lat="43.40444588286439" lon="10.418594729891435"><ele>17.57142857142857</ele><time>2026-04-06T07:25:55Z</time></trkpt><trkpt lat="43.40443818828185" lon="10.418688273259594"><ele>17.42857142857143</ele><time>2026-04-06T07:25:56Z</time></trkpt><trkpt lat="43.40442569125303" lon="10.418778970334321"><ele>17.285714285714285</ele><time>2026-04-06T07:25:57Z</time></trkpt><trkpt lat="43.40442098605726" lon="10.418870706663368"><ele>17.142857142857142</ele><time>2026-04-06T07:25:58Z</time></trkpt><trkpt lat="43.40441391641574" lon="10.418962871837467"><ele>17.0</ele><time>2026-04-06T07:25:59Z</time></trkpt><trkpt lat="43.40440305100033" lon="10.41905426157078"><ele>16.71428571428571</ele><time>2026-04-06T07:26:00Z</time></trkpt><trkpt lat="43.40439003398304" lon="10.419143257303325"><ele>16.428571428571427</ele><time>2026-04-06T07:26:01Z</time></trkpt><trkpt lat="43.40437327181742" lon="10.41923614198755"><ele>16.142857142857142</ele><time>2026-04-06T07:26:02Z</time></trkpt><trkpt lat="43.404366811036816" lon="10.419328257297911"><ele>15.857142857142856</ele><time>2026-04-06T07:26:03Z</time></trkpt><trkpt lat="43.40436111179538" lon="10.419417914941345"><ele>15.57142857142857</ele><time>2026-04-06T07:26:04Z</time></trkpt><trkpt lat="43.404351579762334" lon="10.419510645102225"><ele>15.285714285714286</ele><time>2026-04-06T07:26:05Z</time></trkpt><trkpt lat="43.40434131934835" lon="10.419596844235645"><ele>15.0</ele><time>2026-04-06T07:26:06Z</time></trkpt><trkpt lat="43.40433702400377" lon="10.419687214648484"><ele>15.0</ele><time>2026-04-06T07:26:07Z</time></trkpt><trkpt lat="43.404324858921754" lon="10.419859960604478"><ele>15.0</ele><time>2026-04-06T07:26:09Z</time></trkpt><trkpt lat="43.404300647780644" lon="10.420034239819305"><ele>15.0</ele><time>2026-04-06T07:26:11Z</time></trkpt><trkpt lat="43.40428684379118" lon="10.420211252983728"><ele>15.0</ele><time>2026-04-06T07:26:13Z</time></trkpt><trkpt lat="43.40427835758401" lon="10.420297298150713"><ele>15.0</ele><time>2026-04-06T07:26:14Z</time></trkpt><trkpt lat="43.40426579328494" lon="10.420389582818416"><ele>15.0</ele><time>2026-04-06T07:26:15Z</time></trkpt><trkpt lat="43.40425852836457" lon="10.420478442210408"><ele>15.0</ele><time>2026-04-06T07:26:16Z</time></trkpt><trkpt lat="43.404250155063615" lon="10.42057523205914"><ele>15.0</ele><time>2026-04-06T07:26:17Z</time></trkpt><trkpt lat="43.40423661574588" lon="10.420665137214296"><ele>15.0</ele><time>2026-04-06T07:26:18Z</time></trkpt><trkpt lat="43.404221627586075" lon="10.420752673104554"><ele>15.0</ele><time>2026-04-06T07:26:19Z</time></trkpt><trkpt lat="43.40420555296817" lon="10.420842540649737"><ele>15.0</ele><time>2026-04-06T07:26:20Z</time></trkpt><trkpt lat="43.40418614065631" lon="10.420930945554913"><ele>15.0</ele><time>2026-04-06T07:26:21Z</time></trkpt><trkpt lat="43.40415759609324" lon="10.421013932077006"><ele>14.833333333333334</ele><time>2026-04-06T07:26:22Z</time></trkpt><trkpt lat="43.40412891838104" lon="10.421094799384857"><ele>14.666666666666668</ele><time>2026-04-06T07:26:23Z</time></trkpt><trkpt lat="43.40409450405639" lon="10.421175061011297"><ele>14.5</ele><time>2026-04-06T07:26:24Z</time></trkpt><trkpt lat="43.40405597097624" lon="10.421249987873086"><ele>14.333333333333334</ele><time>2026-04-06T07:26:25Z</time></trkpt><trkpt lat="43.40401194793846" lon="10.421320733333275"><ele>14.166666666666668</ele><time>2026-04-06T07:26:26Z</time></trkpt><trkpt lat="43.403967034731075" lon="10.421386578814678"><ele>14.0</ele><time>2026-04-06T07:26:27Z</time></trkpt><trkpt lat="43.403874201698216" lon="10.421513949032889"><ele>15.0</ele><time>2026-04-06T07:26:29Z</time></trkpt><trkpt lat="43.403818790406135" lon="10.421568112101669"><ele>15.999999999999998</ele><time>2026-04-06T07:26:30Z</time></trkpt><trkpt lat="43.40373730218644" lon="10.421690363180925"><ele>17.0</ele><time>2026-04-06T07:26:32Z</time></trkpt><trkpt lat="43.40364848873126" lon="10.421807178429434"><ele>18.0</ele><time>2026-04-06T07:26:34Z</time></trkpt><trkpt lat="43.403560936728816" lon="10.421924482405986"><ele>19.0</ele><time>2026-04-06T07:26:36Z</time></trkpt><trkpt lat="43.40347452633625" lon="10.422040120168424"><ele>19.0</ele><time>2026-04-06T07:26:38Z</time></trkpt><trkpt lat="43.40339126547134" lon="10.422160777370122"><ele>19.0</ele><time>2026-04-06T07:26:40Z</time></trkpt><trkpt lat="43.40331094288506" lon="10.422259070860841"><ele>19.0</ele><time>2026-04-06T07:26:42Z</time></trkpt><trkpt lat="43.403227454639726" lon="10.422380444387414"><ele>19.0</ele><time>2026-04-06T07:26:44Z</time></trkpt><trkpt lat="43.403143147766464" lon="10.422498848352399"><ele>19.0</ele><time>2026-04-06T07:26:46Z</time></trkpt><trkpt lat="43.403056678639054" lon="10.422620101638897"><ele>19.0</ele><time>2026-04-06T07:26:48Z</time></trkpt><trkpt lat="43.403007670496635" lon="10.422678073872687"><ele>19.0</ele><time>2026-04-06T07:26:49Z</time></trkpt><trkpt lat="43.40296050251216" lon="10.42273809196862"><ele>19.0</ele><time>2026-04-06T07:26:50Z</time></trkpt><trkpt lat="43.40291454738773" lon="10.422800682289818"><ele>19.0</ele><time>2026-04-06T07:26:51Z</time></trkpt><trkpt lat="43.40286649432906" lon="10.422866452830574"><ele>19.0</ele><time>2026-04-06T07:26:52Z</time></trkpt><trkpt lat="43.402818986318216" lon="10.422930573433478"><ele>18.5</ele><time>2026-04-06T07:26:53Z</time></trkpt><trkpt lat="43.4027264664483" lon="10.4230584890233"><ele>18.0</ele><time>2026-04-06T07:26:55Z</time></trkpt><trkpt lat="43.40267691533108" lon="10.423118238359796"><ele>17.5</ele><time>2026-04-06T07:26:56Z</time></trkpt><trkpt lat="43.402624520045755" lon="10.423181834509158"><ele>17.0</ele><time>2026-04-06T07:26:57Z</time></trkpt><trkpt lat="43.402573376588904" lon="10.423242886424768"><ele>16.5</ele><time>2026-04-06T07:26:58Z</time></trkpt><trkpt lat="43.4025307012345" lon="10.423311543644664"><ele>16.0</ele><time>2026-04-06T07:26:59Z</time></trkpt><trkpt lat="43.402482709008225" lon="10.42338478961624"><ele>15.999999999999998</ele><time>2026-04-06T07:27:00Z</time></trkpt><trkpt lat="43.402424189308086" lon="10.42345977511001"><ele>16.0</ele><time>2026-04-06T07:27:01Z</time></trkpt><trkpt lat="43.40237149549538" lon="10.423529505722305"><ele>16.0</ele><time>2026-04-06T07:27:02Z</time></trkpt><trkpt lat="43.4023185117202" lon="10.423604258927963"><ele>16.0</ele><time>2026-04-06T07:27:03Z</time></trkpt><trkpt lat="43.40226489528354" lon="10.423680331314"><ele>15.999999999999998</ele><time>2026-04-06T07:27:04Z</time></trkpt><trkpt lat="43.4022069481127" lon="10.42375874911079"><ele>16.0</ele><time>2026-04-06T07:27:05Z</time></trkpt><trkpt lat="43.4021496840618" lon="10.42383590090695"><ele>15.666666666666666</ele><time>2026-04-06T07:27:06Z</time></trkpt><trkpt lat="43.40209215255951" lon="10.423911612317182"><ele>15.333333333333332</ele><time>2026-04-06T07:27:07Z</time></trkpt><trkpt lat="43.40202632601574" lon="10.423995153586747"><ele>15.0</ele><time>2026-04-06T07:27:08Z</time></trkpt><trkpt lat="43.4019657953862" lon="10.424074263795813"><ele>14.666666666666668</ele><time>2026-04-06T07:27:09Z</time></trkpt><trkpt lat="43.401899590296395" lon="10.424154323187802"><ele>14.333333333333334</ele><time>2026-04-06T07:27:10Z</time></trkpt><trkpt lat="43.401837470363255" lon="10.424229609654637"><ele>14.0</ele><time>2026-04-06T07:27:11Z</time></trkpt><trkpt lat="43.40178381323614" lon="10.42432638211738"><ele>14.000000000000002</ele><time>2026-04-06T07:27:12Z</time></trkpt><trkpt lat="43.40171845088933" lon="10.424407122230075"><ele>14.0</ele><time>2026-04-06T07:27:12.999Z</time></trkpt><trkpt lat="43.40165338721077" lon="10.42448559928164"><ele>14.0</ele><time>2026-04-06T07:27:13.999Z</time></trkpt><trkpt lat="43.40159209939326" lon="10.424564409374169"><ele>14.0</ele><time>2026-04-06T07:27:14.999Z</time></trkpt><trkpt lat="43.40152673503567" lon="10.424650248163756"><ele>14.000000000000002</ele><time>2026-04-06T07:27:15.999Z</time></trkpt><trkpt lat="43.401466484162114" lon="10.424730437602832"><ele>14.0</ele><time>2026-04-06T07:27:16.999Z</time></trkpt><trkpt lat="43.401401310360676" lon="10.424809432840432"><ele>13.333333333333334</ele><time>2026-04-06T07:27:17.999Z</time></trkpt><trkpt lat="43.401341224304446" lon="10.424892356302456"><ele>12.666666666666668</ele><time>2026-04-06T07:27:18.999Z</time></trkpt><trkpt lat="43.401279207825986" lon="10.42497422814499"><ele>12.0</ele><time>2026-04-06T07:27:19.999Z</time></trkpt><trkpt lat="43.40121662149057" lon="10.425055206747956"><ele>11.333333333333334</ele><time>2026-04-06T07:27:20.999Z</time></trkpt><trkpt lat="43.401160428230064" lon="10.425137614630945"><ele>10.666666666666668</ele><time>2026-04-06T07:27:21.999Z</time></trkpt><trkpt lat="43.401100766796155" lon="10.425216044200246"><ele>10.0</ele><time>2026-04-06T07:27:22.999Z</time></trkpt><trkpt lat="43.4010416048752" lon="10.425294664231766"><ele>10.0</ele><time>2026-04-06T07:27:23.999Z</time></trkpt><trkpt lat="43.40098432315639" lon="10.425376784806032"><ele>10.0</ele><time>2026-04-06T07:27:24.999Z</time></trkpt><trkpt lat="43.40092685174135" lon="10.42544989511643"><ele>10.0</ele><time>2026-04-06T07:27:26Z</time></trkpt><trkpt lat="43.40087440661023" lon="10.42551866034869"><ele>10.0</ele><time>2026-04-06T07:27:27Z</time></trkpt><trkpt lat="43.400818043720584" lon="10.425586891537758"><ele>10.0</ele><time>2026-04-06T07:27:28Z</time></trkpt><trkpt lat="43.40076674363109" lon="10.4256538969007"><ele>10.0</ele><time>2026-04-06T07:27:29Z</time></trkpt><trkpt lat="43.40071674915918" lon="10.425720924371648"><ele>10.0</ele><time>2026-04-06T07:27:30Z</time></trkpt><trkpt lat="43.40062594385534" lon="10.425852508084514"><ele>10.0</ele><time>2026-04-06T07:27:32Z</time></trkpt><trkpt lat="43.40057432512896" lon="10.425916699755444"><ele>10.0</ele><time>2026-04-06T07:27:33Z</time></trkpt><trkpt lat="43.40052273489337" lon="10.425977935778132"><ele>10.0</ele><time>2026-04-06T07:27:34Z</time></trkpt><trkpt lat="43.40047134669911" lon="10.42604337294615"><ele>10.0</ele><time>2026-04-06T07:27:35Z</time></trkpt><trkpt lat="43.400417198632475" lon="10.426104034941876"><ele>10.0</ele><time>2026-04-06T07:27:36Z</time></trkpt><trkpt lat="43.40036695208119" lon="10.426169677373636"><ele>10.0</ele><time>2026-04-06T07:27:37Z</time></trkpt><trkpt lat="43.40032253855104" lon="10.426237495021251"><ele>10.0</ele><time>2026-04-06T07:27:38Z</time></trkpt><trkpt lat="43.40027661890783" lon="10.42629825455392"><ele>9.857142857142858</ele><time>2026-04-06T07:27:39Z</time></trkpt><trkpt lat="43.40022934278653" lon="10.42636400466013"><ele>9.714285714285715</ele><time>2026-04-06T07:27:40Z</time></trkpt><trkpt lat="43.40018109347816" lon="10.426431084055329"><ele>9.571428571428573</ele><time>2026-04-06T07:27:41Z</time></trkpt><trkpt lat="43.400134631437396" lon="10.426494265608198"><ele>9.428571428571429</ele><time>2026-04-06T07:27:42Z</time></trkpt><trkpt lat="43.40008458893078" lon="10.426553553769876"><ele>9.285714285714286</ele><time>2026-04-06T07:27:43Z</time></trkpt><trkpt lat="43.40003585861908" lon="10.426618823911111"><ele>9.142857142857144</ele><time>2026-04-06T07:27:44Z</time></trkpt><trkpt lat="43.399986357186094" lon="10.42668538429535"><ele>9.0</ele><time>2026-04-06T07:27:45Z</time></trkpt><trkpt lat="43.39994032873104" lon="10.42674765050038"><ele>9.000000000000002</ele><time>2026-04-06T07:27:46Z</time></trkpt><trkpt lat="43.39989468520652" lon="10.42681321487602"><ele>9.0</ele><time>2026-04-06T07:27:47Z</time></trkpt><trkpt lat="43.399845726789025" lon="10.426874792968212"><ele>9.0</ele><time>2026-04-06T07:27:48Z</time></trkpt><trkpt lat="43.39979960563387" lon="10.426937709342857"><ele>9.0</ele><time>2026-04-06T07:27:49Z</time></trkpt><trkpt lat="43.399755169559235" lon="10.427001120549296"><ele>9.0</ele><time>2026-04-06T07:27:50Z</time></trkpt><trkpt lat="43.39970956924713" lon="10.427068735722717"><ele>9.000000000000002</ele><time>2026-04-06T07:27:51Z</time></trkpt><trkpt lat="43.39965886126698" lon="10.427128185739747"><ele>9.0</ele><time>2026-04-06T07:27:52Z</time></trkpt><trkpt lat="43.39961164206713" lon="10.427191193949964"><ele>8.857142857142858</ele><time>2026-04-06T07:27:53Z</time></trkpt><trkpt lat="43.39956242473588" lon="10.427253247350238"><ele>8.714285714285715</ele><time>2026-04-06T07:27:54Z</time></trkpt><trkpt lat="43.399512038619775" lon="10.427315286320274"><ele>8.571428571428571</ele><time>2026-04-06T07:27:55Z</time></trkpt><trkpt lat="43.399464732511404" lon="10.427380026716813"><ele>8.428571428571429</ele><time>2026-04-06T07:27:56Z</time></trkpt><trkpt lat="43.399417423399925" lon="10.427444902968903"><ele>8.285714285714285</ele><time>2026-04-06T07:27:57Z</time></trkpt><trkpt lat="43.39937147156559" lon="10.427510745013999"><ele>8.142857142857142</ele><time>2026-04-06T07:27:58Z</time></trkpt><trkpt lat="43.39932279469883" lon="10.427577500915595"><ele>8.0</ele><time>2026-04-06T07:27:59Z</time></trkpt><trkpt lat="43.39927211339913" lon="10.427639800356674"><ele>8.0</ele><time>2026-04-06T07:28:00Z</time></trkpt><trkpt lat="43.39921903204178" lon="10.42769684201884"><ele>7.999999999999999</ele><time>2026-04-06T07:28:01Z</time></trkpt><trkpt lat="43.39916867964595" lon="10.427761808163279"><ele>8.0</ele><time>2026-04-06T07:28:02Z</time></trkpt><trkpt lat="43.39912103150598" lon="10.427834905934166"><ele>8.0</ele><time>2026-04-06T07:28:03Z</time></trkpt><trkpt lat="43.39907095957369" lon="10.427902275454471"><ele>7.999999999999999</ele><time>2026-04-06T07:28:04Z</time></trkpt><trkpt lat="43.39902447940518" lon="10.427969116249523"><ele>8.0</ele><time>2026-04-06T07:28:05Z</time></trkpt><trkpt lat="43.39896945177994" lon="10.4280374491407"><ele>8.0</ele><time>2026-04-06T07:28:06Z</time></trkpt><trkpt lat="43.398913628296725" lon="10.428093985880096"><ele>7.857142857142857</ele><time>2026-04-06T07:28:07Z</time></trkpt><trkpt lat="43.398862165807664" lon="10.428157475903692"><ele>7.7142857142857135</ele><time>2026-04-06T07:28:08Z</time></trkpt><trkpt lat="43.39881229883603" lon="10.42822110300881"><ele>7.571428571428571</ele><time>2026-04-06T07:28:09Z</time></trkpt><trkpt lat="43.39876436278702" lon="10.428288699711317"><ele>7.428571428571429</ele><time>2026-04-06T07:28:10Z</time></trkpt><trkpt lat="43.398715315540045" lon="10.42835708017746"><ele>7.285714285714286</ele><time>2026-04-06T07:28:11Z</time></trkpt><trkpt lat="43.39866599572198" lon="10.42842592230215"><ele>7.142857142857142</ele><time>2026-04-06T07:28:12Z</time></trkpt><trkpt lat="43.398618202326126" lon="10.428491319124284"><ele>7.0</ele><time>2026-04-06T07:28:13Z</time></trkpt><trkpt lat="43.39856882597344" lon="10.428553067836488"><ele>6.833333333333334</ele><time>2026-04-06T07:28:14Z</time></trkpt><trkpt lat="43.39852067541664" lon="10.428617864591454"><ele>6.666666666666667</ele><time>2026-04-06T07:28:15Z</time></trkpt><trkpt lat="43.398473476939365" lon="10.42868495014991"><ele>6.5</ele><time>2026-04-06T07:28:16Z</time></trkpt><trkpt lat="43.398428849459215" lon="10.428750715100923"><ele>6.333333333333334</ele><time>2026-04-06T07:28:17Z</time></trkpt><trkpt lat="43.39838496952777" lon="10.428813355760415"><ele>6.166666666666667</ele><time>2026-04-06T07:28:18Z</time></trkpt><trkpt lat="43.39833971132974" lon="10.428875022221515"><ele>6.0</ele><time>2026-04-06T07:28:19Z</time></trkpt><trkpt lat="43.39824760092025" lon="10.428995989940159"><ele>6.666666666666667</ele><time>2026-04-06T07:28:21Z</time></trkpt><trkpt lat="43.39819928896823" lon="10.429055588150863"><ele>7.333333333333334</ele><time>2026-04-06T07:28:22Z</time></trkpt><trkpt lat="43.398150276296505" lon="10.429124224799494"><ele>8.0</ele><time>2026-04-06T07:28:23Z</time></trkpt><trkpt lat="43.39806656854752" lon="10.429231920325588"><ele>8.666666666666668</ele><time>2026-04-06T07:28:25Z</time></trkpt><trkpt lat="43.398017189513965" lon="10.429301176352675"><ele>9.333333333333334</ele><time>2026-04-06T07:28:26Z</time></trkpt><trkpt lat="43.39793118772238" lon="10.429418130778233"><ele>10.0</ele><time>2026-04-06T07:28:28Z</time></trkpt><trkpt lat="43.397844697872905" lon="10.429540417098725"><ele>10.0</ele><time>2026-04-06T07:28:30Z</time></trkpt><trkpt lat="43.397799047877534" lon="10.429601725145623"><ele>10.0</ele><time>2026-04-06T07:28:31Z</time></trkpt><trkpt lat="43.397694755021156" lon="10.429678108100331"><ele>10.0</ele><time>2026-04-06T07:28:33Z</time></trkpt><trkpt lat="43.397630155536014" lon="10.429675397360635"><ele>10.0</ele><time>2026-04-06T07:28:34Z</time></trkpt><trkpt lat="43.39757017919549" lon="10.429635942509195"><ele>10.0</ele><time>2026-04-06T07:28:35Z</time></trkpt><trkpt lat="43.397456087728145" lon="10.429575808685486"><ele>10.0</ele><time>2026-04-06T07:28:37Z</time></trkpt><trkpt lat="43.39733326547606" lon="10.429522919214168"><ele>10.0</ele><time>2026-04-06T07:28:39Z</time></trkpt><trkpt lat="43.397249867376686" lon="10.429404712184462"><ele>10.0</ele><time>2026-04-06T07:28:41Z</time></trkpt><trkpt lat="43.39719029305854" lon="10.429263185921831"><ele>10.0</ele><time>2026-04-06T07:28:43Z</time></trkpt><trkpt lat="43.39714262263278" lon="10.42912686571065"><ele>10.0</ele><time>2026-04-06T07:28:45Z</time></trkpt><trkpt lat="43.397102197525626" lon="10.42902463011111"><ele>10.0</ele><time>2026-04-06T07:28:47Z</time></trkpt><trkpt lat="43.39707380260329" lon="10.428946157663017"><ele>9.833333333333334</ele><time>2026-04-06T07:29:00Z</time></trkpt><trkpt lat="43.39702988204948" lon="10.428858480798626"><ele>9.666666666666668</ele><time>2026-04-06T07:29:03Z</time></trkpt><trkpt lat="43.39702503693353" lon="10.42877155005328"><ele>9.5</ele><time>2026-04-06T07:29:05Z</time></trkpt><trkpt lat="43.39705061880288" lon="10.428678833552137"><ele>9.333333333333334</ele><time>2026-04-06T07:29:07Z</time></trkpt><trkpt lat="43.39702251229323" lon="10.428572528878963"><ele>9.166666666666666</ele><time>2026-04-06T07:29:09Z</time></trkpt><trkpt lat="43.39692939415316" lon="10.42849927514012"><ele>9.0</ele><time>2026-04-06T07:29:11Z</time></trkpt><trkpt lat="43.39682279413407" lon="10.428535134313503"><ele>9.0</ele><time>2026-04-06T07:29:13Z</time></trkpt><trkpt lat="43.396758943876016" lon="10.42866181564481"><ele>9.0</ele><time>2026-04-06T07:29:15Z</time></trkpt><trkpt lat="43.396760970891506" lon="10.428796625945793"><ele>9.0</ele><time>2026-04-06T07:29:17Z</time></trkpt><trkpt lat="43.39665035818293" lon="10.42883279152739"><ele>9.0</ele><time>2026-04-06T07:29:18Z</time></trkpt><trkpt lat="43.39654487234674" lon="10.428881058043013"><ele>9.0</ele><time>2026-04-06T07:29:20Z</time></trkpt><trkpt lat="43.39644646549622" lon="10.428936097041458"><ele>9.0</ele><time>2026-04-06T07:29:22Z</time></trkpt><trkpt lat="43.39634657848589" lon="10.428994682048604"><ele>9.0</ele><time>2026-04-06T07:29:24Z</time></trkpt><trkpt lat="43.39624115272964" lon="10.429038945693542"><ele>9.0</ele><time>2026-04-06T07:29:26Z</time></trkpt><trkpt lat="43.396116130683254" lon="10.429053774106377"><ele>9.0</ele><time>2026-04-06T07:29:28Z</time></trkpt><trkpt lat="43.39600296624719" lon="10.42901168157452"><ele>8.833333333333334</ele><time>2026-04-06T07:29:30Z</time></trkpt><trkpt lat="43.39588403584486" lon="10.428997215134222"><ele>8.666666666666666</ele><time>2026-04-06T07:29:32Z</time></trkpt><trkpt lat="43.39582215639282" lon="10.429028759861136"><ele>8.5</ele><time>2026-04-06T07:29:33Z</time></trkpt><trkpt lat="43.395775789096646" lon="10.4290946466174"><ele>8.333333333333332</ele><time>2026-04-06T07:29:34Z</time></trkpt><trkpt lat="43.39572392501974" lon="10.429144931877056"><ele>8.166666666666666</ele><time>2026-04-06T07:29:35Z</time></trkpt><trkpt lat="43.395637149364305" lon="10.429116992844088"><ele>8.0</ele><time>2026-04-06T07:29:36Z</time></trkpt><trkpt lat="43.39556825573017" lon="10.429098024865068"><ele>7.857142857142857</ele><time>2026-04-06T07:29:37Z</time></trkpt><trkpt lat="43.39549859728035" lon="10.429076627026001"><ele>7.7142857142857135</ele><time>2026-04-06T07:29:38Z</time></trkpt><trkpt lat="43.39543575188731" lon="10.429066066813604"><ele>7.571428571428571</ele><time>2026-04-06T07:29:39Z</time></trkpt><trkpt lat="43.395362356246224" lon="10.429073656042767"><ele>7.428571428571429</ele><time>2026-04-06T07:29:40Z</time></trkpt><trkpt lat="43.39529123921421" lon="10.429075492948265"><ele>7.285714285714286</ele><time>2026-04-06T07:29:41Z</time></trkpt><trkpt lat="43.3952256155532" lon="10.429084660526765"><ele>7.142857142857142</ele><time>2026-04-06T07:29:42Z</time></trkpt><trkpt lat="43.39516133124617" lon="10.42910825723915"><ele>7.0</ele><time>2026-04-06T07:29:43Z</time></trkpt><trkpt lat="43.395098726326914" lon="10.429150167898866"><ele>7.0</ele><time>2026-04-06T07:29:44Z</time></trkpt><trkpt lat="43.39504293122047" lon="10.429195198817816"><ele>7.0</ele><time>2026-04-06T07:29:45Z</time></trkpt><trkpt lat="43.394983106672" lon="10.429241460787733"><ele>7.0</ele><time>2026-04-06T07:29:46Z</time></trkpt><trkpt lat="43.39492449114427" lon="10.429286927748448"><ele>7.0</ele><time>2026-04-06T07:29:47Z</time></trkpt><trkpt lat="43.39486252481503" lon="10.429327973671324"><ele>7.0</ele><time>2026-04-06T07:29:48Z</time></trkpt><trkpt lat="43.39479587271529" lon="10.429362113158618"><ele>7.0</ele><time>2026-04-06T07:29:49Z</time></trkpt><trkpt lat="43.39473012334577" lon="10.429390600138946"><ele>7.0</ele><time>2026-04-06T07:29:50Z</time></trkpt><trkpt lat="43.39466182026801" lon="10.429393656319512"><ele>7.142857142857142</ele><time>2026-04-06T07:29:51Z</time></trkpt><trkpt lat="43.3945906538578" lon="10.429379665534968"><ele>7.285714285714286</ele><time>2026-04-06T07:29:52Z</time></trkpt><trkpt lat="43.394532271890945" lon="10.429413355875523"><ele>7.428571428571429</ele><time>2026-04-06T07:29:53Z</time></trkpt><trkpt lat="43.394483750615414" lon="10.429489171664724"><ele>7.571428571428571</ele><time>2026-04-06T07:29:54Z</time></trkpt><trkpt lat="43.394457688597946" lon="10.429586208949571"><ele>7.7142857142857135</ele><time>2026-04-06T07:29:55Z</time></trkpt><trkpt lat="43.39442236486608" lon="10.42966618039677"><ele>7.857142857142857</ele><time>2026-04-06T07:29:56Z</time></trkpt><trkpt lat="43.39437038033627" lon="10.429726730351772"><ele>8.0</ele><time>2026-04-06T07:29:57Z</time></trkpt><trkpt lat="43.39430768998058" lon="10.429776401910916"><ele>8.0</ele><time>2026-04-06T07:29:58Z</time></trkpt><trkpt lat="43.39424742844523" lon="10.42982145666732"><ele>7.999999999999999</ele><time>2026-04-06T07:29:59Z</time></trkpt><trkpt lat="43.39418639956288" lon="10.429870296356535"><ele>8.0</ele><time>2026-04-06T07:30:00Z</time></trkpt><trkpt lat="43.394127156277925" lon="10.429916396618996"><ele>8.0</ele><time>2026-04-06T07:30:01Z</time></trkpt><trkpt lat="43.39406293131042" lon="10.429963925411354"><ele>7.999999999999999</ele><time>2026-04-06T07:30:02Z</time></trkpt><trkpt lat="43.39400173695295" lon="10.430014374714041"><ele>8.0</ele><time>2026-04-06T07:30:03Z</time></trkpt><trkpt lat="43.393943324994744" lon="10.430064905865024"><ele>8.0</ele><time>2026-04-06T07:30:04Z</time></trkpt><trkpt lat="43.39388359827127" lon="10.430112015916311"><ele>8.285714285714285</ele><time>2026-04-06T07:30:05Z</time></trkpt><trkpt lat="43.393823746221294" lon="10.430158634459216"><ele>8.571428571428571</ele><time>2026-04-06T07:30:06Z</time></trkpt><trkpt lat="43.393764224483505" lon="10.43020336034711"><ele>8.857142857142858</ele><time>2026-04-06T07:30:07Z</time></trkpt><trkpt lat="43.393698893434646" lon="10.430243802024746"><ele>9.142857142857142</ele><time>2026-04-06T07:30:08Z</time></trkpt><trkpt lat="43.3936397235055" lon="10.43028868906616"><ele>9.428571428571429</ele><time>2026-04-06T07:30:09Z</time></trkpt><trkpt lat="43.39357855220541" lon="10.43033262428574"><ele>9.714285714285714</ele><time>2026-04-06T07:30:10Z</time></trkpt><trkpt lat="43.39352008076972" lon="10.430378715067812"><ele>10.0</ele><time>2026-04-06T07:30:11Z</time></trkpt><trkpt lat="43.393464278138765" lon="10.430429272139333"><ele>10.0</ele><time>2026-04-06T07:30:12Z</time></trkpt><trkpt lat="43.393408793895155" lon="10.4304800934276"><ele>10.0</ele><time>2026-04-06T07:30:13Z</time></trkpt><trkpt lat="43.39335084685471" lon="10.430526450454792"><ele>10.0</ele><time>2026-04-06T07:30:14Z</time></trkpt><trkpt lat="43.39329297401844" lon="10.430571211870708"><ele>10.0</ele><time>2026-04-06T07:30:15Z</time></trkpt><trkpt lat="43.39323206248813" lon="10.430615792311436"><ele>10.0</ele><time>2026-04-06T07:30:16Z</time></trkpt><trkpt lat="43.39317613934947" lon="10.430661576526806"><ele>10.0</ele><time>2026-04-06T07:30:17Z</time></trkpt><trkpt lat="43.3931205219021" lon="10.430704831990449"><ele>10.0</ele><time>2026-04-06T07:30:18Z</time></trkpt><trkpt lat="43.39306329013607" lon="10.430754895229688"><ele>10.0</ele><time>2026-04-06T07:30:19Z</time></trkpt><trkpt lat="43.39300450250333" lon="10.430803674776088"><ele>10.0</ele><time>2026-04-06T07:30:20Z</time></trkpt><trkpt lat="43.39294989263555" lon="10.43084758472511"><ele>10.0</ele><time>2026-04-06T07:30:21Z</time></trkpt><trkpt lat="43.39289396075162" lon="10.430890807559972"><ele>10.0</ele><time>2026-04-06T07:30:22Z</time></trkpt><trkpt lat="43.39283910467061" lon="10.430935474068416"><ele>10.0</ele><time>2026-04-06T07:30:23Z</time></trkpt><trkpt lat="43.39273372837829" lon="10.431023089853484"><ele>10.0</ele><time>2026-04-06T07:30:25Z</time></trkpt><trkpt lat="43.39262665223696" lon="10.431113143738337"><ele>10.0</ele><time>2026-04-06T07:30:27Z</time></trkpt><trkpt lat="43.39256590859518" lon="10.431153275732191"><ele>10.0</ele><time>2026-04-06T07:30:28Z</time></trkpt><trkpt lat="43.392506168714725" lon="10.431199088785338"><ele>10.0</ele><time>2026-04-06T07:30:29Z</time></trkpt><trkpt lat="43.39245295714741" lon="10.431247882692102"><ele>10.0</ele><time>2026-04-06T07:30:30Z</time></trkpt><trkpt lat="43.3923418270207" lon="10.431334111861258"><ele>10.0</ele><time>2026-04-06T07:30:32Z</time></trkpt><trkpt lat="43.39228423278343" lon="10.431379577918864"><ele>10.0</ele><time>2026-04-06T07:30:33Z</time></trkpt><trkpt lat="43.392225668066864" lon="10.431423368755963"><ele>10.0</ele><time>2026-04-06T07:30:34Z</time></trkpt><trkpt lat="43.39216838347983" lon="10.431472468292764"><ele>10.0</ele><time>2026-04-06T07:30:35Z</time></trkpt><trkpt lat="43.39211178408164" lon="10.43151950773458"><ele>10.0</ele><time>2026-04-06T07:30:36Z</time></trkpt><trkpt lat="43.392057552335274" lon="10.431570943248161"><ele>10.0</ele><time>2026-04-06T07:30:37Z</time></trkpt><trkpt lat="43.392000892273934" lon="10.431622491063823"><ele>10.0</ele><time>2026-04-06T07:30:38Z</time></trkpt><trkpt lat="43.39194139772604" lon="10.431670142106709"><ele>10.0</ele><time>2026-04-06T07:30:39Z</time></trkpt><trkpt lat="43.3918809695259" lon="10.4317107498995"><ele>10.0</ele><time>2026-04-06T07:30:40Z</time></trkpt><trkpt lat="43.39181908086653" lon="10.431758176790797"><ele>10.0</ele><time>2026-04-06T07:30:41Z</time></trkpt><trkpt lat="43.39175389833228" lon="10.431804576073082"><ele>10.0</ele><time>2026-04-06T07:30:42Z</time></trkpt><trkpt lat="43.39169672518185" lon="10.431846750572408"><ele>10.0</ele><time>2026-04-06T07:30:43Z</time></trkpt><trkpt lat="43.39163748985484" lon="10.431895927867195"><ele>10.0</ele><time>2026-04-06T07:30:44Z</time></trkpt><trkpt lat="43.391577250456166" lon="10.431946347044033"><ele>10.0</ele><time>2026-04-06T07:30:45Z</time></trkpt><trkpt lat="43.39152344809395" lon="10.43199356995462"><ele>10.0</ele><time>2026-04-06T07:30:46Z</time></trkpt><trkpt lat="43.391465801" lon="10.43203955900388"><ele>10.0</ele><time>2026-04-06T07:30:47Z</time></trkpt><trkpt lat="43.3914059481222" lon="10.432086349735659"><ele>10.0</ele><time>2026-04-06T07:30:48Z</time></trkpt><trkpt lat="43.39135221965083" lon="10.43213451057181"><ele>10.0</ele><time>2026-04-06T07:30:49Z</time></trkpt><trkpt lat="43.39129802146415" lon="10.432186248199248"><ele>10.0</ele><time>2026-04-06T07:30:50Z</time></trkpt><trkpt lat="43.39123818047474" lon="10.432230976239984"><ele>10.0</ele><time>2026-04-06T07:30:51Z</time></trkpt><trkpt lat="43.39117978433196" lon="10.432276529675178"><ele>10.0</ele><time>2026-04-06T07:30:52Z</time></trkpt><trkpt lat="43.39112215226527" lon="10.432322476621566"><ele>10.0</ele><time>2026-04-06T07:30:53Z</time></trkpt><trkpt lat="43.39106145180556" lon="10.432367487293853"><ele>10.0</ele><time>2026-04-06T07:30:54Z</time></trkpt><trkpt lat="43.39100269734679" lon="10.432414312014146"><ele>10.0</ele><time>2026-04-06T07:30:55Z</time></trkpt><trkpt lat="43.39094568961851" lon="10.43246099214464"><ele>10.0</ele><time>2026-04-06T07:30:56Z</time></trkpt><trkpt lat="43.390884075424324" lon="10.432504998910757"><ele>10.0</ele><time>2026-04-06T07:30:57Z</time></trkpt><trkpt lat="43.390823160779355" lon="10.43255565551993"><ele>10.0</ele><time>2026-04-06T07:30:58Z</time></trkpt><trkpt lat="43.39076529300088" lon="10.432599952049312"><ele>10.0</ele><time>2026-04-06T07:30:59Z</time></trkpt><trkpt lat="43.39070696275329" lon="10.432644033648154"><ele>10.0</ele><time>2026-04-06T07:31:00Z</time></trkpt><trkpt lat="43.39064231568833" lon="10.432685867839421"><ele>10.0</ele><time>2026-04-06T07:31:01Z</time></trkpt><trkpt lat="43.39058105574948" lon="10.432732723874997"><ele>10.0</ele><time>2026-04-06T07:31:02Z</time></trkpt><trkpt lat="43.390523341638385" lon="10.43278167741582"><ele>10.0</ele><time>2026-04-06T07:31:03Z</time></trkpt><trkpt lat="43.39046255461998" lon="10.432828655908489"><ele>10.0</ele><time>2026-04-06T07:31:04Z</time></trkpt><trkpt lat="43.390409145875545" lon="10.432881149503041"><ele>10.0</ele><time>2026-04-06T07:31:05Z</time></trkpt><trkpt lat="43.390348530335565" lon="10.432927614594368"><ele>10.0</ele><time>2026-04-06T07:31:06Z</time></trkpt><trkpt lat="43.390287068248455" lon="10.432970699355659"><ele>10.0</ele><time>2026-04-06T07:31:07Z</time></trkpt><trkpt lat="43.39022783974737" lon="10.433014420946746"><ele>10.0</ele><time>2026-04-06T07:31:08Z</time></trkpt><trkpt lat="43.39016674414287" lon="10.433051491930462"><ele>10.0</ele><time>2026-04-06T07:31:09Z</time></trkpt><trkpt lat="43.390104782315674" lon="10.43308677556143"><ele>10.0</ele><time>2026-04-06T07:31:10Z</time></trkpt><trkpt lat="43.39004116667171" lon="10.433126449957031"><ele>10.0</ele><time>2026-04-06T07:31:11Z</time></trkpt><trkpt lat="43.38998132497203" lon="10.433171148587231"><ele>10.0</ele><time>2026-04-06T07:31:12Z</time></trkpt><trkpt lat="43.38992479479086" lon="10.433216915192299"><ele>10.0</ele><time>2026-04-06T07:31:13Z</time></trkpt><trkpt lat="43.389865467431065" lon="10.43327030639041"><ele>10.0</ele><time>2026-04-06T07:31:14Z</time></trkpt><trkpt lat="43.38980488968091" lon="10.433319787983278"><ele>10.0</ele><time>2026-04-06T07:31:15Z</time></trkpt><trkpt lat="43.38974775864303" lon="10.433362619276052"><ele>10.0</ele><time>2026-04-06T07:31:16Z</time></trkpt><trkpt lat="43.389681015376" lon="10.433398623649888"><ele>10.0</ele><time>2026-04-06T07:31:17Z</time></trkpt><trkpt lat="43.38961822821447" lon="10.433454035450758"><ele>10.0</ele><time>2026-04-06T07:31:18Z</time></trkpt><trkpt lat="43.38955919732469" lon="10.433502192464593"><ele>10.0</ele><time>2026-04-06T07:31:19Z</time></trkpt><trkpt lat="43.38950354011315" lon="10.433552838028485"><ele>10.0</ele><time>2026-04-06T07:31:20Z</time></trkpt><trkpt lat="43.389440811826674" lon="10.433605572140506"><ele>10.0</ele><time>2026-04-06T07:31:21Z</time></trkpt><trkpt lat="43.38937906573636" lon="10.433655791410935"><ele>10.0</ele><time>2026-04-06T07:31:22Z</time></trkpt><trkpt lat="43.38931329747683" lon="10.433708153228311"><ele>10.0</ele><time>2026-04-06T07:31:23Z</time></trkpt><trkpt lat="43.389258397757274" lon="10.433758829031511"><ele>10.0</ele><time>2026-04-06T07:31:24Z</time></trkpt><trkpt lat="43.389200700614495" lon="10.433805435665908"><ele>10.0</ele><time>2026-04-06T07:31:25Z</time></trkpt><trkpt lat="43.389147877022495" lon="10.433860799120023"><ele>10.0</ele><time>2026-04-06T07:31:26Z</time></trkpt><trkpt lat="43.389075719125195" lon="10.433905552792343"><ele>10.0</ele><time>2026-04-06T07:31:27Z</time></trkpt><trkpt lat="43.38900956695086" lon="10.433950594003862"><ele>10.0</ele><time>2026-04-06T07:31:28Z</time></trkpt><trkpt lat="43.38894553530099" lon="10.434004206790734"><ele>10.0</ele><time>2026-04-06T07:31:29Z</time></trkpt><trkpt lat="43.38888640255182" lon="10.434053624479123"><ele>9.571428571428571</ele><time>2026-04-06T07:31:30Z</time></trkpt><trkpt lat="43.388828504558404" lon="10.434091277467177"><ele>9.142857142857142</ele><time>2026-04-06T07:31:31Z</time></trkpt><trkpt lat="43.38876571166978" lon="10.434139983952008"><ele>8.714285714285715</ele><time>2026-04-06T07:31:32Z</time></trkpt><trkpt lat="43.38870704344394" lon="10.434185109480701"><ele>8.285714285714285</ele><time>2026-04-06T07:31:33Z</time></trkpt><trkpt lat="43.388646636301594" lon="10.43422829837614"><ele>7.857142857142858</ele><time>2026-04-06T07:31:34Z</time></trkpt><trkpt lat="43.38858284789359" lon="10.43427871633302"><ele>7.428571428571429</ele><time>2026-04-06T07:31:35Z</time></trkpt><trkpt lat="43.38852290128906" lon="10.434325859264533"><ele>7.0</ele><time>2026-04-06T07:31:36Z</time></trkpt><trkpt lat="43.388459115334406" lon="10.434370677081755"><ele>7.0</ele><time>2026-04-06T07:31:36.999Z</time></trkpt><trkpt lat="43.3883929739755" lon="10.434415161187992"><ele>7.0</ele><time>2026-04-06T07:31:38Z</time></trkpt><trkpt lat="43.38832837084694" lon="10.434448713373184"><ele>7.0</ele><time>2026-04-06T07:31:39Z</time></trkpt><trkpt lat="43.38826864748976" lon="10.434494266370937"><ele>7.0</ele><time>2026-04-06T07:31:40Z</time></trkpt><trkpt lat="43.38819282097773" lon="10.434486235624712"><ele>7.0</ele><time>2026-04-06T07:31:41Z</time></trkpt><trkpt lat="43.38812823943042" lon="10.434508372899598"><ele>7.0</ele><time>2026-04-06T07:31:42Z</time></trkpt><trkpt lat="43.388061088426404" lon="10.434533973306415"><ele>7.0</ele><time>2026-04-06T07:31:43Z</time></trkpt><trkpt lat="43.38799921800957" lon="10.434565745912805"><ele>6.571428571428571</ele><time>2026-04-06T07:31:44Z</time></trkpt><trkpt lat="43.387935791171124" lon="10.434607379809222"><ele>6.142857142857142</ele><time>2026-04-06T07:31:45Z</time></trkpt><trkpt lat="43.38787716457466" lon="10.434651739154562"><ele>5.714285714285714</ele><time>2026-04-06T07:31:46Z</time></trkpt><trkpt lat="43.38782045400682" lon="10.434703205303483"><ele>5.285714285714286</ele><time>2026-04-06T07:31:47Z</time></trkpt><trkpt lat="43.38775780647656" lon="10.4347562764849"><ele>4.857142857142857</ele><time>2026-04-06T07:31:48Z</time></trkpt><trkpt lat="43.3877046532261" lon="10.434805301393494"><ele>4.428571428571429</ele><time>2026-04-06T07:31:49Z</time></trkpt><trkpt lat="43.387646561292414" lon="10.434860563514382"><ele>4.0</ele><time>2026-04-06T07:31:50Z</time></trkpt><trkpt lat="43.38758790137385" lon="10.434901258791779"><ele>5.166666666666666</ele><time>2026-04-06T07:31:51Z</time></trkpt><trkpt lat="43.387531612430195" lon="10.434941939833655"><ele>6.333333333333333</ele><time>2026-04-06T07:31:52Z</time></trkpt><trkpt lat="43.387472044122" lon="10.434986817637483"><ele>7.5</ele><time>2026-04-06T07:31:53Z</time></trkpt><trkpt lat="43.38740508123137" lon="10.435036981002693"><ele>8.666666666666666</ele><time>2026-04-06T07:31:54Z</time></trkpt><trkpt lat="43.3873460097111" lon="10.435081842017127"><ele>9.833333333333332</ele><time>2026-04-06T07:31:55Z</time></trkpt><trkpt lat="43.3872903282041" lon="10.435127224362093"><ele>11.0</ele><time>2026-04-06T07:31:56Z</time></trkpt><trkpt lat="43.38718294983409" lon="10.435213352838241"><ele>10.857142857142858</ele><time>2026-04-06T07:31:58Z</time></trkpt><trkpt lat="43.38712959550717" lon="10.435268897771117"><ele>10.714285714285714</ele><time>2026-04-06T07:31:59Z</time></trkpt><trkpt lat="43.387072210976285" lon="10.435317840208638"><ele>10.571428571428571</ele><time>2026-04-06T07:32:00Z</time></trkpt><trkpt lat="43.3870193733313" lon="10.43536686721052"><ele>10.428571428571429</ele><time>2026-04-06T07:32:01Z</time></trkpt><trkpt lat="43.38695828760586" lon="10.435418421177113"><ele>10.285714285714286</ele><time>2026-04-06T07:32:02Z</time></trkpt><trkpt lat="43.38689771122744" lon="10.435467059475434"><ele>10.142857142857142</ele><time>2026-04-06T07:32:03Z</time></trkpt><trkpt lat="43.38683729785473" lon="10.43551708095676"><ele>10.0</ele><time>2026-04-06T07:32:04Z</time></trkpt><trkpt lat="43.386779325198624" lon="10.435560037472053"><ele>10.0</ele><time>2026-04-06T07:32:05Z</time></trkpt><trkpt lat="43.38672591345583" lon="10.435607930442046"><ele>10.0</ele><time>2026-04-06T07:32:06Z</time></trkpt><trkpt lat="43.386664020182785" lon="10.435659323302467"><ele>10.0</ele><time>2026-04-06T07:32:07Z</time></trkpt><trkpt lat="43.38660405672734" lon="10.435713140947115"><ele>10.0</ele><time>2026-04-06T07:32:08Z</time></trkpt><trkpt lat="43.38654220226432" lon="10.435754311056709"><ele>10.0</ele><time>2026-04-06T07:32:09Z</time></trkpt><trkpt lat="43.38647522975926" lon="10.435790842004607"><ele>10.0</ele><time>2026-04-06T07:32:10Z</time></trkpt><trkpt lat="43.386405748577836" lon="10.43579740087072"><ele>10.0</ele><time>2026-04-06T07:32:11Z</time></trkpt><trkpt lat="43.38634121442248" lon="10.435833017946191"><ele>9.5</ele><time>2026-04-06T07:32:12Z</time></trkpt><trkpt lat="43.38623489590906" lon="10.435944631311354"><ele>9.0</ele><time>2026-04-06T07:32:14Z</time></trkpt><trkpt lat="43.386184900819906" lon="10.43601288423792"><ele>8.5</ele><time>2026-04-06T07:32:15Z</time></trkpt><trkpt lat="43.386132093934805" lon="10.436061570832614"><ele>8.0</ele><time>2026-04-06T07:32:16Z</time></trkpt><trkpt lat="43.38607174094634" lon="10.436100720884642"><ele>7.500000000000001</ele><time>2026-04-06T07:32:17Z</time></trkpt><trkpt lat="43.38601171669332" lon="10.436152599770365"><ele>7.0</ele><time>2026-04-06T07:32:18Z</time></trkpt><trkpt lat="43.38595004705156" lon="10.436199626691478"><ele>7.0</ele><time>2026-04-06T07:32:19Z</time></trkpt><trkpt lat="43.385887746439295" lon="10.436242106716659"><ele>7.0</ele><time>2026-04-06T07:32:20Z</time></trkpt><trkpt lat="43.38582764911582" lon="10.43628528586199"><ele>7.0</ele><time>2026-04-06T07:32:21Z</time></trkpt><trkpt lat="43.3857681213546" lon="10.436337435030845"><ele>7.0</ele><time>2026-04-06T07:32:22Z</time></trkpt><trkpt lat="43.38570971895473" lon="10.436378210594205"><ele>7.0</ele><time>2026-04-06T07:32:23Z</time></trkpt><trkpt lat="43.38564819365713" lon="10.43642158045899"><ele>7.0</ele><time>2026-04-06T07:32:24Z</time></trkpt><trkpt lat="43.38558971847793" lon="10.436467977937097"><ele>7.0</ele><time>2026-04-06T07:32:25Z</time></trkpt><trkpt lat="43.385531110737446" lon="10.43651295767089"><ele>6.833333333333334</ele><time>2026-04-06T07:32:26Z</time></trkpt><trkpt lat="43.385414379517925" lon="10.436602009562483"><ele>6.666666666666667</ele><time>2026-04-06T07:32:28Z</time></trkpt><trkpt lat="43.38535437214161" lon="10.436644061412244"><ele>6.5</ele><time>2026-04-06T07:32:29Z</time></trkpt><trkpt lat="43.38529349677719" lon="10.436696069437044"><ele>6.333333333333334</ele><time>2026-04-06T07:32:30Z</time></trkpt><trkpt lat="43.385237585857794" lon="10.436744180985322"><ele>6.166666666666667</ele><time>2026-04-06T07:32:31Z</time></trkpt><trkpt lat="43.38517958446682" lon="10.436789415432106"><ele>6.0</ele><time>2026-04-06T07:32:32Z</time></trkpt><trkpt lat="43.385121627173746" lon="10.436835585541425"><ele>5.999999999999999</ele><time>2026-04-06T07:32:33Z</time></trkpt><trkpt lat="43.38506169740222" lon="10.436884306619087"><ele>6.0</ele><time>2026-04-06T07:32:34Z</time></trkpt><trkpt lat="43.38500237643816" lon="10.436929814776958"><ele>6.0</ele><time>2026-04-06T07:32:35Z</time></trkpt><trkpt lat="43.38494385849118" lon="10.436974468892943"><ele>6.0</ele><time>2026-04-06T07:32:36Z</time></trkpt><trkpt lat="43.384885792039604" lon="10.437020637732342"><ele>6.0</ele><time>2026-04-06T07:32:37Z</time></trkpt><trkpt lat="43.384827173353884" lon="10.437069125289938"><ele>5.999999999999999</ele><time>2026-04-06T07:32:38Z</time></trkpt><trkpt lat="43.384769234079286" lon="10.437117030406727"><ele>6.0</ele><time>2026-04-06T07:32:39Z</time></trkpt><trkpt lat="43.384712255572204" lon="10.437163291484516"><ele>5.8</ele><time>2026-04-06T07:32:40Z</time></trkpt><trkpt lat="43.38465546949991" lon="10.437210994861182"><ele>5.6</ele><time>2026-04-06T07:32:41Z</time></trkpt><trkpt lat="43.384596816644134" lon="10.437256822861578"><ele>5.4</ele><time>2026-04-06T07:32:42Z</time></trkpt><trkpt lat="43.38454016465222" lon="10.437304345312986"><ele>5.2</ele><time>2026-04-06T07:32:43Z</time></trkpt><trkpt lat="43.384431504974934" lon="10.437394525426607"><ele>5.0</ele><time>2026-04-06T07:32:45Z</time></trkpt><trkpt lat="43.384311813415295" lon="10.437461879941157"><ele>5.0</ele><time>2026-04-06T07:32:47Z</time></trkpt><trkpt lat="43.384258026599326" lon="10.437518778037205"><ele>5.0</ele><time>2026-04-06T07:32:48Z</time></trkpt><trkpt lat="43.38426650993922" lon="10.437666986231635"><ele>5.0</ele><time>2026-04-06T07:32:50Z</time></trkpt><trkpt lat="43.38436597083183" lon="10.437758096608112"><ele>5.0</ele><time>2026-04-06T07:32:52Z</time></trkpt><trkpt lat="43.384421819747686" lon="10.437906558190173"><ele>5.0</ele><time>2026-04-06T07:32:54Z</time></trkpt><trkpt lat="43.384481800046665" lon="10.438054119804288"><ele>5.0</ele><time>2026-04-06T07:32:56Z</time></trkpt><trkpt lat="43.384550135674296" lon="10.4382001105731"><ele>5.0</ele><time>2026-04-06T07:32:58Z</time></trkpt><trkpt lat="43.38458226143257" lon="10.43827757806832"><ele>5.0</ele><time>2026-04-06T07:32:59Z</time></trkpt><trkpt lat="43.384638316088335" lon="10.438429164971511"><ele>5.0</ele><time>2026-04-06T07:33:01Z</time></trkpt><trkpt lat="43.38470165309442" lon="10.438576229364388"><ele>5.0</ele><time>2026-04-06T07:33:03Z</time></trkpt><trkpt lat="43.38473077647169" lon="10.438653588080891"><ele>5.6</ele><time>2026-04-06T07:33:04Z</time></trkpt><trkpt lat="43.384783269109256" lon="10.438807888256479"><ele>6.2</ele><time>2026-04-06T07:33:06Z</time></trkpt><trkpt lat="43.38484041582626" lon="10.438858171970104"><ele>6.800000000000001</ele><time>2026-04-06T07:33:07Z</time></trkpt><trkpt lat="43.384872497960615" lon="10.438932924095525"><ele>7.4</ele><time>2026-04-06T07:33:08Z</time></trkpt><trkpt lat="43.384932910341654" lon="10.439074866961667"><ele>8.0</ele><time>2026-04-06T07:33:10Z</time></trkpt><trkpt lat="43.384993455490935" lon="10.439219293131492"><ele>8.0</ele><time>2026-04-06T07:33:12Z</time></trkpt><trkpt lat="43.385054159810565" lon="10.439364099019098"><ele>8.0</ele><time>2026-04-06T07:33:14Z</time></trkpt><trkpt lat="43.38510711145731" lon="10.43951568697297"><ele>8.0</ele><time>2026-04-06T07:33:16Z</time></trkpt><trkpt lat="43.38516203351583" lon="10.439654738640385"><ele>8.0</ele><time>2026-04-06T07:33:18Z</time></trkpt><trkpt lat="43.385217349912686" lon="10.439760105630064"><ele>8.666666666666666</ele><time>2026-04-06T07:33:20Z</time></trkpt><trkpt lat="43.38500758445674" lon="10.439955452446572"><ele>9.333333333333334</ele><time>2026-04-06T07:33:28.999Z</time></trkpt><trkpt lat="43.384921431197746" lon="10.440017296783537"><ele>10.0</ele><time>2026-04-06T07:33:30.999Z</time></trkpt><trkpt lat="43.38483166759314" lon="10.44009260637532"><ele>10.0</ele><time>2026-04-06T07:33:32.999Z</time></trkpt><trkpt lat="43.38474521094403" lon="10.440173856805773"><ele>10.0</ele><time>2026-04-06T07:33:34.999Z</time></trkpt><trkpt lat="43.38464669358297" lon="10.440247337408174"><ele>10.0</ele><time>2026-04-06T07:33:36.999Z</time></trkpt><trkpt lat="43.38454647429019" lon="10.440316639321969"><ele>10.0</ele><time>2026-04-06T07:33:38.999Z</time></trkpt><trkpt lat="43.38444751310584" lon="10.440396687498161"><ele>10.0</ele><time>2026-04-06T07:33:40.999Z</time></trkpt><trkpt lat="43.38434799911898" lon="10.440471766747669"><ele>10.0</ele><time>2026-04-06T07:33:42.999Z</time></trkpt><trkpt lat="43.384249133779896" lon="10.440558029791372"><ele>10.0</ele><time>2026-04-06T07:33:45Z</time></trkpt><trkpt lat="43.384145054657296" lon="10.440642827922131"><ele>10.0</ele><time>2026-04-06T07:33:47Z</time></trkpt><trkpt lat="43.38403734195158" lon="10.440725599163562"><ele>10.0</ele><time>2026-04-06T07:33:49Z</time></trkpt><trkpt lat="43.38393487091946" lon="10.440811717338919"><ele>9.6</ele><time>2026-04-06T07:33:51Z</time></trkpt><trkpt lat="43.383832324070106" lon="10.440889320043885"><ele>9.2</ele><time>2026-04-06T07:33:53Z</time></trkpt><trkpt lat="43.38374046191567" lon="10.440977560651035"><ele>8.8</ele><time>2026-04-06T07:33:55Z</time></trkpt><trkpt lat="43.38364012084793" lon="10.441053593669624"><ele>8.4</ele><time>2026-04-06T07:33:57Z</time></trkpt><trkpt lat="43.383553685523474" lon="10.441117005214632"><ele>8.0</ele><time>2026-04-06T07:33:59Z</time></trkpt><trkpt lat="43.38348728787005" lon="10.441169772463516"><ele>7.999999999999999</ele><time>2026-04-06T07:34:01Z</time></trkpt><trkpt lat="43.38343025583387" lon="10.44123405865241"><ele>8.0</ele><time>2026-04-06T07:34:03Z</time></trkpt><trkpt lat="43.38337872638723" lon="10.441340165922307"><ele>8.0</ele><time>2026-04-06T07:34:05Z</time></trkpt><trkpt lat="43.38333239862193" lon="10.441405932838425"><ele>8.0</ele><time>2026-04-06T07:34:07Z</time></trkpt><trkpt lat="43.38326043943632" lon="10.44149756713908"><ele>7.999999999999999</ele><time>2026-04-06T07:34:10Z</time></trkpt><trkpt lat="43.38316332957802" lon="10.44153620334106"><ele>8.0</ele><time>2026-04-06T07:34:12Z</time></trkpt><trkpt lat="43.38305880592401" lon="10.441609374795682"><ele>7.857142857142857</ele><time>2026-04-06T07:34:14Z</time></trkpt><trkpt lat="43.3830038346892" lon="10.441652226330948"><ele>7.7142857142857135</ele><time>2026-04-06T07:34:15Z</time></trkpt><trkpt lat="43.38294600543444" lon="10.441702386152206"><ele>7.571428571428571</ele><time>2026-04-06T07:34:16Z</time></trkpt><trkpt lat="43.38288692684368" lon="10.441755028254708"><ele>7.428571428571429</ele><time>2026-04-06T07:34:17Z</time></trkpt><trkpt lat="43.38282688059763" lon="10.441806411791767"><ele>7.285714285714286</ele><time>2026-04-06T07:34:18Z</time></trkpt><trkpt lat="43.38276711899788" lon="10.44185331998401"><ele>7.142857142857142</ele><time>2026-04-06T07:34:19Z</time></trkpt><trkpt lat="43.38270335355465" lon="10.441898620196298"><ele>7.0</ele><time>2026-04-06T07:34:20Z</time></trkpt><trkpt lat="43.38264342152253" lon="10.441946409358016"><ele>7.0</ele><time>2026-04-06T07:34:21Z</time></trkpt><trkpt lat="43.382582651425075" lon="10.441995772612781"><ele>7.0</ele><time>2026-04-06T07:34:22Z</time></trkpt><trkpt lat="43.382521016968646" lon="10.442047407415197"><ele>7.0</ele><time>2026-04-06T07:34:23Z</time></trkpt><trkpt lat="43.38245904216517" lon="10.442097460771258"><ele>7.0</ele><time>2026-04-06T07:34:24Z</time></trkpt><trkpt lat="43.382396443438424" lon="10.442146115427981"><ele>7.0</ele><time>2026-04-06T07:34:25Z</time></trkpt><trkpt lat="43.38233478469279" lon="10.44219296399056"><ele>7.0</ele><time>2026-04-06T07:34:26Z</time></trkpt><trkpt lat="43.38227324195352" lon="10.442241041181541"><ele>7.0</ele><time>2026-04-06T07:34:27Z</time></trkpt><trkpt lat="43.38220890182075" lon="10.442290457903022"><ele>6.428571428571429</ele><time>2026-04-06T07:34:28Z</time></trkpt><trkpt lat="43.38214811296305" lon="10.442337149660167"><ele>5.857142857142857</ele><time>2026-04-06T07:34:29Z</time></trkpt><trkpt lat="43.382085571072636" lon="10.44238551203692"><ele>5.285714285714286</ele><time>2026-04-06T07:34:30Z</time></trkpt><trkpt lat="43.38202466624146" lon="10.442438454211516"><ele>4.714285714285714</ele><time>2026-04-06T07:34:31Z</time></trkpt><trkpt lat="43.381961576229834" lon="10.44248695000055"><ele>4.142857142857142</ele><time>2026-04-06T07:34:32Z</time></trkpt><trkpt lat="43.38189818436758" lon="10.442540366506702"><ele>3.571428571428571</ele><time>2026-04-06T07:34:33Z</time></trkpt><trkpt lat="43.38183463878667" lon="10.44258636290795"><ele>3.0</ele><time>2026-04-06T07:34:34Z</time></trkpt><trkpt lat="43.38176701771715" lon="10.442620195056215"><ele>2.9999999999999996</ele><time>2026-04-06T07:34:35Z</time></trkpt><trkpt lat="43.381701217534236" lon="10.442646790365242"><ele>3.0</ele><time>2026-04-06T07:34:36Z</time></trkpt><trkpt lat="43.38163785228392" lon="10.442694757924139"><ele>3.0</ele><time>2026-04-06T07:34:37Z</time></trkpt><trkpt lat="43.381579429503354" lon="10.442751259407594"><ele>3.0</ele><time>2026-04-06T07:34:38Z</time></trkpt><trkpt lat="43.381519477252226" lon="10.442803180182715"><ele>3.0</ele><time>2026-04-06T07:34:39Z</time></trkpt><trkpt lat="43.38145773426151" lon="10.442852909509027"><ele>2.9999999999999996</ele><time>2026-04-06T07:34:40Z</time></trkpt><trkpt lat="43.381393487752995" lon="10.442901626229485"><ele>3.0</ele><time>2026-04-06T07:34:41Z</time></trkpt><trkpt lat="43.381328315723565" lon="10.442954012130881"><ele>3.1428571428571423</ele><time>2026-04-06T07:34:42Z</time></trkpt><trkpt lat="43.381264782323285" lon="10.443004992863935"><ele>3.2857142857142856</ele><time>2026-04-06T07:34:43Z</time></trkpt><trkpt lat="43.38120141203863" lon="10.443052631718897"><ele>3.4285714285714284</ele><time>2026-04-06T07:34:44Z</time></trkpt><trkpt lat="43.38113536488126" lon="10.443103121723277"><ele>3.571428571428571</ele><time>2026-04-06T07:34:45Z</time></trkpt><trkpt lat="43.38107162724104" lon="10.443150821998486"><ele>3.714285714285714</ele><time>2026-04-06T07:34:46Z</time></trkpt><trkpt lat="43.38100889700378" lon="10.44320316419094"><ele>3.8571428571428568</ele><time>2026-04-06T07:34:47Z</time></trkpt><trkpt lat="43.38094522090957" lon="10.44325297921603"><ele>4.0</ele><time>2026-04-06T07:34:48Z</time></trkpt><trkpt lat="43.38088353988062" lon="10.443298421078474"><ele>4.0</ele><time>2026-04-06T07:34:49Z</time></trkpt><trkpt lat="43.38081998579128" lon="10.443348393979257"><ele>3.9999999999999996</ele><time>2026-04-06T07:34:50Z</time></trkpt><trkpt lat="43.38075547788726" lon="10.443400568599184"><ele>4.0</ele><time>2026-04-06T07:34:51Z</time></trkpt><trkpt lat="43.38069350393801" lon="10.443454236793269"><ele>4.0</ele><time>2026-04-06T07:34:52Z</time></trkpt><trkpt lat="43.3806293310562" lon="10.443504695175013"><ele>3.9999999999999996</ele><time>2026-04-06T07:34:53Z</time></trkpt><trkpt lat="43.380566602657176" lon="10.443552086009214"><ele>4.0</ele><time>2026-04-06T07:34:54Z</time></trkpt><trkpt lat="43.380503905231805" lon="10.443603313245815"><ele>4.0</ele><time>2026-04-06T07:34:55Z</time></trkpt><trkpt lat="43.38044329310541" lon="10.443653289177151"><ele>3.8571428571428568</ele><time>2026-04-06T07:34:56Z</time></trkpt><trkpt lat="43.380380543473336" lon="10.443705152841877"><ele>3.714285714285714</ele><time>2026-04-06T07:34:57Z</time></trkpt><trkpt lat="43.380317397925836" lon="10.443760468992284"><ele>3.571428571428571</ele><time>2026-04-06T07:34:58Z</time></trkpt><trkpt lat="43.3802542234601" lon="10.44380769511356"><ele>3.4285714285714284</ele><time>2026-04-06T07:34:59Z</time></trkpt><trkpt lat="43.380191597111605" lon="10.443853877133105"><ele>3.2857142857142856</ele><time>2026-04-06T07:35:00Z</time></trkpt><trkpt lat="43.38012774321081" lon="10.443906061921043"><ele>3.1428571428571423</ele><time>2026-04-06T07:35:01Z</time></trkpt><trkpt lat="43.38006761119939" lon="10.443966974375105"><ele>3.0</ele><time>2026-04-06T07:35:02Z</time></trkpt><trkpt lat="43.38001241348123" lon="10.444024959715856"><ele>2.8571428571428568</ele><time>2026-04-06T07:35:03Z</time></trkpt><trkpt lat="43.37995446696805" lon="10.444083862203266"><ele>2.7142857142857144</ele><time>2026-04-06T07:35:04Z</time></trkpt><trkpt lat="43.3798916285099" lon="10.444137774173052"><ele>2.571428571428571</ele><time>2026-04-06T07:35:05Z</time></trkpt><trkpt lat="43.379826599771825" lon="10.444188392708293"><ele>2.4285714285714284</ele><time>2026-04-06T07:35:06Z</time></trkpt><trkpt lat="43.379761072797876" lon="10.444238268505549"><ele>2.2857142857142856</ele><time>2026-04-06T07:35:07Z</time></trkpt><trkpt lat="43.3796975064273" lon="10.444287257815764"><ele>2.142857142857143</ele><time>2026-04-06T07:35:08Z</time></trkpt><trkpt lat="43.3796334937197" lon="10.44433418730226"><ele>2.0</ele><time>2026-04-06T07:35:09Z</time></trkpt><trkpt lat="43.37957109098839" lon="10.444383837801517"><ele>2.0</ele><time>2026-04-06T07:35:10Z</time></trkpt><trkpt lat="43.37950922047523" lon="10.444435756431494"><ele>1.9999999999999998</ele><time>2026-04-06T07:35:11Z</time></trkpt><trkpt lat="43.379444485362605" lon="10.444488117334156"><ele>2.0</ele><time>2026-04-06T07:35:12Z</time></trkpt><trkpt lat="43.37938037333545" lon="10.444536499259872"><ele>2.0</ele><time>2026-04-06T07:35:13Z</time></trkpt><trkpt lat="43.379315593463865" lon="10.444585343411626"><ele>1.9999999999999998</ele><time>2026-04-06T07:35:14Z</time></trkpt><trkpt lat="43.37925303292854" lon="10.444635125061623"><ele>2.0</ele><time>2026-04-06T07:35:15Z</time></trkpt><trkpt lat="43.379189410034286" lon="10.444683949290274"><ele>2.0</ele><time>2026-04-06T07:35:16Z</time></trkpt><trkpt lat="43.379125612953466" lon="10.444733245572195"><ele>2.142857142857143</ele><time>2026-04-06T07:35:17Z</time></trkpt><trkpt lat="43.37906386711733" lon="10.444779755078432"><ele>2.2857142857142856</ele><time>2026-04-06T07:35:18Z</time></trkpt><trkpt lat="43.37900009131271" lon="10.444833005507151"><ele>2.4285714285714284</ele><time>2026-04-06T07:35:19Z</time></trkpt><trkpt lat="43.37893450015757" lon="10.444882949818755"><ele>2.571428571428571</ele><time>2026-04-06T07:35:20Z</time></trkpt><trkpt lat="43.378872048494486" lon="10.444931928832684"><ele>2.7142857142857144</ele><time>2026-04-06T07:35:21Z</time></trkpt><trkpt lat="43.378810610450714" lon="10.444981381553822"><ele>2.8571428571428568</ele><time>2026-04-06T07:35:22Z</time></trkpt><trkpt lat="43.378747955549024" lon="10.445030751772562"><ele>3.0</ele><time>2026-04-06T07:35:23Z</time></trkpt><trkpt lat="43.37868483971931" lon="10.445078908581433"><ele>2.9999999999999996</ele><time>2026-04-06T07:35:24Z</time></trkpt><trkpt lat="43.3786234600839" lon="10.445126235974293"><ele>3.0</ele><time>2026-04-06T07:35:25Z</time></trkpt><trkpt lat="43.37856237837064" lon="10.44517523364225"><ele>3.0</ele><time>2026-04-06T07:35:26Z</time></trkpt><trkpt lat="43.378501202213805" lon="10.445223500577896"><ele>3.0</ele><time>2026-04-06T07:35:26.999Z</time></trkpt><trkpt lat="43.3784399813474" lon="10.445274157180872"><ele>3.0</ele><time>2026-04-06T07:35:27.999Z</time></trkpt><trkpt lat="43.37837948929143" lon="10.445322824846892"><ele>2.9999999999999996</ele><time>2026-04-06T07:35:28.999Z</time></trkpt><trkpt lat="43.37831909960303" lon="10.44537059838852"><ele>3.0</ele><time>2026-04-06T07:35:29.999Z</time></trkpt><trkpt lat="43.3782590456355" lon="10.445417029509079"><ele>2.8571428571428568</ele><time>2026-04-06T07:35:30.999Z</time></trkpt><trkpt lat="43.37819719381817" lon="10.445466608460997"><ele>2.7142857142857144</ele><time>2026-04-06T07:35:31.999Z</time></trkpt><trkpt lat="43.378142910059715" lon="10.44551360796084"><ele>2.571428571428571</ele><time>2026-04-06T07:35:32.999Z</time></trkpt><trkpt lat="43.378082551152" lon="10.445557903542097"><ele>2.4285714285714284</ele><time>2026-04-06T07:35:33.999Z</time></trkpt><trkpt lat="43.378021873916346" lon="10.445604739817533"><ele>2.2857142857142856</ele><time>2026-04-06T07:35:34.999Z</time></trkpt><trkpt lat="43.37796240344583" lon="10.445651812948048"><ele>2.142857142857143</ele><time>2026-04-06T07:35:35.999Z</time></trkpt><trkpt lat="43.37790363653891" lon="10.445696638618374"><ele>2.0</ele><time>2026-04-06T07:35:36.999Z</time></trkpt><trkpt lat="43.377842687480126" lon="10.445742663026687"><ele>2.0</ele><time>2026-04-06T07:35:37.999Z</time></trkpt><trkpt lat="43.37777975757193" lon="10.445794414565531"><ele>1.9999999999999998</ele><time>2026-04-06T07:35:38.999Z</time></trkpt><trkpt lat="43.37772264533252" lon="10.445844495493162"><ele>2.0</ele><time>2026-04-06T07:35:39.999Z</time></trkpt><trkpt lat="43.37765693893334" lon="10.445894309550056"><ele>2.0</ele><time>2026-04-06T07:35:40.999Z</time></trkpt><trkpt lat="43.37759674628883" lon="10.445944600922127"><ele>1.9999999999999998</ele><time>2026-04-06T07:35:41.999Z</time></trkpt><trkpt lat="43.377538214339076" lon="10.445991297570446"><ele>2.0</ele><time>2026-04-06T07:35:42.999Z</time></trkpt><trkpt lat="43.37747230604019" lon="10.446040273175054"><ele>2.0</ele><time>2026-04-06T07:35:43.999Z</time></trkpt><trkpt lat="43.37741220424287" lon="10.446091442421041"><ele>2.0</ele><time>2026-04-06T07:35:44.999Z</time></trkpt><trkpt lat="43.37735083097127" lon="10.446138507797428"><ele>1.9999999999999998</ele><time>2026-04-06T07:35:45.999Z</time></trkpt><trkpt lat="43.3772879540954" lon="10.446185489983282"><ele>2.0</ele><time>2026-04-06T07:35:46.999Z</time></trkpt><trkpt lat="43.377226457502886" lon="10.446235518814081"><ele>2.0</ele><time>2026-04-06T07:35:47.999Z</time></trkpt><trkpt lat="43.37716497208409" lon="10.446284985404763"><ele>1.9999999999999998</ele><time>2026-04-06T07:35:48.999Z</time></trkpt><trkpt lat="43.37710713570615" lon="10.446332746532647"><ele>2.0</ele><time>2026-04-06T07:35:50Z</time></trkpt><trkpt lat="43.377047601506895" lon="10.446381022667955"><ele>2.0</ele><time>2026-04-06T07:35:51Z</time></trkpt><trkpt lat="43.37698639548055" lon="10.446429505992663"><ele>2.142857142857143</ele><time>2026-04-06T07:35:52Z</time></trkpt><trkpt lat="43.376923565819396" lon="10.446479206178502"><ele>2.2857142857142856</ele><time>2026-04-06T07:35:53Z</time></trkpt><trkpt lat="43.37685735745964" lon="10.446531050347925"><ele>2.4285714285714284</ele><time>2026-04-06T07:35:54Z</time></trkpt><trkpt lat="43.376793843615175" lon="10.44658091999418"><ele>2.571428571428571</ele><time>2026-04-06T07:35:55Z</time></trkpt><trkpt lat="43.376729343920786" lon="10.44663161986634"><ele>2.7142857142857144</ele><time>2026-04-06T07:35:56Z</time></trkpt><trkpt lat="43.37666471525089" lon="10.446681794697328"><ele>2.8571428571428568</ele><time>2026-04-06T07:35:57Z</time></trkpt><trkpt lat="43.37659749467626" lon="10.446732890215417"><ele>3.0</ele><time>2026-04-06T07:35:58Z</time></trkpt><trkpt lat="43.37653274248544" lon="10.446784450820708"><ele>2.9999999999999996</ele><time>2026-04-06T07:35:59Z</time></trkpt><trkpt lat="43.37646820229598" lon="10.446834952102064"><ele>3.0</ele><time>2026-04-06T07:36:00Z</time></trkpt><trkpt lat="43.37640273372405" lon="10.446884671378552"><ele>3.0</ele><time>2026-04-06T07:36:01Z</time></trkpt><trkpt lat="43.37633844633416" lon="10.446936007174392"><ele>3.0</ele><time>2026-04-06T07:36:02Z</time></trkpt><trkpt lat="43.37627249094494" lon="10.446988288299561"><ele>3.0</ele><time>2026-04-06T07:36:03Z</time></trkpt><trkpt lat="43.376210807372054" lon="10.447039314773587"><ele>2.9999999999999996</ele><time>2026-04-06T07:36:04Z</time></trkpt><trkpt lat="43.376149065514234" lon="10.447087658761488"><ele>3.0</ele><time>2026-04-06T07:36:05Z</time></trkpt><trkpt lat="43.376088102382965" lon="10.447133591420181"><ele>2.9999999999999996</ele><time>2026-04-06T07:36:06Z</time></trkpt><trkpt lat="43.376027377510496" lon="10.447180005687311"><ele>3.0</ele><time>2026-04-06T07:36:07Z</time></trkpt><trkpt lat="43.37596640391883" lon="10.447229370976547"><ele>3.0</ele><time>2026-04-06T07:36:08Z</time></trkpt><trkpt lat="43.37590816045853" lon="10.447277474738382"><ele>3.0</ele><time>2026-04-06T07:36:09Z</time></trkpt><trkpt lat="43.375848204780326" lon="10.447324475624642"><ele>3.0</ele><time>2026-04-06T07:36:10Z</time></trkpt><trkpt lat="43.37578732850946" lon="10.447372801833092"><ele>2.9999999999999996</ele><time>2026-04-06T07:36:11Z</time></trkpt><trkpt lat="43.375723898068394" lon="10.447424559570383"><ele>3.0</ele><time>2026-04-06T07:36:12Z</time></trkpt><trkpt lat="43.37565889375829" lon="10.447476796561379"><ele>2.9999999999999996</ele><time>2026-04-06T07:36:13Z</time></trkpt><trkpt lat="43.37559567302018" lon="10.447528633900204"><ele>3.0</ele><time>2026-04-06T07:36:14Z</time></trkpt><trkpt lat="43.3755321887117" lon="10.447577498733686"><ele>3.0</ele><time>2026-04-06T07:36:15Z</time></trkpt><trkpt lat="43.37546835760826" lon="10.447625943196075"><ele>3.0</ele><time>2026-04-06T07:36:16Z</time></trkpt><trkpt lat="43.375405183856074" lon="10.447675351571704"><ele>3.0</ele><time>2026-04-06T07:36:17Z</time></trkpt><trkpt lat="43.37534198044189" lon="10.447727076893525"><ele>2.9999999999999996</ele><time>2026-04-06T07:36:18Z</time></trkpt><trkpt lat="43.37528229444102" lon="10.447780211501815"><ele>3.0</ele><time>2026-04-06T07:36:19Z</time></trkpt><trkpt lat="43.37521848167285" lon="10.447829368333666"><ele>2.8571428571428568</ele><time>2026-04-06T07:36:20Z</time></trkpt><trkpt lat="43.375153692142185" lon="10.447877549939093"><ele>2.7142857142857144</ele><time>2026-04-06T07:36:21Z</time></trkpt><trkpt lat="43.37508841740467" lon="10.447927675446225"><ele>2.571428571428571</ele><time>2026-04-06T07:36:22Z</time></trkpt><trkpt lat="43.37502600541193" lon="10.447980263546768"><ele>2.4285714285714284</ele><time>2026-04-06T07:36:23Z</time></trkpt><trkpt lat="43.374963136462966" lon="10.448030953230116"><ele>2.2857142857142856</ele><time>2026-04-06T07:36:24Z</time></trkpt><trkpt lat="43.3748995931381" lon="10.448078263247499"><ele>2.142857142857143</ele><time>2026-04-06T07:36:25Z</time></trkpt><trkpt lat="43.374832150028645" lon="10.448129180520002"><ele>2.0</ele><time>2026-04-06T07:36:26Z</time></trkpt><trkpt lat="43.37477178993634" lon="10.44818048733149"><ele>2.0</ele><time>2026-04-06T07:36:27Z</time></trkpt><trkpt lat="43.374708243430774" lon="10.448232941827964"><ele>1.9999999999999998</ele><time>2026-04-06T07:36:28Z</time></trkpt><trkpt lat="43.37464663399771" lon="10.4482836758648"><ele>2.0</ele><time>2026-04-06T07:36:29Z</time></trkpt><trkpt lat="43.37458535049355" lon="10.44833485992031"><ele>2.0</ele><time>2026-04-06T07:36:30Z</time></trkpt><trkpt lat="43.37452042837121" lon="10.448383934492353"><ele>1.9999999999999998</ele><time>2026-04-06T07:36:31Z</time></trkpt><trkpt lat="43.37445473820089" lon="10.448432087223688"><ele>2.0</ele><time>2026-04-06T07:36:32Z</time></trkpt><trkpt lat="43.37439092086725" lon="10.448482810897007"><ele>2.0</ele><time>2026-04-06T07:36:33Z</time></trkpt><trkpt lat="43.37432832356144" lon="10.448532196776734"><ele>2.0</ele><time>2026-04-06T07:36:34Z</time></trkpt><trkpt lat="43.374265523702874" lon="10.448581034764311"><ele>1.9999999999999998</ele><time>2026-04-06T07:36:35Z</time></trkpt><trkpt lat="43.37420575687286" lon="10.448628184325257"><ele>2.0</ele><time>2026-04-06T07:36:36Z</time></trkpt><trkpt lat="43.37414521348467" lon="10.448679137740012"><ele>2.0</ele><time>2026-04-06T07:36:37Z</time></trkpt><trkpt lat="43.37408194861655" lon="10.448727438562072"><ele>1.9999999999999998</ele><time>2026-04-06T07:36:38Z</time></trkpt><trkpt lat="43.37402022768542" lon="10.448778457550777"><ele>2.0</ele><time>2026-04-06T07:36:39Z</time></trkpt><trkpt lat="43.37396063875502" lon="10.448826650242559"><ele>2.0</ele><time>2026-04-06T07:36:40Z</time></trkpt><trkpt lat="43.37389829226511" lon="10.448873168951446"><ele>2.142857142857143</ele><time>2026-04-06T07:36:41Z</time></trkpt><trkpt lat="43.3738377273929" lon="10.448920877530078"><ele>2.2857142857142856</ele><time>2026-04-06T07:36:42Z</time></trkpt><trkpt lat="43.373774430326506" lon="10.448969391847344"><ele>2.4285714285714284</ele><time>2026-04-06T07:36:43Z</time></trkpt><trkpt lat="43.3737120872698" lon="10.449017111170827"><ele>2.571428571428571</ele><time>2026-04-06T07:36:44Z</time></trkpt><trkpt lat="43.37365323400161" lon="10.449063942641938"><ele>2.7142857142857144</ele><time>2026-04-06T07:36:45Z</time></trkpt><trkpt lat="43.37359552951869" lon="10.44911127839546"><ele>2.8571428571428568</ele><time>2026-04-06T07:36:46Z</time></trkpt><trkpt lat="43.373535499044735" lon="10.449158902971599"><ele>3.0</ele><time>2026-04-06T07:36:47Z</time></trkpt><trkpt lat="43.37347781674663" lon="10.449205287571136"><ele>2.9999999999999996</ele><time>2026-04-06T07:36:48Z</time></trkpt><trkpt lat="43.37341539041512" lon="10.44925281523501"><ele>3.0</ele><time>2026-04-06T07:36:49Z</time></trkpt><trkpt lat="43.37335273154368" lon="10.449301788624426"><ele>3.0</ele><time>2026-04-06T07:36:50Z</time></trkpt><trkpt lat="43.373291684920645" lon="10.449351137845138"><ele>3.0</ele><time>2026-04-06T07:36:51Z</time></trkpt><trkpt lat="43.3732300937361" lon="10.449397573720958"><ele>3.0</ele><time>2026-04-06T07:36:52Z</time></trkpt><trkpt lat="43.373170061237985" lon="10.449445361963718"><ele>2.9999999999999996</ele><time>2026-04-06T07:36:53Z</time></trkpt><trkpt lat="43.373109793620635" lon="10.449490685431938"><ele>3.0</ele><time>2026-04-06T07:36:54Z</time></trkpt><trkpt lat="43.37304880801548" lon="10.449540490840315"><ele>2.9999999999999996</ele><time>2026-04-06T07:36:55Z</time></trkpt><trkpt lat="43.37298855151487" lon="10.44958528206981"><ele>3.0</ele><time>2026-04-06T07:36:56Z</time></trkpt><trkpt lat="43.372923001049244" lon="10.44962843688957"><ele>3.0</ele><time>2026-04-06T07:36:57Z</time></trkpt><trkpt lat="43.3728625233897" lon="10.449668523471631"><ele>3.0</ele><time>2026-04-06T07:36:58Z</time></trkpt><trkpt lat="43.372801559356255" lon="10.449710464368087"><ele>3.0</ele><time>2026-04-06T07:36:59Z</time></trkpt><trkpt lat="43.372740922607576" lon="10.449745437513371"><ele>2.9999999999999996</ele><time>2026-04-06T07:37:00Z</time></trkpt><trkpt lat="43.37267937131642" lon="10.449774877105783"><ele>3.0</ele><time>2026-04-06T07:37:01Z</time></trkpt><trkpt lat="43.372615441731355" lon="10.449805925633154"><ele>3.0</ele><time>2026-04-06T07:37:02Z</time></trkpt><trkpt lat="43.372552918648594" lon="10.4498335015444"><ele>3.0</ele><time>2026-04-06T07:37:03Z</time></trkpt><trkpt lat="43.372490734527396" lon="10.449850486882998"><ele>3.0</ele><time>2026-04-06T07:37:04Z</time></trkpt><trkpt lat="43.372427341925665" lon="10.449869336390062"><ele>3.0</ele><time>2026-04-06T07:37:05Z</time></trkpt><trkpt lat="43.37230377635143" lon="10.449900148175267"><ele>3.0</ele><time>2026-04-06T07:37:07Z</time></trkpt><trkpt lat="43.372180292951306" lon="10.449920330728133"><ele>3.0</ele><time>2026-04-06T07:37:09Z</time></trkpt><trkpt lat="43.372055223934545" lon="10.449935562869626"><ele>3.1666666666666665</ele><time>2026-04-06T07:37:11Z</time></trkpt><trkpt lat="43.3719917255596" lon="10.449936153085947"><ele>3.333333333333333</ele><time>2026-04-06T07:37:12Z</time></trkpt><trkpt lat="43.371864268673924" lon="10.449936187159711"><ele>3.5</ele><time>2026-04-06T07:37:14Z</time></trkpt><trkpt lat="43.37179858502494" lon="10.449939120682014"><ele>3.6666666666666665</ele><time>2026-04-06T07:37:15Z</time></trkpt><trkpt lat="43.37173518976679" lon="10.449939459715322"><ele>3.833333333333333</ele><time>2026-04-06T07:37:16Z</time></trkpt><trkpt lat="43.37166918733287" lon="10.449944059368901"><ele>4.0</ele><time>2026-04-06T07:37:17Z</time></trkpt><trkpt lat="43.37160510524648" lon="10.449947956970059"><ele>4.0</ele><time>2026-04-06T07:37:18Z</time></trkpt><trkpt lat="43.37153953292223" lon="10.449943789303454"><ele>3.9999999999999996</ele><time>2026-04-06T07:37:19Z</time></trkpt><trkpt lat="43.37147550240366" lon="10.44994284155262"><ele>4.0</ele><time>2026-04-06T07:37:20Z</time></trkpt><trkpt lat="43.37140919106686" lon="10.449941265187643"><ele>4.0</ele><time>2026-04-06T07:37:21Z</time></trkpt><trkpt lat="43.37134636009826" lon="10.449931355840702"><ele>3.9999999999999996</ele><time>2026-04-06T07:37:22Z</time></trkpt><trkpt lat="43.371281690699746" lon="10.44993101153566"><ele>4.0</ele><time>2026-04-06T07:37:23Z</time></trkpt><trkpt lat="43.371217098983855" lon="10.449939152796688"><ele>4.0</ele><time>2026-04-06T07:37:24Z</time></trkpt><trkpt lat="43.37109193989615" lon="10.449939756206412"><ele>4.0</ele><time>2026-04-06T07:37:26Z</time></trkpt><trkpt lat="43.37102713554459" lon="10.449940624608924"><ele>3.9999999999999996</ele><time>2026-04-06T07:37:27Z</time></trkpt><trkpt lat="43.370962068644516" lon="10.449945750992852"><ele>4.0</ele><time>2026-04-06T07:37:28Z</time></trkpt><trkpt lat="43.37089355160817" lon="10.449945810515642"><ele>4.0</ele><time>2026-04-06T07:37:28.999Z</time></trkpt><trkpt lat="43.37082255253059" lon="10.449948433318394"><ele>3.9999999999999996</ele><time>2026-04-06T07:37:29.999Z</time></trkpt><trkpt lat="43.37075259907192" lon="10.449951644702649"><ele>4.0</ele><time>2026-04-06T07:37:30.999Z</time></trkpt><trkpt lat="43.37068233349669" lon="10.449954038461579"><ele>4.0</ele><time>2026-04-06T07:37:31.999Z</time></trkpt><trkpt lat="43.37061557641001" lon="10.44995190443113"><ele>3.9999999999999996</ele><time>2026-04-06T07:37:32.999Z</time></trkpt><trkpt lat="43.37054465912996" lon="10.449953205975149"><ele>4.0</ele><time>2026-04-06T07:37:33.999Z</time></trkpt><trkpt lat="43.37047635804499" lon="10.44995837020717"><ele>4.0</ele><time>2026-04-06T07:37:34.999Z</time></trkpt><trkpt lat="43.37041172308509" lon="10.449961026296428"><ele>4.0</ele><time>2026-04-06T07:37:35.999Z</time></trkpt><trkpt lat="43.37034448997999" lon="10.449967237611975"><ele>3.9999999999999996</ele><time>2026-04-06T07:37:36.999Z</time></trkpt><trkpt lat="43.37021704890935" lon="10.44998137322573"><ele>4.0</ele><time>2026-04-06T07:37:38.999Z</time></trkpt><trkpt lat="43.37015009734403" lon="10.449992520572323"><ele>4.0</ele><time>2026-04-06T07:37:39.999Z</time></trkpt><trkpt lat="43.37008338940191" lon="10.450004687397634"><ele>3.9999999999999996</ele><time>2026-04-06T07:37:40.999Z</time></trkpt><trkpt lat="43.37001640731609" lon="10.450015827333344"><ele>4.0</ele><time>2026-04-06T07:37:41.999Z</time></trkpt><trkpt lat="43.369950638730266" lon="10.450028532762873"><ele>4.0</ele><time>2026-04-06T07:37:42.999Z</time></trkpt><trkpt lat="43.36988529058808" lon="10.450045999233623"><ele>3.9999999999999996</ele><time>2026-04-06T07:37:43.999Z</time></trkpt><trkpt lat="43.369819155677675" lon="10.450065926523026"><ele>4.0</ele><time>2026-04-06T07:37:44.999Z</time></trkpt><trkpt lat="43.36975120032323" lon="10.450092175568777"><ele>4.0</ele><time>2026-04-06T07:37:45.999Z</time></trkpt><trkpt lat="43.36968795661135" lon="10.450115936883071"><ele>3.9999999999999996</ele><time>2026-04-06T07:37:46.999Z</time></trkpt><trkpt lat="43.36962372843713" lon="10.450142208611334"><ele>4.0</ele><time>2026-04-06T07:37:47.999Z</time></trkpt><trkpt lat="43.369560256101906" lon="10.450173005473665"><ele>4.0</ele><time>2026-04-06T07:37:48.999Z</time></trkpt><trkpt lat="43.369490921738176" lon="10.45020507363287"><ele>4.0</ele><time>2026-04-06T07:37:49.999Z</time></trkpt><trkpt lat="43.369366002238124" lon="10.450245996524602"><ele>3.9999999999999996</ele><time>2026-04-06T07:37:51.999Z</time></trkpt><trkpt lat="43.369300759920506" lon="10.450270912156148"><ele>4.0</ele><time>2026-04-06T07:37:52.999Z</time></trkpt><trkpt lat="43.369234810676815" lon="10.450289263210992"><ele>4.0</ele><time>2026-04-06T07:37:53.999Z</time></trkpt><trkpt lat="43.36916739126218" lon="10.450308108612335"><ele>3.9999999999999996</ele><time>2026-04-06T07:37:54.999Z</time></trkpt><trkpt lat="43.36910490960692" lon="10.450336586784713"><ele>4.0</ele><time>2026-04-06T07:37:56Z</time></trkpt><trkpt lat="43.36903671473495" lon="10.450360293428062"><ele>4.0</ele><time>2026-04-06T07:37:57Z</time></trkpt><trkpt lat="43.36896707803144" lon="10.450365396238729"><ele>3.9999999999999996</ele><time>2026-04-06T07:37:58Z</time></trkpt><trkpt lat="43.36890326135668" lon="10.45037265509006"><ele>4.0</ele><time>2026-04-06T07:37:59Z</time></trkpt><trkpt lat="43.368837040591906" lon="10.450394156934045"><ele>4.0</ele><time>2026-04-06T07:38:00Z</time></trkpt><trkpt lat="43.368768423084376" lon="10.450421406948555"><ele>3.571428571428571</ele><time>2026-04-06T07:38:01Z</time></trkpt><trkpt lat="43.36870404858503" lon="10.45044195174456"><ele>3.1428571428571423</ele><time>2026-04-06T07:38:02Z</time></trkpt><trkpt lat="43.368636800021335" lon="10.450466113490165"><ele>2.714285714285714</ele><time>2026-04-06T07:38:03Z</time></trkpt><trkpt lat="43.36857070254285" lon="10.450490773812977"><ele>2.2857142857142856</ele><time>2026-04-06T07:38:04Z</time></trkpt><trkpt lat="43.36850647426975" lon="10.45051561293371"><ele>1.857142857142857</ele><time>2026-04-06T07:38:05Z</time></trkpt><trkpt lat="43.36843995267942" lon="10.450538501831026"><ele>1.4285714285714284</ele><time>2026-04-06T07:38:06Z</time></trkpt><trkpt lat="43.36837665899556" lon="10.4505591529419"><ele>1.0</ele><time>2026-04-06T07:38:07Z</time></trkpt><trkpt lat="43.368312663839895" lon="10.450585274118813"><ele>1.0</ele><time>2026-04-06T07:38:08Z</time></trkpt><trkpt lat="43.36825015881341" lon="10.450606031866473"><ele>0.9999999999999999</ele><time>2026-04-06T07:38:09Z</time></trkpt><trkpt lat="43.368186142175645" lon="10.450630497492543"><ele>1.0</ele><time>2026-04-06T07:38:10Z</time></trkpt><trkpt lat="43.36812317186528" lon="10.45065275727611"><ele>1.0</ele><time>2026-04-06T07:38:11Z</time></trkpt><trkpt lat="43.36805971155801" lon="10.450670985856867"><ele>0.9999999999999999</ele><time>2026-04-06T07:38:12Z</time></trkpt><trkpt lat="43.367998398349734" lon="10.450694880748744"><ele>1.0</ele><time>2026-04-06T07:38:13Z</time></trkpt><trkpt lat="43.36793552197362" lon="10.450720075072432"><ele>1.0</ele><time>2026-04-06T07:38:14Z</time></trkpt><trkpt lat="43.36787155275437" lon="10.450740143089707"><ele>0.8333333333333333</ele><time>2026-04-06T07:38:15Z</time></trkpt><trkpt lat="43.367809266417616" lon="10.45076136650508"><ele>0.6666666666666666</ele><time>2026-04-06T07:38:16Z</time></trkpt><trkpt lat="43.36774770772587" lon="10.450783307920878"><ele>0.5</ele><time>2026-04-06T07:38:17Z</time></trkpt><trkpt lat="43.36768138067016" lon="10.450809974127177"><ele>0.3333333333333333</ele><time>2026-04-06T07:38:18Z</time></trkpt><trkpt lat="43.36755891164195" lon="10.450852963301788"><ele>0.16666666666666666</ele><time>2026-04-06T07:38:20Z</time></trkpt><trkpt lat="43.36749594764654" lon="10.450874266531864"><ele>0.0</ele><time>2026-04-06T07:38:21Z</time></trkpt><trkpt lat="43.36743441604416" lon="10.450896136234464"><ele>0.0</ele><time>2026-04-06T07:38:22Z</time></trkpt><trkpt lat="43.36737225885982" lon="10.45091666126222"><ele>0.0</ele><time>2026-04-06T07:38:23Z</time></trkpt><trkpt lat="43.36731019255141" lon="10.450939976927797"><ele>0.0</ele><time>2026-04-06T07:38:24Z</time></trkpt><trkpt lat="43.367247229109275" lon="10.450966197987912"><ele>0.0</ele><time>2026-04-06T07:38:25Z</time></trkpt><trkpt lat="43.367183567848954" lon="10.45098780350525"><ele>0.0</ele><time>2026-04-06T07:38:26Z</time></trkpt><trkpt lat="43.36712042486135" lon="10.45100891842739"><ele>0.0</ele><time>2026-04-06T07:38:27Z</time></trkpt><trkpt lat="43.36705676789873" lon="10.45102805274667"><ele>0.0</ele><time>2026-04-06T07:38:28Z</time></trkpt><trkpt lat="43.36699388129218" lon="10.451053861719172"><ele>0.14285714285714285</ele><time>2026-04-06T07:38:29Z</time></trkpt><trkpt lat="43.36693364838888" lon="10.451079244141342"><ele>0.2857142857142857</ele><time>2026-04-06T07:38:30Z</time></trkpt><trkpt lat="43.3668697615428" lon="10.451103297355077"><ele>0.42857142857142855</ele><time>2026-04-06T07:38:31Z</time></trkpt><trkpt lat="43.366807915535176" lon="10.451123974971862"><ele>0.5714285714285714</ele><time>2026-04-06T07:38:32Z</time></trkpt><trkpt lat="43.36674613918758" lon="10.451145983554056"><ele>0.7142857142857142</ele><time>2026-04-06T07:38:33Z</time></trkpt><trkpt lat="43.366683666728804" lon="10.451169712391618"><ele>0.8571428571428571</ele><time>2026-04-06T07:38:34Z</time></trkpt><trkpt lat="43.36662079068051" lon="10.451192906939424"><ele>1.0</ele><time>2026-04-06T07:38:35Z</time></trkpt><trkpt lat="43.3665594656557" lon="10.451213047360737"><ele>1.0</ele><time>2026-04-06T07:38:36Z</time></trkpt><trkpt lat="43.36649624995035" lon="10.451230813478938"><ele>0.9999999999999999</ele><time>2026-04-06T07:38:37Z</time></trkpt><trkpt lat="43.36643448860738" lon="10.451249874319817"><ele>1.0</ele><time>2026-04-06T07:38:38Z</time></trkpt><trkpt lat="43.366373956360626" lon="10.45127518911221"><ele>1.0</ele><time>2026-04-06T07:38:39Z</time></trkpt><trkpt lat="43.3662498399797" lon="10.451318993411004"><ele>0.9999999999999999</ele><time>2026-04-06T07:38:41Z</time></trkpt><trkpt lat="43.36618888316086" lon="10.451343297575768"><ele>1.0</ele><time>2026-04-06T07:38:42Z</time></trkpt><trkpt lat="43.36612631560996" lon="10.451364534120083"><ele>1.0</ele><time>2026-04-06T07:38:43Z</time></trkpt><trkpt lat="43.366063411241285" lon="10.451385232948434"><ele>0.9999999999999999</ele><time>2026-04-06T07:38:44Z</time></trkpt><trkpt lat="43.365940707754056" lon="10.45143297056948"><ele>1.0</ele><time>2026-04-06T07:38:46Z</time></trkpt><trkpt lat="43.365821764281954" lon="10.451479118721187"><ele>1.0</ele><time>2026-04-06T07:38:48Z</time></trkpt><trkpt lat="43.365759102910175" lon="10.45149694052695"><ele>1.0</ele><time>2026-04-06T07:38:49Z</time></trkpt><trkpt lat="43.36569655289317" lon="10.451519484342331"><ele>0.9999999999999999</ele><time>2026-04-06T07:38:50Z</time></trkpt><trkpt lat="43.365634631367406" lon="10.451536534650595"><ele>1.0</ele><time>2026-04-06T07:38:51Z</time></trkpt><trkpt lat="43.36551170303648" lon="10.451581632861872"><ele>0.9999999999999999</ele><time>2026-04-06T07:38:53Z</time></trkpt><trkpt lat="43.365391157463435" lon="10.451624030248622"><ele>1.0</ele><time>2026-04-06T07:38:55Z</time></trkpt><trkpt lat="43.365329291830754" lon="10.45164670928497"><ele>1.0</ele><time>2026-04-06T07:38:56Z</time></trkpt><trkpt lat="43.36520573292353" lon="10.45168997734345"><ele>1.0</ele><time>2026-04-06T07:38:58Z</time></trkpt><trkpt lat="43.365144159046096" lon="10.451711267685189"><ele>0.9999999999999999</ele><time>2026-04-06T07:38:59Z</time></trkpt><trkpt lat="43.36508185586508" lon="10.451734426523862"><ele>1.0</ele><time>2026-04-06T07:39:00Z</time></trkpt><trkpt lat="43.36502016211971" lon="10.451757545950414"><ele>1.0</ele><time>2026-04-06T07:39:01Z</time></trkpt><trkpt lat="43.36495868745704" lon="10.451779235465299"><ele>0.9999999999999999</ele><time>2026-04-06T07:39:02Z</time></trkpt><trkpt lat="43.3648966024073" lon="10.451799408699609"><ele>1.0</ele><time>2026-04-06T07:39:03Z</time></trkpt><trkpt lat="43.36483512724116" lon="10.451824442975589"><ele>1.0</ele><time>2026-04-06T07:39:04Z</time></trkpt><trkpt lat="43.36477325546944" lon="10.45184930743387"><ele>0.9999999999999999</ele><time>2026-04-06T07:39:05Z</time></trkpt><trkpt lat="43.364711085992255" lon="10.451870920806185"><ele>1.0</ele><time>2026-04-06T07:39:06Z</time></trkpt><trkpt lat="43.36458634415228" lon="10.451915233233823"><ele>1.0</ele><time>2026-04-06T07:39:08Z</time></trkpt><trkpt lat="43.36446320190884" lon="10.451955835599588"><ele>0.8571428571428571</ele><time>2026-04-06T07:39:10Z</time></trkpt><trkpt lat="43.364401031137156" lon="10.451976732383383"><ele>0.7142857142857142</ele><time>2026-04-06T07:39:11Z</time></trkpt><trkpt lat="43.36433776246798" lon="10.452000471586947"><ele>0.5714285714285714</ele><time>2026-04-06T07:39:12Z</time></trkpt><trkpt lat="43.36421407674148" lon="10.452041384305028"><ele>0.42857142857142855</ele><time>2026-04-06T07:39:14Z</time></trkpt><trkpt lat="43.36415256466443" lon="10.452064333325938"><ele>0.2857142857142857</ele><time>2026-04-06T07:39:15Z</time></trkpt><trkpt lat="43.3640905232103" lon="10.452086644088409"><ele>0.14285714285714285</ele><time>2026-04-06T07:39:16Z</time></trkpt><trkpt lat="43.36402801620198" lon="10.452109704776326"><ele>0.0</ele><time>2026-04-06T07:39:17Z</time></trkpt><trkpt lat="43.36396527128725" lon="10.452133392498084"><ele>0.16666666666666666</ele><time>2026-04-06T07:39:18Z</time></trkpt><trkpt lat="43.36384546900383" lon="10.452177726651854"><ele>0.3333333333333333</ele><time>2026-04-06T07:39:20Z</time></trkpt><trkpt lat="43.363782132464046" lon="10.45220168731371"><ele>0.5</ele><time>2026-04-06T07:39:21Z</time></trkpt><trkpt lat="43.36372081881002" lon="10.452223217842588"><ele>0.6666666666666666</ele><time>2026-04-06T07:39:22Z</time></trkpt><trkpt lat="43.36365637431404" lon="10.452247602116481"><ele>0.8333333333333333</ele><time>2026-04-06T07:39:23Z</time></trkpt><trkpt lat="43.36353424188784" lon="10.452286467871456"><ele>1.0</ele><time>2026-04-06T07:39:25Z</time></trkpt><trkpt lat="43.36347028176914" lon="10.452308124610768"><ele>1.0</ele><time>2026-04-06T07:39:26Z</time></trkpt><trkpt lat="43.363408383726814" lon="10.452331816874965"><ele>0.9999999999999999</ele><time>2026-04-06T07:39:27Z</time></trkpt><trkpt lat="43.363344765709094" lon="10.452355731062037"><ele>1.0</ele><time>2026-04-06T07:39:28Z</time></trkpt><trkpt lat="43.36328390140437" lon="10.45238036955867"><ele>1.0</ele><time>2026-04-06T07:39:29Z</time></trkpt><trkpt lat="43.36322131523773" lon="10.452401824995878"><ele>0.9999999999999999</ele><time>2026-04-06T07:39:30Z</time></trkpt><trkpt lat="43.36315793397123" lon="10.452426572915646"><ele>1.0</ele><time>2026-04-06T07:39:31Z</time></trkpt><trkpt lat="43.36309449078726" lon="10.452451015732603"><ele>1.0</ele><time>2026-04-06T07:39:32Z</time></trkpt><trkpt lat="43.36303257763559" lon="10.452472566357388"><ele>0.9999999999999999</ele><time>2026-04-06T07:39:33Z</time></trkpt><trkpt lat="43.36296903007033" lon="10.452496136120352"><ele>1.0</ele><time>2026-04-06T07:39:34Z</time></trkpt><trkpt lat="43.362846046068526" lon="10.45254449027195"><ele>1.0</ele><time>2026-04-06T07:39:36Z</time></trkpt><trkpt lat="43.3627762954159" lon="10.45256353269722"><ele>1.0</ele><time>2026-04-06T07:39:37Z</time></trkpt><trkpt lat="43.36271378992506" lon="10.452585618906596"><ele>0.9999999999999999</ele><time>2026-04-06T07:39:38Z</time></trkpt><trkpt lat="43.362648741203515" lon="10.452605194284379"><ele>1.0</ele><time>2026-04-06T07:39:39Z</time></trkpt><trkpt lat="43.3625857450405" lon="10.452626713676267"><ele>0.9999999999999999</ele><time>2026-04-06T07:39:40Z</time></trkpt><trkpt lat="43.362523171158365" lon="10.452649034801139"><ele>1.0</ele><time>2026-04-06T07:39:41Z</time></trkpt><trkpt lat="43.36240180323829" lon="10.452694755348015"><ele>1.0</ele><time>2026-04-06T07:39:42.999Z</time></trkpt><trkpt lat="43.36233763210031" lon="10.45271961270887"><ele>1.0</ele><time>2026-04-06T07:39:43.999Z</time></trkpt><trkpt lat="43.36227434998898" lon="10.45274489679999"><ele>0.9999999999999999</ele><time>2026-04-06T07:39:44.999Z</time></trkpt><trkpt lat="43.36221302378142" lon="10.45276777548182"><ele>1.0</ele><time>2026-04-06T07:39:45.999Z</time></trkpt><trkpt lat="43.36215077617685" lon="10.45278881909083"><ele>0.8333333333333333</ele><time>2026-04-06T07:39:46.999Z</time></trkpt><trkpt lat="43.36208532723442" lon="10.452811275787738"><ele>0.6666666666666666</ele><time>2026-04-06T07:39:47.999Z</time></trkpt><trkpt lat="43.362023503220556" lon="10.452831253550334"><ele>0.5</ele><time>2026-04-06T07:39:48.999Z</time></trkpt><trkpt lat="43.36196063981609" lon="10.45285741862011"><ele>0.3333333333333333</ele><time>2026-04-06T07:39:49.999Z</time></trkpt><trkpt lat="43.36189556978367" lon="10.452878119301351"><ele>0.16666666666666666</ele><time>2026-04-06T07:39:50.999Z</time></trkpt><trkpt lat="43.361774594391385" lon="10.452926027461707"><ele>0.0</ele><time>2026-04-06T07:39:52.999Z</time></trkpt><trkpt lat="43.36171018495209" lon="10.452949025285557"><ele>0.2</ele><time>2026-04-06T07:39:53.999Z</time></trkpt><trkpt lat="43.3616483114726" lon="10.452972454587352"><ele>0.4</ele><time>2026-04-06T07:39:54.999Z</time></trkpt><trkpt lat="43.361585110915726" lon="10.452995456823087"><ele>0.6000000000000001</ele><time>2026-04-06T07:39:55.999Z</time></trkpt><trkpt lat="43.361459391986436" lon="10.45304147617181"><ele>0.8</ele><time>2026-04-06T07:39:57.999Z</time></trkpt><trkpt lat="43.36133242949794" lon="10.453082047787596"><ele>1.0</ele><time>2026-04-06T07:39:59.999Z</time></trkpt><trkpt lat="43.361268337553675" lon="10.453103308680694"><ele>0.9999999999999999</ele><time>2026-04-06T07:40:00.999Z</time></trkpt><trkpt lat="43.36120551862392" lon="10.45312619238745"><ele>1.0</ele><time>2026-04-06T07:40:02Z</time></trkpt><trkpt lat="43.36114401363584" lon="10.453148872979973"><ele>1.0</ele><time>2026-04-06T07:40:03Z</time></trkpt><trkpt lat="43.361082537970844" lon="10.453172036708992"><ele>1.0</ele><time>2026-04-06T07:40:04Z</time></trkpt><trkpt lat="43.36102106777605" lon="10.453194678190897"><ele>0.9999999999999999</ele><time>2026-04-06T07:40:05Z</time></trkpt><trkpt lat="43.36090730194371" lon="10.453241840716213"><ele>1.0</ele><time>2026-04-06T07:40:07Z</time></trkpt><trkpt lat="43.36079100431642" lon="10.45327774484128"><ele>1.0</ele><time>2026-04-06T07:40:09Z</time></trkpt><trkpt lat="43.36066812127254" lon="10.453324445707919"><ele>1.0</ele><time>2026-04-06T07:40:11Z</time></trkpt><trkpt lat="43.3606069777432" lon="10.453346351288465"><ele>1.0</ele><time>2026-04-06T07:40:12Z</time></trkpt><trkpt lat="43.36054509880036" lon="10.453368758857067"><ele>1.0</ele><time>2026-04-06T07:40:13Z</time></trkpt><trkpt lat="43.36048093244382" lon="10.453397387482527"><ele>1.0</ele><time>2026-04-06T07:40:14Z</time></trkpt><trkpt lat="43.360357296817924" lon="10.453440325287657"><ele>0.8571428571428571</ele><time>2026-04-06T07:40:16Z</time></trkpt><trkpt lat="43.36029194649345" lon="10.453459464391194"><ele>0.7142857142857142</ele><time>2026-04-06T07:40:17Z</time></trkpt><trkpt lat="43.360230075654044" lon="10.453480320343036"><ele>0.5714285714285714</ele><time>2026-04-06T07:40:18Z</time></trkpt><trkpt lat="43.36016632464217" lon="10.453503405796242"><ele>0.42857142857142855</ele><time>2026-04-06T07:40:19Z</time></trkpt><trkpt lat="43.360103888652546" lon="10.45352437894794"><ele>0.2857142857142857</ele><time>2026-04-06T07:40:20Z</time></trkpt><trkpt lat="43.36004209847339" lon="10.453547446395719"><ele>0.14285714285714285</ele><time>2026-04-06T07:40:21Z</time></trkpt><trkpt lat="43.35997871011098" lon="10.453569817468017"><ele>0.0</ele><time>2026-04-06T07:40:22Z</time></trkpt><trkpt lat="43.35986021618722" lon="10.453613113597605"><ele>0.0</ele><time>2026-04-06T07:40:24Z</time></trkpt><trkpt lat="43.359744438095554" lon="10.453660906701943"><ele>0.0</ele><time>2026-04-06T07:40:26Z</time></trkpt><trkpt lat="43.35963176334227" lon="10.453688752896387"><ele>0.0</ele><time>2026-04-06T07:40:28Z</time></trkpt><trkpt lat="43.35956912073004" lon="10.4537027286431"><ele>0.0</ele><time>2026-04-06T07:40:30Z</time></trkpt><trkpt lat="43.359485690639694" lon="10.453742146466599"><ele>0.0</ele><time>2026-04-06T07:40:33Z</time></trkpt><trkpt lat="43.35939712635718" lon="10.453773847521468"><ele>0.2</ele><time>2026-04-06T07:40:35Z</time></trkpt><trkpt lat="43.35930300288205" lon="10.453807538463659"><ele>0.4</ele><time>2026-04-06T07:40:37Z</time></trkpt><trkpt lat="43.35920396081474" lon="10.45384299000189"><ele>0.6000000000000001</ele><time>2026-04-06T07:40:39Z</time></trkpt><trkpt lat="43.359104740247254" lon="10.453878505425836"><ele>0.8</ele><time>2026-04-06T07:40:41Z</time></trkpt><trkpt lat="43.35901203103197" lon="10.453911690131726"><ele>1.0</ele><time>2026-04-06T07:40:43Z</time></trkpt><trkpt lat="43.35888751963863" lon="10.453796358016747"><ele>0.8</ele><time>2026-04-06T07:40:45Z</time></trkpt><trkpt lat="43.358798200151256" lon="10.453836044486602"><ele>0.6000000000000001</ele><time>2026-04-06T07:40:47Z</time></trkpt><trkpt lat="43.35873080874831" lon="10.45390130787296"><ele>0.4</ele><time>2026-04-06T07:40:49Z</time></trkpt><trkpt lat="43.35869408000776" lon="10.454019134607261"><ele>0.2</ele><time>2026-04-06T07:40:51Z</time></trkpt><trkpt lat="43.35861448257375" lon="10.454095751830575"><ele>0.0</ele><time>2026-04-06T07:40:53Z</time></trkpt><trkpt lat="43.35850567119934" lon="10.454139725911322"><ele>0.0</ele><time>2026-04-06T07:40:55Z</time></trkpt><trkpt lat="43.358392773728816" lon="10.454185954527595"><ele>0.0</ele><time>2026-04-06T07:40:57Z</time></trkpt><trkpt lat="43.35827452821827" lon="10.454226045054513"><ele>0.0</ele><time>2026-04-06T07:40:59Z</time></trkpt><trkpt lat="43.3581537985013" lon="10.45426127272013"><ele>0.0</ele><time>2026-04-06T07:41:01Z</time></trkpt><trkpt lat="43.358091792615575" lon="10.454286686268903"><ele>0.0</ele><time>2026-04-06T07:41:02Z</time></trkpt><trkpt lat="43.358030269515524" lon="10.454309894904055"><ele>0.2857142857142857</ele><time>2026-04-06T07:41:03Z</time></trkpt><trkpt lat="43.35796901095273" lon="10.454334591439624"><ele>0.5714285714285714</ele><time>2026-04-06T07:41:04Z</time></trkpt><trkpt lat="43.357907431197" lon="10.454356146398258"><ele>0.8571428571428571</ele><time>2026-04-06T07:41:05Z</time></trkpt><trkpt lat="43.35784309441922" lon="10.4543776156563"><ele>1.1428571428571428</ele><time>2026-04-06T07:41:06Z</time></trkpt><trkpt lat="43.3577796784267" lon="10.454398508789374"><ele>1.4285714285714284</ele><time>2026-04-06T07:41:07Z</time></trkpt><trkpt lat="43.3577158491544" lon="10.454419318131686"><ele>1.7142857142857142</ele><time>2026-04-06T07:41:08Z</time></trkpt><trkpt lat="43.3576510499394" lon="10.454440352516"><ele>2.0</ele><time>2026-04-06T07:41:09Z</time></trkpt><trkpt lat="43.3575863604688" lon="10.454462938014954"><ele>2.0</ele><time>2026-04-06T07:41:10Z</time></trkpt><trkpt lat="43.357522419122965" lon="10.45448859128289"><ele>1.9999999999999998</ele><time>2026-04-06T07:41:11Z</time></trkpt><trkpt lat="43.357458212359944" lon="10.45450995648628"><ele>2.0</ele><time>2026-04-06T07:41:12Z</time></trkpt><trkpt lat="43.35739493151514" lon="10.454532107578455"><ele>2.0</ele><time>2026-04-06T07:41:13Z</time></trkpt><trkpt lat="43.35733003097131" lon="10.454556501157734"><ele>1.9999999999999998</ele><time>2026-04-06T07:41:14Z</time></trkpt><trkpt lat="43.35726543856122" lon="10.454579789371651"><ele>2.0</ele><time>2026-04-06T07:41:15Z</time></trkpt><trkpt lat="43.357201882500846" lon="10.454601157465243"><ele>2.0</ele><time>2026-04-06T07:41:16Z</time></trkpt><trkpt lat="43.357136951481195" lon="10.454624378606095"><ele>1.857142857142857</ele><time>2026-04-06T07:41:17Z</time></trkpt><trkpt lat="43.3570759145726" lon="10.454650764320675"><ele>1.714285714285714</ele><time>2026-04-06T07:41:18Z</time></trkpt><trkpt lat="43.35701353194206" lon="10.454673496232664"><ele>1.5714285714285714</ele><time>2026-04-06T07:41:19Z</time></trkpt><trkpt lat="43.35695283824793" lon="10.454698580721443"><ele>1.4285714285714284</ele><time>2026-04-06T07:41:20Z</time></trkpt><trkpt lat="43.35688911931434" lon="10.45471635429976"><ele>1.2857142857142856</ele><time>2026-04-06T07:41:21Z</time></trkpt><trkpt lat="43.356825334698954" lon="10.454741165066656"><ele>1.1428571428571428</ele><time>2026-04-06T07:41:22Z</time></trkpt><trkpt lat="43.35676306787256" lon="10.454764590626173"><ele>1.0</ele><time>2026-04-06T07:41:23Z</time></trkpt><trkpt lat="43.35669918534691" lon="10.4547868527409"><ele>1.0</ele><time>2026-04-06T07:41:24Z</time></trkpt><trkpt lat="43.35663667775286" lon="10.454810530590619"><ele>0.9999999999999999</ele><time>2026-04-06T07:41:25Z</time></trkpt><trkpt lat="43.35657570305075" lon="10.454838500794693"><ele>1.0</ele><time>2026-04-06T07:41:26Z</time></trkpt><trkpt lat="43.35651028242195" lon="10.45486471647739"><ele>1.0</ele><time>2026-04-06T07:41:27Z</time></trkpt><trkpt lat="43.35644750732124" lon="10.454887264677911"><ele>0.9999999999999999</ele><time>2026-04-06T07:41:28Z</time></trkpt><trkpt lat="43.35638351396107" lon="10.454913334573487"><ele>1.0</ele><time>2026-04-06T07:41:29Z</time></trkpt><trkpt lat="43.35631950250331" lon="10.45494101566956"><ele>1.0</ele><time>2026-04-06T07:41:30Z</time></trkpt><trkpt lat="43.356252874856786" lon="10.454963499111816"><ele>0.8571428571428571</ele><time>2026-04-06T07:41:31Z</time></trkpt><trkpt lat="43.35618703843194" lon="10.454980957452783"><ele>0.7142857142857142</ele><time>2026-04-06T07:41:32Z</time></trkpt><trkpt lat="43.3561253284177" lon="10.455006217824176"><ele>0.5714285714285714</ele><time>2026-04-06T07:41:33Z</time></trkpt><trkpt lat="43.35606006100493" lon="10.455039019038875"><ele>0.42857142857142855</ele><time>2026-04-06T07:41:34Z</time></trkpt><trkpt lat="43.35599386206355" lon="10.455064267693103"><ele>0.2857142857142857</ele><time>2026-04-06T07:41:35Z</time></trkpt><trkpt lat="43.35592572233579" lon="10.455086625639586"><ele>0.14285714285714285</ele><time>2026-04-06T07:41:36Z</time></trkpt><trkpt lat="43.3558596642094" lon="10.455107842083684"><ele>0.0</ele><time>2026-04-06T07:41:37Z</time></trkpt><trkpt lat="43.355794271777015" lon="10.45512980227768"><ele>0.0</ele><time>2026-04-06T07:41:38Z</time></trkpt><trkpt lat="43.35573052379782" lon="10.455153485381109"><ele>0.0</ele><time>2026-04-06T07:41:39Z</time></trkpt><trkpt lat="43.3556667573265" lon="10.455182522398239"><ele>0.0</ele><time>2026-04-06T07:41:40Z</time></trkpt><trkpt lat="43.35560375123595" lon="10.455208197612672"><ele>0.0</ele><time>2026-04-06T07:41:41Z</time></trkpt><trkpt lat="43.355540158791584" lon="10.455233424758609"><ele>0.0</ele><time>2026-04-06T07:41:42Z</time></trkpt><trkpt lat="43.35541567270198" lon="10.455277084081704"><ele>0.0</ele><time>2026-04-06T07:41:44Z</time></trkpt><trkpt lat="43.3553515352909" lon="10.455293186661075"><ele>0.16666666666666666</ele><time>2026-04-06T07:41:45Z</time></trkpt><trkpt lat="43.35528630843949" lon="10.455303009757028"><ele>0.3333333333333333</ele><time>2026-04-06T07:41:46Z</time></trkpt><trkpt lat="43.35522083830956" lon="10.455290965670308"><ele>0.5</ele><time>2026-04-06T07:41:47Z</time></trkpt><trkpt lat="43.355155248495436" lon="10.455274873966987"><ele>0.6666666666666666</ele><time>2026-04-06T07:41:48Z</time></trkpt><trkpt lat="43.355088258334106" lon="10.45527602113462"><ele>0.8333333333333333</ele><time>2026-04-06T07:41:49Z</time></trkpt><trkpt lat="43.35497490784319" lon="10.455339784879403"><ele>1.0</ele><time>2026-04-06T07:41:51Z</time></trkpt><trkpt lat="43.35494158359788" lon="10.455421132723089"><ele>0.9999999999999999</ele><time>2026-04-06T07:41:52Z</time></trkpt><trkpt lat="43.35486951896514" lon="10.45543613065882"><ele>1.0</ele><time>2026-04-06T07:41:53Z</time></trkpt><trkpt lat="43.35475175139647" lon="10.455502490952243"><ele>1.0</ele><time>2026-04-06T07:41:55Z</time></trkpt><trkpt lat="43.35469020636438" lon="10.455528575382147"><ele>1.0</ele><time>2026-04-06T07:41:55.999Z</time></trkpt><trkpt lat="43.35462710024483" lon="10.455551851479399"><ele>0.9999999999999999</ele><time>2026-04-06T07:41:56.999Z</time></trkpt><trkpt lat="43.35456362771335" lon="10.455574346008452"><ele>1.0</ele><time>2026-04-06T07:41:57.999Z</time></trkpt><trkpt lat="43.35450257073672" lon="10.455598639347494"><ele>0.9999999999999999</ele><time>2026-04-06T07:41:58.999Z</time></trkpt><trkpt lat="43.35438192909932" lon="10.455654725831163"><ele>1.0</ele><time>2026-04-06T07:42:00.999Z</time></trkpt><trkpt lat="43.354317901543446" lon="10.455675519764519"><ele>1.0</ele><time>2026-04-06T07:42:01.999Z</time></trkpt><trkpt lat="43.35425625583791" lon="10.455693459103822"><ele>1.0</ele><time>2026-04-06T07:42:02.999Z</time></trkpt><trkpt lat="43.35419447730981" lon="10.455714498609137"><ele>0.9999999999999999</ele><time>2026-04-06T07:42:03.999Z</time></trkpt><trkpt lat="43.35413305014628" lon="10.455735753334753"><ele>1.0</ele><time>2026-04-06T07:42:04.999Z</time></trkpt><trkpt lat="43.35401414999008" lon="10.455775257613094"><ele>1.0</ele><time>2026-04-06T07:42:06.999Z</time></trkpt><trkpt lat="43.35388894742276" lon="10.455804254752517"><ele>1.0</ele><time>2026-04-06T07:42:09Z</time></trkpt><trkpt lat="43.353823188229256" lon="10.455819118246572"><ele>1.0</ele><time>2026-04-06T07:42:10Z</time></trkpt><trkpt lat="43.35371365688337" lon="10.455881082379715"><ele>1.0</ele><time>2026-04-06T07:42:12Z</time></trkpt><trkpt lat="43.35364983456183" lon="10.455904852825954"><ele>1.0</ele><time>2026-04-06T07:42:13Z</time></trkpt><trkpt lat="43.353526460211384" lon="10.455948744937713"><ele>0.9999999999999999</ele><time>2026-04-06T07:42:15Z</time></trkpt><trkpt lat="43.353464541139914" lon="10.455979653699957"><ele>1.0</ele><time>2026-04-06T07:42:16Z</time></trkpt><trkpt lat="43.353393152467646" lon="10.456011610521719"><ele>1.0</ele><time>2026-04-06T07:42:17Z</time></trkpt><trkpt lat="43.35326885460322" lon="10.456050586929663"><ele>1.0</ele><time>2026-04-06T07:42:19Z</time></trkpt><trkpt lat="43.35320354083122" lon="10.456076725460639"><ele>0.9999999999999999</ele><time>2026-04-06T07:42:20Z</time></trkpt><trkpt lat="43.35313965207741" lon="10.45610217506464"><ele>1.0</ele><time>2026-04-06T07:42:21Z</time></trkpt><trkpt lat="43.35307619358858" lon="10.456133412616326"><ele>1.0</ele><time>2026-04-06T07:42:22Z</time></trkpt><trkpt lat="43.3530135243712" lon="10.456157224384043"><ele>0.9999999999999999</ele><time>2026-04-06T07:42:23Z</time></trkpt><trkpt lat="43.35295142050896" lon="10.456177401817827"><ele>1.0</ele><time>2026-04-06T07:42:24Z</time></trkpt><trkpt lat="43.35288723708919" lon="10.4561948781618"><ele>1.0</ele><time>2026-04-06T07:42:25Z</time></trkpt><trkpt lat="43.35282470834933" lon="10.456217188823878"><ele>0.9999999999999999</ele><time>2026-04-06T07:42:26Z</time></trkpt><trkpt lat="43.35276138741939" lon="10.456240189891952"><ele>1.0</ele><time>2026-04-06T07:42:27Z</time></trkpt><trkpt lat="43.352702159916696" lon="10.456270831015619"><ele>1.0</ele><time>2026-04-06T07:42:28Z</time></trkpt><trkpt lat="43.35264054346653" lon="10.456292110408006"><ele>0.9999999999999999</ele><time>2026-04-06T07:42:29Z</time></trkpt><trkpt lat="43.352576664562406" lon="10.456310385439057"><ele>1.0</ele><time>2026-04-06T07:42:30Z</time></trkpt><trkpt lat="43.35251234170776" lon="10.456332159543127"><ele>1.0</ele><time>2026-04-06T07:42:31Z</time></trkpt><trkpt lat="43.35240136959925" lon="10.456381390858656"><ele>1.0</ele><time>2026-04-06T07:42:33Z</time></trkpt><trkpt lat="43.35233517666689" lon="10.456409530831571"><ele>0.9999999999999999</ele><time>2026-04-06T07:42:34Z</time></trkpt><trkpt lat="43.352272842609224" lon="10.456432090379693"><ele>1.0</ele><time>2026-04-06T07:42:35Z</time></trkpt><trkpt lat="43.35216292963693" lon="10.456485388089257"><ele>1.2000000000000002</ele><time>2026-04-06T07:42:37Z</time></trkpt><trkpt lat="43.35204218257372" lon="10.456518023235436"><ele>1.4000000000000001</ele><time>2026-04-06T07:42:39Z</time></trkpt><trkpt lat="43.35192119422746" lon="10.456539815232636"><ele>1.6</ele><time>2026-04-06T07:42:41Z</time></trkpt><trkpt lat="43.35186006334291" lon="10.45656378853662"><ele>1.8</ele><time>2026-04-06T07:42:42Z</time></trkpt><trkpt lat="43.351804336734666" lon="10.456605038040461"><ele>2.0</ele><time>2026-04-06T07:42:43Z</time></trkpt><trkpt lat="43.35169738822089" lon="10.45669951149029"><ele>2.0</ele><time>2026-04-06T07:42:45Z</time></trkpt><trkpt lat="43.3516508122537" lon="10.456758095959987"><ele>1.9999999999999998</ele><time>2026-04-06T07:42:46Z</time></trkpt><trkpt lat="43.351612853047" lon="10.456832613942781"><ele>2.0</ele><time>2026-04-06T07:42:47Z</time></trkpt><trkpt lat="43.35160155899379" lon="10.456918206268597"><ele>2.0</ele><time>2026-04-06T07:42:48Z</time></trkpt><trkpt lat="43.35160127034552" lon="10.457016330279412"><ele>1.9999999999999998</ele><time>2026-04-06T07:42:49Z</time></trkpt><trkpt lat="43.351597306545166" lon="10.45711677106884"><ele>2.0</ele><time>2026-04-06T07:42:50Z</time></trkpt><trkpt lat="43.351560141735746" lon="10.457187751176093"><ele>2.0</ele><time>2026-04-06T07:42:51Z</time></trkpt><trkpt lat="43.351518834445805" lon="10.457254464168507"><ele>2.0</ele><time>2026-04-06T07:42:52Z</time></trkpt><trkpt lat="43.351451642067055" lon="10.457401452681273"><ele>2.0</ele><time>2026-04-06T07:42:54Z</time></trkpt><trkpt lat="43.35138075030823" lon="10.457550420108982"><ele>2.0</ele><time>2026-04-06T07:42:56Z</time></trkpt><trkpt lat="43.35131656003365" lon="10.457702271809515"><ele>2.0</ele><time>2026-04-06T07:42:58Z</time></trkpt><trkpt lat="43.3512808751756" lon="10.457776942581157"><ele>2.0</ele><time>2026-04-06T07:42:59Z</time></trkpt><trkpt lat="43.35124600068251" lon="10.457854785555437"><ele>1.9999999999999998</ele><time>2026-04-06T07:43:00Z</time></trkpt><trkpt lat="43.35120813493736" lon="10.457927827412659"><ele>2.0</ele><time>2026-04-06T07:43:01Z</time></trkpt><trkpt lat="43.35117143857485" lon="10.45800133597923"><ele>2.0</ele><time>2026-04-06T07:43:02Z</time></trkpt><trkpt lat="43.35109972749679" lon="10.458146077004589"><ele>2.0</ele><time>2026-04-06T07:43:04Z</time></trkpt><trkpt lat="43.351060888860516" lon="10.45821869745757"><ele>1.9999999999999998</ele><time>2026-04-06T07:43:05Z</time></trkpt><trkpt lat="43.35099652396192" lon="10.458362443704132"><ele>2.0</ele><time>2026-04-06T07:43:07Z</time></trkpt><trkpt lat="43.350954954457556" lon="10.458434649140422"><ele>2.0</ele><time>2026-04-06T07:43:08Z</time></trkpt><trkpt lat="43.35091748295458" lon="10.458506212759374"><ele>1.9999999999999998</ele><time>2026-04-06T07:43:09Z</time></trkpt><trkpt lat="43.350879458070494" lon="10.45857880871897"><ele>2.0</ele><time>2026-04-06T07:43:10Z</time></trkpt><trkpt lat="43.350841951812264" lon="10.458649593072087"><ele>2.0</ele><time>2026-04-06T07:43:11Z</time></trkpt><trkpt lat="43.350773100056905" lon="10.458796578264014"><ele>1.9999999999999998</ele><time>2026-04-06T07:43:13Z</time></trkpt><trkpt lat="43.35073593858525" lon="10.45886910351374"><ele>2.0</ele><time>2026-04-06T07:43:14Z</time></trkpt><trkpt lat="43.350700187133995" lon="10.458942963666617"><ele>2.0</ele><time>2026-04-06T07:43:15Z</time></trkpt><trkpt lat="43.3506662492534" lon="10.45901796232429"><ele>2.1666666666666665</ele><time>2026-04-06T07:43:16Z</time></trkpt><trkpt lat="43.350632340508945" lon="10.459091609801803"><ele>2.333333333333333</ele><time>2026-04-06T07:43:17Z</time></trkpt><trkpt lat="43.35059792615544" lon="10.459168379778125"><ele>2.5</ele><time>2026-04-06T07:43:18Z</time></trkpt><trkpt lat="43.35053268359125" lon="10.459312746254806"><ele>2.6666666666666665</ele><time>2026-04-06T07:43:20Z</time></trkpt><trkpt lat="43.350498360408956" lon="10.459388502776804"><ele>2.8333333333333335</ele><time>2026-04-06T07:43:21Z</time></trkpt><trkpt lat="43.35046273737035" lon="10.459464742022787"><ele>3.0</ele><time>2026-04-06T07:43:22Z</time></trkpt><trkpt lat="43.35039244639379" lon="10.45960950971866"><ele>3.4</ele><time>2026-04-06T07:43:24Z</time></trkpt><trkpt lat="43.350353982084435" lon="10.459678920073939"><ele>3.8</ele><time>2026-04-06T07:43:25Z</time></trkpt><trkpt lat="43.35028373273281" lon="10.459818662017941"><ele>4.2</ele><time>2026-04-06T07:43:27Z</time></trkpt><trkpt lat="43.35021655771595" lon="10.459965914364224"><ele>4.6</ele><time>2026-04-06T07:43:29Z</time></trkpt><trkpt lat="43.35015775118101" lon="10.460113038107385"><ele>5.0</ele><time>2026-04-06T07:43:31Z</time></trkpt><trkpt lat="43.35012539193267" lon="10.46018880375912"><ele>5.0</ele><time>2026-04-06T07:43:32Z</time></trkpt><trkpt lat="43.35007774781712" lon="10.460249000880426"><ele>5.0</ele><time>2026-04-06T07:43:33Z</time></trkpt><trkpt lat="43.35005400750868" lon="10.460335095764394"><ele>5.0</ele><time>2026-04-06T07:43:34Z</time></trkpt><trkpt lat="43.35000563657835" lon="10.460395740093421"><ele>5.0</ele><time>2026-04-06T07:43:35Z</time></trkpt><trkpt lat="43.349944434397365" lon="10.460547412445987"><ele>5.0</ele><time>2026-04-06T07:43:37Z</time></trkpt><trkpt lat="43.349907769942426" lon="10.460624532826035"><ele>5.0</ele><time>2026-04-06T07:43:38Z</time></trkpt><trkpt lat="43.349871120267025" lon="10.46069882216386"><ele>5.0</ele><time>2026-04-06T07:43:39Z</time></trkpt><trkpt lat="43.34982590249619" lon="10.4607664915329"><ele>5.0</ele><time>2026-04-06T07:43:40Z</time></trkpt><trkpt lat="43.349791843315096" lon="10.46084235805567"><ele>5.0</ele><time>2026-04-06T07:43:41Z</time></trkpt><trkpt lat="43.34975524414428" lon="10.460913997568474"><ele>5.0</ele><time>2026-04-06T07:43:42Z</time></trkpt><trkpt lat="43.349716721306706" lon="10.460986542551304"><ele>5.0</ele><time>2026-04-06T07:43:43Z</time></trkpt><trkpt lat="43.34964042849832" lon="10.46112831415705"><ele>5.0</ele><time>2026-04-06T07:43:45Z</time></trkpt><trkpt lat="43.34959731256248" lon="10.461200853035704"><ele>5.0</ele><time>2026-04-06T07:43:46Z</time></trkpt><trkpt lat="43.34952533235454" lon="10.461346122964795"><ele>5.0</ele><time>2026-04-06T07:43:48Z</time></trkpt><trkpt lat="43.349453713758344" lon="10.461486369975196"><ele>5.0</ele><time>2026-04-06T07:43:50Z</time></trkpt><trkpt lat="43.349420532584894" lon="10.461560643672515"><ele>5.0</ele><time>2026-04-06T07:43:51Z</time></trkpt><trkpt lat="43.34938501300068" lon="10.461636142660009"><ele>5.0</ele><time>2026-04-06T07:43:52Z</time></trkpt><trkpt lat="43.349348573880555" lon="10.461709568388127"><ele>5.0</ele><time>2026-04-06T07:43:53Z</time></trkpt><trkpt lat="43.3493094119789" lon="10.46177990346835"><ele>5.0</ele><time>2026-04-06T07:43:54Z</time></trkpt><trkpt lat="43.34927350012601" lon="10.461854446416336"><ele>5.0</ele><time>2026-04-06T07:43:55Z</time></trkpt><trkpt lat="43.34923722378011" lon="10.461925674931315"><ele>5.0</ele><time>2026-04-06T07:43:56Z</time></trkpt><trkpt lat="43.34919977403668" lon="10.461995998431869"><ele>5.0</ele><time>2026-04-06T07:43:57Z</time></trkpt><trkpt lat="43.34916540402298" lon="10.462068760085371"><ele>5.0</ele><time>2026-04-06T07:43:58Z</time></trkpt><trkpt lat="43.34913098973215" lon="10.46214173558394"><ele>5.0</ele><time>2026-04-06T07:43:59Z</time></trkpt><trkpt lat="43.34906341113106" lon="10.462286382428049"><ele>5.0</ele><time>2026-04-06T07:44:00.999Z</time></trkpt><trkpt lat="43.34898657318726" lon="10.462422102516735"><ele>5.0</ele><time>2026-04-06T07:44:02.999Z</time></trkpt><trkpt lat="43.34893586078506" lon="10.462477597254589"><ele>5.0</ele><time>2026-04-06T07:44:03.999Z</time></trkpt><trkpt lat="43.34881613418589" lon="10.462532743440397"><ele>5.0</ele><time>2026-04-06T07:44:05.999Z</time></trkpt><trkpt lat="43.348715302220086" lon="10.46263055246983"><ele>5.0</ele><time>2026-04-06T07:44:07.999Z</time></trkpt><trkpt lat="43.348664883759625" lon="10.462789374214234"><ele>5.0</ele><time>2026-04-06T07:44:09.999Z</time></trkpt><trkpt lat="43.34870004280169" lon="10.462875740528647"><ele>5.0</ele><time>2026-04-06T07:44:10.999Z</time></trkpt><trkpt lat="43.348705771748484" lon="10.462963254270418"><ele>5.0</ele><time>2026-04-06T07:44:11.999Z</time></trkpt><trkpt lat="43.34878135202767" lon="10.463040907577867"><ele>5.0</ele><time>2026-04-06T07:44:14Z</time></trkpt><trkpt lat="43.348618190032994" lon="10.463202635741382"><ele>5.0</ele><time>2026-04-06T07:44:15Z</time></trkpt><trkpt lat="43.34854431876265" lon="10.463341713257563"><ele>5.0</ele><time>2026-04-06T07:44:17Z</time></trkpt><trkpt lat="43.34850846636733" lon="10.463413731264902"><ele>5.0</ele><time>2026-04-06T07:44:18Z</time></trkpt><trkpt lat="43.34847245498759" lon="10.463487271739249"><ele>5.0</ele><time>2026-04-06T07:44:19Z</time></trkpt><trkpt lat="43.348435192678416" lon="10.463562373308786"><ele>5.0</ele><time>2026-04-06T07:44:20Z</time></trkpt><trkpt lat="43.34836145357336" lon="10.46369629015065"><ele>5.0</ele><time>2026-04-06T07:44:22Z</time></trkpt><trkpt lat="43.348328823108375" lon="10.463773992688234"><ele>5.0</ele><time>2026-04-06T07:44:23Z</time></trkpt><trkpt lat="43.34829571971971" lon="10.46385276627073"><ele>5.0</ele><time>2026-04-06T07:44:24Z</time></trkpt><trkpt lat="43.34825921152794" lon="10.463928241556145"><ele>5.0</ele><time>2026-04-06T07:44:25Z</time></trkpt><trkpt lat="43.34821985227249" lon="10.464005193032449"><ele>5.0</ele><time>2026-04-06T07:44:26Z</time></trkpt><trkpt lat="43.34818179421859" lon="10.464078634705364"><ele>5.0</ele><time>2026-04-06T07:44:27Z</time></trkpt><trkpt lat="43.34814494981965" lon="10.464158412593326"><ele>5.0</ele><time>2026-04-06T07:44:28Z</time></trkpt><trkpt lat="43.34811078988577" lon="10.464233718102902"><ele>5.0</ele><time>2026-04-06T07:44:29Z</time></trkpt><trkpt lat="43.348074086120334" lon="10.46431064095401"><ele>5.0</ele><time>2026-04-06T07:44:30Z</time></trkpt><trkpt lat="43.348036423402114" lon="10.464386048193262"><ele>5.0</ele><time>2026-04-06T07:44:31Z</time></trkpt><trkpt lat="43.34800003602926" lon="10.464462295409266"><ele>4.571428571428571</ele><time>2026-04-06T07:44:32Z</time></trkpt><trkpt lat="43.34796569800466" lon="10.464536114614493"><ele>4.142857142857143</ele><time>2026-04-06T07:44:33Z</time></trkpt><trkpt lat="43.34792961553601" lon="10.464612295569186"><ele>3.7142857142857144</ele><time>2026-04-06T07:44:34Z</time></trkpt><trkpt lat="43.34789097804634" lon="10.46468551628429"><ele>3.2857142857142856</ele><time>2026-04-06T07:44:35Z</time></trkpt><trkpt lat="43.3478551711526" lon="10.464762553436067"><ele>2.8571428571428568</ele><time>2026-04-06T07:44:36Z</time></trkpt><trkpt lat="43.347818998876456" lon="10.464839735686882"><ele>2.4285714285714284</ele><time>2026-04-06T07:44:37Z</time></trkpt><trkpt lat="43.34778196291425" lon="10.464917725883733"><ele>2.0</ele><time>2026-04-06T07:44:38Z</time></trkpt><trkpt lat="43.34774389969371" lon="10.46499174901685"><ele>2.0</ele><time>2026-04-06T07:44:39Z</time></trkpt><trkpt lat="43.347705317462726" lon="10.465069800929244"><ele>1.9999999999999998</ele><time>2026-04-06T07:44:40Z</time></trkpt><trkpt lat="43.34766708633852" lon="10.465144932486915"><ele>2.0</ele><time>2026-04-06T07:44:41Z</time></trkpt><trkpt lat="43.347629335238096" lon="10.465219829921846"><ele>2.0</ele><time>2026-04-06T07:44:42Z</time></trkpt><trkpt lat="43.347592333415" lon="10.46529148159203"><ele>1.9999999999999998</ele><time>2026-04-06T07:44:43Z</time></trkpt><trkpt lat="43.347556317633654" lon="10.46536971511537"><ele>2.0</ele><time>2026-04-06T07:44:44Z</time></trkpt><trkpt lat="43.34752407605736" lon="10.46544721584204"><ele>2.0</ele><time>2026-04-06T07:44:45Z</time></trkpt><trkpt lat="43.34748266806284" lon="10.46552048467028"><ele>2.142857142857143</ele><time>2026-04-06T07:44:46Z</time></trkpt><trkpt lat="43.3474445872134" lon="10.465597761156316"><ele>2.2857142857142856</ele><time>2026-04-06T07:44:47Z</time></trkpt><trkpt lat="43.347405259693325" lon="10.465671366595469"><ele>2.4285714285714284</ele><time>2026-04-06T07:44:48Z</time></trkpt><trkpt lat="43.34736968919797" lon="10.465748080811489"><ele>2.571428571428571</ele><time>2026-04-06T07:44:49Z</time></trkpt><trkpt lat="43.34733475020183" lon="10.465826816642736"><ele>2.7142857142857144</ele><time>2026-04-06T07:44:50Z</time></trkpt><trkpt lat="43.347303841795174" lon="10.4659069371563"><ele>2.8571428571428568</ele><time>2026-04-06T07:44:51Z</time></trkpt><trkpt lat="43.34726402080088" lon="10.465983358057615"><ele>3.0</ele><time>2026-04-06T07:44:52Z</time></trkpt><trkpt lat="43.34722835828992" lon="10.466055461703432"><ele>2.8333333333333335</ele><time>2026-04-06T07:44:53Z</time></trkpt><trkpt lat="43.34719043191561" lon="10.46613100756471"><ele>2.6666666666666665</ele><time>2026-04-06T07:44:54Z</time></trkpt><trkpt lat="43.34714459412117" lon="10.466206456476556"><ele>2.5</ele><time>2026-04-06T07:44:55Z</time></trkpt><trkpt lat="43.34710656581617" lon="10.466315824591833"><ele>2.333333333333333</ele><time>2026-04-06T07:44:56Z</time></trkpt><trkpt lat="43.3470428684949" lon="10.46643371435847"><ele>2.1666666666666665</ele><time>2026-04-06T07:44:58Z</time></trkpt><trkpt lat="43.34699875697558" lon="10.466509171105253"><ele>2.0</ele><time>2026-04-06T07:44:59Z</time></trkpt><trkpt lat="43.3469589982345" lon="10.466586414986898"><ele>1.9999999999999998</ele><time>2026-04-06T07:45:00Z</time></trkpt><trkpt lat="43.34692389001146" lon="10.466664844727337"><ele>2.0</ele><time>2026-04-06T07:45:01Z</time></trkpt><trkpt lat="43.3468872465728" lon="10.466739293299065"><ele>2.0</ele><time>2026-04-06T07:45:02Z</time></trkpt><trkpt lat="43.34681649098816" lon="10.466884786485137"><ele>2.0</ele><time>2026-04-06T07:45:04Z</time></trkpt><trkpt lat="43.34677928421653" lon="10.466956995442128"><ele>1.9999999999999998</ele><time>2026-04-06T07:45:05Z</time></trkpt><trkpt lat="43.346742895112165" lon="10.46703197233938"><ele>2.0</ele><time>2026-04-06T07:45:06Z</time></trkpt><trkpt lat="43.34670534504244" lon="10.467103464117418"><ele>2.142857142857143</ele><time>2026-04-06T07:45:07Z</time></trkpt><trkpt lat="43.34666934370904" lon="10.467176473365978"><ele>2.2857142857142856</ele><time>2026-04-06T07:45:08Z</time></trkpt><trkpt lat="43.346633528057474" lon="10.467250968240892"><ele>2.4285714285714284</ele><time>2026-04-06T07:45:09Z</time></trkpt><trkpt lat="43.346597996376204" lon="10.467324964815237"><ele>2.571428571428571</ele><time>2026-04-06T07:45:10Z</time></trkpt><trkpt lat="43.34656119256191" lon="10.467398585074188"><ele>2.7142857142857144</ele><time>2026-04-06T07:45:11Z</time></trkpt><trkpt lat="43.34652505581287" lon="10.467472652576031"><ele>2.8571428571428568</ele><time>2026-04-06T07:45:12Z</time></trkpt><trkpt lat="43.34649029341406" lon="10.467546880351131"><ele>3.0</ele><time>2026-04-06T07:45:13Z</time></trkpt><trkpt lat="43.34645185804831" lon="10.467616611281743"><ele>3.0</ele><time>2026-04-06T07:45:14Z</time></trkpt><trkpt lat="43.346420177080425" lon="10.467693878395714"><ele>3.0</ele><time>2026-04-06T07:45:15Z</time></trkpt><trkpt lat="43.34634809380999" lon="10.46784368413397"><ele>3.0</ele><time>2026-04-06T07:45:17Z</time></trkpt><trkpt lat="43.34631206054136" lon="10.467917902134703"><ele>3.0</ele><time>2026-04-06T07:45:18Z</time></trkpt><trkpt lat="43.34627954879704" lon="10.467992571934007"><ele>3.0</ele><time>2026-04-06T07:45:19Z</time></trkpt><trkpt lat="43.34624413224939" lon="10.468066756651234"><ele>3.0</ele><time>2026-04-06T07:45:20Z</time></trkpt><trkpt lat="43.34617298599718" lon="10.46821005536585"><ele>2.8333333333333335</ele><time>2026-04-06T07:45:22Z</time></trkpt><trkpt lat="43.3461334642756" lon="10.468281325203273"><ele>2.6666666666666665</ele><time>2026-04-06T07:45:23Z</time></trkpt><trkpt lat="43.34609694279966" lon="10.4683549598114"><ele>2.5</ele><time>2026-04-06T07:45:24Z</time></trkpt><trkpt lat="43.34602702024303" lon="10.468494815150775"><ele>2.333333333333333</ele><time>2026-04-06T07:45:26Z</time></trkpt><trkpt lat="43.3459917098313" lon="10.468569418034361"><ele>2.1666666666666665</ele><time>2026-04-06T07:45:27Z</time></trkpt><trkpt lat="43.3459573632376" lon="10.468643259163548"><ele>2.0</ele><time>2026-04-06T07:45:28Z</time></trkpt><trkpt lat="43.345883705930206" lon="10.46878602414411"><ele>1.9999999999999998</ele><time>2026-04-06T07:45:30Z</time></trkpt><trkpt lat="43.345813966755124" lon="10.468932435831288"><ele>2.0</ele><time>2026-04-06T07:45:32Z</time></trkpt><trkpt lat="43.34577757930686" lon="10.469005723091914"><ele>2.0</ele><time>2026-04-06T07:45:33Z</time></trkpt><trkpt lat="43.34574060474312" lon="10.469080174085253"><ele>2.0</ele><time>2026-04-06T07:45:34Z</time></trkpt><trkpt lat="43.34570340589576" lon="10.469152265178382"><ele>1.9999999999999998</ele><time>2026-04-06T07:45:35Z</time></trkpt><trkpt lat="43.34566484333272" lon="10.469227586153853"><ele>2.0</ele><time>2026-04-06T07:45:36Z</time></trkpt><trkpt lat="43.34562797253586" lon="10.46930221980074"><ele>2.0</ele><time>2026-04-06T07:45:37Z</time></trkpt><trkpt lat="43.34559206750615" lon="10.469379794613767"><ele>2.0</ele><time>2026-04-06T07:45:38Z</time></trkpt><trkpt lat="43.34552102358364" lon="10.46952455467756"><ele>2.0</ele><time>2026-04-06T07:45:40Z</time></trkpt><trkpt lat="43.34548552031667" lon="10.469613982233287"><ele>2.0</ele><time>2026-04-06T07:45:41Z</time></trkpt><trkpt lat="43.34540452774549" lon="10.469752315137784"><ele>2.0</ele><time>2026-04-06T07:45:43Z</time></trkpt><trkpt lat="43.345366442467835" lon="10.469828052659821"><ele>2.4285714285714284</ele><time>2026-04-06T07:45:44Z</time></trkpt><trkpt lat="43.34532876092041" lon="10.469898867548578"><ele>2.8571428571428568</ele><time>2026-04-06T07:45:45Z</time></trkpt><trkpt lat="43.34528883705442" lon="10.469967488394898"><ele>3.2857142857142856</ele><time>2026-04-06T07:45:46Z</time></trkpt><trkpt lat="43.34523237360183" lon="10.47010849502705"><ele>3.7142857142857144</ele><time>2026-04-06T07:45:48Z</time></trkpt><trkpt lat="43.34519891086515" lon="10.470182110569144"><ele>4.142857142857143</ele><time>2026-04-06T07:45:49Z</time></trkpt><trkpt lat="43.345164048671755" lon="10.47025532732016"><ele>4.571428571428571</ele><time>2026-04-06T07:45:50Z</time></trkpt><trkpt lat="43.345129774262396" lon="10.470330232407877"><ele>5.0</ele><time>2026-04-06T07:45:51Z</time></trkpt><trkpt lat="43.34509401570835" lon="10.470402443953706"><ele>4.857142857142857</ele><time>2026-04-06T07:45:52Z</time></trkpt><trkpt lat="43.34506016503359" lon="10.470478158549646"><ele>4.714285714285714</ele><time>2026-04-06T07:45:53Z</time></trkpt><trkpt lat="43.34502346655387" lon="10.470550205075634"><ele>4.571428571428571</ele><time>2026-04-06T07:45:54Z</time></trkpt><trkpt lat="43.34498630471892" lon="10.470621639672228"><ele>4.428571428571429</ele><time>2026-04-06T07:45:55Z</time></trkpt><trkpt lat="43.34495199342559" lon="10.47069570528684"><ele>4.285714285714286</ele><time>2026-04-06T07:45:56Z</time></trkpt><trkpt lat="43.344915314379286" lon="10.470770364054347"><ele>4.142857142857142</ele><time>2026-04-06T07:45:57Z</time></trkpt><trkpt lat="43.3448455274368" lon="10.470914153680166"><ele>4.0</ele><time>2026-04-06T07:45:59Z</time></trkpt><trkpt lat="43.34480762669183" lon="10.47098412215548"><ele>3.9999999999999996</ele><time>2026-04-06T07:46:00Z</time></trkpt><trkpt lat="43.344772808560805" lon="10.471056666251938"><ele>4.0</ele><time>2026-04-06T07:46:01Z</time></trkpt><trkpt lat="43.34473882682813" lon="10.471137201248318"><ele>4.0</ele><time>2026-04-06T07:46:02Z</time></trkpt><trkpt lat="43.34470218948188" lon="10.471208025665119"><ele>4.0</ele><time>2026-04-06T07:46:03Z</time></trkpt><trkpt lat="43.344631295575546" lon="10.471353803339895"><ele>3.9999999999999996</ele><time>2026-04-06T07:46:05Z</time></trkpt><trkpt lat="43.34459745968085" lon="10.471431487235504"><ele>4.0</ele><time>2026-04-06T07:46:06Z</time></trkpt><trkpt lat="43.34456220426748" lon="10.471508258941437"><ele>3.6666666666666665</ele><time>2026-04-06T07:46:07Z</time></trkpt><trkpt lat="43.34449124402014" lon="10.471649223345668"><ele>3.333333333333333</ele><time>2026-04-06T07:46:09Z</time></trkpt><trkpt lat="43.344455911412446" lon="10.471725874669804"><ele>3.0</ele><time>2026-04-06T07:46:10Z</time></trkpt><trkpt lat="43.34442154795006" lon="10.471799237118399"><ele>2.6666666666666665</ele><time>2026-04-06T07:46:11Z</time></trkpt><trkpt lat="43.34434960017539" lon="10.471940392852085"><ele>2.333333333333333</ele><time>2026-04-06T07:46:13Z</time></trkpt><trkpt lat="43.3443158546389" lon="10.472016363434456"><ele>2.0</ele><time>2026-04-06T07:46:14Z</time></trkpt><trkpt lat="43.34427893090649" lon="10.472091719280497"><ele>2.2</ele><time>2026-04-06T07:46:15Z</time></trkpt><trkpt lat="43.3442100462388" lon="10.472237517400481"><ele>2.4000000000000004</ele><time>2026-04-06T07:46:17Z</time></trkpt><trkpt lat="43.3441385326427" lon="10.472374620019885"><ele>2.5999999999999996</ele><time>2026-04-06T07:46:19Z</time></trkpt><trkpt lat="43.344107198191885" lon="10.472453852405629"><ele>2.8</ele><time>2026-04-06T07:46:20Z</time></trkpt><trkpt lat="43.34403292498029" lon="10.47259480131044"><ele>3.0</ele><time>2026-04-06T07:46:22Z</time></trkpt><trkpt lat="43.34396270367816" lon="10.472736937149618"><ele>3.0</ele><time>2026-04-06T07:46:24Z</time></trkpt><trkpt lat="43.34393085360343" lon="10.472816624709633"><ele>3.0</ele><time>2026-04-06T07:46:25Z</time></trkpt><trkpt lat="43.34389045493223" lon="10.472895043983184"><ele>3.0</ele><time>2026-04-06T07:46:26Z</time></trkpt><trkpt lat="43.34381882880372" lon="10.473036495578347"><ele>3.0</ele><time>2026-04-06T07:46:28Z</time></trkpt><trkpt lat="43.34378412046213" lon="10.473112203132064"><ele>3.0</ele><time>2026-04-06T07:46:29Z</time></trkpt><trkpt lat="43.343747353396296" lon="10.473189382794013"><ele>3.0</ele><time>2026-04-06T07:46:30Z</time></trkpt><trkpt lat="43.3436782183938" lon="10.473330597285049"><ele>3.3333333333333335</ele><time>2026-04-06T07:46:32Z</time></trkpt><trkpt lat="43.34364105931612" lon="10.47340528332481"><ele>3.666666666666667</ele><time>2026-04-06T07:46:33Z</time></trkpt><trkpt lat="43.34360156427765" lon="10.473479340576457"><ele>4.0</ele><time>2026-04-06T07:46:34Z</time></trkpt><trkpt lat="43.3435364241776" lon="10.473621803932016"><ele>4.333333333333334</ele><time>2026-04-06T07:46:36Z</time></trkpt><trkpt lat="43.34347174060407" lon="10.47376120733625"><ele>4.666666666666667</ele><time>2026-04-06T07:46:38Z</time></trkpt><trkpt lat="43.34344098365616" lon="10.473839541085784"><ele>5.0</ele><time>2026-04-06T07:46:39Z</time></trkpt><trkpt lat="43.343407178910226" lon="10.473914800514834"><ele>5.0</ele><time>2026-04-06T07:46:40Z</time></trkpt><trkpt lat="43.34337177745732" lon="10.473988592025359"><ele>5.0</ele><time>2026-04-06T07:46:41Z</time></trkpt><trkpt lat="43.343301873517994" lon="10.474129925786741"><ele>5.0</ele><time>2026-04-06T07:46:43Z</time></trkpt><trkpt lat="43.34325860254934" lon="10.474194480841389"><ele>5.0</ele><time>2026-04-06T07:46:44Z</time></trkpt><trkpt lat="43.343220831268546" lon="10.474268672377107"><ele>5.0</ele><time>2026-04-06T07:46:45Z</time></trkpt><trkpt lat="43.3431865413591" lon="10.474342925135726"><ele>5.0</ele><time>2026-04-06T07:46:46Z</time></trkpt><trkpt lat="43.34311648107414" lon="10.474479684015812"><ele>5.0</ele><time>2026-04-06T07:46:48Z</time></trkpt><trkpt lat="43.34307952904867" lon="10.474555689726873"><ele>5.0</ele><time>2026-04-06T07:46:49Z</time></trkpt><trkpt lat="43.34304431381569" lon="10.474630538735392"><ele>5.0</ele><time>2026-04-06T07:46:50Z</time></trkpt><trkpt lat="43.34300441598654" lon="10.47470117130208"><ele>5.0</ele><time>2026-04-06T07:46:51Z</time></trkpt><trkpt lat="43.342968623821264" lon="10.474776175056821"><ele>5.0</ele><time>2026-04-06T07:46:52Z</time></trkpt><trkpt lat="43.34293286911227" lon="10.47484744605852"><ele>5.0</ele><time>2026-04-06T07:46:53Z</time></trkpt><trkpt lat="43.34289579593232" lon="10.474920335700817"><ele>5.0</ele><time>2026-04-06T07:46:54Z</time></trkpt><trkpt lat="43.34285786772352" lon="10.474996262739158"><ele>5.2</ele><time>2026-04-06T07:46:55Z</time></trkpt><trkpt lat="43.34278825975876" lon="10.475139309946147"><ele>5.4</ele><time>2026-04-06T07:46:57Z</time></trkpt><trkpt lat="43.34271774332006" lon="10.475282471757016"><ele>5.6</ele><time>2026-04-06T07:46:59Z</time></trkpt><trkpt lat="43.342678658637425" lon="10.475352798361339"><ele>5.8</ele><time>2026-04-06T07:47:00Z</time></trkpt><trkpt lat="43.34264573202063" lon="10.475428425261859"><ele>6.0</ele><time>2026-04-06T07:47:01Z</time></trkpt><trkpt lat="43.34257479704038" lon="10.475571072288071"><ele>6.166666666666667</ele><time>2026-04-06T07:47:03Z</time></trkpt><trkpt lat="43.34254031061129" lon="10.475643711983759"><ele>6.333333333333334</ele><time>2026-04-06T07:47:04Z</time></trkpt><trkpt lat="43.342504618085336" lon="10.475718495142338"><ele>6.5</ele><time>2026-04-06T07:47:05Z</time></trkpt><trkpt lat="43.342467843223375" lon="10.475790378040712"><ele>6.666666666666667</ele><time>2026-04-06T07:47:06Z</time></trkpt><trkpt lat="43.34239595182147" lon="10.475935376056585"><ele>6.833333333333334</ele><time>2026-04-06T07:47:08Z</time></trkpt><trkpt lat="43.34233309036694" lon="10.476081803260861"><ele>7.0</ele><time>2026-04-06T07:47:10Z</time></trkpt><trkpt lat="43.34226010617939" lon="10.476223519125208"><ele>7.199999999999999</ele><time>2026-04-06T07:47:12Z</time></trkpt><trkpt lat="43.3421876033549" lon="10.476371623613108"><ele>7.3999999999999995</ele><time>2026-04-06T07:47:14Z</time></trkpt><trkpt lat="43.342126383556156" lon="10.476517736853024"><ele>7.6000000000000005</ele><time>2026-04-06T07:47:16Z</time></trkpt><trkpt lat="43.342053663935424" lon="10.476663320954922"><ele>7.800000000000001</ele><time>2026-04-06T07:47:18Z</time></trkpt><trkpt lat="43.34201880673272" lon="10.476736639102352"><ele>8.0</ele><time>2026-04-06T07:47:19Z</time></trkpt><trkpt lat="43.34198071873922" lon="10.476806960247185"><ele>8.0</ele><time>2026-04-06T07:47:20Z</time></trkpt><trkpt lat="43.341944116507776" lon="10.476882395029962"><ele>8.0</ele><time>2026-04-06T07:47:21Z</time></trkpt><trkpt lat="43.34187067435482" lon="10.477026024625786"><ele>8.0</ele><time>2026-04-06T07:47:23Z</time></trkpt><trkpt lat="43.341798481267986" lon="10.477168111973397"><ele>8.0</ele><time>2026-04-06T07:47:25Z</time></trkpt><trkpt lat="43.34173318838586" lon="10.477306983174806"><ele>8.0</ele><time>2026-04-06T07:47:27Z</time></trkpt><trkpt lat="43.34169570346396" lon="10.477381645254132"><ele>7.999999999999999</ele><time>2026-04-06T07:47:28Z</time></trkpt><trkpt lat="43.3416586134243" lon="10.477452368213415"><ele>8.0</ele><time>2026-04-06T07:47:29Z</time></trkpt><trkpt lat="43.341622553013785" lon="10.477527310789073"><ele>8.0</ele><time>2026-04-06T07:47:30Z</time></trkpt><trkpt lat="43.341551995204654" lon="10.477664561530363"><ele>8.0</ele><time>2026-04-06T07:47:32Z</time></trkpt><trkpt lat="43.341517403394334" lon="10.477737783568532"><ele>7.999999999999999</ele><time>2026-04-06T07:47:33Z</time></trkpt><trkpt lat="43.34147839160402" lon="10.47781000341931"><ele>8.0</ele><time>2026-04-06T07:47:34Z</time></trkpt><trkpt lat="43.3414127847776" lon="10.477953045104012"><ele>7.75</ele><time>2026-04-06T07:47:36Z</time></trkpt><trkpt lat="43.34137669746878" lon="10.47802527444379"><ele>7.5</ele><time>2026-04-06T07:47:37Z</time></trkpt><trkpt lat="43.34134201891402" lon="10.478098645166941"><ele>7.25</ele><time>2026-04-06T07:47:38Z</time></trkpt><trkpt lat="43.341304205846875" lon="10.478172018568314"><ele>7.0</ele><time>2026-04-06T07:47:39Z</time></trkpt><trkpt lat="43.341269322071454" lon="10.478246568366506"><ele>6.75</ele><time>2026-04-06T07:47:40Z</time></trkpt><trkpt lat="43.341233710567096" lon="10.478319181388589"><ele>6.5</ele><time>2026-04-06T07:47:41Z</time></trkpt><trkpt lat="43.341198384401956" lon="10.478391917269551"><ele>6.25</ele><time>2026-04-06T07:47:42Z</time></trkpt><trkpt lat="43.34116280085185" lon="10.478464262104515"><ele>6.0</ele><time>2026-04-06T07:47:43Z</time></trkpt><trkpt lat="43.3410861785363" lon="10.478612680899612"><ele>6.0</ele><time>2026-04-06T07:47:45Z</time></trkpt><trkpt lat="43.3410189656427" lon="10.478756278478146"><ele>6.0</ele><time>2026-04-06T07:47:47Z</time></trkpt><trkpt lat="43.340983588442654" lon="10.478828855565055"><ele>6.0</ele><time>2026-04-06T07:47:48Z</time></trkpt><trkpt lat="43.34094986745543" lon="10.478904019881911"><ele>6.0</ele><time>2026-04-06T07:47:49Z</time></trkpt><trkpt lat="43.340880108961336" lon="10.479046203623954"><ele>6.0</ele><time>2026-04-06T07:47:51Z</time></trkpt><trkpt lat="43.34084404047298" lon="10.479118067415216"><ele>6.0</ele><time>2026-04-06T07:47:52Z</time></trkpt><trkpt lat="43.34080793652008" lon="10.479190861240157"><ele>6.0</ele><time>2026-04-06T07:47:53Z</time></trkpt><trkpt lat="43.34074099949737" lon="10.479334163629638"><ele>6.0</ele><time>2026-04-06T07:47:55Z</time></trkpt><trkpt lat="43.34070518481528" lon="10.479405797944732"><ele>6.0</ele><time>2026-04-06T07:47:56Z</time></trkpt><trkpt lat="43.34063498692171" lon="10.479550959850446"><ele>6.0</ele><time>2026-04-06T07:47:58Z</time></trkpt><trkpt lat="43.34056462824299" lon="10.479690498191358"><ele>6.0</ele><time>2026-04-06T07:48:00Z</time></trkpt><trkpt lat="43.34049460868811" lon="10.479834441623558"><ele>5.75</ele><time>2026-04-06T07:48:02Z</time></trkpt><trkpt lat="43.34042518013463" lon="10.479975210904463"><ele>5.5</ele><time>2026-04-06T07:48:04Z</time></trkpt><trkpt lat="43.34035367558499" lon="10.48011884599346"><ele>5.25</ele><time>2026-04-06T07:48:06Z</time></trkpt><trkpt lat="43.3402863842079" lon="10.480261109770497"><ele>5.0</ele><time>2026-04-06T07:48:08Z</time></trkpt><trkpt lat="43.340216830022804" lon="10.480404619001586"><ele>5.25</ele><time>2026-04-06T07:48:10Z</time></trkpt><trkpt lat="43.34014606641516" lon="10.480547965584998"><ele>5.5</ele><time>2026-04-06T07:48:12Z</time></trkpt><trkpt lat="43.340073064864484" lon="10.480691610562442"><ele>5.75</ele><time>2026-04-06T07:48:14Z</time></trkpt><trkpt lat="43.34000437787723" lon="10.480831988753058"><ele>6.0</ele><time>2026-04-06T07:48:16Z</time></trkpt><trkpt lat="43.33993546761613" lon="10.480970932863913"><ele>6.0</ele><time>2026-04-06T07:48:18Z</time></trkpt><trkpt lat="43.33986633910916" lon="10.481115015881961"><ele>6.0</ele><time>2026-04-06T07:48:20Z</time></trkpt><trkpt lat="43.3397962722004" lon="10.481260889950077"><ele>6.0</ele><time>2026-04-06T07:48:21.999Z</time></trkpt><trkpt lat="43.33972261833437" lon="10.481402722968262"><ele>6.0</ele><time>2026-04-06T07:48:23.999Z</time></trkpt><trkpt lat="43.33965326943637" lon="10.481546568042964"><ele>6.0</ele><time>2026-04-06T07:48:26Z</time></trkpt><trkpt lat="43.33961931863322" lon="10.481619831438199"><ele>6.0</ele><time>2026-04-06T07:48:27Z</time></trkpt><trkpt lat="43.33958305018769" lon="10.481691444641458"><ele>6.0</ele><time>2026-04-06T07:48:28Z</time></trkpt><trkpt lat="43.33954550210699" lon="10.481763991192857"><ele>6.0</ele><time>2026-04-06T07:48:29Z</time></trkpt><trkpt lat="43.33950976809985" lon="10.481837676563643"><ele>6.0</ele><time>2026-04-06T07:48:30Z</time></trkpt><trkpt lat="43.33947378836335" lon="10.48191235446043"><ele>6.0</ele><time>2026-04-06T07:48:31Z</time></trkpt><trkpt lat="43.33943984315393" lon="10.481987412498329"><ele>6.0</ele><time>2026-04-06T07:48:32Z</time></trkpt><trkpt lat="43.339402431919154" lon="10.482057744712783"><ele>6.0</ele><time>2026-04-06T07:48:33Z</time></trkpt><trkpt lat="43.339364962023055" lon="10.482131465473973"><ele>6.285714285714285</ele><time>2026-04-06T07:48:34Z</time></trkpt><trkpt lat="43.33933089000079" lon="10.48220495078809"><ele>6.571428571428571</ele><time>2026-04-06T07:48:35Z</time></trkpt><trkpt lat="43.339296305594324" lon="10.482278841678605"><ele>6.857142857142857</ele><time>2026-04-06T07:48:36Z</time></trkpt><trkpt lat="43.339261861950284" lon="10.482352072113372"><ele>7.142857142857142</ele><time>2026-04-06T07:48:37Z</time></trkpt><trkpt lat="43.33922477369972" lon="10.482426610005454"><ele>7.428571428571428</ele><time>2026-04-06T07:48:38Z</time></trkpt><trkpt lat="43.339188412899475" lon="10.482501712712754"><ele>7.7142857142857135</ele><time>2026-04-06T07:48:39Z</time></trkpt><trkpt lat="43.33914966997242" lon="10.482576040100888"><ele>8.0</ele><time>2026-04-06T07:48:40Z</time></trkpt><trkpt lat="43.33911377797808" lon="10.482648350222329"><ele>8.0</ele><time>2026-04-06T07:48:41Z</time></trkpt><trkpt lat="43.339077169748585" lon="10.482723069266322"><ele>8.0</ele><time>2026-04-06T07:48:42Z</time></trkpt><trkpt lat="43.339043028103845" lon="10.482796266746641"><ele>8.0</ele><time>2026-04-06T07:48:43Z</time></trkpt><trkpt lat="43.33900775350196" lon="10.482869999995586"><ele>8.0</ele><time>2026-04-06T07:48:44Z</time></trkpt><trkpt lat="43.33897213513549" lon="10.482942487723042"><ele>8.0</ele><time>2026-04-06T07:48:45Z</time></trkpt><trkpt lat="43.338935504439945" lon="10.48301408791596"><ele>8.0</ele><time>2026-04-06T07:48:46Z</time></trkpt><trkpt lat="43.3388999901736" lon="10.483087707436075"><ele>8.0</ele><time>2026-04-06T07:48:47Z</time></trkpt><trkpt lat="43.33886383795702" lon="10.483158620868217"><ele>8.0</ele><time>2026-04-06T07:48:48Z</time></trkpt><trkpt lat="43.338796305452206" lon="10.483304748709774"><ele>8.0</ele><time>2026-04-06T07:48:50Z</time></trkpt><trkpt lat="43.3387643262512" lon="10.483379973222807"><ele>7.999999999999999</ele><time>2026-04-06T07:48:51Z</time></trkpt><trkpt lat="43.33872847196093" lon="10.48345256926543"><ele>8.0</ele><time>2026-04-06T07:48:52Z</time></trkpt><trkpt lat="43.33869068964095" lon="10.483525269866679"><ele>8.0</ele><time>2026-04-06T07:48:53Z</time></trkpt><trkpt lat="43.33865327463008" lon="10.483595459479254"><ele>7.999999999999999</ele><time>2026-04-06T07:48:54Z</time></trkpt><trkpt lat="43.3385819190605" lon="10.483737353042708"><ele>8.0</ele><time>2026-04-06T07:48:56Z</time></trkpt><trkpt lat="43.33854698012228" lon="10.483811784804757"><ele>8.0</ele><time>2026-04-06T07:48:57Z</time></trkpt><trkpt lat="43.338508824268" lon="10.483881542878072"><ele>8.0</ele><time>2026-04-06T07:48:58Z</time></trkpt><trkpt lat="43.338445418185046" lon="10.484024949885578"><ele>8.0</ele><time>2026-04-06T07:49:00Z</time></trkpt><trkpt lat="43.338410352329724" lon="10.484096918371138"><ele>8.0</ele><time>2026-04-06T07:49:01Z</time></trkpt><trkpt lat="43.33834614162535" lon="10.484235525531226"><ele>8.0</ele><time>2026-04-06T07:49:03Z</time></trkpt><trkpt lat="43.3382724017403" lon="10.484369737571582"><ele>8.0</ele><time>2026-04-06T07:49:05Z</time></trkpt><trkpt lat="43.33820769365319" lon="10.48450485853429"><ele>8.0</ele><time>2026-04-06T07:49:07Z</time></trkpt><trkpt lat="43.338145783192445" lon="10.484638477831918"><ele>8.0</ele><time>2026-04-06T07:49:09Z</time></trkpt><trkpt lat="43.33808104021246" lon="10.484761880546287"><ele>8.0</ele><time>2026-04-06T07:49:11Z</time></trkpt><trkpt lat="43.338019029724194" lon="10.48489092440916"><ele>8.0</ele><time>2026-04-06T07:49:13Z</time></trkpt><trkpt lat="43.33795668203282" lon="10.485015321606467"><ele>8.0</ele><time>2026-04-06T07:49:15Z</time></trkpt><trkpt lat="43.337899391783" lon="10.48513626568613"><ele>8.0</ele><time>2026-04-06T07:49:17Z</time></trkpt><trkpt lat="43.337835404237" lon="10.485262886234109"><ele>8.0</ele><time>2026-04-06T07:49:19Z</time></trkpt><trkpt lat="43.3377721343833" lon="10.485390666559558"><ele>8.0</ele><time>2026-04-06T07:49:21Z</time></trkpt><trkpt lat="43.33771360881649" lon="10.485516469484015"><ele>8.0</ele><time>2026-04-06T07:49:23Z</time></trkpt><trkpt lat="43.33765328216105" lon="10.485636138198304"><ele>8.0</ele><time>2026-04-06T07:49:25Z</time></trkpt><trkpt lat="43.33759148164173" lon="10.485765491568939"><ele>8.25</ele><time>2026-04-06T07:49:27Z</time></trkpt><trkpt lat="43.337527854232924" lon="10.485889578113545"><ele>8.5</ele><time>2026-04-06T07:49:29Z</time></trkpt><trkpt lat="43.337466899911355" lon="10.486021996685142"><ele>8.75</ele><time>2026-04-06T07:49:31Z</time></trkpt><trkpt lat="43.33740550745732" lon="10.486154317354533"><ele>9.0</ele><time>2026-04-06T07:49:33Z</time></trkpt><trkpt lat="43.337339200951725" lon="10.486281934950165"><ele>9.0</ele><time>2026-04-06T07:49:35Z</time></trkpt><trkpt lat="43.33727414558879" lon="10.486416143405734"><ele>9.0</ele><time>2026-04-06T07:49:37Z</time></trkpt><trkpt lat="43.33720500201823" lon="10.486548345435866"><ele>9.0</ele><time>2026-04-06T07:49:39Z</time></trkpt><trkpt lat="43.33713426088715" lon="10.486687622376028"><ele>9.0</ele><time>2026-04-06T07:49:41Z</time></trkpt><trkpt lat="43.33709598411282" lon="10.486757273705482"><ele>9.0</ele><time>2026-04-06T07:49:42Z</time></trkpt><trkpt lat="43.33705955843264" lon="10.486827891515595"><ele>9.0</ele><time>2026-04-06T07:49:43Z</time></trkpt><trkpt lat="43.33702356413156" lon="10.486900250764428"><ele>9.0</ele><time>2026-04-06T07:49:44Z</time></trkpt><trkpt lat="43.33694974061308" lon="10.487046136286029"><ele>9.0</ele><time>2026-04-06T07:49:46Z</time></trkpt><trkpt lat="43.33691299718019" lon="10.487121966526875"><ele>9.0</ele><time>2026-04-06T07:49:47Z</time></trkpt><trkpt lat="43.33688051847758" lon="10.48719653757716"><ele>9.0</ele><time>2026-04-06T07:49:48Z</time></trkpt><trkpt lat="43.336843798663985" lon="10.48727083887219"><ele>9.0</ele><time>2026-04-06T07:49:49Z</time></trkpt><trkpt lat="43.33680574406519" lon="10.487344140927235"><ele>9.000000000000002</ele><time>2026-04-06T07:49:50Z</time></trkpt><trkpt lat="43.336766911953276" lon="10.487418418682719"><ele>9.0</ele><time>2026-04-06T07:49:51Z</time></trkpt><trkpt lat="43.336725882747416" lon="10.487487887556"><ele>9.0</ele><time>2026-04-06T07:49:52Z</time></trkpt><trkpt lat="43.33669070963711" lon="10.487566550975007"><ele>9.0</ele><time>2026-04-06T07:49:53Z</time></trkpt><trkpt lat="43.33665328010135" lon="10.487641666067901"><ele>9.0</ele><time>2026-04-06T07:49:54Z</time></trkpt><trkpt lat="43.33661407350802" lon="10.487719070928389"><ele>9.000000000000002</ele><time>2026-04-06T07:49:55Z</time></trkpt><trkpt lat="43.33657539897575" lon="10.487800396726817"><ele>9.0</ele><time>2026-04-06T07:49:56Z</time></trkpt><trkpt lat="43.33654066219331" lon="10.487879904107084"><ele>9.000000000000002</ele><time>2026-04-06T07:49:57Z</time></trkpt><trkpt lat="43.33650274050268" lon="10.487957509742381"><ele>9.0</ele><time>2026-04-06T07:49:58Z</time></trkpt><trkpt lat="43.336463757484886" lon="10.488037043459014"><ele>9.0</ele><time>2026-04-06T07:49:59Z</time></trkpt><trkpt lat="43.33642153957013" lon="10.488119637638956"><ele>9.0</ele><time>2026-04-06T07:50:00Z</time></trkpt><trkpt lat="43.33637866388734" lon="10.48820615405308"><ele>9.0</ele><time>2026-04-06T07:50:01Z</time></trkpt><trkpt lat="43.336333907051966" lon="10.488296451732776"><ele>9.000000000000002</ele><time>2026-04-06T07:50:02Z</time></trkpt><trkpt lat="43.33628980955793" lon="10.488386248866268"><ele>9.0</ele><time>2026-04-06T07:50:03Z</time></trkpt><trkpt lat="43.33624617584526" lon="10.48847540282416"><ele>9.0</ele><time>2026-04-06T07:50:04Z</time></trkpt><trkpt lat="43.33620123296311" lon="10.48856542677206"><ele>9.0</ele><time>2026-04-06T07:50:05Z</time></trkpt><trkpt lat="43.33615592048929" lon="10.488657930189914"><ele>9.0</ele><time>2026-04-06T07:50:06Z</time></trkpt><trkpt lat="43.336111665950035" lon="10.48875289499096"><ele>9.0</ele><time>2026-04-06T07:50:07Z</time></trkpt><trkpt lat="43.336068536597594" lon="10.488844414444827"><ele>9.0</ele><time>2026-04-06T07:50:08Z</time></trkpt><trkpt lat="43.33602289820703" lon="10.488936308562678"><ele>9.0</ele><time>2026-04-06T07:50:09Z</time></trkpt><trkpt lat="43.33597374245601" lon="10.489032223469435"><ele>9.0</ele><time>2026-04-06T07:50:10Z</time></trkpt><trkpt lat="43.33592711872066" lon="10.489128481185821"><ele>9.0</ele><time>2026-04-06T07:50:11Z</time></trkpt><trkpt lat="43.33587945471088" lon="10.48922409950397"><ele>9.0</ele><time>2026-04-06T07:50:12Z</time></trkpt><trkpt lat="43.33582874144657" lon="10.489318279048613"><ele>9.0</ele><time>2026-04-06T07:50:13Z</time></trkpt><trkpt lat="43.33578019312256" lon="10.489417050504278"><ele>9.0</ele><time>2026-04-06T07:50:14Z</time></trkpt><trkpt lat="43.33573423478014" lon="10.48951329389835"><ele>9.0</ele><time>2026-04-06T07:50:15Z</time></trkpt><trkpt lat="43.33568455993933" lon="10.489612768434903"><ele>9.0</ele><time>2026-04-06T07:50:16Z</time></trkpt><trkpt lat="43.33563855006728" lon="10.489711002903407"><ele>9.0</ele><time>2026-04-06T07:50:17Z</time></trkpt><trkpt lat="43.33559130982158" lon="10.48981138258987"><ele>9.0</ele><time>2026-04-06T07:50:18Z</time></trkpt><trkpt lat="43.33554011545007" lon="10.489905694922196"><ele>9.0</ele><time>2026-04-06T07:50:19Z</time></trkpt><trkpt lat="43.335490259198394" lon="10.49000079808672"><ele>9.0</ele><time>2026-04-06T07:50:20Z</time></trkpt><trkpt lat="43.33544004593353" lon="10.490099413119543"><ele>9.0</ele><time>2026-04-06T07:50:21Z</time></trkpt><trkpt lat="43.33539160102006" lon="10.490197097189611"><ele>9.0</ele><time>2026-04-06T07:50:22Z</time></trkpt><trkpt lat="43.33534483637097" lon="10.490293981322896"><ele>9.0</ele><time>2026-04-06T07:50:23Z</time></trkpt><trkpt lat="43.33529554297146" lon="10.490392124991109"><ele>9.0</ele><time>2026-04-06T07:50:24Z</time></trkpt><trkpt lat="43.33525032813827" lon="10.490491689118432"><ele>9.0</ele><time>2026-04-06T07:50:25Z</time></trkpt><trkpt lat="43.335207272247786" lon="10.49058914785409"><ele>9.0</ele><time>2026-04-06T07:50:26Z</time></trkpt><trkpt lat="43.335162069416306" lon="10.490686836935957"><ele>9.0</ele><time>2026-04-06T07:50:27Z</time></trkpt><trkpt lat="43.335115105447706" lon="10.490780872022368"><ele>8.5</ele><time>2026-04-06T07:50:27.999Z</time></trkpt><trkpt lat="43.335067228498374" lon="10.490874774439868"><ele>8.0</ele><time>2026-04-06T07:50:28.999Z</time></trkpt><trkpt lat="43.33502276749408" lon="10.4909704884101"><ele>7.5</ele><time>2026-04-06T07:50:29.999Z</time></trkpt><trkpt lat="43.33497900619154" lon="10.491064382594073"><ele>7.0</ele><time>2026-04-06T07:50:30.999Z</time></trkpt><trkpt lat="43.33493564673917" lon="10.491158707423537"><ele>6.5</ele><time>2026-04-06T07:50:32Z</time></trkpt><trkpt lat="43.33489217216736" lon="10.491250208222207"><ele>6.0</ele><time>2026-04-06T07:50:33Z</time></trkpt><trkpt lat="43.33484932086138" lon="10.491340932547956"><ele>6.0</ele><time>2026-04-06T07:50:34Z</time></trkpt><trkpt lat="43.334805728310364" lon="10.491430937398722"><ele>6.0</ele><time>2026-04-06T07:50:35Z</time></trkpt><trkpt lat="43.33476296442399" lon="10.491520208872922"><ele>6.0</ele><time>2026-04-06T07:50:36Z</time></trkpt><trkpt lat="43.3347185732756" lon="10.491606438065872"><ele>6.0</ele><time>2026-04-06T07:50:37Z</time></trkpt><trkpt lat="43.33468244848029" lon="10.49169417946401"><ele>6.0</ele><time>2026-04-06T07:50:38Z</time></trkpt><trkpt lat="43.33463809947945" lon="10.491774398930737"><ele>6.0</ele><time>2026-04-06T07:50:39Z</time></trkpt><trkpt lat="43.3345963424187" lon="10.491854897394273"><ele>6.285714285714285</ele><time>2026-04-06T07:50:40Z</time></trkpt><trkpt lat="43.33455442074103" lon="10.491937205898639"><ele>6.571428571428571</ele><time>2026-04-06T07:50:41Z</time></trkpt><trkpt lat="43.33451279961372" lon="10.492017246275784"><ele>6.857142857142857</ele><time>2026-04-06T07:50:42Z</time></trkpt><trkpt lat="43.334474186424664" lon="10.492102160875557"><ele>7.142857142857142</ele><time>2026-04-06T07:50:43Z</time></trkpt><trkpt lat="43.334435713884616" lon="10.49218431447705"><ele>7.428571428571428</ele><time>2026-04-06T07:50:44Z</time></trkpt><trkpt lat="43.33439551811652" lon="10.49226585874405"><ele>7.7142857142857135</ele><time>2026-04-06T07:50:45Z</time></trkpt><trkpt lat="43.3343542316968" lon="10.492346934505944"><ele>8.0</ele><time>2026-04-06T07:50:46Z</time></trkpt><trkpt lat="43.334312762969354" lon="10.492421910878686"><ele>8.142857142857142</ele><time>2026-04-06T07:50:47Z</time></trkpt><trkpt lat="43.334272987707" lon="10.492507673369555"><ele>8.285714285714285</ele><time>2026-04-06T07:50:48Z</time></trkpt><trkpt lat="43.33423680788171" lon="10.49258924144677"><ele>8.428571428571429</ele><time>2026-04-06T07:50:49Z</time></trkpt><trkpt lat="43.33419197994415" lon="10.492669025954454"><ele>8.571428571428571</ele><time>2026-04-06T07:50:50Z</time></trkpt><trkpt lat="43.3341516279664" lon="10.492747163977349"><ele>8.714285714285715</ele><time>2026-04-06T07:50:51Z</time></trkpt><trkpt lat="43.334119029404086" lon="10.492827801056476"><ele>8.857142857142858</ele><time>2026-04-06T07:50:52Z</time></trkpt><trkpt lat="43.33407893824324" lon="10.492912473537158"><ele>9.0</ele><time>2026-04-06T07:50:53Z</time></trkpt><trkpt lat="43.33403601010885" lon="10.492994470598768"><ele>9.000000000000002</ele><time>2026-04-06T07:50:54Z</time></trkpt><trkpt lat="43.33399753584953" lon="10.49308013872234"><ele>9.0</ele><time>2026-04-06T07:50:55Z</time></trkpt><trkpt lat="43.3339582540584" lon="10.493162238374277"><ele>9.0</ele><time>2026-04-06T07:50:56Z</time></trkpt><trkpt lat="43.333918951141214" lon="10.49324689847871"><ele>9.0</ele><time>2026-04-06T07:50:57Z</time></trkpt><trkpt lat="43.33388309428305" lon="10.49333137581737"><ele>9.0</ele><time>2026-04-06T07:50:58Z</time></trkpt><trkpt lat="43.33383986065204" lon="10.493410178603458"><ele>9.000000000000002</ele><time>2026-04-06T07:50:59Z</time></trkpt><trkpt lat="43.3337988048127" lon="10.493492383451642"><ele>9.0</ele><time>2026-04-06T07:51:00Z</time></trkpt><trkpt lat="43.3337581422492" lon="10.493577862865264"><ele>9.000000000000002</ele><time>2026-04-06T07:51:01Z</time></trkpt><trkpt lat="43.333720310153495" lon="10.493658234519952"><ele>9.0</ele><time>2026-04-06T07:51:02Z</time></trkpt><trkpt lat="43.333683742220295" lon="10.493736574208706"><ele>9.0</ele><time>2026-04-06T07:51:03Z</time></trkpt><trkpt lat="43.333642250203546" lon="10.493809368992864"><ele>9.0</ele><time>2026-04-06T07:51:04Z</time></trkpt><trkpt lat="43.33360291405767" lon="10.493886465701058"><ele>9.0</ele><time>2026-04-06T07:51:05Z</time></trkpt><trkpt lat="43.333566059629085" lon="10.493963719545762"><ele>9.000000000000002</ele><time>2026-04-06T07:51:06Z</time></trkpt><trkpt lat="43.33352784465892" lon="10.494040693523036"><ele>9.0</ele><time>2026-04-06T07:51:07Z</time></trkpt><trkpt lat="43.33348986660806" lon="10.494117627328208"><ele>8.857142857142858</ele><time>2026-04-06T07:51:08Z</time></trkpt><trkpt lat="43.3334533382271" lon="10.494193535101852"><ele>8.714285714285715</ele><time>2026-04-06T07:51:09Z</time></trkpt><trkpt lat="43.33341403506159" lon="10.494269131275665"><ele>8.571428571428571</ele><time>2026-04-06T07:51:10Z</time></trkpt><trkpt lat="43.333376129290315" lon="10.494345967477413"><ele>8.428571428571429</ele><time>2026-04-06T07:51:11Z</time></trkpt><trkpt lat="43.333337027266495" lon="10.494424278818439"><ele>8.285714285714285</ele><time>2026-04-06T07:51:12Z</time></trkpt><trkpt lat="43.33329939018716" lon="10.494504051694378"><ele>8.142857142857142</ele><time>2026-04-06T07:51:13Z</time></trkpt><trkpt lat="43.333261603917116" lon="10.494583104871483"><ele>8.0</ele><time>2026-04-06T07:51:14Z</time></trkpt><trkpt lat="43.33322546976194" lon="10.494661679952877"><ele>7.857142857142857</ele><time>2026-04-06T07:51:15Z</time></trkpt><trkpt lat="43.333186682739836" lon="10.49474090992788"><ele>7.7142857142857135</ele><time>2026-04-06T07:51:16Z</time></trkpt><trkpt lat="43.333147212575874" lon="10.494820574551795"><ele>7.571428571428571</ele><time>2026-04-06T07:51:17Z</time></trkpt><trkpt lat="43.333105362619484" lon="10.494899299221645"><ele>7.428571428571429</ele><time>2026-04-06T07:51:18Z</time></trkpt><trkpt lat="43.333066600156066" lon="10.494975706526725"><ele>7.285714285714286</ele><time>2026-04-06T07:51:19Z</time></trkpt><trkpt lat="43.333027502358874" lon="10.495053486822437"><ele>7.142857142857142</ele><time>2026-04-06T07:51:20Z</time></trkpt><trkpt lat="43.332989261769185" lon="10.49513243369837"><ele>7.0</ele><time>2026-04-06T07:51:21Z</time></trkpt><trkpt lat="43.33295179405756" lon="10.495214862975576"><ele>6.857142857142857</ele><time>2026-04-06T07:51:22Z</time></trkpt><trkpt lat="43.33291437432331" lon="10.495293939520794"><ele>6.714285714285714</ele><time>2026-04-06T07:51:23Z</time></trkpt><trkpt lat="43.33287635980366" lon="10.495373964770033"><ele>6.571428571428571</ele><time>2026-04-06T07:51:24Z</time></trkpt><trkpt lat="43.33283909494927" lon="10.495450498942084"><ele>6.428571428571429</ele><time>2026-04-06T07:51:25Z</time></trkpt><trkpt lat="43.3327994748853" lon="10.495527967033654"><ele>6.285714285714286</ele><time>2026-04-06T07:51:26Z</time></trkpt><trkpt lat="43.33276161568079" lon="10.495604071537867"><ele>6.142857142857142</ele><time>2026-04-06T07:51:27Z</time></trkpt><trkpt lat="43.33272276592437" lon="10.495681794244483"><ele>6.0</ele><time>2026-04-06T07:51:28Z</time></trkpt><trkpt lat="43.33268747356621" lon="10.495759462555268"><ele>5.999999999999999</ele><time>2026-04-06T07:51:29Z</time></trkpt><trkpt lat="43.332649791681774" lon="10.49583640281779"><ele>6.0</ele><time>2026-04-06T07:51:30Z</time></trkpt><trkpt lat="43.332610480886395" lon="10.495916023333137"><ele>6.0</ele><time>2026-04-06T07:51:31Z</time></trkpt><trkpt lat="43.33257309530218" lon="10.495990943403406"><ele>6.0</ele><time>2026-04-06T07:51:32Z</time></trkpt><trkpt lat="43.33253512052498" lon="10.496072289142466"><ele>6.0</ele><time>2026-04-06T07:51:33Z</time></trkpt><trkpt lat="43.332499558256" lon="10.496146867426617"><ele>5.999999999999999</ele><time>2026-04-06T07:51:34Z</time></trkpt><trkpt lat="43.33245991137564" lon="10.496227345769958"><ele>6.0</ele><time>2026-04-06T07:51:35Z</time></trkpt><trkpt lat="43.332421471756014" lon="10.49630293332221"><ele>5.999999999999999</ele><time>2026-04-06T07:51:36Z</time></trkpt><trkpt lat="43.332384446423454" lon="10.496381526785527"><ele>6.0</ele><time>2026-04-06T07:51:37Z</time></trkpt><trkpt lat="43.33234800973813" lon="10.496457559030617"><ele>6.0</ele><time>2026-04-06T07:51:38Z</time></trkpt><trkpt lat="43.33230973465912" lon="10.496534828183387"><ele>6.0</ele><time>2026-04-06T07:51:39Z</time></trkpt><trkpt lat="43.33227117435076" lon="10.496610439777083"><ele>6.0</ele><time>2026-04-06T07:51:40Z</time></trkpt><trkpt lat="43.332231488577605" lon="10.496684082230134"><ele>5.999999999999999</ele><time>2026-04-06T07:51:41Z</time></trkpt><trkpt lat="43.33219564391151" lon="10.4967563995735"><ele>6.0</ele><time>2026-04-06T07:51:42Z</time></trkpt><trkpt lat="43.33212682125356" lon="10.496900431499663"><ele>5.999999999999999</ele><time>2026-04-06T07:51:44Z</time></trkpt><trkpt lat="43.33208922766259" lon="10.49697429452544"><ele>6.0</ele><time>2026-04-06T07:51:45Z</time></trkpt><trkpt lat="43.33205378045574" lon="10.497055071864168"><ele>6.0</ele><time>2026-04-06T07:51:46Z</time></trkpt><trkpt lat="43.332016190095246" lon="10.49713034767369"><ele>6.0</ele><time>2026-04-06T07:51:47Z</time></trkpt><trkpt lat="43.331978450405806" lon="10.497207147209112"><ele>6.0</ele><time>2026-04-06T07:51:48Z</time></trkpt><trkpt lat="43.33194246255186" lon="10.497283540837554"><ele>5.999999999999999</ele><time>2026-04-06T07:51:49Z</time></trkpt><trkpt lat="43.3319049044511" lon="10.49735719201648"><ele>6.0</ele><time>2026-04-06T07:51:50Z</time></trkpt><trkpt lat="43.331867981827074" lon="10.497431601169914"><ele>6.166666666666667</ele><time>2026-04-06T07:51:51Z</time></trkpt><trkpt lat="43.331831695175936" lon="10.497510447367205"><ele>6.333333333333334</ele><time>2026-04-06T07:51:52Z</time></trkpt><trkpt lat="43.33176077119799" lon="10.49765756617365"><ele>6.5</ele><time>2026-04-06T07:51:54Z</time></trkpt><trkpt lat="43.33172132595178" lon="10.497731372023317"><ele>6.666666666666667</ele><time>2026-04-06T07:51:55Z</time></trkpt><trkpt lat="43.331682467615494" lon="10.497808785503905"><ele>6.833333333333334</ele><time>2026-04-06T07:51:56Z</time></trkpt><trkpt lat="43.3316432854764" lon="10.4978803673443"><ele>7.0</ele><time>2026-04-06T07:51:57Z</time></trkpt><trkpt lat="43.331607072634895" lon="10.497957031273794"><ele>7.000000000000001</ele><time>2026-04-06T07:51:58Z</time></trkpt><trkpt lat="43.33157091487986" lon="10.49803539592456"><ele>7.0</ele><time>2026-04-06T07:51:59Z</time></trkpt><trkpt lat="43.3315347795279" lon="10.498112710206353"><ele>7.0</ele><time>2026-04-06T07:52:00Z</time></trkpt><trkpt lat="43.33149649904075" lon="10.498189316949572"><ele>7.0</ele><time>2026-04-06T07:52:01Z</time></trkpt><trkpt lat="43.33145938409316" lon="10.49826166172844"><ele>7.000000000000001</ele><time>2026-04-06T07:52:02Z</time></trkpt><trkpt lat="43.33142347804422" lon="10.498341434675481"><ele>7.0</ele><time>2026-04-06T07:52:03Z</time></trkpt><trkpt lat="43.33135424949046" lon="10.49848937207947"><ele>7.199999999999999</ele><time>2026-04-06T07:52:05Z</time></trkpt><trkpt lat="43.3313166981817" lon="10.49856241414605"><ele>7.3999999999999995</ele><time>2026-04-06T07:52:06Z</time></trkpt><trkpt lat="43.331279420786025" lon="10.498635638911422"><ele>7.6000000000000005</ele><time>2026-04-06T07:52:07Z</time></trkpt><trkpt lat="43.3312108780878" lon="10.498781865924084"><ele>7.800000000000001</ele><time>2026-04-06T07:52:09Z</time></trkpt><trkpt lat="43.331172662559794" lon="10.49885903425197"><ele>8.0</ele><time>2026-04-06T07:52:10Z</time></trkpt><trkpt lat="43.331102309986406" lon="10.499003949589648"><ele>7.999999999999999</ele><time>2026-04-06T07:52:12Z</time></trkpt><trkpt lat="43.33106621405042" lon="10.499080928766253"><ele>8.0</ele><time>2026-04-06T07:52:13Z</time></trkpt><trkpt lat="43.33099848514922" lon="10.499225614732147"><ele>8.0</ele><time>2026-04-06T07:52:15Z</time></trkpt><trkpt lat="43.330964041759174" lon="10.499299273258693"><ele>8.0</ele><time>2026-04-06T07:52:16Z</time></trkpt><trkpt lat="43.33092709386378" lon="10.499379707936065"><ele>7.999999999999999</ele><time>2026-04-06T07:52:17Z</time></trkpt><trkpt lat="43.33086265742634" lon="10.499522147665296"><ele>8.0</ele><time>2026-04-06T07:52:19Z</time></trkpt><trkpt lat="43.33079032803765" lon="10.499664118386056"><ele>7.999999999999999</ele><time>2026-04-06T07:52:21Z</time></trkpt><trkpt lat="43.33073083457414" lon="10.499796635055711"><ele>8.0</ele><time>2026-04-06T07:52:23Z</time></trkpt><trkpt lat="43.3306884423527" lon="10.499861951689336"><ele>8.0</ele><time>2026-04-06T07:52:24Z</time></trkpt><trkpt lat="43.33065210344874" lon="10.499941080726883"><ele>8.0</ele><time>2026-04-06T07:52:25Z</time></trkpt><trkpt lat="43.330613043053155" lon="10.500017045057762"><ele>7.999999999999999</ele><time>2026-04-06T07:52:26Z</time></trkpt><trkpt lat="43.330543994050664" lon="10.500157949033039"><ele>8.0</ele><time>2026-04-06T07:52:28Z</time></trkpt><trkpt lat="43.33049346564228" lon="10.500232133703818"><ele>8.0</ele><time>2026-04-06T07:52:29Z</time></trkpt><trkpt lat="43.33044054857293" lon="10.500302162523928"><ele>8.0</ele><time>2026-04-06T07:52:30Z</time></trkpt><trkpt lat="43.33039195060991" lon="10.500444267971643"><ele>8.0</ele><time>2026-04-06T07:52:32Z</time></trkpt><trkpt lat="43.33032600309011" lon="10.50057878732806"><ele>8.0</ele><time>2026-04-06T07:52:34Z</time></trkpt><trkpt lat="43.33028506813911" lon="10.50066051451524"><ele>8.0</ele><time>2026-04-06T07:52:35Z</time></trkpt><trkpt lat="43.33021495237615" lon="10.500810803772701"><ele>8.0</ele><time>2026-04-06T07:52:37Z</time></trkpt><trkpt lat="43.33017823114009" lon="10.500896298960056"><ele>8.0</ele><time>2026-04-06T07:52:38Z</time></trkpt><trkpt lat="43.33014185879537" lon="10.500971473079941"><ele>8.0</ele><time>2026-04-06T07:52:39Z</time></trkpt><trkpt lat="43.330066521225994" lon="10.50111197048626"><ele>8.0</ele><time>2026-04-06T07:52:41Z</time></trkpt><trkpt lat="43.330033019832634" lon="10.501192170355544"><ele>8.0</ele><time>2026-04-06T07:52:42Z</time></trkpt><trkpt lat="43.32996673111113" lon="10.501330866103116"><ele>7.999999999999999</ele><time>2026-04-06T07:52:44Z</time></trkpt><trkpt lat="43.32992461700445" lon="10.501405034652423"><ele>8.0</ele><time>2026-04-06T07:52:45Z</time></trkpt><trkpt lat="43.329860142243234" lon="10.501536773678726"><ele>8.0</ele><time>2026-04-06T07:52:47Z</time></trkpt><trkpt lat="43.329825431806604" lon="10.501617484607754"><ele>8.0</ele><time>2026-04-06T07:52:48Z</time></trkpt><trkpt lat="43.329754288476025" lon="10.501759804464555"><ele>7.999999999999999</ele><time>2026-04-06T07:52:50Z</time></trkpt><trkpt lat="43.329719055330365" lon="10.501832783776942"><ele>8.0</ele><time>2026-04-06T07:52:51Z</time></trkpt><trkpt lat="43.32968732874482" lon="10.501909641537521"><ele>8.0</ele><time>2026-04-06T07:52:52Z</time></trkpt><trkpt lat="43.32964938560842" lon="10.501979487633886"><ele>7.999999999999999</ele><time>2026-04-06T07:52:53Z</time></trkpt><trkpt lat="43.32961319086548" lon="10.502053820589122"><ele>8.0</ele><time>2026-04-06T07:52:54Z</time></trkpt><trkpt lat="43.32957727197271" lon="10.502127399589918"><ele>8.0</ele><time>2026-04-06T07:52:55Z</time></trkpt><trkpt lat="43.32953134255249" lon="10.502207053315502"><ele>7.999999999999999</ele><time>2026-04-06T07:52:56Z</time></trkpt><trkpt lat="43.329460583359065" lon="10.502336615079935"><ele>8.0</ele><time>2026-04-06T07:52:58Z</time></trkpt><trkpt lat="43.32942568048612" lon="10.502409441099346"><ele>8.0</ele><time>2026-04-06T07:52:59Z</time></trkpt><trkpt lat="43.32937115741723" lon="10.502581528151799"><ele>8.200000000000001</ele><time>2026-04-06T07:53:01Z</time></trkpt><trkpt lat="43.32927945529406" lon="10.502709490113926"><ele>8.4</ele><time>2026-04-06T07:53:03Z</time></trkpt><trkpt lat="43.32920771202264" lon="10.502844185792622"><ele>8.600000000000001</ele><time>2026-04-06T07:53:05Z</time></trkpt><trkpt lat="43.32916269527312" lon="10.502904710301292"><ele>8.8</ele><time>2026-04-06T07:53:06Z</time></trkpt><trkpt lat="43.329066387142134" lon="10.503014415089273"><ele>9.0</ele><time>2026-04-06T07:53:08Z</time></trkpt><trkpt lat="43.32901334287637" lon="10.50306380169799"><ele>9.0</ele><time>2026-04-06T07:53:09Z</time></trkpt><trkpt lat="43.328963492215735" lon="10.50311802119191"><ele>9.0</ele><time>2026-04-06T07:53:10Z</time></trkpt><trkpt lat="43.32886412473479" lon="10.50322323608944"><ele>9.0</ele><time>2026-04-06T07:53:12Z</time></trkpt><trkpt lat="43.32880630806201" lon="10.503271845986609"><ele>9.0</ele><time>2026-04-06T07:53:13Z</time></trkpt><trkpt lat="43.328753209230854" lon="10.503323959359653"><ele>9.0</ele><time>2026-04-06T07:53:14Z</time></trkpt><trkpt lat="43.32870292702382" lon="10.503378433058662"><ele>9.0</ele><time>2026-04-06T07:53:15Z</time></trkpt><trkpt lat="43.32865079884897" lon="10.503434079585974"><ele>9.000000000000002</ele><time>2026-04-06T07:53:16Z</time></trkpt><trkpt lat="43.328594736097486" lon="10.503486320571442"><ele>9.0</ele><time>2026-04-06T07:53:17Z</time></trkpt><trkpt lat="43.32854285889919" lon="10.503539083290557"><ele>9.0</ele><time>2026-04-06T07:53:18Z</time></trkpt><trkpt lat="43.328501204653634" lon="10.503606824433115"><ele>9.0</ele><time>2026-04-06T07:53:19Z</time></trkpt><trkpt lat="43.32843657387863" lon="10.503645662060164"><ele>9.0</ele><time>2026-04-06T07:53:20Z</time></trkpt><trkpt lat="43.3283814433845" lon="10.503699778715687"><ele>9.000000000000002</ele><time>2026-04-06T07:53:21Z</time></trkpt><trkpt lat="43.32832927977257" lon="10.503754197994649"><ele>9.0</ele><time>2026-04-06T07:53:22Z</time></trkpt><trkpt lat="43.32828562526423" lon="10.503824477642468"><ele>9.000000000000002</ele><time>2026-04-06T07:53:23Z</time></trkpt><trkpt lat="43.32823298067543" lon="10.503878122047816"><ele>9.0</ele><time>2026-04-06T07:53:24Z</time></trkpt><trkpt lat="43.32816862518183" lon="10.503916392487127"><ele>9.0</ele><time>2026-04-06T07:53:25Z</time></trkpt><trkpt lat="43.32811834502032" lon="10.503970995652702"><ele>9.0</ele><time>2026-04-06T07:53:26Z</time></trkpt><trkpt lat="43.32807174086135" lon="10.504033742364022"><ele>9.0</ele><time>2026-04-06T07:53:27Z</time></trkpt><trkpt lat="43.328018623974785" lon="10.504086598659885"><ele>9.000000000000002</ele><time>2026-04-06T07:53:28Z</time></trkpt><trkpt lat="43.32796851132273" lon="10.504140616466234"><ele>9.0</ele><time>2026-04-06T07:53:29Z</time></trkpt><trkpt lat="43.327915556399724" lon="10.504194706212665"><ele>9.0</ele><time>2026-04-06T07:53:30Z</time></trkpt><trkpt lat="43.32781633726896" lon="10.504307701020673"><ele>9.0</ele><time>2026-04-06T07:53:32Z</time></trkpt><trkpt lat="43.32772072225902" lon="10.504404651689962"><ele>9.0</ele><time>2026-04-06T07:53:34Z</time></trkpt><trkpt lat="43.32766467204536" lon="10.504467824550302"><ele>9.0</ele><time>2026-04-06T07:53:35Z</time></trkpt><trkpt lat="43.327574962105025" lon="10.504562212766642"><ele>9.0</ele><time>2026-04-06T07:53:37Z</time></trkpt><trkpt lat="43.32752518251594" lon="10.504620157511566"><ele>9.000000000000002</ele><time>2026-04-06T07:53:38Z</time></trkpt><trkpt lat="43.32747125271076" lon="10.504666959541318"><ele>9.0</ele><time>2026-04-06T07:53:39Z</time></trkpt><trkpt lat="43.32741819155244" lon="10.504716058179902"><ele>9.0</ele><time>2026-04-06T07:53:40Z</time></trkpt><trkpt lat="43.327367919789495" lon="10.504770613163254"><ele>9.0</ele><time>2026-04-06T07:53:41Z</time></trkpt><trkpt lat="43.32731604015286" lon="10.504823844486642"><ele>9.0</ele><time>2026-04-06T07:53:42Z</time></trkpt><trkpt lat="43.32726154400454" lon="10.504870895841082"><ele>9.000000000000002</ele><time>2026-04-06T07:53:43Z</time></trkpt><trkpt lat="43.327164130724476" lon="10.504970577740947"><ele>9.0</ele><time>2026-04-06T07:53:45Z</time></trkpt><trkpt lat="43.327111576125375" lon="10.505026085390947"><ele>9.142857142857144</ele><time>2026-04-06T07:53:46Z</time></trkpt><trkpt lat="43.32705646291036" lon="10.5050807890852"><ele>9.285714285714286</ele><time>2026-04-06T07:53:47Z</time></trkpt><trkpt lat="43.327006637726214" lon="10.505134782007982"><ele>9.428571428571429</ele><time>2026-04-06T07:53:48Z</time></trkpt><trkpt lat="43.32695564739076" lon="10.505190923236606"><ele>9.571428571428573</ele><time>2026-04-06T07:53:49Z</time></trkpt><trkpt lat="43.326903457659014" lon="10.505243824196137"><ele>9.714285714285715</ele><time>2026-04-06T07:53:50Z</time></trkpt><trkpt lat="43.32685117343951" lon="10.505300521807067"><ele>9.857142857142858</ele><time>2026-04-06T07:53:51Z</time></trkpt><trkpt lat="43.32679811024265" lon="10.505355888957654"><ele>10.0</ele><time>2026-04-06T07:53:52Z</time></trkpt><trkpt lat="43.32674336621676" lon="10.505405105218683"><ele>10.0</ele><time>2026-04-06T07:53:53Z</time></trkpt><trkpt lat="43.32668935183284" lon="10.50545294081205"><ele>10.0</ele><time>2026-04-06T07:53:54Z</time></trkpt><trkpt lat="43.32662977565515" lon="10.505500912085202"><ele>10.0</ele><time>2026-04-06T07:53:55Z</time></trkpt><trkpt lat="43.326575279121414" lon="10.505552739530795"><ele>10.0</ele><time>2026-04-06T07:53:56Z</time></trkpt><trkpt lat="43.326519538058854" lon="10.505604691826916"><ele>10.0</ele><time>2026-04-06T07:53:57Z</time></trkpt><trkpt lat="43.32646506983553" lon="10.505658186271726"><ele>10.0</ele><time>2026-04-06T07:53:58Z</time></trkpt><trkpt lat="43.326412958816164" lon="10.50571372433178"><ele>10.0</ele><time>2026-04-06T07:53:59Z</time></trkpt><trkpt lat="43.32635722452314" lon="10.505777335107194"><ele>9.833333333333334</ele><time>2026-04-06T07:54:00Z</time></trkpt><trkpt lat="43.326304547006984" lon="10.50583117111079"><ele>9.666666666666668</ele><time>2026-04-06T07:54:01Z</time></trkpt><trkpt lat="43.32624786124169" lon="10.505883507280421"><ele>9.5</ele><time>2026-04-06T07:54:02Z</time></trkpt><trkpt lat="43.32619455900257" lon="10.505938635266572"><ele>9.333333333333334</ele><time>2026-04-06T07:54:03Z</time></trkpt><trkpt lat="43.32614296286771" lon="10.505996587172739"><ele>9.166666666666666</ele><time>2026-04-06T07:54:04Z</time></trkpt><trkpt lat="43.32604686094402" lon="10.506109491303382"><ele>9.0</ele><time>2026-04-06T07:54:06Z</time></trkpt><trkpt lat="43.325955753499244" lon="10.506227070559351"><ele>9.000000000000002</ele><time>2026-04-06T07:54:08Z</time></trkpt><trkpt lat="43.32590598934867" lon="10.506281924296413"><ele>9.0</ele><time>2026-04-06T07:54:09Z</time></trkpt><trkpt lat="43.32585408520925" lon="10.506335766200934"><ele>9.0</ele><time>2026-04-06T07:54:10Z</time></trkpt><trkpt lat="43.32579955766199" lon="10.506384761498914"><ele>9.0</ele><time>2026-04-06T07:54:11Z</time></trkpt><trkpt lat="43.325738906125714" lon="10.506434314250905"><ele>9.0</ele><time>2026-04-06T07:54:12Z</time></trkpt><trkpt lat="43.32568254069638" lon="10.506485508678287"><ele>9.000000000000002</ele><time>2026-04-06T07:54:13Z</time></trkpt><trkpt lat="43.32562766734936" lon="10.506542064121902"><ele>9.0</ele><time>2026-04-06T07:54:14Z</time></trkpt><trkpt lat="43.32557258033" lon="10.506596955701168"><ele>9.000000000000002</ele><time>2026-04-06T07:54:15Z</time></trkpt><trkpt lat="43.325518617368154" lon="10.506650838545124"><ele>9.0</ele><time>2026-04-06T07:54:16Z</time></trkpt><trkpt lat="43.32546353087173" lon="10.50670741420436"><ele>9.0</ele><time>2026-04-06T07:54:17Z</time></trkpt><trkpt lat="43.32540615030798" lon="10.506769257288738"><ele>9.0</ele><time>2026-04-06T07:54:18Z</time></trkpt><trkpt lat="43.32535219899573" lon="10.506829699285579"><ele>9.0</ele><time>2026-04-06T07:54:19Z</time></trkpt><trkpt lat="43.325299080548234" lon="10.506886998282814"><ele>9.000000000000002</ele><time>2026-04-06T07:54:20Z</time></trkpt><trkpt lat="43.325247359255414" lon="10.50693912892142"><ele>9.0</ele><time>2026-04-06T07:54:21Z</time></trkpt><trkpt lat="43.32519594089313" lon="10.506996731471379"><ele>9.000000000000002</ele><time>2026-04-06T07:54:22Z</time></trkpt><trkpt lat="43.3251438998753" lon="10.507052531350842"><ele>9.0</ele><time>2026-04-06T07:54:23Z</time></trkpt><trkpt lat="43.3250885498257" lon="10.507106495678139"><ele>9.0</ele><time>2026-04-06T07:54:24Z</time></trkpt><trkpt lat="43.32503461922466" lon="10.507160257491343"><ele>9.0</ele><time>2026-04-06T07:54:25Z</time></trkpt><trkpt lat="43.324980081003446" lon="10.507221088253104"><ele>9.0</ele><time>2026-04-06T07:54:26Z</time></trkpt><trkpt lat="43.32493074145217" lon="10.507276868728548"><ele>9.000000000000002</ele><time>2026-04-06T07:54:27Z</time></trkpt><trkpt lat="43.324880974841875" lon="10.507332457395567"><ele>9.0</ele><time>2026-04-06T07:54:28Z</time></trkpt><trkpt lat="43.32477607370574" lon="10.507434641534138"><ele>9.000000000000002</ele><time>2026-04-06T07:54:30Z</time></trkpt><trkpt lat="43.32472333494158" lon="10.50748916945985"><ele>9.0</ele><time>2026-04-06T07:54:31Z</time></trkpt><trkpt lat="43.32467296091444" lon="10.507541526162132"><ele>9.0</ele><time>2026-04-06T07:54:32Z</time></trkpt><trkpt lat="43.32461729632536" lon="10.507585855585996"><ele>9.0</ele><time>2026-04-06T07:54:33Z</time></trkpt><trkpt lat="43.32456459169152" lon="10.50763907433083"><ele>9.0</ele><time>2026-04-06T07:54:34Z</time></trkpt><trkpt lat="43.32451563037365" lon="10.507694695121062"><ele>9.000000000000002</ele><time>2026-04-06T07:54:35Z</time></trkpt><trkpt lat="43.32441745552309" lon="10.507797053870204"><ele>9.0</ele><time>2026-04-06T07:54:37Z</time></trkpt><trkpt lat="43.324320397871524" lon="10.507892207084783"><ele>9.0</ele><time>2026-04-06T07:54:38.999Z</time></trkpt><trkpt lat="43.32422456656578" lon="10.507991777062715"><ele>9.0</ele><time>2026-04-06T07:54:40.999Z</time></trkpt><trkpt lat="43.32413044264567" lon="10.508089275398756"><ele>9.0</ele><time>2026-04-06T07:54:42.999Z</time></trkpt><trkpt lat="43.324040275490475" lon="10.508185775170599"><ele>9.0</ele><time>2026-04-06T07:54:45Z</time></trkpt><trkpt lat="43.323942473865834" lon="10.508279602631214"><ele>8.6</ele><time>2026-04-06T07:54:47Z</time></trkpt><trkpt lat="43.323853822481524" lon="10.508371588586288"><ele>8.2</ele><time>2026-04-06T07:54:49Z</time></trkpt><trkpt lat="43.32376125597928" lon="10.508459156472355"><ele>7.799999999999999</ele><time>2026-04-06T07:54:51Z</time></trkpt><trkpt lat="43.32367361921844" lon="10.508544638590237"><ele>7.3999999999999995</ele><time>2026-04-06T07:54:53Z</time></trkpt><trkpt lat="43.32356368570182" lon="10.508576621404586"><ele>7.0</ele><time>2026-04-06T07:54:55Z</time></trkpt><trkpt lat="43.323454064012644" lon="10.508526210906886"><ele>7.0</ele><time>2026-04-06T07:54:57Z</time></trkpt><trkpt lat="43.323362409045764" lon="10.508597967536033"><ele>6.999999999999999</ele><time>2026-04-06T07:54:59Z</time></trkpt><trkpt lat="43.32334274940751" lon="10.508752727271586"><ele>6.999999999999999</ele><time>2026-04-06T07:55:01Z</time></trkpt><trkpt lat="43.3232890036957" lon="10.508821597887318"><ele>7.0</ele><time>2026-04-06T07:55:02Z</time></trkpt><trkpt lat="43.323219817685676" lon="10.508958647632028"><ele>7.0</ele><time>2026-04-06T07:55:04Z</time></trkpt><trkpt lat="43.323145878757614" lon="10.509089643418964"><ele>7.0</ele><time>2026-04-06T07:55:06Z</time></trkpt><trkpt lat="43.32309395567781" lon="10.509247584627888"><ele>7.0</ele><time>2026-04-06T07:55:08Z</time></trkpt><trkpt lat="43.32306943116445" lon="10.509408733710005"><ele>7.0</ele><time>2026-04-06T07:55:10Z</time></trkpt><trkpt lat="43.32309551202024" lon="10.509564365969988"><ele>7.0</ele><time>2026-04-06T07:55:12Z</time></trkpt><trkpt lat="43.323124901294875" lon="10.509700603494096"><ele>7.0</ele><time>2026-04-06T07:55:14Z</time></trkpt><trkpt lat="43.323101180197966" lon="10.509829047649944"><ele>6.999999999999999</ele><time>2026-04-06T07:55:16Z</time></trkpt><trkpt lat="43.32302509266892" lon="10.509877991086686"><ele>6.999999999999999</ele><time>2026-04-06T07:55:17Z</time></trkpt><trkpt lat="43.322973145832954" lon="10.51000873416044"><ele>7.0</ele><time>2026-04-06T07:55:19Z</time></trkpt><trkpt lat="43.32286971203295" lon="10.510073003144903"><ele>7.0</ele><time>2026-04-06T07:55:21Z</time></trkpt><trkpt lat="43.322796271453456" lon="10.510103183994032"><ele>6.666666666666667</ele><time>2026-04-06T07:55:23Z</time></trkpt><trkpt lat="43.322724358166624" lon="10.510149523924433"><ele>6.333333333333334</ele><time>2026-04-06T07:55:25Z</time></trkpt><trkpt lat="43.32262502010887" lon="10.510213998671016"><ele>6.0</ele><time>2026-04-06T07:55:27Z</time></trkpt><trkpt lat="43.32251325940129" lon="10.510281906579735"><ele>5.666666666666667</ele><time>2026-04-06T07:55:29Z</time></trkpt><trkpt lat="43.32245381715918" lon="10.510319457718138"><ele>5.333333333333334</ele><time>2026-04-06T07:55:30Z</time></trkpt><trkpt lat="43.32239371829213" lon="10.510359670767826"><ele>5.0</ele><time>2026-04-06T07:55:31Z</time></trkpt><trkpt lat="43.32233310345096" lon="10.510397324893136"><ele>5.0</ele><time>2026-04-06T07:55:32Z</time></trkpt><trkpt lat="43.322271970784904" lon="10.510435291633728"><ele>5.0</ele><time>2026-04-06T07:55:33Z</time></trkpt><trkpt lat="43.32221049306058" lon="10.51047422744807"><ele>5.0</ele><time>2026-04-06T07:55:34Z</time></trkpt><trkpt lat="43.32214764695684" lon="10.510510244622587"><ele>5.0</ele><time>2026-04-06T07:55:35Z</time></trkpt><trkpt lat="43.322090148364595" lon="10.510549582962467"><ele>5.0</ele><time>2026-04-06T07:55:36Z</time></trkpt><trkpt lat="43.32202760760455" lon="10.510589226464564"><ele>5.0</ele><time>2026-04-06T07:55:37Z</time></trkpt><trkpt lat="43.32196424390113" lon="10.5106288074242"><ele>5.0</ele><time>2026-04-06T07:55:38Z</time></trkpt><trkpt lat="43.32190594612287" lon="10.510665645806661"><ele>4.714285714285714</ele><time>2026-04-06T07:55:39Z</time></trkpt><trkpt lat="43.321844824381074" lon="10.510703693539936"><ele>4.428571428571429</ele><time>2026-04-06T07:55:40Z</time></trkpt><trkpt lat="43.321782813486365" lon="10.51073942241459"><ele>4.142857142857142</ele><time>2026-04-06T07:55:41Z</time></trkpt><trkpt lat="43.32172130980024" lon="10.510777324102476"><ele>3.8571428571428568</ele><time>2026-04-06T07:55:42Z</time></trkpt><trkpt lat="43.32166210009023" lon="10.51081366218395"><ele>3.571428571428571</ele><time>2026-04-06T07:55:43Z</time></trkpt><trkpt lat="43.321601333689536" lon="10.51085017839673"><ele>3.2857142857142856</ele><time>2026-04-06T07:55:44Z</time></trkpt><trkpt lat="43.32153997112926" lon="10.510892625266864"><ele>3.0</ele><time>2026-04-06T07:55:45Z</time></trkpt><trkpt lat="43.3214793125925" lon="10.510930599866036"><ele>3.0</ele><time>2026-04-06T07:55:46Z</time></trkpt><trkpt lat="43.32141844688729" lon="10.510965336321348"><ele>3.0</ele><time>2026-04-06T07:55:47Z</time></trkpt><trkpt lat="43.32135861998684" lon="10.511004773208773"><ele>3.0</ele><time>2026-04-06T07:55:48Z</time></trkpt><trkpt lat="43.321298069994015" lon="10.51104119538097"><ele>3.0</ele><time>2026-04-06T07:55:49Z</time></trkpt><trkpt lat="43.321237790436015" lon="10.511079300720441"><ele>3.0</ele><time>2026-04-06T07:55:50Z</time></trkpt><trkpt lat="43.321122842054045" lon="10.511155959708214"><ele>3.0</ele><time>2026-04-06T07:55:52Z</time></trkpt><trkpt lat="43.32106298982611" lon="10.51119192440622"><ele>3.2857142857142856</ele><time>2026-04-06T07:55:53Z</time></trkpt><trkpt lat="43.32100063925969" lon="10.511228345003392"><ele>3.571428571428571</ele><time>2026-04-06T07:55:54Z</time></trkpt><trkpt lat="43.32093964848147" lon="10.511263911464125"><ele>3.8571428571428568</ele><time>2026-04-06T07:55:55Z</time></trkpt><trkpt lat="43.320880543735775" lon="10.511302030290015"><ele>4.142857142857142</ele><time>2026-04-06T07:55:56Z</time></trkpt><trkpt lat="43.320819277503965" lon="10.511339837083716"><ele>4.428571428571429</ele><time>2026-04-06T07:55:57Z</time></trkpt><trkpt lat="43.32076182708387" lon="10.511376954264604"><ele>4.714285714285714</ele><time>2026-04-06T07:55:58Z</time></trkpt><trkpt lat="43.32070281041674" lon="10.511413788255513"><ele>5.0</ele><time>2026-04-06T07:55:59Z</time></trkpt><trkpt lat="43.320643641725" lon="10.511449960884208"><ele>5.0</ele><time>2026-04-06T07:56:00Z</time></trkpt><trkpt lat="43.32058199924197" lon="10.511488895750603"><ele>5.0</ele><time>2026-04-06T07:56:01Z</time></trkpt><trkpt lat="43.32052333358594" lon="10.511529183585232"><ele>5.0</ele><time>2026-04-06T07:56:02Z</time></trkpt><trkpt lat="43.320460929153036" lon="10.511565867010665"><ele>5.0</ele><time>2026-04-06T07:56:03Z</time></trkpt><trkpt lat="43.320398912537996" lon="10.511602348094303"><ele>5.0</ele><time>2026-04-06T07:56:04Z</time></trkpt><trkpt lat="43.32033826179603" lon="10.511644385785061"><ele>5.0</ele><time>2026-04-06T07:56:05Z</time></trkpt><trkpt lat="43.32027605081993" lon="10.511683378829732"><ele>5.0</ele><time>2026-04-06T07:56:06Z</time></trkpt><trkpt lat="43.320213521944176" lon="10.511722432250348"><ele>5.0</ele><time>2026-04-06T07:56:07Z</time></trkpt><trkpt lat="43.320151972849466" lon="10.511761878252345"><ele>5.0</ele><time>2026-04-06T07:56:08Z</time></trkpt><trkpt lat="43.320088540169166" lon="10.511800224353557"><ele>5.0</ele><time>2026-04-06T07:56:09Z</time></trkpt><trkpt lat="43.320024499139215" lon="10.51183863259638"><ele>5.0</ele><time>2026-04-06T07:56:10Z</time></trkpt><trkpt lat="43.31996324532686" lon="10.511881054982936"><ele>5.0</ele><time>2026-04-06T07:56:11Z</time></trkpt><trkpt lat="43.31989839373912" lon="10.511921820243947"><ele>5.0</ele><time>2026-04-06T07:56:12Z</time></trkpt><trkpt lat="43.31983478242167" lon="10.511963555880623"><ele>5.0</ele><time>2026-04-06T07:56:13Z</time></trkpt><trkpt lat="43.31977324627283" lon="10.512002229399728"><ele>5.0</ele><time>2026-04-06T07:56:14Z</time></trkpt><trkpt lat="43.3197113182785" lon="10.512039179784448"><ele>5.0</ele><time>2026-04-06T07:56:15Z</time></trkpt><trkpt lat="43.31964847805465" lon="10.512078271603547"><ele>5.0</ele><time>2026-04-06T07:56:16Z</time></trkpt><trkpt lat="43.31958479140089" lon="10.512115379957491"><ele>5.0</ele><time>2026-04-06T07:56:17Z</time></trkpt><trkpt lat="43.319522863075" lon="10.512155444490219"><ele>5.0</ele><time>2026-04-06T07:56:18Z</time></trkpt><trkpt lat="43.319460496840286" lon="10.512196507031463"><ele>5.0</ele><time>2026-04-06T07:56:19Z</time></trkpt><trkpt lat="43.31939849983557" lon="10.512237921835434"><ele>5.0</ele><time>2026-04-06T07:56:20Z</time></trkpt><trkpt lat="43.31933578496718" lon="10.512277106131235"><ele>5.0</ele><time>2026-04-06T07:56:21Z</time></trkpt><trkpt lat="43.31927385172119" lon="10.512315412016273"><ele>5.0</ele><time>2026-04-06T07:56:22Z</time></trkpt><trkpt lat="43.319213125663886" lon="10.512356208466935"><ele>5.0</ele><time>2026-04-06T07:56:23Z</time></trkpt><trkpt lat="43.31914811957725" lon="10.51239374008273"><ele>5.0</ele><time>2026-04-06T07:56:24Z</time></trkpt><trkpt lat="43.31908601600125" lon="10.512431064369958"><ele>5.0</ele><time>2026-04-06T07:56:25Z</time></trkpt><trkpt lat="43.31902277323475" lon="10.512470016668745"><ele>5.0</ele><time>2026-04-06T07:56:26Z</time></trkpt><trkpt lat="43.31896167962268" lon="10.512508009598706"><ele>5.0</ele><time>2026-04-06T07:56:27Z</time></trkpt><trkpt lat="43.31889910878392" lon="10.51254778120593"><ele>5.0</ele><time>2026-04-06T07:56:28Z</time></trkpt><trkpt lat="43.31883596936277" lon="10.512580184745014"><ele>5.0</ele><time>2026-04-06T07:56:29Z</time></trkpt><trkpt lat="43.3187748841585" lon="10.512612798265868"><ele>5.0</ele><time>2026-04-06T07:56:30Z</time></trkpt><trkpt lat="43.318712800786976" lon="10.512644710849424"><ele>5.0</ele><time>2026-04-06T07:56:31Z</time></trkpt><trkpt lat="43.318653500498705" lon="10.512675167707956"><ele>5.0</ele><time>2026-04-06T07:56:32Z</time></trkpt><trkpt lat="43.318587776979136" lon="10.51270662516807"><ele>5.0</ele><time>2026-04-06T07:56:33Z</time></trkpt><trkpt lat="43.318522571725474" lon="10.512732291716285"><ele>5.0</ele><time>2026-04-06T07:56:34Z</time></trkpt><trkpt lat="43.318458186121426" lon="10.51275905499517"><ele>5.0</ele><time>2026-04-06T07:56:35Z</time></trkpt><trkpt lat="43.31839322423375" lon="10.512784635992773"><ele>5.0</ele><time>2026-04-06T07:56:36Z</time></trkpt><trkpt lat="43.3183268452981" lon="10.512811808333169"><ele>5.0</ele><time>2026-04-06T07:56:37Z</time></trkpt><trkpt lat="43.318261499605256" lon="10.512838922025248"><ele>5.0</ele><time>2026-04-06T07:56:38Z</time></trkpt><trkpt lat="43.318196088330836" lon="10.512862853319728"><ele>5.0</ele><time>2026-04-06T07:56:39Z</time></trkpt><trkpt lat="43.318129992719854" lon="10.512886937183566"><ele>5.0</ele><time>2026-04-06T07:56:40Z</time></trkpt><trkpt lat="43.318062133532806" lon="10.512911566630004"><ele>5.0</ele><time>2026-04-06T07:56:41Z</time></trkpt><trkpt lat="43.317995376996194" lon="10.512935675245053"><ele>4.571428571428571</ele><time>2026-04-06T07:56:41.999Z</time></trkpt><trkpt lat="43.31792674407575" lon="10.512958715485063"><ele>4.142857142857143</ele><time>2026-04-06T07:56:42.999Z</time></trkpt><trkpt lat="43.317858053797025" lon="10.512980496151112"><ele>3.7142857142857144</ele><time>2026-04-06T07:56:43.999Z</time></trkpt><trkpt lat="43.317788472003095" lon="10.513009793464677"><ele>3.2857142857142856</ele><time>2026-04-06T07:56:44.999Z</time></trkpt><trkpt lat="43.317717197990966" lon="10.513038996179192"><ele>2.8571428571428568</ele><time>2026-04-06T07:56:45.999Z</time></trkpt><trkpt lat="43.317649076127054" lon="10.5130641257588"><ele>2.4285714285714284</ele><time>2026-04-06T07:56:46.999Z</time></trkpt><trkpt lat="43.31757772543284" lon="10.513088415263832"><ele>2.0</ele><time>2026-04-06T07:56:47.999Z</time></trkpt><trkpt lat="43.317506746936985" lon="10.513110900954128"><ele>2.0</ele><time>2026-04-06T07:56:48.999Z</time></trkpt><trkpt lat="43.317436195081" lon="10.513137604553137"><ele>1.9999999999999998</ele><time>2026-04-06T07:56:50Z</time></trkpt><trkpt lat="43.31736805723474" lon="10.513160408133142"><ele>2.0</ele><time>2026-04-06T07:56:51Z</time></trkpt><trkpt lat="43.317298618635604" lon="10.51318542788165"><ele>2.0</ele><time>2026-04-06T07:56:52Z</time></trkpt><trkpt lat="43.31723097612466" lon="10.513210189762935"><ele>1.9999999999999998</ele><time>2026-04-06T07:56:53Z</time></trkpt><trkpt lat="43.31716319225533" lon="10.513235741741115"><ele>2.0</ele><time>2026-04-06T07:56:54Z</time></trkpt><trkpt lat="43.317095081505855" lon="10.51326007988672"><ele>2.0</ele><time>2026-04-06T07:56:55Z</time></trkpt><trkpt lat="43.3170273825071" lon="10.513283100962203"><ele>2.142857142857143</ele><time>2026-04-06T07:56:56Z</time></trkpt><trkpt lat="43.31695839743946" lon="10.513308295246167"><ele>2.2857142857142856</ele><time>2026-04-06T07:56:57Z</time></trkpt><trkpt lat="43.316893040230774" lon="10.51333277670318"><ele>2.4285714285714284</ele><time>2026-04-06T07:56:58Z</time></trkpt><trkpt lat="43.31682607069935" lon="10.51335651751154"><ele>2.571428571428571</ele><time>2026-04-06T07:56:59Z</time></trkpt><trkpt lat="43.316758258959055" lon="10.51337743249811"><ele>2.7142857142857144</ele><time>2026-04-06T07:57:00Z</time></trkpt><trkpt lat="43.31669117320347" lon="10.51340064274846"><ele>2.8571428571428568</ele><time>2026-04-06T07:57:01Z</time></trkpt><trkpt lat="43.316625441637434" lon="10.513425542248376"><ele>3.0</ele><time>2026-04-06T07:57:02Z</time></trkpt><trkpt lat="43.31655972883162" lon="10.51344828865338"><ele>3.0</ele><time>2026-04-06T07:57:03Z</time></trkpt><trkpt lat="43.31649427744659" lon="10.513471969321571"><ele>3.0</ele><time>2026-04-06T07:57:04Z</time></trkpt><trkpt lat="43.316428129788484" lon="10.513492858103838"><ele>3.0</ele><time>2026-04-06T07:57:05Z</time></trkpt><trkpt lat="43.316366954973475" lon="10.513519474633078"><ele>3.0</ele><time>2026-04-06T07:57:06Z</time></trkpt><trkpt lat="43.31630264348023" lon="10.513543931868929"><ele>3.0</ele><time>2026-04-06T07:57:07Z</time></trkpt><trkpt lat="43.316241327066415" lon="10.51356613238299"><ele>3.0</ele><time>2026-04-06T07:57:08Z</time></trkpt><trkpt lat="43.31612437330124" lon="10.51361303320572"><ele>3.25</ele><time>2026-04-06T07:57:10Z</time></trkpt><trkpt lat="43.316011964867734" lon="10.513664991530932"><ele>3.5</ele><time>2026-04-06T07:57:12Z</time></trkpt><trkpt lat="43.3159015291079" lon="10.513724410792305"><ele>3.75</ele><time>2026-04-06T07:57:14Z</time></trkpt><trkpt lat="43.31579290708692" lon="10.513789276011568"><ele>4.0</ele><time>2026-04-06T07:57:16Z</time></trkpt><trkpt lat="43.31569203767319" lon="10.51386048174008"><ele>4.25</ele><time>2026-04-06T07:57:18Z</time></trkpt><trkpt lat="43.315591226070175" lon="10.513940338699143"><ele>4.5</ele><time>2026-04-06T07:57:20Z</time></trkpt><trkpt lat="43.31549398101512" lon="10.51402010451755"><ele>4.75</ele><time>2026-04-06T07:57:22Z</time></trkpt><trkpt lat="43.31539679652145" lon="10.51410650192047"><ele>5.0</ele><time>2026-04-06T07:57:24Z</time></trkpt><trkpt lat="43.315301719641504" lon="10.514186883186923"><ele>5.0</ele><time>2026-04-06T07:57:26Z</time></trkpt><trkpt lat="43.31520365102799" lon="10.514271251137137"><ele>5.0</ele><time>2026-04-06T07:57:28Z</time></trkpt><trkpt lat="43.31511021891721" lon="10.514355775016199"><ele>5.0</ele><time>2026-04-06T07:57:30Z</time></trkpt><trkpt lat="43.31501282518467" lon="10.514432298549995"><ele>5.0</ele><time>2026-04-06T07:57:32Z</time></trkpt><trkpt lat="43.3149174718695" lon="10.514515490931446"><ele>4.75</ele><time>2026-04-06T07:57:34Z</time></trkpt><trkpt lat="43.314816412865525" lon="10.514597768813415"><ele>4.5</ele><time>2026-04-06T07:57:36Z</time></trkpt><trkpt lat="43.31471538798896" lon="10.514687122258728"><ele>4.25</ele><time>2026-04-06T07:57:38Z</time></trkpt><trkpt lat="43.3146166183649" lon="10.514771334464584"><ele>4.0</ele><time>2026-04-06T07:57:40Z</time></trkpt><trkpt lat="43.31451901313824" lon="10.514860186616433"><ele>4.6</ele><time>2026-04-06T07:57:42Z</time></trkpt><trkpt lat="43.31442336013833" lon="10.514868384256303"><ele>5.2</ele><time>2026-04-06T07:57:44Z</time></trkpt><trkpt lat="43.314349445431695" lon="10.514728629243615"><ele>5.799999999999999</ele><time>2026-04-06T07:57:46Z</time></trkpt><trkpt lat="43.314293238811544" lon="10.51457877272987"><ele>6.3999999999999995</ele><time>2026-04-06T07:57:48Z</time></trkpt><trkpt lat="43.314257085713315" lon="10.514500487477768"><ele>7.0</ele><time>2026-04-06T07:57:49Z</time></trkpt><trkpt lat="43.31421912097907" lon="10.514421775725841"><ele>7.0</ele><time>2026-04-06T07:57:50Z</time></trkpt><trkpt lat="43.31418143540217" lon="10.514343805632299"><ele>7.0</ele><time>2026-04-06T07:57:51Z</time></trkpt><trkpt lat="43.31414400361776" lon="10.514261974521938"><ele>7.0</ele><time>2026-04-06T07:57:52Z</time></trkpt><trkpt lat="43.31410680840755" lon="10.514180420338516"><ele>7.0</ele><time>2026-04-06T07:57:53Z</time></trkpt><trkpt lat="43.31406862293657" lon="10.514099367670575"><ele>7.0</ele><time>2026-04-06T07:57:54Z</time></trkpt><trkpt lat="43.31402365976938" lon="10.514021602158655"><ele>7.0</ele><time>2026-04-06T07:57:55Z</time></trkpt><trkpt lat="43.313983394763646" lon="10.513940733879766"><ele>7.0</ele><time>2026-04-06T07:57:56Z</time></trkpt><trkpt lat="43.31394367152383" lon="10.513862597431238"><ele>7.000000000000001</ele><time>2026-04-06T07:57:57Z</time></trkpt><trkpt lat="43.3139063501426" lon="10.513784106895173"><ele>7.0</ele><time>2026-04-06T07:57:58Z</time></trkpt><trkpt lat="43.31387148813653" lon="10.513709703611186"><ele>7.0</ele><time>2026-04-06T07:57:59Z</time></trkpt><trkpt lat="43.313836157785566" lon="10.513632101891597"><ele>7.0</ele><time>2026-04-06T07:58:00Z</time></trkpt><trkpt lat="43.31379842377272" lon="10.513560190728052"><ele>7.000000000000001</ele><time>2026-04-06T07:58:01Z</time></trkpt><trkpt lat="43.31373012178074" lon="10.513421914163523"><ele>7.0</ele><time>2026-04-06T07:58:03Z</time></trkpt><trkpt lat="43.31367267277156" lon="10.513287964732562"><ele>7.6</ele><time>2026-04-06T07:58:05Z</time></trkpt><trkpt lat="43.313619038874535" lon="10.51315132616203"><ele>8.2</ele><time>2026-04-06T07:58:07Z</time></trkpt><trkpt lat="43.313635817092575" lon="10.51299846911028"><ele>8.8</ele><time>2026-04-06T07:58:09Z</time></trkpt><trkpt lat="43.313596216610215" lon="10.512865788828222"><ele>9.4</ele><time>2026-04-06T07:58:11Z</time></trkpt><trkpt lat="43.31349695684891" lon="10.51292680022543"><ele>10.0</ele><time>2026-04-06T07:58:12Z</time></trkpt><trkpt lat="43.31345312220141" lon="10.51305716712321"><ele>10.0</ele><time>2026-04-06T07:58:14Z</time></trkpt><trkpt lat="43.313353173210565" lon="10.513074114321922"><ele>10.0</ele><time>2026-04-06T07:58:16Z</time></trkpt><trkpt lat="43.31333561639104" lon="10.513195632888047"><ele>10.0</ele><time>2026-04-06T07:58:17Z</time></trkpt><trkpt lat="43.31323529028482" lon="10.513270840260013"><ele>10.0</ele><time>2026-04-06T07:58:19Z</time></trkpt><trkpt lat="43.31314184056529" lon="10.51335522844031"><ele>10.0</ele><time>2026-04-06T07:58:21Z</time></trkpt><trkpt lat="43.313051056248774" lon="10.513437554497516"><ele>10.0</ele><time>2026-04-06T07:58:23Z</time></trkpt><trkpt lat="43.31295476278855" lon="10.513506833385804"><ele>10.0</ele><time>2026-04-06T07:58:25Z</time></trkpt><trkpt lat="43.3128515384369" lon="10.513562410840272"><ele>10.0</ele><time>2026-04-06T07:58:27Z</time></trkpt><trkpt lat="43.312751607265554" lon="10.51362674360855"><ele>10.0</ele><time>2026-04-06T07:58:29Z</time></trkpt><trkpt lat="43.31264145295884" lon="10.51369032703215"><ele>10.0</ele><time>2026-04-06T07:58:31Z</time></trkpt><trkpt lat="43.31252652855681" lon="10.51373680582569"><ele>10.2</ele><time>2026-04-06T07:58:33Z</time></trkpt><trkpt lat="43.31240865386826" lon="10.513796990682721"><ele>10.4</ele><time>2026-04-06T07:58:35Z</time></trkpt><trkpt lat="43.31230128262156" lon="10.513870870362979"><ele>10.600000000000001</ele><time>2026-04-06T07:58:37Z</time></trkpt><trkpt lat="43.312238888208924" lon="10.513912548353245"><ele>10.8</ele><time>2026-04-06T07:58:38Z</time></trkpt><trkpt lat="43.31212313140877" lon="10.513979419239597"><ele>11.0</ele><time>2026-04-06T07:58:40Z</time></trkpt><trkpt lat="43.31206482130864" lon="10.514018302502256"><ele>11.0</ele><time>2026-04-06T07:58:41Z</time></trkpt><trkpt lat="43.31200539742443" lon="10.51405859753524"><ele>11.0</ele><time>2026-04-06T07:58:42Z</time></trkpt><trkpt lat="43.31189032232449" lon="10.514131513845697"><ele>11.0</ele><time>2026-04-06T07:58:44Z</time></trkpt><trkpt lat="43.3118333935716" lon="10.514169107274844"><ele>11.0</ele><time>2026-04-06T07:58:45Z</time></trkpt><trkpt lat="43.31177478514531" lon="10.51420270335235"><ele>11.0</ele><time>2026-04-06T07:58:45.999Z</time></trkpt><trkpt lat="43.31171624500955" lon="10.514236106028246"><ele>11.0</ele><time>2026-04-06T07:58:46.999Z</time></trkpt><trkpt lat="43.31165916424697" lon="10.51427435388358"><ele>11.0</ele><time>2026-04-06T07:58:47.999Z</time></trkpt><trkpt lat="43.31160239757461" lon="10.514316725537999"><ele>11.0</ele><time>2026-04-06T07:58:48.999Z</time></trkpt><trkpt lat="43.31154796268095" lon="10.514365738428564"><ele>11.0</ele><time>2026-04-06T07:58:49.999Z</time></trkpt><trkpt lat="43.311493509571086" lon="10.514410673770648"><ele>11.0</ele><time>2026-04-06T07:58:50.999Z</time></trkpt><trkpt lat="43.31143717823916" lon="10.514456006731345"><ele>11.0</ele><time>2026-04-06T07:58:51.999Z</time></trkpt><trkpt lat="43.3113703841844" lon="10.514489917486975"><ele>11.0</ele><time>2026-04-06T07:58:52.999Z</time></trkpt><trkpt lat="43.31130910619784" lon="10.51452873749989"><ele>11.0</ele><time>2026-04-06T07:58:53.999Z</time></trkpt><trkpt lat="43.31125027006263" lon="10.514566313836685"><ele>11.0</ele><time>2026-04-06T07:58:54.999Z</time></trkpt><trkpt lat="43.31118803769769" lon="10.514606116928725"><ele>11.8</ele><time>2026-04-06T07:58:56Z</time></trkpt><trkpt lat="43.31112809702535" lon="10.514648362378757"><ele>12.600000000000001</ele><time>2026-04-06T07:58:57Z</time></trkpt><trkpt lat="43.311015154719726" lon="10.514729891595264"><ele>13.4</ele><time>2026-04-06T07:58:59Z</time></trkpt><trkpt lat="43.310957024821164" lon="10.514775789749086"><ele>14.2</ele><time>2026-04-06T07:59:00Z</time></trkpt><trkpt lat="43.31084884509171" lon="10.514821052241556"><ele>15.0</ele><time>2026-04-06T07:59:02Z</time></trkpt><trkpt lat="43.31076169471186" lon="10.51487558259106"><ele>15.0</ele><time>2026-04-06T07:59:04Z</time></trkpt><trkpt lat="43.3106669069189" lon="10.514897977419327"><ele>15.0</ele><time>2026-04-06T07:59:06Z</time></trkpt><trkpt lat="43.310592463150385" lon="10.514944932916245"><ele>15.0</ele><time>2026-04-06T07:59:08Z</time></trkpt><trkpt lat="43.31050469748797" lon="10.515000232479219"><ele>15.0</ele><time>2026-04-06T07:59:11Z</time></trkpt><trkpt lat="43.310425782305" lon="10.515046191524581"><ele>15.0</ele><time>2026-04-06T07:59:13Z</time></trkpt><trkpt lat="43.31035280050627" lon="10.51510399335408"><ele>15.0</ele><time>2026-04-06T07:59:15Z</time></trkpt><trkpt lat="43.31025396562568" lon="10.51517187919317"><ele>14.4</ele><time>2026-04-06T07:59:17Z</time></trkpt><trkpt lat="43.310153757087285" lon="10.51522980814567"><ele>13.8</ele><time>2026-04-06T07:59:19Z</time></trkpt><trkpt lat="43.31004401096444" lon="10.51530243481175"><ele>13.2</ele><time>2026-04-06T07:59:21Z</time></trkpt><trkpt lat="43.30992693191579" lon="10.515377069669142"><ele>12.6</ele><time>2026-04-06T07:59:23Z</time></trkpt><trkpt lat="43.309863845798006" lon="10.515413716469187"><ele>12.0</ele><time>2026-04-06T07:59:24Z</time></trkpt><trkpt lat="43.30979897170624" lon="10.515454349906884"><ele>11.5</ele><time>2026-04-06T07:59:25Z</time></trkpt><trkpt lat="43.309733134055456" lon="10.515496696210418"><ele>11.0</ele><time>2026-04-06T07:59:26Z</time></trkpt><trkpt lat="43.30966518029563" lon="10.515537253635918"><ele>10.5</ele><time>2026-04-06T07:59:27Z</time></trkpt><trkpt lat="43.30959377806372" lon="10.51557731782902"><ele>10.0</ele><time>2026-04-06T07:59:28Z</time></trkpt><trkpt lat="43.309522372519595" lon="10.515619372575431"><ele>9.5</ele><time>2026-04-06T07:59:29Z</time></trkpt><trkpt lat="43.309451321565646" lon="10.515665324423425"><ele>9.0</ele><time>2026-04-06T07:59:30Z</time></trkpt><trkpt lat="43.3093795746379" lon="10.515706058016457"><ele>9.000000000000002</ele><time>2026-04-06T07:59:31Z</time></trkpt><trkpt lat="43.30931824706951" lon="10.51576769989011"><ele>9.0</ele><time>2026-04-06T07:59:32Z</time></trkpt><trkpt lat="43.30925122667668" lon="10.515812918608544"><ele>9.0</ele><time>2026-04-06T07:59:33Z</time></trkpt><trkpt lat="43.30918459283015" lon="10.5158503604639"><ele>9.0</ele><time>2026-04-06T07:59:34Z</time></trkpt><trkpt lat="43.309118172659836" lon="10.515887547359647"><ele>9.0</ele><time>2026-04-06T07:59:35Z</time></trkpt><trkpt lat="43.30905538968467" lon="10.515927116979597"><ele>9.000000000000002</ele><time>2026-04-06T07:59:36Z</time></trkpt><trkpt lat="43.30899430192507" lon="10.515963695893529"><ele>9.0</ele><time>2026-04-06T07:59:37Z</time></trkpt><trkpt lat="43.3089342401138" lon="10.516011028272498"><ele>8.8</ele><time>2026-04-06T07:59:38Z</time></trkpt><trkpt lat="43.308875301403994" lon="10.516091106769123"><ele>8.600000000000001</ele><time>2026-04-06T07:59:39Z</time></trkpt><trkpt lat="43.30876256279746" lon="10.516121959740529"><ele>8.4</ele><time>2026-04-06T07:59:41Z</time></trkpt><trkpt lat="43.30869889283101" lon="10.516174702002642"><ele>8.200000000000001</ele><time>2026-04-06T07:59:42Z</time></trkpt><trkpt lat="43.30859781094964" lon="10.51624832164526"><ele>8.0</ele><time>2026-04-06T07:59:44Z</time></trkpt><trkpt lat="43.30849819390314" lon="10.516320368089074"><ele>8.200000000000001</ele><time>2026-04-06T07:59:46Z</time></trkpt><trkpt lat="43.308391757894995" lon="10.516382073322013"><ele>8.4</ele><time>2026-04-06T07:59:48Z</time></trkpt><trkpt lat="43.30828431889748" lon="10.51644196030554"><ele>8.600000000000001</ele><time>2026-04-06T07:59:50Z</time></trkpt><trkpt lat="43.30819727943149" lon="10.516484558381457"><ele>8.8</ele><time>2026-04-06T07:59:52Z</time></trkpt><trkpt lat="43.308103171947295" lon="10.51658172601403"><ele>9.0</ele><time>2026-04-06T07:59:54Z</time></trkpt><trkpt lat="43.30801445255638" lon="10.516659864550926"><ele>9.0</ele><time>2026-04-06T07:59:56Z</time></trkpt><trkpt lat="43.307908617336075" lon="10.516724182468192"><ele>9.0</ele><time>2026-04-06T07:59:58Z</time></trkpt><trkpt lat="43.307848981790386" lon="10.516759118858959"><ele>9.0</ele><time>2026-04-06T07:59:59Z</time></trkpt><trkpt lat="43.30773962249609" lon="10.516826047419089"><ele>9.0</ele><time>2026-04-06T08:00:01Z</time></trkpt><trkpt lat="43.30762944774248" lon="10.51688684213329"><ele>9.0</ele><time>2026-04-06T08:00:03Z</time></trkpt><trkpt lat="43.307512859358106" lon="10.51695062909788"><ele>9.000000000000002</ele><time>2026-04-06T08:00:05Z</time></trkpt><trkpt lat="43.307453508018135" lon="10.516982285119697"><ele>9.0</ele><time>2026-04-06T08:00:06Z</time></trkpt><trkpt lat="43.307393454866784" lon="10.517014503313323"><ele>9.0</ele><time>2026-04-06T08:00:07Z</time></trkpt><trkpt lat="43.30733489287583" lon="10.517047250715065"><ele>9.0</ele><time>2026-04-06T08:00:08Z</time></trkpt><trkpt lat="43.307274831265154" lon="10.517082470907564"><ele>9.0</ele><time>2026-04-06T08:00:09Z</time></trkpt><trkpt lat="43.30721548472073" lon="10.517122892830626"><ele>9.000000000000002</ele><time>2026-04-06T08:00:10Z</time></trkpt><trkpt lat="43.307158276374274" lon="10.517159187235816"><ele>9.0</ele><time>2026-04-06T08:00:11Z</time></trkpt><trkpt lat="43.307096633598874" lon="10.51719362728295"><ele>9.000000000000002</ele><time>2026-04-06T08:00:12Z</time></trkpt><trkpt lat="43.307033985206466" lon="10.517224583467314"><ele>9.0</ele><time>2026-04-06T08:00:13Z</time></trkpt><trkpt lat="43.30697150412293" lon="10.517265493652106"><ele>9.0</ele><time>2026-04-06T08:00:14Z</time></trkpt><trkpt lat="43.306912406951206" lon="10.517301515521453"><ele>9.0</ele><time>2026-04-06T08:00:15Z</time></trkpt><trkpt lat="43.30685221748257" lon="10.517337089318428"><ele>9.0</ele><time>2026-04-06T08:00:16Z</time></trkpt><trkpt lat="43.3067899628971" lon="10.517369564292014"><ele>9.000000000000002</ele><time>2026-04-06T08:00:17Z</time></trkpt><trkpt lat="43.306723692340384" lon="10.517402666040978"><ele>9.0</ele><time>2026-04-06T08:00:18Z</time></trkpt><trkpt lat="43.3066665981324" lon="10.517446407991626"><ele>9.000000000000002</ele><time>2026-04-06T08:00:19Z</time></trkpt><trkpt lat="43.30660735254141" lon="10.517482330687217"><ele>9.0</ele><time>2026-04-06T08:00:20Z</time></trkpt><trkpt lat="43.30654734429225" lon="10.5175200145191"><ele>9.0</ele><time>2026-04-06T08:00:21Z</time></trkpt><trkpt lat="43.30648640997815" lon="10.517557881942793"><ele>9.0</ele><time>2026-04-06T08:00:22Z</time></trkpt><trkpt lat="43.30642643214159" lon="10.517589459409795"><ele>9.0</ele><time>2026-04-06T08:00:23Z</time></trkpt><trkpt lat="43.306366958476545" lon="10.517621833945027"><ele>9.000000000000002</ele><time>2026-04-06T08:00:24Z</time></trkpt><trkpt lat="43.30630712033464" lon="10.517657128759328"><ele>9.0</ele><time>2026-04-06T08:00:25Z</time></trkpt><trkpt lat="43.30619328667652" lon="10.517724957980963"><ele>8.75</ele><time>2026-04-06T08:00:27Z</time></trkpt><trkpt lat="43.30608234254427" lon="10.517792076515128"><ele>8.5</ele><time>2026-04-06T08:00:29Z</time></trkpt><trkpt lat="43.305970985427635" lon="10.517854484253709"><ele>8.25</ele><time>2026-04-06T08:00:31Z</time></trkpt><trkpt lat="43.30586076330507" lon="10.517918440408733"><ele>8.0</ele><time>2026-04-06T08:00:33Z</time></trkpt><trkpt lat="43.30575328123903" lon="10.517991144060563"><ele>8.0</ele><time>2026-04-06T08:00:35Z</time></trkpt><trkpt lat="43.3056391852635" lon="10.518064903990796"><ele>8.0</ele><time>2026-04-06T08:00:37Z</time></trkpt><trkpt lat="43.30553803498622" lon="10.518134185563424"><ele>8.0</ele><time>2026-04-06T08:00:39Z</time></trkpt><trkpt lat="43.30545342823958" lon="10.518178102107672"><ele>8.0</ele><time>2026-04-06T08:00:41Z</time></trkpt><trkpt lat="43.305386363683034" lon="10.518247761396099"><ele>8.0</ele><time>2026-04-06T08:00:43Z</time></trkpt><trkpt lat="43.305378192324504" lon="10.518346861081096"><ele>7.666666666666666</ele><time>2026-04-06T08:00:44.999Z</time></trkpt><trkpt lat="43.30540519591242" lon="10.518451794824527"><ele>7.333333333333333</ele><time>2026-04-06T08:00:46.999Z</time></trkpt><trkpt lat="43.305441550796544" lon="10.518561052931393"><ele>7.0</ele><time>2026-04-06T08:00:48.999Z</time></trkpt><trkpt lat="43.30547481663133" lon="10.51867020863435"><ele>6.666666666666666</ele><time>2026-04-06T08:00:50.999Z</time></trkpt><trkpt lat="43.305502171774954" lon="10.51878425710501"><ele>6.333333333333333</ele><time>2026-04-06T08:00:52.999Z</time></trkpt><trkpt lat="43.305535715346984" lon="10.518863353860148"><ele>6.0</ele><time>2026-04-06T08:00:54.999Z</time></trkpt><trkpt lat="43.30542630403252" lon="10.518931505388547"><ele>6.0</ele><time>2026-04-06T08:00:55.999Z</time></trkpt><trkpt lat="43.30530735603097" lon="10.518949450766812"><ele>6.0</ele><time>2026-04-06T08:00:57.999Z</time></trkpt><trkpt lat="43.30519106325036" lon="10.51900746969156"><ele>6.0</ele><time>2026-04-06T08:00:59.999Z</time></trkpt><trkpt lat="43.30507369682691" lon="10.519067422885449"><ele>6.0</ele><time>2026-04-06T08:01:02Z</time></trkpt><trkpt lat="43.30501013262937" lon="10.51909709735793"><ele>6.0</ele><time>2026-04-06T08:01:03Z</time></trkpt><trkpt lat="43.3049483567444" lon="10.519120454802161"><ele>6.0</ele><time>2026-04-06T08:01:04Z</time></trkpt><trkpt lat="43.30483357778094" lon="10.519182551416385"><ele>6.0</ele><time>2026-04-06T08:01:06Z</time></trkpt><trkpt lat="43.3047756075588" lon="10.5192199508555"><ele>6.0</ele><time>2026-04-06T08:01:07Z</time></trkpt><trkpt lat="43.30466003100221" lon="10.519270719701495"><ele>6.0</ele><time>2026-04-06T08:01:09Z</time></trkpt><trkpt lat="43.30454374900996" lon="10.51932281089153"><ele>6.0</ele><time>2026-04-06T08:01:11Z</time></trkpt><trkpt lat="43.30443280101114" lon="10.5193787067047"><ele>6.5</ele><time>2026-04-06T08:01:13Z</time></trkpt><trkpt lat="43.30432522247324" lon="10.51944697527577"><ele>7.0</ele><time>2026-04-06T08:01:15Z</time></trkpt><trkpt lat="43.304210556673404" lon="10.519505028142717"><ele>7.5</ele><time>2026-04-06T08:01:17Z</time></trkpt><trkpt lat="43.30409352796344" lon="10.51956033237947"><ele>8.0</ele><time>2026-04-06T08:01:19Z</time></trkpt><trkpt lat="43.303977547416494" lon="10.519617201164275"><ele>8.4</ele><time>2026-04-06T08:01:21Z</time></trkpt><trkpt lat="43.30386162178833" lon="10.519678737786919"><ele>8.8</ele><time>2026-04-06T08:01:23Z</time></trkpt><trkpt lat="43.30380179840556" lon="10.519709679856158"><ele>9.2</ele><time>2026-04-06T08:01:24Z</time></trkpt><trkpt lat="43.30368840002764" lon="10.51976980840434"><ele>9.6</ele><time>2026-04-06T08:01:26Z</time></trkpt><trkpt lat="43.30357842403021" lon="10.519828712813522"><ele>10.0</ele><time>2026-04-06T08:01:28Z</time></trkpt><trkpt lat="43.30346488711417" lon="10.519890394788213"><ele>10.0</ele><time>2026-04-06T08:01:30Z</time></trkpt><trkpt lat="43.30335088631692" lon="10.519948943959887"><ele>10.0</ele><time>2026-04-06T08:01:32Z</time></trkpt><trkpt lat="43.303236660258065" lon="10.520000606712184"><ele>10.0</ele><time>2026-04-06T08:01:34Z</time></trkpt><trkpt lat="43.30312433153979" lon="10.520060047088222"><ele>10.0</ele><time>2026-04-06T08:01:36Z</time></trkpt><trkpt lat="43.30301369548115" lon="10.520119288707564"><ele>10.0</ele><time>2026-04-06T08:01:38Z</time></trkpt><trkpt lat="43.30290393091994" lon="10.520183832986874"><ele>10.0</ele><time>2026-04-06T08:01:40Z</time></trkpt><trkpt lat="43.30284557543494" lon="10.520220526065012"><ele>10.0</ele><time>2026-04-06T08:01:41Z</time></trkpt><trkpt lat="43.302747573451185" lon="10.520318007550891"><ele>10.0</ele><time>2026-04-06T08:01:43Z</time></trkpt><trkpt lat="43.30265797421028" lon="10.520426405700997"><ele>10.0</ele><time>2026-04-06T08:01:45Z</time></trkpt><trkpt lat="43.30253930515477" lon="10.520490620439771"><ele>10.142857142857142</ele><time>2026-04-06T08:01:47Z</time></trkpt><trkpt lat="43.30247975072018" lon="10.520527757230013"><ele>10.285714285714286</ele><time>2026-04-06T08:01:48Z</time></trkpt><trkpt lat="43.302420447541515" lon="10.520562960238921"><ele>10.428571428571429</ele><time>2026-04-06T08:01:49Z</time></trkpt><trkpt lat="43.30236126766902" lon="10.520593165958319"><ele>10.571428571428571</ele><time>2026-04-06T08:01:50Z</time></trkpt><trkpt lat="43.30229873441781" lon="10.520625484894914"><ele>10.714285714285714</ele><time>2026-04-06T08:01:51Z</time></trkpt><trkpt lat="43.302237854890905" lon="10.52065376278918"><ele>10.857142857142858</ele><time>2026-04-06T08:01:52Z</time></trkpt><trkpt lat="43.30217402944571" lon="10.520683821673499"><ele>11.0</ele><time>2026-04-06T08:01:53Z</time></trkpt><trkpt lat="43.302064748535855" lon="10.520737484526329"><ele>10.666666666666666</ele><time>2026-04-06T08:01:55Z</time></trkpt><trkpt lat="43.30197137083156" lon="10.520781464018262"><ele>10.333333333333332</ele><time>2026-04-06T08:01:57Z</time></trkpt><trkpt lat="43.30188001472093" lon="10.52083288374443"><ele>10.0</ele><time>2026-04-06T08:01:59Z</time></trkpt><trkpt lat="43.30181032896294" lon="10.520878023902991"><ele>9.666666666666666</ele><time>2026-04-06T08:02:01Z</time></trkpt><trkpt lat="43.30173463979724" lon="10.520919164220546"><ele>9.333333333333334</ele><time>2026-04-06T08:02:04Z</time></trkpt><trkpt lat="43.30166807696617" lon="10.52095115025358"><ele>9.0</ele><time>2026-04-06T08:02:08Z</time></trkpt><trkpt lat="43.301603722669505" lon="10.520983423179288"><ele>9.0</ele><time>2026-04-06T08:02:10Z</time></trkpt><trkpt lat="43.30153981016034" lon="10.521048958467977"><ele>9.0</ele><time>2026-04-06T08:02:12Z</time></trkpt><trkpt lat="43.30145900246462" lon="10.52110285125216"><ele>9.0</ele><time>2026-04-06T08:02:14Z</time></trkpt><trkpt lat="43.30136161949816" lon="10.521147990112546"><ele>9.0</ele><time>2026-04-06T08:02:16Z</time></trkpt><trkpt lat="43.30126491390749" lon="10.521198266414821"><ele>9.0</ele><time>2026-04-06T08:02:18Z</time></trkpt><trkpt lat="43.30116622251644" lon="10.521252645328081"><ele>8.8</ele><time>2026-04-06T08:02:20Z</time></trkpt><trkpt lat="43.301063728368426" lon="10.521304398589"><ele>8.600000000000001</ele><time>2026-04-06T08:02:22Z</time></trkpt><trkpt lat="43.30096609568738" lon="10.52135483175899"><ele>8.4</ele><time>2026-04-06T08:02:24Z</time></trkpt><trkpt lat="43.300866340308616" lon="10.521401810323164"><ele>8.200000000000001</ele><time>2026-04-06T08:02:26Z</time></trkpt><trkpt lat="43.300777570120324" lon="10.521458526742743"><ele>8.0</ele><time>2026-04-06T08:02:28Z</time></trkpt><trkpt lat="43.30068044074251" lon="10.521504128020627"><ele>7.999999999999999</ele><time>2026-04-06T08:02:30Z</time></trkpt><trkpt lat="43.30058753742179" lon="10.521550762622734"><ele>8.0</ele><time>2026-04-06T08:02:32Z</time></trkpt><trkpt lat="43.3004903310682" lon="10.521608094276118"><ele>8.0</ele><time>2026-04-06T08:02:34Z</time></trkpt><trkpt lat="43.300416284358704" lon="10.521621970837142"><ele>8.0</ele><time>2026-04-06T08:02:36Z</time></trkpt><trkpt lat="43.30049698905938" lon="10.521610757027291"><ele>7.999999999999999</ele><time>2026-04-06T08:02:41Z</time></trkpt><trkpt lat="43.30044518161191" lon="10.521664987221206"><ele>8.0</ele><time>2026-04-06T08:02:42Z</time></trkpt><trkpt lat="43.30062645051857" lon="10.521565636401114"><ele>7.999999999999999</ele><time>2026-04-06T08:02:44Z</time></trkpt><trkpt lat="43.300701298663824" lon="10.521519506754167"><ele>8.0</ele><time>2026-04-06T08:02:46Z</time></trkpt><trkpt lat="43.30077997814094" lon="10.521479331229378"><ele>8.0</ele><time>2026-04-06T08:02:48Z</time></trkpt><trkpt lat="43.3008467194323" lon="10.52144003033163"><ele>8.0</ele><time>2026-04-06T08:02:50Z</time></trkpt><trkpt lat="43.30089779327794" lon="10.52138641167534"><ele>7.999999999999999</ele><time>2026-04-06T08:02:52Z</time></trkpt><trkpt lat="43.300974577965114" lon="10.521363126651663"><ele>8.0</ele><time>2026-04-06T08:02:54Z</time></trkpt><trkpt lat="43.301051570261635" lon="10.52133140478765"><ele>8.0</ele><time>2026-04-06T08:02:56Z</time></trkpt><trkpt lat="43.30112927622079" lon="10.521300867304902"><ele>8.0</ele><time>2026-04-06T08:02:58Z</time></trkpt><trkpt lat="43.301200375167774" lon="10.521261019958773"><ele>8.0</ele><time>2026-04-06T08:03:00Z</time></trkpt><trkpt lat="43.30128784347903" lon="10.521205751029118"><ele>8.0</ele><time>2026-04-06T08:03:02Z</time></trkpt><trkpt lat="43.30138388390048" lon="10.521153813497751"><ele>8.0</ele><time>2026-04-06T08:03:04Z</time></trkpt><trkpt lat="43.30148328727312" lon="10.521104767024568"><ele>8.200000000000001</ele><time>2026-04-06T08:03:06Z</time></trkpt><trkpt lat="43.30157549729614" lon="10.521049603126986"><ele>8.4</ele><time>2026-04-06T08:03:08Z</time></trkpt><trkpt lat="43.30166093047732" lon="10.52105789928218"><ele>8.600000000000001</ele><time>2026-04-06T08:03:10Z</time></trkpt><trkpt lat="43.30170998692606" lon="10.521171016936407"><ele>8.8</ele><time>2026-04-06T08:03:12Z</time></trkpt><trkpt lat="43.30174362354105" lon="10.521313331317062"><ele>9.0</ele><time>2026-04-06T08:03:14Z</time></trkpt><trkpt lat="43.301787699782594" lon="10.52144987228297"><ele>9.2</ele><time>2026-04-06T08:03:16Z</time></trkpt><trkpt lat="43.301829831479125" lon="10.521587852463353"><ele>9.4</ele><time>2026-04-06T08:03:18Z</time></trkpt><trkpt lat="43.30186627232154" lon="10.521730157888518"><ele>9.6</ele><time>2026-04-06T08:03:20Z</time></trkpt><trkpt lat="43.301908750235846" lon="10.521870626428655"><ele>9.8</ele><time>2026-04-06T08:03:22Z</time></trkpt><trkpt lat="43.30194661754824" lon="10.522013344508865"><ele>10.0</ele><time>2026-04-06T08:03:24Z</time></trkpt><trkpt lat="43.30198320917498" lon="10.522146157695962"><ele>10.25</ele><time>2026-04-06T08:03:26Z</time></trkpt><trkpt lat="43.30199212053614" lon="10.522240257404107"><ele>10.5</ele><time>2026-04-06T08:03:28Z</time></trkpt><trkpt lat="43.301842984459924" lon="10.522342819784795"><ele>10.75</ele><time>2026-04-06T08:03:32Z</time></trkpt><trkpt lat="43.3017365927186" lon="10.522394347246017"><ele>11.0</ele><time>2026-04-06T08:03:34Z</time></trkpt><trkpt lat="43.30162971076026" lon="10.522461238051573"><ele>11.0</ele><time>2026-04-06T08:03:36Z</time></trkpt><trkpt lat="43.30151369053829" lon="10.52251659367695"><ele>11.0</ele><time>2026-04-06T08:03:38Z</time></trkpt><trkpt lat="43.301451603548074" lon="10.522545364039873"><ele>11.0</ele><time>2026-04-06T08:03:39Z</time></trkpt><trkpt lat="43.30139148411742" lon="10.522575985851184"><ele>11.0</ele><time>2026-04-06T08:03:40Z</time></trkpt><trkpt lat="43.301329134193665" lon="10.522613583130282"><ele>11.0</ele><time>2026-04-06T08:03:41Z</time></trkpt><trkpt lat="43.301264719556706" lon="10.522645154418381"><ele>11.0</ele><time>2026-04-06T08:03:42Z</time></trkpt><trkpt lat="43.30119986845501" lon="10.52267889362745"><ele>10.571428571428571</ele><time>2026-04-06T08:03:43Z</time></trkpt><trkpt lat="43.30113595346611" lon="10.522712047465241"><ele>10.142857142857142</ele><time>2026-04-06T08:03:44Z</time></trkpt><trkpt lat="43.30107245468202" lon="10.52274446285463"><ele>9.714285714285714</ele><time>2026-04-06T08:03:45Z</time></trkpt><trkpt lat="43.30100725838067" lon="10.522776293630717"><ele>9.285714285714285</ele><time>2026-04-06T08:03:46Z</time></trkpt><trkpt lat="43.300944373854776" lon="10.522811399387486"><ele>8.857142857142856</ele><time>2026-04-06T08:03:47Z</time></trkpt><trkpt lat="43.30087758595956" lon="10.522844801123515"><ele>8.428571428571429</ele><time>2026-04-06T08:03:48Z</time></trkpt><trkpt lat="43.30081194275483" lon="10.522873524407634"><ele>8.0</ele><time>2026-04-06T08:03:49Z</time></trkpt><trkpt lat="43.30074486011243" lon="10.52289996370325"><ele>8.0</ele><time>2026-04-06T08:03:50Z</time></trkpt><trkpt lat="43.3006749638888" lon="10.522932096436783"><ele>7.999999999999999</ele><time>2026-04-06T08:03:51Z</time></trkpt><trkpt lat="43.300606780023024" lon="10.522972364569496"><ele>8.0</ele><time>2026-04-06T08:03:52Z</time></trkpt><trkpt lat="43.300538648430475" lon="10.523010653928079"><ele>8.0</ele><time>2026-04-06T08:03:53Z</time></trkpt><trkpt lat="43.3004693537474" lon="10.523044259949751"><ele>7.999999999999999</ele><time>2026-04-06T08:03:54Z</time></trkpt><trkpt lat="43.300400467707924" lon="10.523076021241929"><ele>8.0</ele><time>2026-04-06T08:03:55Z</time></trkpt><trkpt lat="43.30033232412843" lon="10.523115676614562"><ele>8.0</ele><time>2026-04-06T08:03:56Z</time></trkpt><trkpt lat="43.300264204025076" lon="10.523151540843529"><ele>7.833333333333333</ele><time>2026-04-06T08:03:57Z</time></trkpt><trkpt lat="43.300190881613105" lon="10.523188829627802"><ele>7.666666666666666</ele><time>2026-04-06T08:03:58Z</time></trkpt><trkpt lat="43.30012149637326" lon="10.523229423750875"><ele>7.5</ele><time>2026-04-06T08:03:59Z</time></trkpt><trkpt lat="43.30004944870389" lon="10.523266729609121"><ele>7.333333333333334</ele><time>2026-04-06T08:04:00Z</time></trkpt><trkpt lat="43.29997859249775" lon="10.52329881627063"><ele>7.166666666666667</ele><time>2026-04-06T08:04:01Z</time></trkpt><trkpt lat="43.29990503661951" lon="10.523335558233352"><ele>7.0</ele><time>2026-04-06T08:04:02Z</time></trkpt><trkpt lat="43.29983173873793" lon="10.523376771765763"><ele>7.000000000000001</ele><time>2026-04-06T08:04:03Z</time></trkpt><trkpt lat="43.29976093578143" lon="10.52341270805939"><ele>7.0</ele><time>2026-04-06T08:04:04Z</time></trkpt><trkpt lat="43.29968804908898" lon="10.523455328310193"><ele>7.0</ele><time>2026-04-06T08:04:05Z</time></trkpt><trkpt lat="43.29961489463103" lon="10.523494912936517"><ele>7.0</ele><time>2026-04-06T08:04:06Z</time></trkpt><trkpt lat="43.29954228182747" lon="10.523533971400434"><ele>7.000000000000001</ele><time>2026-04-06T08:04:07Z</time></trkpt><trkpt lat="43.29946975808467" lon="10.523573183308637"><ele>7.0</ele><time>2026-04-06T08:04:08Z</time></trkpt><trkpt lat="43.299398581495694" lon="10.523616100078009"><ele>7.0</ele><time>2026-04-06T08:04:09Z</time></trkpt><trkpt lat="43.29932585547414" lon="10.523656394196758"><ele>7.0</ele><time>2026-04-06T08:04:10Z</time></trkpt><trkpt lat="43.299253652925586" lon="10.523691649341128"><ele>7.0</ele><time>2026-04-06T08:04:11Z</time></trkpt><trkpt lat="43.29918170702324" lon="10.523725050164867"><ele>7.0</ele><time>2026-04-06T08:04:12Z</time></trkpt><trkpt lat="43.299116005098334" lon="10.523764021240652"><ele>7.0</ele><time>2026-04-06T08:04:13Z</time></trkpt><trkpt lat="43.299046606241184" lon="10.52380244975296"><ele>7.0</ele><time>2026-04-06T08:04:14Z</time></trkpt><trkpt lat="43.298983434621604" lon="10.52383462508347"><ele>7.0</ele><time>2026-04-06T08:04:15Z</time></trkpt><trkpt lat="43.29891749367387" lon="10.523871249302132"><ele>6.857142857142857</ele><time>2026-04-06T08:04:16Z</time></trkpt><trkpt lat="43.29885798657064" lon="10.523903979070688"><ele>6.714285714285714</ele><time>2026-04-06T08:04:17Z</time></trkpt><trkpt lat="43.29879982418568" lon="10.523938868117812"><ele>6.571428571428571</ele><time>2026-04-06T08:04:18Z</time></trkpt><trkpt lat="43.29873886952996" lon="10.523970869907048"><ele>6.428571428571429</ele><time>2026-04-06T08:04:19Z</time></trkpt><trkpt lat="43.29867759609994" lon="10.523994317993669"><ele>6.285714285714286</ele><time>2026-04-06T08:04:20Z</time></trkpt><trkpt lat="43.298614277971645" lon="10.524029125042839"><ele>6.142857142857142</ele><time>2026-04-06T08:04:21Z</time></trkpt><trkpt lat="43.29855063905716" lon="10.524062771622857"><ele>6.0</ele><time>2026-04-06T08:04:22Z</time></trkpt><trkpt lat="43.29849133979069" lon="10.524100607724632"><ele>6.0</ele><time>2026-04-06T08:04:23Z</time></trkpt><trkpt lat="43.29843136902535" lon="10.52413828251029"><ele>6.0</ele><time>2026-04-06T08:04:24Z</time></trkpt><trkpt lat="43.29831620597371" lon="10.524200427102372"><ele>6.0</ele><time>2026-04-06T08:04:26Z</time></trkpt><trkpt lat="43.29822401428451" lon="10.524241156267083"><ele>6.0</ele><time>2026-04-06T08:04:28Z</time></trkpt><trkpt lat="43.29813400402429" lon="10.52424504370859"><ele>6.0</ele><time>2026-04-06T08:04:30Z</time></trkpt><trkpt lat="43.29804638482607" lon="10.524217003952954"><ele>6.6</ele><time>2026-04-06T08:04:32Z</time></trkpt><trkpt lat="43.297955327705694" lon="10.52415844143121"><ele>7.199999999999999</ele><time>2026-04-06T08:04:34Z</time></trkpt><trkpt lat="43.29786057788393" lon="10.52411717632566"><ele>7.800000000000001</ele><time>2026-04-06T08:04:36Z</time></trkpt><trkpt lat="43.29777517112513" lon="10.524207999547162"><ele>8.4</ele><time>2026-04-06T08:04:38Z</time></trkpt><trkpt lat="43.2977412987917" lon="10.524344444357792"><ele>9.0</ele><time>2026-04-06T08:04:40Z</time></trkpt><trkpt lat="43.29764927484076" lon="10.524454560847309"><ele>9.0</ele><time>2026-04-06T08:04:42Z</time></trkpt><trkpt lat="43.29755902862124" lon="10.52455684581559"><ele>9.0</ele><time>2026-04-06T08:04:44Z</time></trkpt><trkpt lat="43.29744820714137" lon="10.524630292475868"><ele>9.0</ele><time>2026-04-06T08:04:46Z</time></trkpt><trkpt lat="43.297338325306136" lon="10.52469106519355"><ele>9.0</ele><time>2026-04-06T08:04:48Z</time></trkpt><trkpt lat="43.297228629085296" lon="10.52475311134821"><ele>9.5</ele><time>2026-04-06T08:04:50Z</time></trkpt><trkpt lat="43.297121011581694" lon="10.524809266923949"><ele>10.0</ele><time>2026-04-06T08:04:52Z</time></trkpt><trkpt lat="43.29700930340404" lon="10.524867295277668"><ele>10.5</ele><time>2026-04-06T08:04:54Z</time></trkpt><trkpt lat="43.29689701151703" lon="10.524925278660243"><ele>11.0</ele><time>2026-04-06T08:04:56Z</time></trkpt><trkpt lat="43.29678574496771" lon="10.524982100037537"><ele>11.0</ele><time>2026-04-06T08:04:58Z</time></trkpt><trkpt lat="43.29667309415548" lon="10.525041184912597"><ele>11.0</ele><time>2026-04-06T08:05:00Z</time></trkpt><trkpt lat="43.296561238669234" lon="10.525100552501478"><ele>11.0</ele><time>2026-04-06T08:05:02Z</time></trkpt><trkpt lat="43.296447869756804" lon="10.52515972481015"><ele>11.0</ele><time>2026-04-06T08:05:04Z</time></trkpt><trkpt lat="43.296338691239654" lon="10.52522218553709"><ele>11.0</ele><time>2026-04-06T08:05:06Z</time></trkpt><trkpt lat="43.29622992599378" lon="10.525277959602684"><ele>11.0</ele><time>2026-04-06T08:05:07.999Z</time></trkpt><trkpt lat="43.29611911236366" lon="10.525332357448072"><ele>11.0</ele><time>2026-04-06T08:05:09.999Z</time></trkpt><trkpt lat="43.29600520554161" lon="10.525387813229667"><ele>11.0</ele><time>2026-04-06T08:05:11.999Z</time></trkpt><trkpt lat="43.295894854488346" lon="10.525448447550511"><ele>11.0</ele><time>2026-04-06T08:05:14Z</time></trkpt><trkpt lat="43.295782107638566" lon="10.525509564107042"><ele>11.0</ele><time>2026-04-06T08:05:16Z</time></trkpt><trkpt lat="43.295670778639646" lon="10.525580888313467"><ele>11.0</ele><time>2026-04-06T08:05:18Z</time></trkpt><trkpt lat="43.295616288561604" lon="10.525625040415132"><ele>11.0</ele><time>2026-04-06T08:05:19Z</time></trkpt><trkpt lat="43.295561995872816" lon="10.525671293311424"><ele>11.0</ele><time>2026-04-06T08:05:20Z</time></trkpt><trkpt lat="43.29544053542382" lon="10.525735404883045"><ele>11.0</ele><time>2026-04-06T08:05:22Z</time></trkpt><trkpt lat="43.2953914874724" lon="10.525795316922402"><ele>11.0</ele><time>2026-04-06T08:05:23Z</time></trkpt><trkpt lat="43.29531500704658" lon="10.525795771435359"><ele>11.0</ele><time>2026-04-06T08:05:24Z</time></trkpt><trkpt lat="43.29524916985997" lon="10.525813005860286"><ele>11.0</ele><time>2026-04-06T08:05:25Z</time></trkpt><trkpt lat="43.295183945951635" lon="10.525833819478715"><ele>11.0</ele><time>2026-04-06T08:05:26Z</time></trkpt><trkpt lat="43.29511878690895" lon="10.52586119968267"><ele>11.0</ele><time>2026-04-06T08:05:27Z</time></trkpt><trkpt lat="43.295056920438654" lon="10.52589775728376"><ele>11.0</ele><time>2026-04-06T08:05:28Z</time></trkpt><trkpt lat="43.29499566887793" lon="10.525933305447984"><ele>11.0</ele><time>2026-04-06T08:05:29Z</time></trkpt><trkpt lat="43.2949315585637" lon="10.525965833197054"><ele>11.0</ele><time>2026-04-06T08:05:30Z</time></trkpt><trkpt lat="43.29487030535334" lon="10.525996138485501"><ele>11.0</ele><time>2026-04-06T08:05:31Z</time></trkpt><trkpt lat="43.294751296736884" lon="10.52605599318968"><ele>11.0</ele><time>2026-04-06T08:05:33Z</time></trkpt><trkpt lat="43.29469104258973" lon="10.5260837216846"><ele>11.0</ele><time>2026-04-06T08:05:34Z</time></trkpt><trkpt lat="43.294631681248234" lon="10.526112901853793"><ele>11.0</ele><time>2026-04-06T08:05:35Z</time></trkpt><trkpt lat="43.2945157954307" lon="10.526175634077521"><ele>10.833333333333332</ele><time>2026-04-06T08:05:37Z</time></trkpt><trkpt lat="43.294396246762595" lon="10.526235427812885"><ele>10.666666666666666</ele><time>2026-04-06T08:05:39Z</time></trkpt><trkpt lat="43.29433622244243" lon="10.526269824318481"><ele>10.5</ele><time>2026-04-06T08:05:40Z</time></trkpt><trkpt lat="43.29427587122426" lon="10.526302523713808"><ele>10.333333333333334</ele><time>2026-04-06T08:05:41Z</time></trkpt><trkpt lat="43.29421072744282" lon="10.526331094422959"><ele>10.166666666666668</ele><time>2026-04-06T08:05:42Z</time></trkpt><trkpt lat="43.294149457598515" lon="10.52636192966322"><ele>10.0</ele><time>2026-04-06T08:05:43Z</time></trkpt><trkpt lat="43.294089325851814" lon="10.526393480172787"><ele>10.0</ele><time>2026-04-06T08:05:44Z</time></trkpt><trkpt lat="43.29402945033041" lon="10.52642482251999"><ele>10.0</ele><time>2026-04-06T08:05:45Z</time></trkpt><trkpt lat="43.293967428634915" lon="10.526455282160155"><ele>10.0</ele><time>2026-04-06T08:05:46Z</time></trkpt><trkpt lat="43.29390461250702" lon="10.52648856311501"><ele>10.0</ele><time>2026-04-06T08:05:47Z</time></trkpt><trkpt lat="43.29384048647907" lon="10.526522843912762"><ele>10.0</ele><time>2026-04-06T08:05:48Z</time></trkpt><trkpt lat="43.29371996758209" lon="10.526580557325524"><ele>10.0</ele><time>2026-04-06T08:05:50Z</time></trkpt><trkpt lat="43.29365950079963" lon="10.526613683949787"><ele>9.857142857142858</ele><time>2026-04-06T08:05:51Z</time></trkpt><trkpt lat="43.2935979334552" lon="10.526651880302845"><ele>9.714285714285715</ele><time>2026-04-06T08:05:52Z</time></trkpt><trkpt lat="43.293537711595455" lon="10.526686180386598"><ele>9.571428571428573</ele><time>2026-04-06T08:05:53Z</time></trkpt><trkpt lat="43.29347405059061" lon="10.526718893875803"><ele>9.428571428571429</ele><time>2026-04-06T08:05:54Z</time></trkpt><trkpt lat="43.29341345927771" lon="10.526749732679109"><ele>9.285714285714286</ele><time>2026-04-06T08:05:55Z</time></trkpt><trkpt lat="43.293351623749416" lon="10.526782824176856"><ele>9.142857142857144</ele><time>2026-04-06T08:05:56Z</time></trkpt><trkpt lat="43.293290310823785" lon="10.526816823079423"><ele>9.0</ele><time>2026-04-06T08:05:57Z</time></trkpt><trkpt lat="43.293226809718604" lon="10.526847514465922"><ele>9.000000000000002</ele><time>2026-04-06T08:05:58Z</time></trkpt><trkpt lat="43.29316591676776" lon="10.526879945107341"><ele>9.0</ele><time>2026-04-06T08:05:59Z</time></trkpt><trkpt lat="43.293104860041886" lon="10.52691671542429"><ele>9.0</ele><time>2026-04-06T08:06:00Z</time></trkpt><trkpt lat="43.29304249412632" lon="10.526950730404534"><ele>9.0</ele><time>2026-04-06T08:06:01Z</time></trkpt><trkpt lat="43.29297946851675" lon="10.52698325820953"><ele>9.0</ele><time>2026-04-06T08:06:02Z</time></trkpt><trkpt lat="43.292916686153866" lon="10.527014450059767"><ele>9.000000000000002</ele><time>2026-04-06T08:06:03Z</time></trkpt><trkpt lat="43.292853861496596" lon="10.527049359914875"><ele>9.0</ele><time>2026-04-06T08:06:04Z</time></trkpt><trkpt lat="43.29279273832136" lon="10.527082726759462"><ele>9.142857142857144</ele><time>2026-04-06T08:06:05Z</time></trkpt><trkpt lat="43.2927296808104" lon="10.527112643030076"><ele>9.285714285714286</ele><time>2026-04-06T08:06:06Z</time></trkpt><trkpt lat="43.292667959536985" lon="10.527144802254229"><ele>9.428571428571429</ele><time>2026-04-06T08:06:07Z</time></trkpt><trkpt lat="43.29260527960237" lon="10.527179012655635"><ele>9.571428571428573</ele><time>2026-04-06T08:06:08Z</time></trkpt><trkpt lat="43.292544694523244" lon="10.527214209499098"><ele>9.714285714285715</ele><time>2026-04-06T08:06:09Z</time></trkpt><trkpt lat="43.29248205019397" lon="10.527247746106527"><ele>9.857142857142858</ele><time>2026-04-06T08:06:10Z</time></trkpt><trkpt lat="43.292418909459364" lon="10.52728070892093"><ele>10.0</ele><time>2026-04-06T08:06:11Z</time></trkpt><trkpt lat="43.29235849918463" lon="10.527316013175048"><ele>10.0</ele><time>2026-04-06T08:06:12Z</time></trkpt><trkpt lat="43.292298268349" lon="10.527348986995024"><ele>10.0</ele><time>2026-04-06T08:06:13Z</time></trkpt><trkpt lat="43.29217470350989" lon="10.527405048397119"><ele>10.0</ele><time>2026-04-06T08:06:15Z</time></trkpt><trkpt lat="43.292113518992686" lon="10.527439057268221"><ele>10.0</ele><time>2026-04-06T08:06:16Z</time></trkpt><trkpt lat="43.29205121628692" lon="10.527473270553287"><ele>10.0</ele><time>2026-04-06T08:06:17Z</time></trkpt><trkpt lat="43.29198938867298" lon="10.527505287536318"><ele>10.0</ele><time>2026-04-06T08:06:18Z</time></trkpt><trkpt lat="43.29192893777499" lon="10.527535057769354"><ele>10.0</ele><time>2026-04-06T08:06:19Z</time></trkpt><trkpt lat="43.291866288689576" lon="10.52757328580273"><ele>10.0</ele><time>2026-04-06T08:06:20Z</time></trkpt><trkpt lat="43.291804812000144" lon="10.52760665216638"><ele>10.0</ele><time>2026-04-06T08:06:21Z</time></trkpt><trkpt lat="43.29174151824214" lon="10.527643731605645"><ele>10.0</ele><time>2026-04-06T08:06:22Z</time></trkpt><trkpt lat="43.29167630233347" lon="10.527675145167722"><ele>10.0</ele><time>2026-04-06T08:06:23Z</time></trkpt><trkpt lat="43.291612345474384" lon="10.527707739381766"><ele>10.0</ele><time>2026-04-06T08:06:24Z</time></trkpt><trkpt lat="43.291547203705875" lon="10.527743471456692"><ele>10.0</ele><time>2026-04-06T08:06:25Z</time></trkpt><trkpt lat="43.29148258625261" lon="10.527781530248582"><ele>9.857142857142858</ele><time>2026-04-06T08:06:26Z</time></trkpt><trkpt lat="43.29141731282262" lon="10.527807666465062"><ele>9.714285714285715</ele><time>2026-04-06T08:06:27Z</time></trkpt><trkpt lat="43.291350459957556" lon="10.527833709210954"><ele>9.571428571428573</ele><time>2026-04-06T08:06:28Z</time></trkpt><trkpt lat="43.29129142684103" lon="10.527870236566988"><ele>9.428571428571429</ele><time>2026-04-06T08:06:29Z</time></trkpt><trkpt lat="43.291228699093104" lon="10.527904209329487"><ele>9.285714285714286</ele><time>2026-04-06T08:06:30Z</time></trkpt><trkpt lat="43.29116746414834" lon="10.527934337784698"><ele>9.142857142857144</ele><time>2026-04-06T08:06:31Z</time></trkpt><trkpt lat="43.29110365637103" lon="10.527967652286367"><ele>9.0</ele><time>2026-04-06T08:06:32Z</time></trkpt><trkpt lat="43.291041705036854" lon="10.528001820960096"><ele>9.000000000000002</ele><time>2026-04-06T08:06:33Z</time></trkpt><trkpt lat="43.29097876197722" lon="10.52803466530805"><ele>9.0</ele><time>2026-04-06T08:06:34Z</time></trkpt><trkpt lat="43.29091644732468" lon="10.52806693923475"><ele>9.0</ele><time>2026-04-06T08:06:35Z</time></trkpt><trkpt lat="43.29085292505836" lon="10.52810177518835"><ele>9.0</ele><time>2026-04-06T08:06:36Z</time></trkpt><trkpt lat="43.29079214724576" lon="10.528130769697606"><ele>9.0</ele><time>2026-04-06T08:06:37Z</time></trkpt><trkpt lat="43.290728721902994" lon="10.528161683694272"><ele>9.000000000000002</ele><time>2026-04-06T08:06:38Z</time></trkpt><trkpt lat="43.29066873575222" lon="10.528195279054398"><ele>9.0</ele><time>2026-04-06T08:06:39Z</time></trkpt><trkpt lat="43.29060669141889" lon="10.528228018533913"><ele>8.857142857142858</ele><time>2026-04-06T08:06:40Z</time></trkpt><trkpt lat="43.290545132415396" lon="10.528261732803898"><ele>8.714285714285715</ele><time>2026-04-06T08:06:41Z</time></trkpt><trkpt lat="43.29048246434651" lon="10.52828920722411"><ele>8.571428571428571</ele><time>2026-04-06T08:06:42Z</time></trkpt><trkpt lat="43.290421009511554" lon="10.528324107891688"><ele>8.428571428571429</ele><time>2026-04-06T08:06:43Z</time></trkpt><trkpt lat="43.29036135359099" lon="10.528359807692597"><ele>8.285714285714285</ele><time>2026-04-06T08:06:44Z</time></trkpt><trkpt lat="43.29029669233977" lon="10.528395190368002"><ele>8.142857142857142</ele><time>2026-04-06T08:06:45Z</time></trkpt><trkpt lat="43.29023651681043" lon="10.528431767763161"><ele>8.0</ele><time>2026-04-06T08:06:46Z</time></trkpt><trkpt lat="43.29017466001347" lon="10.528467016603143"><ele>8.0</ele><time>2026-04-06T08:06:47Z</time></trkpt><trkpt lat="43.29011175663691" lon="10.52849372548746"><ele>7.999999999999999</ele><time>2026-04-06T08:06:48Z</time></trkpt><trkpt lat="43.29005052674792" lon="10.528532670176642"><ele>8.0</ele><time>2026-04-06T08:06:49Z</time></trkpt><trkpt lat="43.28998817183282" lon="10.5285592159706"><ele>8.0</ele><time>2026-04-06T08:06:50Z</time></trkpt><trkpt lat="43.28992805255619" lon="10.528590376309914"><ele>7.999999999999999</ele><time>2026-04-06T08:06:51Z</time></trkpt><trkpt lat="43.28986489046239" lon="10.528623338661589"><ele>8.0</ele><time>2026-04-06T08:06:52Z</time></trkpt><trkpt lat="43.289801673425636" lon="10.528658511637246"><ele>8.0</ele><time>2026-04-06T08:06:53Z</time></trkpt><trkpt lat="43.28974113939344" lon="10.528689532238413"><ele>7.7142857142857135</ele><time>2026-04-06T08:06:54Z</time></trkpt><trkpt lat="43.289680984058116" lon="10.52872424203955"><ele>7.428571428571428</ele><time>2026-04-06T08:06:55Z</time></trkpt><trkpt lat="43.28962003928222" lon="10.528753200164534"><ele>7.142857142857142</ele><time>2026-04-06T08:06:56Z</time></trkpt><trkpt lat="43.289559992182205" lon="10.52878380883537"><ele>6.857142857142857</ele><time>2026-04-06T08:06:57Z</time></trkpt><trkpt lat="43.289500393388266" lon="10.528822550288751"><ele>6.571428571428571</ele><time>2026-04-06T08:06:58Z</time></trkpt><trkpt lat="43.289436046751106" lon="10.528852082104722"><ele>6.285714285714285</ele><time>2026-04-06T08:06:59Z</time></trkpt><trkpt lat="43.28937322762706" lon="10.528884666739499"><ele>6.0</ele><time>2026-04-06T08:07:00Z</time></trkpt><trkpt lat="43.289312129178356" lon="10.528918814433911"><ele>5.999999999999999</ele><time>2026-04-06T08:07:00.999Z</time></trkpt><trkpt lat="43.28925178105744" lon="10.528950549542653"><ele>6.0</ele><time>2026-04-06T08:07:01.999Z</time></trkpt><trkpt lat="43.28919082708104" lon="10.528980169857318"><ele>6.0</ele><time>2026-04-06T08:07:02.999Z</time></trkpt><trkpt lat="43.28912826384919" lon="10.52901529471742"><ele>6.0</ele><time>2026-04-06T08:07:03.999Z</time></trkpt><trkpt lat="43.28906743178675" lon="10.529045707289093"><ele>6.0</ele><time>2026-04-06T08:07:04.999Z</time></trkpt><trkpt lat="43.28900357182578" lon="10.529075723154188"><ele>5.999999999999999</ele><time>2026-04-06T08:07:05.999Z</time></trkpt><trkpt lat="43.28894346819011" lon="10.529111209190164"><ele>6.0</ele><time>2026-04-06T08:07:06.999Z</time></trkpt><trkpt lat="43.28888166481239" lon="10.529144130173426"><ele>6.0</ele><time>2026-04-06T08:07:07.999Z</time></trkpt><trkpt lat="43.28881839571707" lon="10.52917517175746"><ele>6.0</ele><time>2026-04-06T08:07:08.999Z</time></trkpt><trkpt lat="43.288698044553264" lon="10.52923821697135"><ele>6.0</ele><time>2026-04-06T08:07:10.999Z</time></trkpt><trkpt lat="43.288634340913816" lon="10.529270002095119"><ele>6.0</ele><time>2026-04-06T08:07:11.999Z</time></trkpt><trkpt lat="43.28857214608544" lon="10.52930172688849"><ele>6.0</ele><time>2026-04-06T08:07:12.999Z</time></trkpt><trkpt lat="43.288506303582686" lon="10.529334280497192"><ele>6.0</ele><time>2026-04-06T08:07:13.999Z</time></trkpt><trkpt lat="43.288443945862625" lon="10.529364402147273"><ele>5.999999999999999</ele><time>2026-04-06T08:07:14.999Z</time></trkpt><trkpt lat="43.288381763494506" lon="10.529402012844375"><ele>6.0</ele><time>2026-04-06T08:07:15.999Z</time></trkpt><trkpt lat="43.28832017428543" lon="10.529435803269159"><ele>6.0</ele><time>2026-04-06T08:07:16.999Z</time></trkpt><trkpt lat="43.288258465069696" lon="10.529469035053056"><ele>6.0</ele><time>2026-04-06T08:07:17.999Z</time></trkpt><trkpt lat="43.288198347669976" lon="10.529501133638314"><ele>6.0</ele><time>2026-04-06T08:07:18.999Z</time></trkpt><trkpt lat="43.288137303025806" lon="10.529534902947312"><ele>5.999999999999999</ele><time>2026-04-06T08:07:20Z</time></trkpt><trkpt lat="43.28807610408496" lon="10.529566465920437"><ele>6.0</ele><time>2026-04-06T08:07:21Z</time></trkpt><trkpt lat="43.288016143795275" lon="10.529594199608361"><ele>6.333333333333333</ele><time>2026-04-06T08:07:22Z</time></trkpt><trkpt lat="43.28795606297993" lon="10.529626122545157"><ele>6.666666666666666</ele><time>2026-04-06T08:07:23Z</time></trkpt><trkpt lat="43.28789565536103" lon="10.52966024660506"><ele>7.0</ele><time>2026-04-06T08:07:24Z</time></trkpt><trkpt lat="43.2877768173963" lon="10.529721965921189"><ele>7.333333333333333</ele><time>2026-04-06T08:07:26Z</time></trkpt><trkpt lat="43.287713567027716" lon="10.529753532472448"><ele>7.666666666666666</ele><time>2026-04-06T08:07:27Z</time></trkpt><trkpt lat="43.28765242480969" lon="10.529784479732324"><ele>8.0</ele><time>2026-04-06T08:07:28Z</time></trkpt><trkpt lat="43.287592338973276" lon="10.529818000503987"><ele>7.999999999999999</ele><time>2026-04-06T08:07:29Z</time></trkpt><trkpt lat="43.287530982374335" lon="10.529847659977085"><ele>8.0</ele><time>2026-04-06T08:07:30Z</time></trkpt><trkpt lat="43.28747034390766" lon="10.529878607006431"><ele>8.0</ele><time>2026-04-06T08:07:31Z</time></trkpt><trkpt lat="43.28735070046288" lon="10.529946839509135"><ele>8.0</ele><time>2026-04-06T08:07:33Z</time></trkpt><trkpt lat="43.287288437039976" lon="10.529976605844348"><ele>7.999999999999999</ele><time>2026-04-06T08:07:34Z</time></trkpt><trkpt lat="43.287224542365394" lon="10.530006834411681"><ele>8.0</ele><time>2026-04-06T08:07:35Z</time></trkpt><trkpt lat="43.28716446001128" lon="10.530034849856353"><ele>7.833333333333333</ele><time>2026-04-06T08:07:36Z</time></trkpt><trkpt lat="43.28704101632498" lon="10.530102420389426"><ele>7.666666666666666</ele><time>2026-04-06T08:07:38Z</time></trkpt><trkpt lat="43.286980273449885" lon="10.530136762621803"><ele>7.5</ele><time>2026-04-06T08:07:39Z</time></trkpt><trkpt lat="43.28691523906708" lon="10.530170493599151"><ele>7.333333333333334</ele><time>2026-04-06T08:07:40Z</time></trkpt><trkpt lat="43.28685324765532" lon="10.530203667608278"><ele>7.166666666666667</ele><time>2026-04-06T08:07:41Z</time></trkpt><trkpt lat="43.28678944391441" lon="10.5302335617397"><ele>7.0</ele><time>2026-04-06T08:07:42Z</time></trkpt><trkpt lat="43.286724933548555" lon="10.530267293752123"><ele>7.0</ele><time>2026-04-06T08:07:43Z</time></trkpt><trkpt lat="43.28666506430423" lon="10.53030352791097"><ele>7.0</ele><time>2026-04-06T08:07:44Z</time></trkpt><trkpt lat="43.28660209200744" lon="10.530340087900301"><ele>7.0</ele><time>2026-04-06T08:07:45Z</time></trkpt><trkpt lat="43.28654091859286" lon="10.530375941478423"><ele>7.0</ele><time>2026-04-06T08:07:46Z</time></trkpt><trkpt lat="43.28647385260267" lon="10.530412077218541"><ele>7.0</ele><time>2026-04-06T08:07:47Z</time></trkpt><trkpt lat="43.2864122947413" lon="10.53044691387919"><ele>7.0</ele><time>2026-04-06T08:07:48Z</time></trkpt><trkpt lat="43.28635033181225" lon="10.530474254447007"><ele>7.0</ele><time>2026-04-06T08:07:49Z</time></trkpt><trkpt lat="43.28628748409842" lon="10.530503424416363"><ele>7.142857142857142</ele><time>2026-04-06T08:07:50Z</time></trkpt><trkpt lat="43.286224036569244" lon="10.530536494293802"><ele>7.285714285714286</ele><time>2026-04-06T08:07:51Z</time></trkpt><trkpt lat="43.2861605762021" lon="10.530572798161753"><ele>7.428571428571429</ele><time>2026-04-06T08:07:52Z</time></trkpt><trkpt lat="43.286096933180715" lon="10.53060880320932"><ele>7.571428571428571</ele><time>2026-04-06T08:07:53Z</time></trkpt><trkpt lat="43.28603513084464" lon="10.530639606465224"><ele>7.7142857142857135</ele><time>2026-04-06T08:07:54Z</time></trkpt><trkpt lat="43.28597090108031" lon="10.530676469442565"><ele>7.857142857142857</ele><time>2026-04-06T08:07:55Z</time></trkpt><trkpt lat="43.285909850813326" lon="10.530716631342553"><ele>8.0</ele><time>2026-04-06T08:07:56Z</time></trkpt><trkpt lat="43.2858485219532" lon="10.530755400028728"><ele>8.0</ele><time>2026-04-06T08:07:57Z</time></trkpt><trkpt lat="43.28578702921188" lon="10.530796628175217"><ele>7.999999999999999</ele><time>2026-04-06T08:07:58Z</time></trkpt><trkpt lat="43.28573073545685" lon="10.5308460540801"><ele>8.0</ele><time>2026-04-06T08:07:59Z</time></trkpt><trkpt lat="43.28567834329933" lon="10.530900615630594"><ele>8.0</ele><time>2026-04-06T08:08:00Z</time></trkpt><trkpt lat="43.285625577644886" lon="10.530950352823375"><ele>7.999999999999999</ele><time>2026-04-06T08:08:01Z</time></trkpt><trkpt lat="43.28557241351111" lon="10.531004000243389"><ele>8.0</ele><time>2026-04-06T08:08:02Z</time></trkpt><trkpt lat="43.28552448574735" lon="10.531062736488174"><ele>8.0</ele><time>2026-04-06T08:08:03Z</time></trkpt><trkpt lat="43.28547708121044" lon="10.53112531026264"><ele>7.571428571428571</ele><time>2026-04-06T08:08:04Z</time></trkpt><trkpt lat="43.28543336982296" lon="10.531188395863516"><ele>7.142857142857142</ele><time>2026-04-06T08:08:05Z</time></trkpt><trkpt lat="43.285391091888314" lon="10.531252688080066"><ele>6.7142857142857135</ele><time>2026-04-06T08:08:06Z</time></trkpt><trkpt lat="43.28534283726691" lon="10.531317403749082"><ele>6.285714285714286</ele><time>2026-04-06T08:08:07Z</time></trkpt><trkpt lat="43.28529905412743" lon="10.531383279845599"><ele>5.857142857142858</ele><time>2026-04-06T08:08:08Z</time></trkpt><trkpt lat="43.285261045070044" lon="10.53145435747816"><ele>5.428571428571429</ele><time>2026-04-06T08:08:09Z</time></trkpt><trkpt lat="43.28522332505083" lon="10.531525377856024"><ele>5.0</ele><time>2026-04-06T08:08:10Z</time></trkpt><trkpt lat="43.2851838167401" lon="10.53160032283231"><ele>5.0</ele><time>2026-04-06T08:08:11Z</time></trkpt><trkpt lat="43.285150909177545" lon="10.531676289961279"><ele>5.0</ele><time>2026-04-06T08:08:12Z</time></trkpt><trkpt lat="43.28508557067369" lon="10.531828867779325"><ele>5.0</ele><time>2026-04-06T08:08:14Z</time></trkpt><trkpt lat="43.28505403140433" lon="10.531909318664633"><ele>5.0</ele><time>2026-04-06T08:08:15Z</time></trkpt><trkpt lat="43.285021693562875" lon="10.531987194794777"><ele>5.0</ele><time>2026-04-06T08:08:16Z</time></trkpt><trkpt lat="43.28496180906884" lon="10.532052294912486"><ele>5.0</ele><time>2026-04-06T08:08:17Z</time></trkpt><trkpt lat="43.284919631131004" lon="10.532128783887204"><ele>5.0</ele><time>2026-04-06T08:08:18Z</time></trkpt><trkpt lat="43.28483525484348" lon="10.532262073210216"><ele>5.0</ele><time>2026-04-06T08:08:20Z</time></trkpt><trkpt lat="43.28479348080552" lon="10.532333045742012"><ele>5.0</ele><time>2026-04-06T08:08:21Z</time></trkpt><trkpt lat="43.28470528564768" lon="10.53245813775324"><ele>5.0</ele><time>2026-04-06T08:08:23Z</time></trkpt><trkpt lat="43.28461416860572" lon="10.532574241427405"><ele>5.0</ele><time>2026-04-06T08:08:25Z</time></trkpt><trkpt lat="43.28456757994653" lon="10.532634428516536"><ele>5.166666666666667</ele><time>2026-04-06T08:08:26Z</time></trkpt><trkpt lat="43.284524672086214" lon="10.532699072510395"><ele>5.333333333333334</ele><time>2026-04-06T08:08:27Z</time></trkpt><trkpt lat="43.28442155206217" lon="10.532794828235913"><ele>5.5</ele><time>2026-04-06T08:08:29Z</time></trkpt><trkpt lat="43.284328276184205" lon="10.532911096647897"><ele>5.666666666666667</ele><time>2026-04-06T08:08:31Z</time></trkpt><trkpt lat="43.284279293515006" lon="10.532967060897386"><ele>5.833333333333333</ele><time>2026-04-06T08:08:32Z</time></trkpt><trkpt lat="43.28422969295874" lon="10.533027732856835"><ele>6.0</ele><time>2026-04-06T08:08:33Z</time></trkpt><trkpt lat="43.284175599038065" lon="10.533075676620891"><ele>5.999999999999999</ele><time>2026-04-06T08:08:34Z</time></trkpt><trkpt lat="43.28412658758755" lon="10.533132776273987"><ele>6.0</ele><time>2026-04-06T08:08:35Z</time></trkpt><trkpt lat="43.284072849788835" lon="10.533190190875153"><ele>6.0</ele><time>2026-04-06T08:08:36Z</time></trkpt><trkpt lat="43.28402520902505" lon="10.533247686466021"><ele>6.0</ele><time>2026-04-06T08:08:37Z</time></trkpt><trkpt lat="43.28397238086248" lon="10.533305391876736"><ele>6.0</ele><time>2026-04-06T08:08:38Z</time></trkpt><trkpt lat="43.28392301240661" lon="10.533359562294523"><ele>5.999999999999999</ele><time>2026-04-06T08:08:39Z</time></trkpt><trkpt lat="43.28386952734862" lon="10.53342092027936"><ele>6.0</ele><time>2026-04-06T08:08:40Z</time></trkpt><trkpt lat="43.28381755808475" lon="10.533478689478255"><ele>5.857142857142857</ele><time>2026-04-06T08:08:41Z</time></trkpt><trkpt lat="43.283766266533696" lon="10.533540676909558"><ele>5.714285714285714</ele><time>2026-04-06T08:08:42Z</time></trkpt><trkpt lat="43.28371505137566" lon="10.533601537492865"><ele>5.571428571428571</ele><time>2026-04-06T08:08:43Z</time></trkpt><trkpt lat="43.2836652437172" lon="10.533661513282398"><ele>5.428571428571429</ele><time>2026-04-06T08:08:44Z</time></trkpt><trkpt lat="43.283617539153326" lon="10.533730997948492"><ele>5.285714285714286</ele><time>2026-04-06T08:08:45Z</time></trkpt><trkpt lat="43.28356798667366" lon="10.533787528237195"><ele>5.142857142857142</ele><time>2026-04-06T08:08:46Z</time></trkpt><trkpt lat="43.28351671433541" lon="10.53385677918228"><ele>5.0</ele><time>2026-04-06T08:08:47Z</time></trkpt><trkpt lat="43.283460955027365" lon="10.533911990674998"><ele>5.0</ele><time>2026-04-06T08:08:48Z</time></trkpt><trkpt lat="43.28341432264772" lon="10.533980707142565"><ele>5.0</ele><time>2026-04-06T08:08:49Z</time></trkpt><trkpt lat="43.2833643072683" lon="10.534052560720067"><ele>5.0</ele><time>2026-04-06T08:08:50Z</time></trkpt><trkpt lat="43.283313558114635" lon="10.534123840875516"><ele>5.0</ele><time>2026-04-06T08:08:51Z</time></trkpt><trkpt lat="43.28326365921164" lon="10.534191420515802"><ele>5.0</ele><time>2026-04-06T08:08:52Z</time></trkpt><trkpt lat="43.28321240012318" lon="10.534263019851538"><ele>5.0</ele><time>2026-04-06T08:08:53Z</time></trkpt><trkpt lat="43.283164263679716" lon="10.534333765040174"><ele>5.0</ele><time>2026-04-06T08:08:54Z</time></trkpt><trkpt lat="43.28311588959547" lon="10.534407123003554"><ele>4.857142857142857</ele><time>2026-04-06T08:08:55Z</time></trkpt><trkpt lat="43.283065170032195" lon="10.53447467260721"><ele>4.714285714285714</ele><time>2026-04-06T08:08:56Z</time></trkpt><trkpt lat="43.2830129637795" lon="10.534545912917231"><ele>4.571428571428571</ele><time>2026-04-06T08:08:57Z</time></trkpt><trkpt lat="43.28295964620382" lon="10.534616286720665"><ele>4.428571428571429</ele><time>2026-04-06T08:08:58Z</time></trkpt><trkpt lat="43.28290819674886" lon="10.53468458128775"><ele>4.285714285714286</ele><time>2026-04-06T08:08:59Z</time></trkpt><trkpt lat="43.282858295003855" lon="10.53475982830818"><ele>4.142857142857142</ele><time>2026-04-06T08:09:00Z</time></trkpt><trkpt lat="43.282806024471" lon="10.534836097408524"><ele>4.0</ele><time>2026-04-06T08:09:01Z</time></trkpt><trkpt lat="43.282755521943905" lon="10.534900294661345"><ele>4.0</ele><time>2026-04-06T08:09:02Z</time></trkpt><trkpt lat="43.28270771982178" lon="10.534969542425333"><ele>3.9999999999999996</ele><time>2026-04-06T08:09:03Z</time></trkpt><trkpt lat="43.282661030776616" lon="10.535037621017795"><ele>4.0</ele><time>2026-04-06T08:09:04Z</time></trkpt><trkpt lat="43.28261132929037" lon="10.535104755338898"><ele>4.0</ele><time>2026-04-06T08:09:04.999Z</time></trkpt><trkpt lat="43.282562711395" lon="10.535170083422047"><ele>3.9999999999999996</ele><time>2026-04-06T08:09:05.999Z</time></trkpt><trkpt lat="43.28251368539784" lon="10.535235993532533"><ele>4.0</ele><time>2026-04-06T08:09:06.999Z</time></trkpt><trkpt lat="43.28246813187288" lon="10.535303883827739"><ele>4.0</ele><time>2026-04-06T08:09:07.999Z</time></trkpt><trkpt lat="43.28242195015302" lon="10.535364719983358"><ele>3.9999999999999996</ele><time>2026-04-06T08:09:08.999Z</time></trkpt><trkpt lat="43.282372705951644" lon="10.535436804150482"><ele>4.0</ele><time>2026-04-06T08:09:09.999Z</time></trkpt><trkpt lat="43.2822822412716" lon="10.535559872090262"><ele>4.0</ele><time>2026-04-06T08:09:11.999Z</time></trkpt><trkpt lat="43.28223577676911" lon="10.535621990969686"><ele>4.0</ele><time>2026-04-06T08:09:12.999Z</time></trkpt><trkpt lat="43.28218772625259" lon="10.53568640383535"><ele>3.9999999999999996</ele><time>2026-04-06T08:09:13.999Z</time></trkpt><trkpt lat="43.28213763123177" lon="10.535750535017355"><ele>4.0</ele><time>2026-04-06T08:09:14.999Z</time></trkpt><trkpt lat="43.28205140883154" lon="10.535881415956979"><ele>4.0</ele><time>2026-04-06T08:09:16.999Z</time></trkpt><trkpt lat="43.28200413842912" lon="10.535949077632518"><ele>3.9999999999999996</ele><time>2026-04-06T08:09:17.999Z</time></trkpt><trkpt lat="43.281957898960634" lon="10.53601148808213"><ele>4.0</ele><time>2026-04-06T08:09:18.999Z</time></trkpt><trkpt lat="43.28191118568324" lon="10.536074514757807"><ele>4.0</ele><time>2026-04-06T08:09:19.999Z</time></trkpt><trkpt lat="43.28186499441197" lon="10.536139069994737"><ele>3.9999999999999996</ele><time>2026-04-06T08:09:20.999Z</time></trkpt><trkpt lat="43.28181913425472" lon="10.536202680545273"><ele>4.0</ele><time>2026-04-06T08:09:21.999Z</time></trkpt><trkpt lat="43.281773399414334" lon="10.536267210110902"><ele>4.0</ele><time>2026-04-06T08:09:22.999Z</time></trkpt><trkpt lat="43.2816822512508" lon="10.536392070787814"><ele>4.142857142857142</ele><time>2026-04-06T08:09:24.999Z</time></trkpt><trkpt lat="43.281635929607354" lon="10.536452252802532"><ele>4.285714285714286</ele><time>2026-04-06T08:09:26Z</time></trkpt><trkpt lat="43.281588876249415" lon="10.53651818346277"><ele>4.428571428571429</ele><time>2026-04-06T08:09:27Z</time></trkpt><trkpt lat="43.281538551790426" lon="10.536582571248136"><ele>4.571428571428571</ele><time>2026-04-06T08:09:28Z</time></trkpt><trkpt lat="43.28149271946198" lon="10.536649392606975"><ele>4.714285714285714</ele><time>2026-04-06T08:09:29Z</time></trkpt><trkpt lat="43.28144746982288" lon="10.536713650997843"><ele>4.857142857142857</ele><time>2026-04-06T08:09:30Z</time></trkpt><trkpt lat="43.28140057699914" lon="10.536779223210134"><ele>5.0</ele><time>2026-04-06T08:09:31Z</time></trkpt><trkpt lat="43.2813535546202" lon="10.536842664453836"><ele>5.0</ele><time>2026-04-06T08:09:32Z</time></trkpt><trkpt lat="43.28130764190725" lon="10.536907300789666"><ele>5.0</ele><time>2026-04-06T08:09:33Z</time></trkpt><trkpt lat="43.281259932034864" lon="10.536970867022324"><ele>5.0</ele><time>2026-04-06T08:09:34Z</time></trkpt><trkpt lat="43.28121619951131" lon="10.537039608109291"><ele>5.0</ele><time>2026-04-06T08:09:35Z</time></trkpt><trkpt lat="43.28117069943673" lon="10.537109304968661"><ele>5.0</ele><time>2026-04-06T08:09:36Z</time></trkpt><trkpt lat="43.28112949482488" lon="10.5371798393791"><ele>5.0</ele><time>2026-04-06T08:09:37Z</time></trkpt><trkpt lat="43.281086269527115" lon="10.537250418345277"><ele>5.0</ele><time>2026-04-06T08:09:38Z</time></trkpt><trkpt lat="43.281043315824924" lon="10.537322977632808"><ele>5.0</ele><time>2026-04-06T08:09:39Z</time></trkpt><trkpt lat="43.28100615442224" lon="10.537396492888904"><ele>5.0</ele><time>2026-04-06T08:09:40Z</time></trkpt><trkpt lat="43.28096994287434" lon="10.537472428064232"><ele>5.0</ele><time>2026-04-06T08:09:41Z</time></trkpt><trkpt lat="43.28092885190461" lon="10.53754595429377"><ele>5.0</ele><time>2026-04-06T08:09:42Z</time></trkpt><trkpt lat="43.28085284135333" lon="10.537692193491766"><ele>5.0</ele><time>2026-04-06T08:09:44Z</time></trkpt><trkpt lat="43.28081523255751" lon="10.537766843503402"><ele>5.0</ele><time>2026-04-06T08:09:45Z</time></trkpt><trkpt lat="43.280778202301" lon="10.537839310534387"><ele>5.0</ele><time>2026-04-06T08:09:46Z</time></trkpt><trkpt lat="43.28074276533086" lon="10.537916473023909"><ele>5.0</ele><time>2026-04-06T08:09:47Z</time></trkpt><trkpt lat="43.280703597173584" lon="10.537987686381655"><ele>5.0</ele><time>2026-04-06T08:09:48Z</time></trkpt><trkpt lat="43.28066351795833" lon="10.538061886370487"><ele>5.0</ele><time>2026-04-06T08:09:49Z</time></trkpt><trkpt lat="43.28062331084245" lon="10.538131238395673"><ele>5.0</ele><time>2026-04-06T08:09:50Z</time></trkpt><trkpt lat="43.280583790592985" lon="10.538202402642472"><ele>5.0</ele><time>2026-04-06T08:09:51Z</time></trkpt><trkpt lat="43.28054069373178" lon="10.538272994941348"><ele>5.0</ele><time>2026-04-06T08:09:52Z</time></trkpt><trkpt lat="43.28049762874991" lon="10.538336739934305"><ele>5.0</ele><time>2026-04-06T08:09:53Z</time></trkpt><trkpt lat="43.28045291037705" lon="10.538403332665"><ele>5.0</ele><time>2026-04-06T08:09:54Z</time></trkpt><trkpt lat="43.28040732068655" lon="10.538465918121602"><ele>5.0</ele><time>2026-04-06T08:09:55Z</time></trkpt><trkpt lat="43.280346588460695" lon="10.538498743084842"><ele>5.0</ele><time>2026-04-06T08:09:56Z</time></trkpt><trkpt lat="43.28030739422812" lon="10.5385681288829"><ele>5.0</ele><time>2026-04-06T08:09:57Z</time></trkpt><trkpt lat="43.280211346141215" lon="10.538668269589934"><ele>5.0</ele><time>2026-04-06T08:09:59Z</time></trkpt><trkpt lat="43.28015893148144" lon="10.538720682281365"><ele>5.0</ele><time>2026-04-06T08:10:00Z</time></trkpt><trkpt lat="43.2800557396663" lon="10.538816875460965"><ele>5.142857142857142</ele><time>2026-04-06T08:10:02Z</time></trkpt><trkpt lat="43.279998976728045" lon="10.538866954160694"><ele>5.285714285714286</ele><time>2026-04-06T08:10:03Z</time></trkpt><trkpt lat="43.2799449917381" lon="10.53891523650361"><ele>5.428571428571429</ele><time>2026-04-06T08:10:04Z</time></trkpt><trkpt lat="43.2798907609414" lon="10.538961623363695"><ele>5.571428571428571</ele><time>2026-04-06T08:10:05Z</time></trkpt><trkpt lat="43.279833972004894" lon="10.539012426146803"><ele>5.714285714285714</ele><time>2026-04-06T08:10:06Z</time></trkpt><trkpt lat="43.27978047824748" lon="10.539065303458633"><ele>5.857142857142857</ele><time>2026-04-06T08:10:07Z</time></trkpt><trkpt lat="43.27972415992569" lon="10.539114510410684"><ele>6.0</ele><time>2026-04-06T08:10:08Z</time></trkpt><trkpt lat="43.27966737140857" lon="10.539163716252176"><ele>6.142857142857142</ele><time>2026-04-06T08:10:09Z</time></trkpt><trkpt lat="43.27961197565777" lon="10.539209537834822"><ele>6.285714285714286</ele><time>2026-04-06T08:10:10Z</time></trkpt><trkpt lat="43.2795555807953" lon="10.539260373560829"><ele>6.428571428571429</ele><time>2026-04-06T08:10:11Z</time></trkpt><trkpt lat="43.27950241180857" lon="10.53930993446212"><ele>6.571428571428571</ele><time>2026-04-06T08:10:12Z</time></trkpt><trkpt lat="43.279447835418175" lon="10.539358798875638"><ele>6.714285714285714</ele><time>2026-04-06T08:10:13Z</time></trkpt><trkpt lat="43.27939226486668" lon="10.539407307411166"><ele>6.857142857142857</ele><time>2026-04-06T08:10:14Z</time></trkpt><trkpt lat="43.27933653469571" lon="10.539454699958"><ele>7.0</ele><time>2026-04-06T08:10:15Z</time></trkpt><trkpt lat="43.27927751865154" lon="10.539498875653479"><ele>7.0</ele><time>2026-04-06T08:10:16Z</time></trkpt><trkpt lat="43.27921911325912" lon="10.53954567755754"><ele>7.0</ele><time>2026-04-06T08:10:17Z</time></trkpt><trkpt lat="43.279163839044124" lon="10.539588237620027"><ele>7.0</ele><time>2026-04-06T08:10:18Z</time></trkpt><trkpt lat="43.2791062710228" lon="10.539631249133793"><ele>7.0</ele><time>2026-04-06T08:10:19Z</time></trkpt><trkpt lat="43.279046449764714" lon="10.539677605717818"><ele>7.0</ele><time>2026-04-06T08:10:20Z</time></trkpt><trkpt lat="43.27899052987784" lon="10.539723757867307"><ele>7.0</ele><time>2026-04-06T08:10:21Z</time></trkpt><trkpt lat="43.278934943337106" lon="10.53977746467054"><ele>7.0</ele><time>2026-04-06T08:10:22Z</time></trkpt><trkpt lat="43.27887650841141" lon="10.539827677729555"><ele>7.0</ele><time>2026-04-06T08:10:23Z</time></trkpt><trkpt lat="43.27882087825374" lon="10.539877345068605"><ele>7.0</ele><time>2026-04-06T08:10:24Z</time></trkpt><trkpt lat="43.278757224808786" lon="10.539922926935663"><ele>7.0</ele><time>2026-04-06T08:10:25Z</time></trkpt><trkpt lat="43.278702692258875" lon="10.539974343692952"><ele>7.0</ele><time>2026-04-06T08:10:26Z</time></trkpt><trkpt lat="43.27864025647019" lon="10.540014589648331"><ele>7.0</ele><time>2026-04-06T08:10:27Z</time></trkpt><trkpt lat="43.278572943547424" lon="10.540062162405695"><ele>7.0</ele><time>2026-04-06T08:10:28Z</time></trkpt><trkpt lat="43.27851425970444" lon="10.540108212650138"><ele>7.0</ele><time>2026-04-06T08:10:29Z</time></trkpt><trkpt lat="43.27840008006229" lon="10.540188741100055"><ele>7.000000000000001</ele><time>2026-04-06T08:10:31Z</time></trkpt><trkpt lat="43.2783396443407" lon="10.540224598991205"><ele>7.0</ele><time>2026-04-06T08:10:32Z</time></trkpt><trkpt lat="43.27827521523076" lon="10.540261763204356"><ele>7.0</ele><time>2026-04-06T08:10:33Z</time></trkpt><trkpt lat="43.278212587013414" lon="10.540282315001775"><ele>7.0</ele><time>2026-04-06T08:10:34Z</time></trkpt><trkpt lat="43.27808573540712" lon="10.540325444107449"><ele>7.000000000000001</ele><time>2026-04-06T08:10:36Z</time></trkpt><trkpt lat="43.27802029933966" lon="10.540346840016234"><ele>7.0</ele><time>2026-04-06T08:10:37Z</time></trkpt><trkpt lat="43.277956718787706" lon="10.540363863481934"><ele>6.833333333333334</ele><time>2026-04-06T08:10:38Z</time></trkpt><trkpt lat="43.277890721729236" lon="10.540383462649242"><ele>6.666666666666667</ele><time>2026-04-06T08:10:39Z</time></trkpt><trkpt lat="43.27782639629068" lon="10.540399662231614"><ele>6.5</ele><time>2026-04-06T08:10:40Z</time></trkpt><trkpt lat="43.277699500826394" lon="10.540442670679683"><ele>6.333333333333334</ele><time>2026-04-06T08:10:42Z</time></trkpt><trkpt lat="43.27763715368776" lon="10.540464416292359"><ele>6.166666666666667</ele><time>2026-04-06T08:10:43Z</time></trkpt><trkpt lat="43.27757223344937" lon="10.540482158211605"><ele>6.0</ele><time>2026-04-06T08:10:44Z</time></trkpt><trkpt lat="43.27751059521602" lon="10.540505129671219"><ele>5.999999999999999</ele><time>2026-04-06T08:10:45Z</time></trkpt><trkpt lat="43.27744740812936" lon="10.54052224064432"><ele>6.0</ele><time>2026-04-06T08:10:46Z</time></trkpt><trkpt lat="43.27738553502683" lon="10.540540618365336"><ele>6.0</ele><time>2026-04-06T08:10:47Z</time></trkpt><trkpt lat="43.27732207989615" lon="10.540558106809604"><ele>6.0</ele><time>2026-04-06T08:10:48Z</time></trkpt><trkpt lat="43.27726053292303" lon="10.540577144579617"><ele>6.0</ele><time>2026-04-06T08:10:49Z</time></trkpt><trkpt lat="43.27719747757687" lon="10.540596024048499"><ele>5.999999999999999</ele><time>2026-04-06T08:10:50Z</time></trkpt><trkpt lat="43.277075075097464" lon="10.54063636925381"><ele>6.0</ele><time>2026-04-06T08:10:52Z</time></trkpt><trkpt lat="43.27695375507596" lon="10.54067599895243"><ele>6.0</ele><time>2026-04-06T08:10:54Z</time></trkpt><trkpt lat="43.27689047047779" lon="10.540695731521973"><ele>6.0</ele><time>2026-04-06T08:10:55Z</time></trkpt><trkpt lat="43.27676947301537" lon="10.54073738849765"><ele>6.0</ele><time>2026-04-06T08:10:57Z</time></trkpt><trkpt lat="43.27665383287342" lon="10.540774106344744"><ele>6.0</ele><time>2026-04-06T08:10:59Z</time></trkpt><trkpt lat="43.27653694690042" lon="10.5408090109545"><ele>6.0</ele><time>2026-04-06T08:11:01Z</time></trkpt><trkpt lat="43.27641483647419" lon="10.540851784388703"><ele>6.0</ele><time>2026-04-06T08:11:03Z</time></trkpt><trkpt lat="43.27635249954237" lon="10.540871494198553"><ele>6.0</ele><time>2026-04-06T08:11:04Z</time></trkpt><trkpt lat="43.27628908714223" lon="10.540891284075201"><ele>6.0</ele><time>2026-04-06T08:11:05Z</time></trkpt><trkpt lat="43.27622687310257" lon="10.54091433392317"><ele>6.0</ele><time>2026-04-06T08:11:06Z</time></trkpt><trkpt lat="43.27610694148598" lon="10.540951158317228"><ele>6.0</ele><time>2026-04-06T08:11:08Z</time></trkpt><trkpt lat="43.27604494523167" lon="10.540967476051812"><ele>6.0</ele><time>2026-04-06T08:11:09Z</time></trkpt><trkpt lat="43.275921555448434" lon="10.541001079066191"><ele>6.0</ele><time>2026-04-06T08:11:11Z</time></trkpt><trkpt lat="43.27585985918229" lon="10.541019492744068"><ele>6.0</ele><time>2026-04-06T08:11:12Z</time></trkpt><trkpt lat="43.27573957264824" lon="10.541063262118541"><ele>6.0</ele><time>2026-04-06T08:11:14Z</time></trkpt><trkpt lat="43.27562137944468" lon="10.541102571994802"><ele>6.0</ele><time>2026-04-06T08:11:16Z</time></trkpt><trkpt lat="43.27550743699236" lon="10.541142520079585"><ele>6.0</ele><time>2026-04-06T08:11:18Z</time></trkpt><trkpt lat="43.275392685393186" lon="10.54117829979344"><ele>6.75</ele><time>2026-04-06T08:11:20Z</time></trkpt><trkpt lat="43.27527578304885" lon="10.541217770909974"><ele>7.5</ele><time>2026-04-06T08:11:21.999Z</time></trkpt><trkpt lat="43.275156359248285" lon="10.541253118727742"><ele>8.25</ele><time>2026-04-06T08:11:23.999Z</time></trkpt><trkpt lat="43.27503538080924" lon="10.5412890596868"><ele>9.0</ele><time>2026-04-06T08:11:25.999Z</time></trkpt><trkpt lat="43.27491622124417" lon="10.541329718189635"><ele>9.0</ele><time>2026-04-06T08:11:27.999Z</time></trkpt><trkpt lat="43.274799128868935" lon="10.541372460041888"><ele>9.0</ele><time>2026-04-06T08:11:29.999Z</time></trkpt><trkpt lat="43.27473820074508" lon="10.54139656910704"><ele>9.0</ele><time>2026-04-06T08:11:30.999Z</time></trkpt><trkpt lat="43.27467325189549" lon="10.541419182652508"><ele>9.0</ele><time>2026-04-06T08:11:32Z</time></trkpt><trkpt lat="43.27460829127823" lon="10.541435926365235"><ele>9.0</ele><time>2026-04-06T08:11:33Z</time></trkpt><trkpt lat="43.27454149986328" lon="10.541457018269046"><ele>9.0</ele><time>2026-04-06T08:11:34Z</time></trkpt><trkpt lat="43.274471650369506" lon="10.541476086880317"><ele>8.857142857142858</ele><time>2026-04-06T08:11:35Z</time></trkpt><trkpt lat="43.274399706514636" lon="10.54149625832484"><ele>8.714285714285715</ele><time>2026-04-06T08:11:36Z</time></trkpt><trkpt lat="43.274329743556024" lon="10.541517544159934"><ele>8.571428571428571</ele><time>2026-04-06T08:11:37Z</time></trkpt><trkpt lat="43.27426566845834" lon="10.541530243610827"><ele>8.428571428571429</ele><time>2026-04-06T08:11:38Z</time></trkpt><trkpt lat="43.274197139975" lon="10.541555620877983"><ele>8.285714285714285</ele><time>2026-04-06T08:11:39Z</time></trkpt><trkpt lat="43.27412650252915" lon="10.541579732706078"><ele>8.142857142857142</ele><time>2026-04-06T08:11:40Z</time></trkpt><trkpt lat="43.274058173314174" lon="10.541603420005094"><ele>8.0</ele><time>2026-04-06T08:11:41Z</time></trkpt><trkpt lat="43.27399349018583" lon="10.54161718035149"><ele>8.0</ele><time>2026-04-06T08:11:42Z</time></trkpt><trkpt lat="43.273924305697676" lon="10.541647269238016"><ele>7.999999999999999</ele><time>2026-04-06T08:11:43Z</time></trkpt><trkpt lat="43.27385543528749" lon="10.54166823466448"><ele>8.0</ele><time>2026-04-06T08:11:44Z</time></trkpt><trkpt lat="43.27379117556455" lon="10.54168617274075"><ele>8.0</ele><time>2026-04-06T08:11:45Z</time></trkpt><trkpt lat="43.273725373293615" lon="10.541711057792748"><ele>7.999999999999999</ele><time>2026-04-06T08:11:46Z</time></trkpt><trkpt lat="43.27365980912176" lon="10.541731964639151"><ele>8.0</ele><time>2026-04-06T08:11:47Z</time></trkpt><trkpt lat="43.273596140708996" lon="10.541749017858665"><ele>8.0</ele><time>2026-04-06T08:11:48Z</time></trkpt><trkpt lat="43.27353122737722" lon="10.541771423417826"><ele>7.999999999999999</ele><time>2026-04-06T08:11:49Z</time></trkpt><trkpt lat="43.27346750047823" lon="10.54178846806779"><ele>8.0</ele><time>2026-04-06T08:11:50Z</time></trkpt><trkpt lat="43.27340563869511" lon="10.541810484587167"><ele>8.0</ele><time>2026-04-06T08:11:51Z</time></trkpt><trkpt lat="43.27328468449685" lon="10.541849566442153"><ele>8.0</ele><time>2026-04-06T08:11:53Z</time></trkpt><trkpt lat="43.27316371858953" lon="10.541890058328994"><ele>7.999999999999999</ele><time>2026-04-06T08:11:55Z</time></trkpt><trkpt lat="43.27310142357578" lon="10.541910534936223"><ele>8.0</ele><time>2026-04-06T08:11:56Z</time></trkpt><trkpt lat="43.272977932480465" lon="10.541946197361169"><ele>8.0</ele><time>2026-04-06T08:11:58Z</time></trkpt><trkpt lat="43.27291534927558" lon="10.541966141750203"><ele>7.999999999999999</ele><time>2026-04-06T08:11:59Z</time></trkpt><trkpt lat="43.272851410683245" lon="10.541982718162858"><ele>8.0</ele><time>2026-04-06T08:12:00Z</time></trkpt><trkpt lat="43.27272898919714" lon="10.542027835347529"><ele>8.0</ele><time>2026-04-06T08:12:02Z</time></trkpt><trkpt lat="43.27266767260787" lon="10.542048918435707"><ele>7.999999999999999</ele><time>2026-04-06T08:12:03Z</time></trkpt><trkpt lat="43.27260494120913" lon="10.542070258176237"><ele>8.0</ele><time>2026-04-06T08:12:04Z</time></trkpt><trkpt lat="43.2725430830639" lon="10.542095108504597"><ele>8.0</ele><time>2026-04-06T08:12:05Z</time></trkpt><trkpt lat="43.272481101342564" lon="10.542116651172556"><ele>8.0</ele><time>2026-04-06T08:12:06Z</time></trkpt><trkpt lat="43.27241956016106" lon="10.542136053531518"><ele>7.999999999999999</ele><time>2026-04-06T08:12:07Z</time></trkpt><trkpt lat="43.272356760919976" lon="10.54215657218444"><ele>8.0</ele><time>2026-04-06T08:12:08Z</time></trkpt><trkpt lat="43.27229195152162" lon="10.542186166776743"><ele>8.0</ele><time>2026-04-06T08:12:09Z</time></trkpt><trkpt lat="43.27223338970395" lon="10.542232214337924"><ele>7.999999999999999</ele><time>2026-04-06T08:12:10Z</time></trkpt><trkpt lat="43.27216625419281" lon="10.542213515145527"><ele>8.0</ele><time>2026-04-06T08:12:11Z</time></trkpt><trkpt lat="43.27210005146936" lon="10.542233349070747"><ele>8.0</ele><time>2026-04-06T08:12:12Z</time></trkpt><trkpt lat="43.27197506715306" lon="10.54228291268092"><ele>8.0</ele><time>2026-04-06T08:12:14Z</time></trkpt><trkpt lat="43.271860943820066" lon="10.542310440540358"><ele>8.0</ele><time>2026-04-06T08:12:16Z</time></trkpt><trkpt lat="43.27173858060614" lon="10.542345408275201"><ele>8.0</ele><time>2026-04-06T08:12:18Z</time></trkpt><trkpt lat="43.27163029977627" lon="10.54238615545189"><ele>8.0</ele><time>2026-04-06T08:12:20Z</time></trkpt><trkpt lat="43.27151934576888" lon="10.542408502019073"><ele>7.75</ele><time>2026-04-06T08:12:22Z</time></trkpt><trkpt lat="43.27141236424648" lon="10.542465854877431"><ele>7.5</ele><time>2026-04-06T08:12:24Z</time></trkpt><trkpt lat="43.271299507164905" lon="10.54249508562455"><ele>7.25</ele><time>2026-04-06T08:12:26Z</time></trkpt><trkpt lat="43.27118845732833" lon="10.54253299362326"><ele>7.0</ele><time>2026-04-06T08:12:28Z</time></trkpt><trkpt lat="43.27107476201848" lon="10.542569476539358"><ele>7.0</ele><time>2026-04-06T08:12:30Z</time></trkpt><trkpt lat="43.27096069025439" lon="10.542602954142438"><ele>7.0</ele><time>2026-04-06T08:12:32Z</time></trkpt><trkpt lat="43.270840948295984" lon="10.542639251774743"><ele>7.0</ele><time>2026-04-06T08:12:34Z</time></trkpt><trkpt lat="43.27072404802317" lon="10.542673578401912"><ele>7.0</ele><time>2026-04-06T08:12:36Z</time></trkpt><trkpt lat="43.27061205352404" lon="10.542703303775797"><ele>7.0</ele><time>2026-04-06T08:12:38Z</time></trkpt><trkpt lat="43.27050529691016" lon="10.54273500477596"><ele>7.0</ele><time>2026-04-06T08:12:40Z</time></trkpt><trkpt lat="43.2704320755022" lon="10.54274882452631"><ele>7.0</ele><time>2026-04-06T08:12:42Z</time></trkpt><trkpt lat="43.271103522412794" lon="10.540457004283189"><ele>7.000000000000001</ele><time>2026-04-06T08:16:13Z</time></trkpt><trkpt lat="43.271136518468765" lon="10.540356940997592"><ele>7.0</ele><time>2026-04-06T08:16:15Z</time></trkpt><trkpt lat="43.271142127261086" lon="10.540252742800936"><ele>7.0</ele><time>2026-04-06T08:16:17Z</time></trkpt><trkpt lat="43.271130985547885" lon="10.540154862307084"><ele>7.0</ele><time>2026-04-06T08:16:19Z</time></trkpt><trkpt lat="43.271105007292384" lon="10.540051076722682"><ele>7.000000000000001</ele><time>2026-04-06T08:16:21Z</time></trkpt><trkpt lat="43.271089365050955" lon="10.539938902015988"><ele>7.0</ele><time>2026-04-06T08:16:23Z</time></trkpt><trkpt lat="43.271049369543796" lon="10.539819741559109"><ele>7.000000000000001</ele><time>2026-04-06T08:16:25Z</time></trkpt><trkpt lat="43.270992908337384" lon="10.539714075450176"><ele>7.0</ele><time>2026-04-06T08:16:27Z</time></trkpt><trkpt lat="43.270951080296236" lon="10.539613829700476"><ele>7.0</ele><time>2026-04-06T08:16:29Z</time></trkpt><trkpt lat="43.270911732457904" lon="10.539520461032554"><ele>7.0</ele><time>2026-04-06T08:16:31Z</time></trkpt><trkpt lat="43.27086047652639" lon="10.539433772054727"><ele>7.000000000000001</ele><time>2026-04-06T08:16:33Z</time></trkpt><trkpt lat="43.27081737952276" lon="10.539350196511583"><ele>7.0</ele><time>2026-04-06T08:16:35Z</time></trkpt><trkpt lat="43.27077327903238" lon="10.539268158788559"><ele>6.833333333333334</ele><time>2026-04-06T08:16:37Z</time></trkpt><trkpt lat="43.27072770669984" lon="10.539184241028687"><ele>6.666666666666667</ele><time>2026-04-06T08:16:39Z</time></trkpt><trkpt lat="43.27068276841176" lon="10.539100715837934"><ele>6.5</ele><time>2026-04-06T08:16:41Z</time></trkpt><trkpt lat="43.270638779275494" lon="10.539014837064409"><ele>6.333333333333334</ele><time>2026-04-06T08:16:43Z</time></trkpt><trkpt lat="43.270588405691136" lon="10.538936367792267"><ele>6.166666666666667</ele><time>2026-04-06T08:16:45Z</time></trkpt><trkpt lat="43.27054490440478" lon="10.538852353932874"><ele>6.0</ele><time>2026-04-06T08:16:47Z</time></trkpt><trkpt lat="43.270500656488046" lon="10.538774232063592"><ele>6.0</ele><time>2026-04-06T08:16:49Z</time></trkpt><trkpt lat="43.270447457840824" lon="10.538684404223929"><ele>6.0</ele><time>2026-04-06T08:16:51Z</time></trkpt><trkpt lat="43.27039434110273" lon="10.538580247991733"><ele>6.0</ele><time>2026-04-06T08:16:53Z</time></trkpt><trkpt lat="43.27032902220921" lon="10.538474449106703"><ele>6.0</ele><time>2026-04-06T08:16:55Z</time></trkpt><trkpt lat="43.27024673428868" lon="10.538360144538075"><ele>6.0</ele><time>2026-04-06T08:16:57Z</time></trkpt><trkpt lat="43.27019909010727" lon="10.53829623872091"><ele>6.0</ele><time>2026-04-06T08:16:58Z</time></trkpt><trkpt lat="43.270140827116755" lon="10.53823894223886"><ele>6.0</ele><time>2026-04-06T08:16:59Z</time></trkpt><trkpt lat="43.27007828516749" lon="10.538186782187115"><ele>6.0</ele><time>2026-04-06T08:17:00Z</time></trkpt><trkpt lat="43.27000851505488" lon="10.538142091208737"><ele>6.0</ele><time>2026-04-06T08:17:01Z</time></trkpt><trkpt lat="43.26993179032472" lon="10.538101860104923"><ele>6.0</ele><time>2026-04-06T08:17:02Z</time></trkpt><trkpt lat="43.26984883664937" lon="10.538073818685975"><ele>6.0</ele><time>2026-04-06T08:17:03Z</time></trkpt><trkpt lat="43.269759476287156" lon="10.53806829651004"><ele>6.0</ele><time>2026-04-06T08:17:04Z</time></trkpt><trkpt lat="43.26966521949614" lon="10.5380774621545"><ele>6.0</ele><time>2026-04-06T08:17:05Z</time></trkpt><trkpt lat="43.26956941006572" lon="10.538104627455782"><ele>6.0</ele><time>2026-04-06T08:17:06Z</time></trkpt><trkpt lat="43.26947859901177" lon="10.538150050644866"><ele>6.0</ele><time>2026-04-06T08:17:07Z</time></trkpt><trkpt lat="43.2694002025643" lon="10.538200123706606"><ele>6.0</ele><time>2026-04-06T08:17:08Z</time></trkpt><trkpt lat="43.26932788891587" lon="10.538253211923092"><ele>6.0</ele><time>2026-04-06T08:17:09Z</time></trkpt><trkpt lat="43.26925927708291" lon="10.53828543798034"><ele>6.0</ele><time>2026-04-06T08:17:10Z</time></trkpt><trkpt lat="43.27237185228317" lon="10.537284918644039"><ele>6.0</ele><time>2026-04-06T08:18:11Z</time></trkpt><trkpt lat="43.272482768589036" lon="10.53721487288015"><ele>6.0</ele><time>2026-04-06T08:18:13Z</time></trkpt><trkpt lat="43.27259553658649" lon="10.537155298789749"><ele>6.0</ele><time>2026-04-06T08:18:15Z</time></trkpt><trkpt lat="43.27270608824565" lon="10.537086504965895"><ele>6.0</ele><time>2026-04-06T08:18:17Z</time></trkpt><trkpt lat="43.272815650483196" lon="10.537012409005142"><ele>5.5</ele><time>2026-04-06T08:18:19Z</time></trkpt><trkpt lat="43.272928048247785" lon="10.536948444883029"><ele>5.0</ele><time>2026-04-06T08:18:21Z</time></trkpt><trkpt lat="43.273040320549015" lon="10.536881774410123"><ele>4.5</ele><time>2026-04-06T08:18:23Z</time></trkpt><trkpt lat="43.27315046721551" lon="10.536808701978527"><ele>4.0</ele><time>2026-04-06T08:18:25Z</time></trkpt><trkpt lat="43.27326252263105" lon="10.53674374405159"><ele>4.0</ele><time>2026-04-06T08:18:27Z</time></trkpt><trkpt lat="43.2733716128031" lon="10.536673484604592"><ele>4.0</ele><time>2026-04-06T08:18:29Z</time></trkpt><trkpt lat="43.27348105579742" lon="10.536603920757043"><ele>4.0</ele><time>2026-04-06T08:18:31Z</time></trkpt><trkpt lat="43.27359076918772" lon="10.536531448058296"><ele>4.0</ele><time>2026-04-06T08:18:33Z</time></trkpt><trkpt lat="43.273704945664555" lon="10.536469409610142"><ele>4.0</ele><time>2026-04-06T08:18:35Z</time></trkpt><trkpt lat="43.27381842367193" lon="10.536404162598211"><ele>4.0</ele><time>2026-04-06T08:18:37Z</time></trkpt><trkpt lat="43.273931643931746" lon="10.53633819502947"><ele>4.0</ele><time>2026-04-06T08:18:39Z</time></trkpt><trkpt lat="43.27399012032254" lon="10.53630211284921"><ele>4.0</ele><time>2026-04-06T08:18:40Z</time></trkpt><trkpt lat="43.27409880231633" lon="10.536223737271735"><ele>4.0</ele><time>2026-04-06T08:18:42Z</time></trkpt><trkpt lat="43.27421211991012" lon="10.536151786422698"><ele>3.8000000000000003</ele><time>2026-04-06T08:18:44Z</time></trkpt><trkpt lat="43.2743283238974" lon="10.536091793818898"><ele>3.6000000000000005</ele><time>2026-04-06T08:18:46Z</time></trkpt><trkpt lat="43.274386615084275" lon="10.536056329655137"><ele>3.4</ele><time>2026-04-06T08:18:47Z</time></trkpt><trkpt lat="43.27450017744899" lon="10.535983600971258"><ele>3.2</ele><time>2026-04-06T08:18:49Z</time></trkpt><trkpt lat="43.274605982604626" lon="10.535906548316083"><ele>3.0</ele><time>2026-04-06T08:18:51Z</time></trkpt><trkpt lat="43.27472321545166" lon="10.535847190589301"><ele>3.4</ele><time>2026-04-06T08:18:53Z</time></trkpt><trkpt lat="43.274782196403166" lon="10.535815966628153"><ele>3.8</ele><time>2026-04-06T08:18:54Z</time></trkpt><trkpt lat="43.27489594226938" lon="10.535751112517143"><ele>4.2</ele><time>2026-04-06T08:18:56Z</time></trkpt><trkpt lat="43.275006030435975" lon="10.5356807342621"><ele>4.6</ele><time>2026-04-06T08:18:58Z</time></trkpt><trkpt lat="43.27511022767563" lon="10.53560881921678"><ele>5.0</ele><time>2026-04-06T08:19:00Z</time></trkpt><trkpt lat="43.27521083349796" lon="10.535547635601166"><ele>5.0</ele><time>2026-04-06T08:19:02Z</time></trkpt><trkpt lat="43.275306524545925" lon="10.535488744053488"><ele>5.0</ele><time>2026-04-06T08:19:04Z</time></trkpt><trkpt lat="43.27539451260033" lon="10.535423276510903"><ele>5.0</ele><time>2026-04-06T08:19:06Z</time></trkpt><trkpt lat="43.275482625409836" lon="10.535368470613921"><ele>5.0</ele><time>2026-04-06T08:19:08Z</time></trkpt><trkpt lat="43.275557144861" lon="10.535284109173167"><ele>5.0</ele><time>2026-04-06T08:19:10Z</time></trkpt><trkpt lat="43.27570593013086" lon="10.533361015739727"><ele>4.75</ele><time>2026-04-06T08:20:11Z</time></trkpt><trkpt lat="43.27568671116302" lon="10.533607946146644"><ele>4.5</ele><time>2026-04-06T08:20:19Z</time></trkpt><trkpt lat="43.27567746009576" lon="10.533726806383545"><ele>4.25</ele><time>2026-04-06T08:20:21Z</time></trkpt><trkpt lat="43.275667865217706" lon="10.53385449789125"><ele>4.0</ele><time>2026-04-06T08:20:23Z</time></trkpt><trkpt lat="43.275658305121425" lon="10.53398413703233"><ele>4.0</ele><time>2026-04-06T08:20:25Z</time></trkpt><trkpt lat="43.27564822128813" lon="10.534120878280875"><ele>4.0</ele><time>2026-04-06T08:20:27Z</time></trkpt><trkpt lat="43.27563757055864" lon="10.534265306904539"><ele>4.0</ele><time>2026-04-06T08:20:29Z</time></trkpt><trkpt lat="43.27562660515492" lon="10.534414002566148"><ele>4.0</ele><time>2026-04-06T08:20:31Z</time></trkpt><trkpt lat="43.27561612636794" lon="10.534556099544803"><ele>4.0</ele><time>2026-04-06T08:20:33Z</time></trkpt><trkpt lat="43.27560636866089" lon="10.534708022521999"><ele>3.8000000000000003</ele><time>2026-04-06T08:20:35Z</time></trkpt><trkpt lat="43.27559549162418" lon="10.534871788482677"><ele>3.6000000000000005</ele><time>2026-04-06T08:20:37Z</time></trkpt><trkpt lat="43.27558499640144" lon="10.535029805767861"><ele>3.4</ele><time>2026-04-06T08:20:39Z</time></trkpt><trkpt lat="43.2755839671487" lon="10.535178935121149"><ele>3.2</ele><time>2026-04-06T08:20:41Z</time></trkpt><trkpt lat="43.27557650935528" lon="10.535310957587184"><ele>3.0</ele><time>2026-04-06T08:20:43Z</time></trkpt><trkpt lat="43.275466191734466" lon="10.535336256481768"><ele>3.3333333333333335</ele><time>2026-04-06T08:20:44Z</time></trkpt><trkpt lat="43.27537670294784" lon="10.535398638161684"><ele>3.666666666666667</ele><time>2026-04-06T08:20:46Z</time></trkpt><trkpt lat="43.27527302228491" lon="10.53545860779094"><ele>4.0</ele><time>2026-04-06T08:20:48Z</time></trkpt><trkpt lat="43.27521186682345" lon="10.53548889507453"><ele>4.333333333333334</ele><time>2026-04-06T08:20:49Z</time></trkpt><trkpt lat="43.275148315066176" lon="10.535533890810324"><ele>4.666666666666667</ele><time>2026-04-06T08:20:50Z</time></trkpt><trkpt lat="43.27508301508667" lon="10.535581117222861"><ele>5.0</ele><time>2026-04-06T08:20:51Z</time></trkpt><trkpt lat="43.275011949577426" lon="10.535623007114209"><ele>5.0</ele><time>2026-04-06T08:20:52Z</time></trkpt><trkpt lat="43.274938781251834" lon="10.535666783260876"><ele>5.0</ele><time>2026-04-06T08:20:53Z</time></trkpt><trkpt lat="43.27486622858002" lon="10.535712362325027"><ele>5.0</ele><time>2026-04-06T08:20:54Z</time></trkpt><trkpt lat="43.274793782968736" lon="10.535763660005676"><ele>5.0</ele><time>2026-04-06T08:20:55Z</time></trkpt><trkpt lat="43.274722697679216" lon="10.535813024927126"><ele>5.0</ele><time>2026-04-06T08:20:56Z</time></trkpt><trkpt lat="43.27464786898907" lon="10.535852313252168"><ele>5.0</ele><time>2026-04-06T08:20:57Z</time></trkpt><trkpt lat="43.274576238892536" lon="10.535891098947616"><ele>4.714285714285714</ele><time>2026-04-06T08:20:58Z</time></trkpt><trkpt lat="43.27450607088612" lon="10.535934582273397"><ele>4.428571428571429</ele><time>2026-04-06T08:20:59Z</time></trkpt><trkpt lat="43.2744382283796" lon="10.535976626594827"><ele>4.142857142857142</ele><time>2026-04-06T08:21:00Z</time></trkpt><trkpt lat="43.274369895611315" lon="10.536015678648054"><ele>3.8571428571428568</ele><time>2026-04-06T08:21:01Z</time></trkpt><trkpt lat="43.27430160808519" lon="10.536054799841976"><ele>3.571428571428571</ele><time>2026-04-06T08:21:02Z</time></trkpt><trkpt lat="43.2742348744809" lon="10.536091042556489"><ele>3.2857142857142856</ele><time>2026-04-06T08:21:03Z</time></trkpt><trkpt lat="43.27417107585127" lon="10.536128854657155"><ele>3.0</ele><time>2026-04-06T08:21:04Z</time></trkpt><trkpt lat="43.27410435894033" lon="10.536169996340636"><ele>3.0</ele><time>2026-04-06T08:21:05Z</time></trkpt><trkpt lat="43.274039703168086" lon="10.536211250296114"><ele>3.0</ele><time>2026-04-06T08:21:06Z</time></trkpt><trkpt lat="43.273974930308036" lon="10.53625048173929"><ele>3.0</ele><time>2026-04-06T08:21:07Z</time></trkpt><trkpt lat="43.273910392903005" lon="10.536290193629698"><ele>3.0</ele><time>2026-04-06T08:21:08Z</time></trkpt><trkpt lat="43.27384781224211" lon="10.536336102097465"><ele>3.0</ele><time>2026-04-06T08:21:09Z</time></trkpt><trkpt lat="43.273783426599586" lon="10.536375927641643"><ele>3.0</ele><time>2026-04-06T08:21:10Z</time></trkpt><trkpt lat="43.27011397110063" lon="10.537872065245281"><ele>3.3333333333333335</ele><time>2026-04-06T08:22:11Z</time></trkpt><trkpt lat="43.27005926650994" lon="10.537824452721779"><ele>3.666666666666667</ele><time>2026-04-06T08:22:12Z</time></trkpt><trkpt lat="43.270001244553676" lon="10.537784812005846"><ele>4.0</ele><time>2026-04-06T08:22:13Z</time></trkpt><trkpt lat="43.26993954981552" lon="10.537756451074182"><ele>4.333333333333334</ele><time>2026-04-06T08:22:14Z</time></trkpt><trkpt lat="43.26987733034339" lon="10.53772980007599"><ele>4.666666666666667</ele><time>2026-04-06T08:22:15Z</time></trkpt><trkpt lat="43.26975473402522" lon="10.537678662586933"><ele>5.0</ele><time>2026-04-06T08:22:17Z</time></trkpt><trkpt lat="43.26969333292792" lon="10.537655465880315"><ele>5.0</ele><time>2026-04-06T08:22:18Z</time></trkpt><trkpt lat="43.269627153765654" lon="10.53765481430538"><ele>5.0</ele><time>2026-04-06T08:22:19Z</time></trkpt><trkpt lat="43.26956170473625" lon="10.537662101692165"><ele>5.0</ele><time>2026-04-06T08:22:20Z</time></trkpt><trkpt lat="43.26949830133589" lon="10.537666546539551"><ele>5.0</ele><time>2026-04-06T08:22:21Z</time></trkpt><trkpt lat="43.26937526622281" lon="10.537674296548817"><ele>5.0</ele><time>2026-04-06T08:22:23Z</time></trkpt><trkpt lat="43.269255438096444" lon="10.537700345878928"><ele>5.0</ele><time>2026-04-06T08:22:25Z</time></trkpt><trkpt lat="43.26914301615391" lon="10.537738948802572"><ele>5.0</ele><time>2026-04-06T08:22:27Z</time></trkpt><trkpt lat="43.269052662038476" lon="10.537843902337421"><ele>5.0</ele><time>2026-04-06T08:22:29Z</time></trkpt><trkpt lat="43.26902555321757" lon="10.537996050320622"><ele>5.0</ele><time>2026-04-06T08:22:31Z</time></trkpt><trkpt lat="43.26905277437574" lon="10.538153861241765"><ele>5.0</ele><time>2026-04-06T08:22:33Z</time></trkpt><trkpt lat="43.26910423943834" lon="10.538291287408173"><ele>5.2</ele><time>2026-04-06T08:22:35Z</time></trkpt><trkpt lat="43.269165378351786" lon="10.538413576984235"><ele>5.4</ele><time>2026-04-06T08:22:37Z</time></trkpt><trkpt lat="43.26926419517946" lon="10.53836943833814"><ele>5.6</ele><time>2026-04-06T08:22:38Z</time></trkpt><trkpt lat="43.269320527118275" lon="10.538327110250297"><ele>5.8</ele><time>2026-04-06T08:22:39Z</time></trkpt><trkpt lat="43.26941706011513" lon="10.538238780558562"><ele>6.0</ele><time>2026-04-06T08:22:41Z</time></trkpt><trkpt lat="43.269517421226475" lon="10.53817985609226"><ele>6.0</ele><time>2026-04-06T08:22:43Z</time></trkpt><trkpt lat="43.26961879777093" lon="10.538153173613289"><ele>6.0</ele><time>2026-04-06T08:22:45Z</time></trkpt><trkpt lat="43.26971657640069" lon="10.538135466782906"><ele>6.0</ele><time>2026-04-06T08:22:47Z</time></trkpt><trkpt lat="43.26980469534698" lon="10.538125976036698"><ele>6.0</ele><time>2026-04-06T08:22:49Z</time></trkpt><trkpt lat="43.26989112135866" lon="10.5381489782027"><ele>6.0</ele><time>2026-04-06T08:22:51Z</time></trkpt><trkpt lat="43.26996938877047" lon="10.53818189533304"><ele>6.0</ele><time>2026-04-06T08:22:53Z</time></trkpt><trkpt lat="43.27004540760417" lon="10.538226952219741"><ele>6.0</ele><time>2026-04-06T08:22:55Z</time></trkpt><trkpt lat="43.270121663878385" lon="10.538282441804947"><ele>6.0</ele><time>2026-04-06T08:22:57Z</time></trkpt><trkpt lat="43.27019440374352" lon="10.538348936439114"><ele>6.0</ele><time>2026-04-06T08:22:59Z</time></trkpt><trkpt lat="43.27025825711336" lon="10.53843064219632"><ele>6.0</ele><time>2026-04-06T08:23:01Z</time></trkpt><trkpt lat="43.27030743686364" lon="10.538517237585795"><ele>6.0</ele><time>2026-04-06T08:23:03Z</time></trkpt><trkpt lat="43.27035534656566" lon="10.538599651551992"><ele>6.0</ele><time>2026-04-06T08:23:05Z</time></trkpt><trkpt lat="43.27041230578728" lon="10.538686698011771"><ele>6.0</ele><time>2026-04-06T08:23:07Z</time></trkpt><trkpt lat="43.27046599051715" lon="10.538788351408558"><ele>6.0</ele><time>2026-04-06T08:23:09Z</time></trkpt><trkpt lat="43.2703048126127" lon="10.5428050594497"><ele>6.166666666666667</ele><time>2026-04-06T08:24:11Z</time></trkpt><trkpt lat="43.270410235155886" lon="10.542844966225047"><ele>6.333333333333334</ele><time>2026-04-06T08:24:13Z</time></trkpt><trkpt lat="43.27045466861699" lon="10.542771736783854"><ele>6.5</ele><time>2026-04-06T08:24:15Z</time></trkpt><trkpt lat="43.27053896323518" lon="10.542726970250756"><ele>6.666666666666667</ele><time>2026-04-06T08:24:18Z</time></trkpt><trkpt lat="43.27062985100852" lon="10.54272330383417"><ele>6.833333333333334</ele><time>2026-04-06T08:24:21Z</time></trkpt><trkpt lat="43.27071182772543" lon="10.542729621415328"><ele>7.0</ele><time>2026-04-06T08:24:25Z</time></trkpt><trkpt lat="43.27078499443156" lon="10.542725571386788"><ele>7.0</ele><time>2026-04-06T08:24:27Z</time></trkpt><trkpt lat="43.27087505515042" lon="10.542707021876565"><ele>6.999999999999999</ele><time>2026-04-06T08:24:29Z</time></trkpt><trkpt lat="43.270972088293995" lon="10.54268671807885"><ele>6.999999999999999</ele><time>2026-04-06T08:24:31Z</time></trkpt><trkpt lat="43.27107566863768" lon="10.54265884173054"><ele>7.0</ele><time>2026-04-06T08:24:33Z</time></trkpt><trkpt lat="43.271181779143674" lon="10.54262542028947"><ele>7.0</ele><time>2026-04-06T08:24:35Z</time></trkpt><trkpt lat="43.27129302611658" lon="10.542585343884792"><ele>7.0</ele><time>2026-04-06T08:24:37Z</time></trkpt><trkpt lat="43.2714117380038" lon="10.542551103996333"><ele>7.0</ele><time>2026-04-06T08:24:39Z</time></trkpt><trkpt lat="43.271532403672914" lon="10.542517979873011"><ele>7.0</ele><time>2026-04-06T08:24:41Z</time></trkpt><trkpt lat="43.271651327186056" lon="10.542481637498177"><ele>7.0</ele><time>2026-04-06T08:24:43Z</time></trkpt><trkpt lat="43.271764004137694" lon="10.542437114859064"><ele>7.25</ele><time>2026-04-06T08:24:45Z</time></trkpt><trkpt lat="43.271885648496436" lon="10.54239154594038"><ele>7.5</ele><time>2026-04-06T08:24:47Z</time></trkpt><trkpt lat="43.272005793210425" lon="10.542356061685728"><ele>7.75</ele><time>2026-04-06T08:24:49Z</time></trkpt><trkpt lat="43.272128262443005" lon="10.542313140819376"><ele>8.0</ele><time>2026-04-06T08:24:51Z</time></trkpt><trkpt lat="43.27224756672861" lon="10.542269435719236"><ele>7.999999999999999</ele><time>2026-04-06T08:24:53Z</time></trkpt><trkpt lat="43.272312410461545" lon="10.542250066602378"><ele>8.0</ele><time>2026-04-06T08:24:54Z</time></trkpt><trkpt lat="43.27237411872596" lon="10.54222774343883"><ele>8.0</ele><time>2026-04-06T08:24:55Z</time></trkpt><trkpt lat="43.272436932461574" lon="10.542207488096613"><ele>8.0</ele><time>2026-04-06T08:24:56Z</time></trkpt><trkpt lat="43.272498778939514" lon="10.542187360501881"><ele>7.999999999999999</ele><time>2026-04-06T08:24:57Z</time></trkpt><trkpt lat="43.2726205477695" lon="10.54214770606883"><ele>8.0</ele><time>2026-04-06T08:24:59Z</time></trkpt><trkpt lat="43.27274343637605" lon="10.542110211243738"><ele>8.0</ele><time>2026-04-06T08:25:01Z</time></trkpt><trkpt lat="43.27286029350028" lon="10.54206949625967"><ele>8.0</ele><time>2026-04-06T08:25:03Z</time></trkpt><trkpt lat="43.27298015881252" lon="10.542025752133567"><ele>8.0</ele><time>2026-04-06T08:25:05Z</time></trkpt><trkpt lat="43.27310075420807" lon="10.54198733339878"><ele>8.0</ele><time>2026-04-06T08:25:07Z</time></trkpt><trkpt lat="43.27322311669512" lon="10.541949222010137"><ele>5.0</ele><time>2026-04-06T08:25:09Z</time></trkpt><trkpt lat="43.277190520547" lon="10.54068510615097"><ele>5.0</ele><time>2026-04-06T08:26:11Z</time></trkpt><trkpt lat="43.277254836271176" lon="10.540661530483133"><ele>5.0</ele><time>2026-04-06T08:26:12Z</time></trkpt><trkpt lat="43.277320655460194" lon="10.540635593965236"><ele>5.0</ele><time>2026-04-06T08:26:13Z</time></trkpt><trkpt lat="43.27738630751557" lon="10.540614606727981"><ele>5.0</ele><time>2026-04-06T08:26:14Z</time></trkpt><trkpt lat="43.27745071858944" lon="10.540592843872647"><ele>5.0</ele><time>2026-04-06T08:26:15Z</time></trkpt><trkpt lat="43.27751542697251" lon="10.540569432443608"><ele>5.0</ele><time>2026-04-06T08:26:16Z</time></trkpt><trkpt lat="43.27758152000518" lon="10.540549708793755"><ele>5.0</ele><time>2026-04-06T08:26:17Z</time></trkpt><trkpt lat="43.2776449478391" lon="10.540531856501614"><ele>5.142857142857142</ele><time>2026-04-06T08:26:18Z</time></trkpt><trkpt lat="43.277709969333124" lon="10.540516877456724"><ele>5.285714285714286</ele><time>2026-04-06T08:26:19Z</time></trkpt><trkpt lat="43.27777573755968" lon="10.540498430375877"><ele>5.428571428571429</ele><time>2026-04-06T08:26:20Z</time></trkpt><trkpt lat="43.27784147995317" lon="10.540481441290394"><ele>5.571428571428571</ele><time>2026-04-06T08:26:21Z</time></trkpt><trkpt lat="43.27790355343612" lon="10.540461000339674"><ele>5.714285714285714</ele><time>2026-04-06T08:26:22Z</time></trkpt><trkpt lat="43.277966320294674" lon="10.540442929927329"><ele>5.857142857142857</ele><time>2026-04-06T08:26:23Z</time></trkpt><trkpt lat="43.27802908559814" lon="10.540421961127466"><ele>6.0</ele><time>2026-04-06T08:26:24Z</time></trkpt><trkpt lat="43.27809100447074" lon="10.540402146177618"><ele>5.833333333333333</ele><time>2026-04-06T08:26:25Z</time></trkpt><trkpt lat="43.27815417155771" lon="10.540386066691289"><ele>5.666666666666667</ele><time>2026-04-06T08:26:26Z</time></trkpt><trkpt lat="43.27821549898102" lon="10.540365944227105"><ele>5.5</ele><time>2026-04-06T08:26:27Z</time></trkpt><trkpt lat="43.278277234059175" lon="10.540339291865159"><ele>5.333333333333334</ele><time>2026-04-06T08:26:28Z</time></trkpt><trkpt lat="43.27839097907013" lon="10.54027459597716"><ele>5.166666666666667</ele><time>2026-04-06T08:26:30Z</time></trkpt><trkpt lat="43.2785049501726" lon="10.540212327807184"><ele>5.0</ele><time>2026-04-06T08:26:32Z</time></trkpt><trkpt lat="43.27855933939528" lon="10.540167758929906"><ele>5.4</ele><time>2026-04-06T08:26:33Z</time></trkpt><trkpt lat="43.278615350048526" lon="10.540120853899996"><ele>5.8</ele><time>2026-04-06T08:26:34Z</time></trkpt><trkpt lat="43.27871806004825" lon="10.540027385783528"><ele>6.199999999999999</ele><time>2026-04-06T08:26:36Z</time></trkpt><trkpt lat="43.27877910811494" lon="10.539995000482351"><ele>6.6</ele><time>2026-04-06T08:26:37Z</time></trkpt><trkpt lat="43.27888803722954" lon="10.539912194340573"><ele>7.0</ele><time>2026-04-06T08:26:39Z</time></trkpt><trkpt lat="43.27899407770583" lon="10.53982892274572"><ele>7.000000000000001</ele><time>2026-04-06T08:26:41Z</time></trkpt><trkpt lat="43.27904696088088" lon="10.539781198497693"><ele>7.0</ele><time>2026-04-06T08:26:42Z</time></trkpt><trkpt lat="43.27915202728346" lon="10.539699207269933"><ele>7.0</ele><time>2026-04-06T08:26:44Z</time></trkpt><trkpt lat="43.279258623214176" lon="10.539610570171519"><ele>7.0</ele><time>2026-04-06T08:26:46Z</time></trkpt><trkpt lat="43.27931195702924" lon="10.539564168057188"><ele>7.000000000000001</ele><time>2026-04-06T08:26:47Z</time></trkpt><trkpt lat="43.27936759344361" lon="10.53952000752555"><ele>7.0</ele><time>2026-04-06T08:26:48Z</time></trkpt><trkpt lat="43.27942128733001" lon="10.539472056216166"><ele>7.0</ele><time>2026-04-06T08:26:49Z</time></trkpt><trkpt lat="43.27947610243374" lon="10.539423971109132"><ele>7.0</ele><time>2026-04-06T08:26:50Z</time></trkpt><trkpt lat="43.2795319542353" lon="10.539377077922099"><ele>7.0</ele><time>2026-04-06T08:26:51Z</time></trkpt><trkpt lat="43.27958743296382" lon="10.539329061577728"><ele>7.0</ele><time>2026-04-06T08:26:52Z</time></trkpt><trkpt lat="43.27964324238945" lon="10.539284735332732"><ele>7.0</ele><time>2026-04-06T08:26:53Z</time></trkpt><trkpt lat="43.279697980748644" lon="10.53923607291744"><ele>7.0</ele><time>2026-04-06T08:26:54Z</time></trkpt><trkpt lat="43.279753240623336" lon="10.53918803497345"><ele>7.0</ele><time>2026-04-06T08:26:55Z</time></trkpt><trkpt lat="43.27980763749023" lon="10.539142209649892"><ele>6.833333333333334</ele><time>2026-04-06T08:26:56Z</time></trkpt><trkpt lat="43.279860291800475" lon="10.53909159643376"><ele>6.666666666666667</ele><time>2026-04-06T08:26:57Z</time></trkpt><trkpt lat="43.27991267603665" lon="10.539042373342546"><ele>6.5</ele><time>2026-04-06T08:26:58Z</time></trkpt><trkpt lat="43.27996490487717" lon="10.538992779996123"><ele>6.333333333333334</ele><time>2026-04-06T08:26:59Z</time></trkpt><trkpt lat="43.28006771292071" lon="10.538893226656471"><ele>6.166666666666667</ele><time>2026-04-06T08:27:01Z</time></trkpt><trkpt lat="43.28011929555336" lon="10.538843505814466"><ele>6.0</ele><time>2026-04-06T08:27:02Z</time></trkpt><trkpt lat="43.28022313456328" lon="10.538750582693273"><ele>5.8</ele><time>2026-04-06T08:27:04Z</time></trkpt><trkpt lat="43.28032597882087" lon="10.538652629139069"><ele>5.6</ele><time>2026-04-06T08:27:06Z</time></trkpt><trkpt lat="43.28042456274901" lon="10.53854430176507"><ele>5.4</ele><time>2026-04-06T08:27:08Z</time></trkpt><trkpt lat="43.28047276482094" lon="10.538488074941444"><ele>5.2</ele><time>2026-04-06T08:27:09Z</time></trkpt><trkpt lat="43.28051940832802" lon="10.538426318761587"><ele>5.0</ele><time>2026-04-06T08:27:10Z</time></trkpt><trkpt lat="43.28310991402102" lon="10.534539509299345"><ele>5.0</ele><time>2026-04-06T08:28:11Z</time></trkpt><trkpt lat="43.28319320952912" lon="10.534417606219591"><ele>5.0</ele><time>2026-04-06T08:28:13Z</time></trkpt><trkpt lat="43.28327496478299" lon="10.534298813593374"><ele>5.0</ele><time>2026-04-06T08:28:15Z</time></trkpt><trkpt lat="43.28337250615194" lon="10.534178520815164"><ele>5.0</ele><time>2026-04-06T08:28:17Z</time></trkpt><trkpt lat="43.28345746652174" lon="10.534061393000126"><ele>5.0</ele><time>2026-04-06T08:28:19Z</time></trkpt><trkpt lat="43.28353784502527" lon="10.533946897690772"><ele>5.0</ele><time>2026-04-06T08:28:21Z</time></trkpt><trkpt lat="43.28362387355727" lon="10.533838056762681"><ele>5.0</ele><time>2026-04-06T08:28:23Z</time></trkpt><trkpt lat="43.28371487630944" lon="10.533729365240802"><ele>5.0</ele><time>2026-04-06T08:28:25Z</time></trkpt><trkpt lat="43.28380149892368" lon="10.533619099034299"><ele>4.75</ele><time>2026-04-06T08:28:27Z</time></trkpt><trkpt lat="43.283887644768264" lon="10.533508486455395"><ele>4.5</ele><time>2026-04-06T08:28:29Z</time></trkpt><trkpt lat="43.283979217103905" lon="10.533403343225611"><ele>4.25</ele><time>2026-04-06T08:28:31Z</time></trkpt><trkpt lat="43.28407038788012" lon="10.533294547717896"><ele>4.0</ele><time>2026-04-06T08:28:33Z</time></trkpt><trkpt lat="43.284161772351915" lon="10.533187367431541"><ele>4.4</ele><time>2026-04-06T08:28:35Z</time></trkpt><trkpt lat="43.284254369940065" lon="10.533081983651144"><ele>4.800000000000001</ele><time>2026-04-06T08:28:37Z</time></trkpt><trkpt lat="43.28434994643739" lon="10.53298057375894"><ele>5.199999999999999</ele><time>2026-04-06T08:28:39Z</time></trkpt><trkpt lat="43.28440283074903" lon="10.532927769549945"><ele>5.6</ele><time>2026-04-06T08:28:40Z</time></trkpt><trkpt lat="43.284500265064054" lon="10.532821542435606"><ele>6.0</ele><time>2026-04-06T08:28:42Z</time></trkpt><trkpt lat="43.284548276830606" lon="10.532764400608764"><ele>6.25</ele><time>2026-04-06T08:28:43Z</time></trkpt><trkpt lat="43.284643487466056" lon="10.532651479510804"><ele>6.5</ele><time>2026-04-06T08:28:45Z</time></trkpt><trkpt lat="43.28473289875359" lon="10.53253672063692"><ele>6.75</ele><time>2026-04-06T08:28:47Z</time></trkpt><trkpt lat="43.284819739638394" lon="10.53240711860071"><ele>7.0</ele><time>2026-04-06T08:28:49Z</time></trkpt><trkpt lat="43.284902461514314" lon="10.532278810809132"><ele>6.666666666666667</ele><time>2026-04-06T08:28:51Z</time></trkpt><trkpt lat="43.284944688053265" lon="10.532213893627231"><ele>6.333333333333334</ele><time>2026-04-06T08:28:52Z</time></trkpt><trkpt lat="43.285021376225586" lon="10.532077917528479"><ele>6.0</ele><time>2026-04-06T08:28:54Z</time></trkpt><trkpt lat="43.285057161536244" lon="10.532006521582403"><ele>5.666666666666667</ele><time>2026-04-06T08:28:55Z</time></trkpt><trkpt lat="43.28512653787608" lon="10.53186418931554"><ele>5.333333333333334</ele><time>2026-04-06T08:28:57Z</time></trkpt><trkpt lat="43.28516069035205" lon="10.531791395858727"><ele>5.0</ele><time>2026-04-06T08:28:58Z</time></trkpt><trkpt lat="43.28523266961874" lon="10.531650144445184"><ele>5.0</ele><time>2026-04-06T08:29:00Z</time></trkpt><trkpt lat="43.28526841194352" lon="10.531578914458311"><ele>5.0</ele><time>2026-04-06T08:29:01Z</time></trkpt><trkpt lat="43.28530572867347" lon="10.531507795917909"><ele>5.0</ele><time>2026-04-06T08:29:02Z</time></trkpt><trkpt lat="43.28534760508073" lon="10.531438727767926"><ele>5.0</ele><time>2026-04-06T08:29:03Z</time></trkpt><trkpt lat="43.285390236838005" lon="10.531374067129988"><ele>5.0</ele><time>2026-04-06T08:29:04Z</time></trkpt><trkpt lat="43.285476286498934" lon="10.531245393877061"><ele>5.0</ele><time>2026-04-06T08:29:06Z</time></trkpt><trkpt lat="43.28552219984914" lon="10.531183027036807"><ele>5.0</ele><time>2026-04-06T08:29:07Z</time></trkpt><trkpt lat="43.285569769341166" lon="10.531125750716615"><ele>5.5</ele><time>2026-04-06T08:29:08Z</time></trkpt><trkpt lat="43.28561849840428" lon="10.53106914978513"><ele>6.0</ele><time>2026-04-06T08:29:09Z</time></trkpt><trkpt lat="43.28866175243621" lon="10.529360984789754"><ele>10.0</ele><time>2026-04-06T08:30:11Z</time></trkpt><trkpt lat="43.29198098711534" lon="10.52760637723449"><ele>10.0</ele><time>2026-04-06T08:33:11Z</time></trkpt><trkpt lat="43.2920932816752" lon="10.527541809409755"><ele>10.0</ele><time>2026-04-06T08:33:13Z</time></trkpt><trkpt lat="43.29220585461278" lon="10.527478321558696"><ele>10.0</ele><time>2026-04-06T08:33:15Z</time></trkpt><trkpt lat="43.292314204804036" lon="10.527418798748254"><ele>10.0</ele><time>2026-04-06T08:33:17Z</time></trkpt><trkpt lat="43.29242318674733" lon="10.527363094456955"><ele>10.0</ele><time>2026-04-06T08:33:19Z</time></trkpt><trkpt lat="43.292531333182076" lon="10.527301548497503"><ele>10.0</ele><time>2026-04-06T08:33:21Z</time></trkpt><trkpt lat="43.29264293671209" lon="10.527246902614287"><ele>10.0</ele><time>2026-04-06T08:33:23Z</time></trkpt><trkpt lat="43.292756115776136" lon="10.527190461707905"><ele>10.0</ele><time>2026-04-06T08:33:25Z</time></trkpt><trkpt lat="43.292865942121985" lon="10.527129262671432"><ele>10.0</ele><time>2026-04-06T08:33:27Z</time></trkpt><trkpt lat="43.29297552769175" lon="10.527067327165001"><ele>10.0</ele><time>2026-04-06T08:33:29Z</time></trkpt><trkpt lat="43.293093783033484" lon="10.527009550397368"><ele>10.0</ele><time>2026-04-06T08:33:31Z</time></trkpt><trkpt lat="43.29320483407379" lon="10.526952366750491"><ele>10.0</ele><time>2026-04-06T08:33:33Z</time></trkpt><trkpt lat="43.293262959652544" lon="10.526918502478726"><ele>10.0</ele><time>2026-04-06T08:33:34Z</time></trkpt><trkpt lat="43.29337618190394" lon="10.526856653444309"><ele>9.75</ele><time>2026-04-06T08:33:36Z</time></trkpt><trkpt lat="43.29348771486461" lon="10.526795677533855"><ele>9.5</ele><time>2026-04-06T08:33:38Z</time></trkpt><trkpt lat="43.29360362574139" lon="10.526736723564012"><ele>9.25</ele><time>2026-04-06T08:33:40Z</time></trkpt><trkpt lat="43.29371716801238" lon="10.526668874020368"><ele>9.0</ele><time>2026-04-06T08:33:42Z</time></trkpt><trkpt lat="43.29383581210572" lon="10.526611873284004"><ele>9.25</ele><time>2026-04-06T08:33:44Z</time></trkpt><trkpt lat="43.29395028712191" lon="10.526550465591992"><ele>9.5</ele><time>2026-04-06T08:33:46Z</time></trkpt><trkpt lat="43.2940683125011" lon="10.526492929909317"><ele>9.75</ele><time>2026-04-06T08:33:48Z</time></trkpt><trkpt lat="43.29418685077229" lon="10.526432851796564"><ele>10.0</ele><time>2026-04-06T08:33:50Z</time></trkpt><trkpt lat="43.294306011568764" lon="10.52637130211756"><ele>10.0</ele><time>2026-04-06T08:33:52Z</time></trkpt><trkpt lat="43.29442162718351" lon="10.52631399207803"><ele>10.0</ele><time>2026-04-06T08:33:54Z</time></trkpt><trkpt lat="43.29453473582664" lon="10.5262497602031"><ele>10.0</ele><time>2026-04-06T08:33:56Z</time></trkpt><trkpt lat="43.29464909026538" lon="10.52618834852545"><ele>10.0</ele><time>2026-04-06T08:33:58Z</time></trkpt><trkpt lat="43.29476264819478" lon="10.526126082380598"><ele>10.25</ele><time>2026-04-06T08:34:00Z</time></trkpt><trkpt lat="43.294874502181635" lon="10.526065721816932"><ele>10.5</ele><time>2026-04-06T08:34:02Z</time></trkpt><trkpt lat="43.29499330941356" lon="10.526003493382655"><ele>10.75</ele><time>2026-04-06T08:34:04Z</time></trkpt><trkpt lat="43.29510858489818" lon="10.525959354659888"><ele>11.0</ele><time>2026-04-06T08:34:06Z</time></trkpt><trkpt lat="43.29522802798625" lon="10.525923618996138"><ele>11.0</ele><time>2026-04-06T08:34:08Z</time></trkpt><trkpt lat="43.29529135409398" lon="10.525900464767808"><ele>11.0</ele><time>2026-04-06T08:34:09Z</time></trkpt><trkpt lat="43.297616826397686" lon="10.523140944118914"><ele>10.200000000000001</ele><time>2026-04-06T08:35:11Z</time></trkpt><trkpt lat="43.297584653034804" lon="10.522989816668492"><ele>9.4</ele><time>2026-04-06T08:35:13Z</time></trkpt><trkpt lat="43.297540290030675" lon="10.522850763993734"><ele>8.6</ele><time>2026-04-06T08:35:15Z</time></trkpt><trkpt lat="43.297496003247474" lon="10.522736126348878"><ele>7.8</ele><time>2026-04-06T08:35:17Z</time></trkpt><trkpt lat="43.297497453501485" lon="10.522641252022186"><ele>7.0</ele><time>2026-04-06T08:35:20Z</time></trkpt><trkpt lat="43.29761574945827" lon="10.522575111237305"><ele>6.75</ele><time>2026-04-06T08:35:21Z</time></trkpt><trkpt lat="43.297716099098196" lon="10.52252297902763"><ele>6.5</ele><time>2026-04-06T08:35:23Z</time></trkpt><trkpt lat="43.29782399811994" lon="10.522469022062646"><ele>6.25</ele><time>2026-04-06T08:35:25Z</time></trkpt><trkpt lat="43.2979324939644" lon="10.522400574723548"><ele>6.0</ele><time>2026-04-06T08:35:27Z</time></trkpt><trkpt lat="43.29804361760437" lon="10.522334641024846"><ele>6.199999999999999</ele><time>2026-04-06T08:35:29Z</time></trkpt><trkpt lat="43.29815352731225" lon="10.522262094106132"><ele>6.3999999999999995</ele><time>2026-04-06T08:35:31Z</time></trkpt><trkpt lat="43.2982728798006" lon="10.522215737984572"><ele>6.6</ele><time>2026-04-06T08:35:33Z</time></trkpt><trkpt lat="43.29832850720344" lon="10.522161107968106"><ele>6.8</ele><time>2026-04-06T08:35:34Z</time></trkpt><trkpt lat="43.29838963580539" lon="10.522128570062492"><ele>7.0</ele><time>2026-04-06T08:35:35Z</time></trkpt><trkpt lat="43.298501788686345" lon="10.522065544766738"><ele>6.6</ele><time>2026-04-06T08:35:37Z</time></trkpt><trkpt lat="43.29861658915122" lon="10.521998963665853"><ele>6.199999999999999</ele><time>2026-04-06T08:35:39Z</time></trkpt><trkpt lat="43.29872763046058" lon="10.521930882325206"><ele>5.8</ele><time>2026-04-06T08:35:41Z</time></trkpt><trkpt lat="43.29878561585437" lon="10.521893360107098"><ele>5.4</ele><time>2026-04-06T08:35:42Z</time></trkpt><trkpt lat="43.298843560732635" lon="10.521858520335433"><ele>5.0</ele><time>2026-04-06T08:35:43Z</time></trkpt><trkpt lat="43.298955258505806" lon="10.52178335660709"><ele>5.0</ele><time>2026-04-06T08:35:45Z</time></trkpt><trkpt lat="43.299018924854444" lon="10.521756358132427"><ele>5.0</ele><time>2026-04-06T08:35:46Z</time></trkpt><trkpt lat="43.29913780689868" lon="10.521700192058018"><ele>5.0</ele><time>2026-04-06T08:35:48Z</time></trkpt><trkpt lat="43.299196964720686" lon="10.521663477957881"><ele>5.0</ele><time>2026-04-06T08:35:49Z</time></trkpt><trkpt lat="43.299256453513195" lon="10.521624345455278"><ele>5.0</ele><time>2026-04-06T08:35:50Z</time></trkpt><trkpt lat="43.29931789700015" lon="10.521588798199966"><ele>5.0</ele><time>2026-04-06T08:35:51Z</time></trkpt><trkpt lat="43.29937692688349" lon="10.521554034429034"><ele>5.0</ele><time>2026-04-06T08:35:52Z</time></trkpt><trkpt lat="43.299493355049954" lon="10.521486585665066"><ele>5.0</ele><time>2026-04-06T08:35:54Z</time></trkpt><trkpt lat="43.29960647217046" lon="10.521429832894878"><ele>5.0</ele><time>2026-04-06T08:35:56Z</time></trkpt><trkpt lat="43.299663742236596" lon="10.521392830566441"><ele>5.0</ele><time>2026-04-06T08:35:57Z</time></trkpt><trkpt lat="43.2997685729092" lon="10.52132557252766"><ele>5.0</ele><time>2026-04-06T08:35:59Z</time></trkpt><trkpt lat="43.299879448015915" lon="10.521287405274148"><ele>5.2</ele><time>2026-04-06T08:36:01Z</time></trkpt><trkpt lat="43.29997130119066" lon="10.521237014505969"><ele>5.4</ele><time>2026-04-06T08:36:03Z</time></trkpt><trkpt lat="43.30005500948246" lon="10.52118967324461"><ele>5.6</ele><time>2026-04-06T08:36:05Z</time></trkpt><trkpt lat="43.300139454327756" lon="10.521141442221978"><ele>5.8</ele><time>2026-04-06T08:36:07Z</time></trkpt><trkpt lat="43.30021556719" lon="10.521097970036053"><ele>6.0</ele><time>2026-04-06T08:36:09Z</time></trkpt><trkpt lat="43.30068604822761" lon="10.520809222279553"><ele>6.199999999999999</ele><time>2026-04-06T08:37:11Z</time></trkpt><trkpt lat="43.30078116442902" lon="10.520755264287747"><ele>6.3999999999999995</ele><time>2026-04-06T08:37:13Z</time></trkpt><trkpt lat="43.300874081139945" lon="10.520701832529456"><ele>6.6</ele><time>2026-04-06T08:37:15Z</time></trkpt><trkpt lat="43.30096996173151" lon="10.520653231351533"><ele>6.8</ele><time>2026-04-06T08:37:17Z</time></trkpt><trkpt lat="43.30106396350764" lon="10.520601822384574"><ele>7.0</ele><time>2026-04-06T08:37:19Z</time></trkpt><trkpt lat="43.30115968097743" lon="10.52054412749225"><ele>7.0</ele><time>2026-04-06T08:37:21Z</time></trkpt><trkpt lat="43.301260963234355" lon="10.520496461493181"><ele>7.0</ele><time>2026-04-06T08:37:23Z</time></trkpt><trkpt lat="43.30136343204392" lon="10.520453206465879"><ele>7.0</ele><time>2026-04-06T08:37:25Z</time></trkpt><trkpt lat="43.30145832895336" lon="10.520409068178049"><ele>7.0</ele><time>2026-04-06T08:37:27Z</time></trkpt><trkpt lat="43.301562418317" lon="10.520633155653249"><ele>7.3999999999999995</ele><time>2026-04-06T08:37:31Z</time></trkpt><trkpt lat="43.301594882162064" lon="10.520765538543538"><ele>7.799999999999999</ele><time>2026-04-06T08:37:33Z</time></trkpt><trkpt lat="43.30163634175397" lon="10.520890117602542"><ele>8.2</ele><time>2026-04-06T08:37:35Z</time></trkpt><trkpt lat="43.30166819302869" lon="10.520969914035591"><ele>8.6</ele><time>2026-04-06T08:37:37Z</time></trkpt><trkpt lat="43.30183827952716" lon="10.520935858906185"><ele>9.0</ele><time>2026-04-06T08:37:41Z</time></trkpt><trkpt lat="43.3019278000505" lon="10.520875838497522"><ele>9.0</ele><time>2026-04-06T08:37:43Z</time></trkpt><trkpt lat="43.30202181297321" lon="10.520823167367038"><ele>9.0</ele><time>2026-04-06T08:37:45Z</time></trkpt><trkpt lat="43.30211583982048" lon="10.520774632712744"><ele>9.0</ele><time>2026-04-06T08:37:47Z</time></trkpt><trkpt lat="43.302212696610745" lon="10.52074712579783"><ele>9.0</ele><time>2026-04-06T08:37:49Z</time></trkpt><trkpt lat="43.30230582275398" lon="10.520700968399058"><ele>9.0</ele><time>2026-04-06T08:37:51Z</time></trkpt><trkpt lat="43.30240160229441" lon="10.52065049755337"><ele>9.2</ele><time>2026-04-06T08:37:53Z</time></trkpt><trkpt lat="43.30249900352107" lon="10.520594857524268"><ele>9.4</ele><time>2026-04-06T08:37:55Z</time></trkpt><trkpt lat="43.302599623310684" lon="10.520537378921393"><ele>9.6</ele><time>2026-04-06T08:37:57Z</time></trkpt><trkpt lat="43.30269717499885" lon="10.520480824082945"><ele>9.8</ele><time>2026-04-06T08:37:59Z</time></trkpt><trkpt lat="43.30279032029442" lon="10.520391916859582"><ele>10.0</ele><time>2026-04-06T08:38:01Z</time></trkpt><trkpt lat="43.30284762962175" lon="10.520262784356085"><ele>10.0</ele><time>2026-04-06T08:38:03Z</time></trkpt><trkpt lat="43.3029469020533" lon="10.520210128192486"><ele>10.0</ele><time>2026-04-06T08:38:05Z</time></trkpt><trkpt lat="43.30305895447614" lon="10.520170847110437"><ele>10.0</ele><time>2026-04-06T08:38:07Z</time></trkpt><trkpt lat="43.30317179237276" lon="10.520111757358961"><ele>10.0</ele><time>2026-04-06T08:38:09Z</time></trkpt><trkpt lat="43.305839709553915" lon="10.518783171799862"><ele>9.6</ele><time>2026-04-06T08:39:11Z</time></trkpt><trkpt lat="43.305920387964505" lon="10.518733865300245"><ele>9.2</ele><time>2026-04-06T08:39:13Z</time></trkpt><trkpt lat="43.30600898020391" lon="10.518688752465286"><ele>8.8</ele><time>2026-04-06T08:39:15Z</time></trkpt><trkpt lat="43.306095896865585" lon="10.518638452557187"><ele>8.4</ele><time>2026-04-06T08:39:17Z</time></trkpt><trkpt lat="43.30618128717579" lon="10.518582796859777"><ele>8.0</ele><time>2026-04-06T08:39:19Z</time></trkpt><trkpt lat="43.30626457050378" lon="10.518529890219023"><ele>8.0</ele><time>2026-04-06T08:39:21Z</time></trkpt><trkpt lat="43.30634558915796" lon="10.518494032602609"><ele>8.0</ele><time>2026-04-06T08:39:23Z</time></trkpt><trkpt lat="43.30643699862869" lon="10.518463874883336"><ele>8.0</ele><time>2026-04-06T08:39:25Z</time></trkpt><trkpt lat="43.306530092681236" lon="10.518404810134122"><ele>8.0</ele><time>2026-04-06T08:39:27Z</time></trkpt><trkpt lat="43.30663319496154" lon="10.518347511012204"><ele>8.0</ele><time>2026-04-06T08:39:29Z</time></trkpt><trkpt lat="43.306734847500344" lon="10.518285641592698"><ele>8.200000000000001</ele><time>2026-04-06T08:39:31Z</time></trkpt><trkpt lat="43.30684516765998" lon="10.518231142782968"><ele>8.4</ele><time>2026-04-06T08:39:33Z</time></trkpt><trkpt lat="43.30695176826117" lon="10.518170309004473"><ele>8.600000000000001</ele><time>2026-04-06T08:39:35Z</time></trkpt><trkpt lat="43.30704945596413" lon="10.51810748949146"><ele>8.8</ele><time>2026-04-06T08:39:37Z</time></trkpt><trkpt lat="43.30714531785306" lon="10.518054023981248"><ele>9.0</ele><time>2026-04-06T08:39:39Z</time></trkpt><trkpt lat="43.307236983855205" lon="10.517985888147225"><ele>9.0</ele><time>2026-04-06T08:39:41Z</time></trkpt><trkpt lat="43.30733717469322" lon="10.517929451211991"><ele>9.0</ele><time>2026-04-06T08:39:43Z</time></trkpt><trkpt lat="43.30743481724506" lon="10.517876643671979"><ele>9.0</ele><time>2026-04-06T08:39:45Z</time></trkpt><trkpt lat="43.307533453176056" lon="10.517808838472206"><ele>9.0</ele><time>2026-04-06T08:39:47Z</time></trkpt><trkpt lat="43.30764285253342" lon="10.51774907428656"><ele>9.0</ele><time>2026-04-06T08:39:49Z</time></trkpt><trkpt lat="43.307750562170824" lon="10.517693197747539"><ele>9.0</ele><time>2026-04-06T08:39:51Z</time></trkpt><trkpt lat="43.30785484381462" lon="10.517629911882308"><ele>9.0</ele><time>2026-04-06T08:39:53Z</time></trkpt><trkpt lat="43.30795660659954" lon="10.517577990045204"><ele>9.0</ele><time>2026-04-06T08:39:55Z</time></trkpt><trkpt lat="43.30805073376804" lon="10.517535197992855"><ele>9.0</ele><time>2026-04-06T08:39:57Z</time></trkpt><trkpt lat="43.30813170047792" lon="10.517506845668558"><ele>9.0</ele><time>2026-04-06T08:39:59Z</time></trkpt><trkpt lat="43.30819886377717" lon="10.517476383627901"><ele>9.0</ele><time>2026-04-06T08:40:01Z</time></trkpt><trkpt lat="43.30827828489059" lon="10.517450937953617"><ele>9.0</ele><time>2026-04-06T08:40:03Z</time></trkpt><trkpt lat="43.3083523326609" lon="10.517426935696486"><ele>9.0</ele><time>2026-04-06T08:40:05Z</time></trkpt><trkpt lat="43.30843512167221" lon="10.517386523329018"><ele>9.0</ele><time>2026-04-06T08:40:07Z</time></trkpt><trkpt lat="43.30852740845643" lon="10.517323473936338"><ele>9.0</ele><time>2026-04-06T08:40:09Z</time></trkpt><trkpt lat="43.309543288071765" lon="10.51540556607807"><ele>9.000000000000002</ele><time>2026-04-06T08:41:11Z</time></trkpt><trkpt lat="43.30951544738309" lon="10.515322185536734"><ele>9.0</ele><time>2026-04-06T08:41:12Z</time></trkpt><trkpt lat="43.30948567454343" lon="10.515237241803316"><ele>9.0</ele><time>2026-04-06T08:41:13Z</time></trkpt><trkpt lat="43.30945720174497" lon="10.51515365575534"><ele>9.0</ele><time>2026-04-06T08:41:14Z</time></trkpt><trkpt lat="43.309426677775406" lon="10.515071430060056"><ele>9.0</ele><time>2026-04-06T08:41:15Z</time></trkpt><trkpt lat="43.30939642587654" lon="10.514983881457214"><ele>9.000000000000002</ele><time>2026-04-06T08:41:16Z</time></trkpt><trkpt lat="43.309371347307525" lon="10.514894859206276"><ele>9.0</ele><time>2026-04-06T08:41:17Z</time></trkpt><trkpt lat="43.30934870682029" lon="10.514806024808246"><ele>9.0</ele><time>2026-04-06T08:41:18Z</time></trkpt><trkpt lat="43.30932376722267" lon="10.51472171334178"><ele>9.0</ele><time>2026-04-06T08:41:19Z</time></trkpt><trkpt lat="43.30929964477188" lon="10.514632865877047"><ele>9.0</ele><time>2026-04-06T08:41:20Z</time></trkpt><trkpt lat="43.30927710002257" lon="10.514545310714652"><ele>9.0</ele><time>2026-04-06T08:41:21Z</time></trkpt><trkpt lat="43.30923622359471" lon="10.514379704241552"><ele>9.0</ele><time>2026-04-06T08:41:23Z</time></trkpt><trkpt lat="43.309206841559266" lon="10.51429377793148"><ele>9.0</ele><time>2026-04-06T08:41:24Z</time></trkpt><trkpt lat="43.30916861326877" lon="10.514205904969645"><ele>9.0</ele><time>2026-04-06T08:41:25Z</time></trkpt><trkpt lat="43.30911915741312" lon="10.514057124686913"><ele>9.0</ele><time>2026-04-06T08:41:27Z</time></trkpt><trkpt lat="43.30909068482017" lon="10.513976241042515"><ele>9.0</ele><time>2026-04-06T08:41:28Z</time></trkpt><trkpt lat="43.30904991683365" lon="10.513830071874692"><ele>9.0</ele><time>2026-04-06T08:41:30Z</time></trkpt><trkpt lat="43.309015678765135" lon="10.513674789265092"><ele>9.0</ele><time>2026-04-06T08:41:32Z</time></trkpt><trkpt lat="43.30895405610723" lon="10.513533619961903"><ele>8.8</ele><time>2026-04-06T08:41:34Z</time></trkpt><trkpt lat="43.30890525992703" lon="10.51338288805912"><ele>8.600000000000001</ele><time>2026-04-06T08:41:36Z</time></trkpt><trkpt lat="43.30885943896767" lon="10.513260438745847"><ele>8.4</ele><time>2026-04-06T08:41:38Z</time></trkpt><trkpt lat="43.308810629412505" lon="10.513203763375255"><ele>8.200000000000001</ele><time>2026-04-06T08:41:39Z</time></trkpt><trkpt lat="43.30875302799216" lon="10.51305911574326"><ele>8.0</ele><time>2026-04-06T08:41:41Z</time></trkpt><trkpt lat="43.30869123353296" lon="10.512910727771077"><ele>7.833333333333333</ele><time>2026-04-06T08:41:43Z</time></trkpt><trkpt lat="43.30865008974824" lon="10.512838633288236"><ele>7.666666666666666</ele><time>2026-04-06T08:41:44Z</time></trkpt><trkpt lat="43.30858001335182" lon="10.512687759383954"><ele>7.5</ele><time>2026-04-06T08:41:46Z</time></trkpt><trkpt lat="43.308539160783745" lon="10.51261906998368"><ele>7.333333333333334</ele><time>2026-04-06T08:41:47Z</time></trkpt><trkpt lat="43.308479213452614" lon="10.512483286279346"><ele>7.166666666666667</ele><time>2026-04-06T08:41:49Z</time></trkpt><trkpt lat="43.308445158773495" lon="10.512404417250405"><ele>7.0</ele><time>2026-04-06T08:41:50Z</time></trkpt><trkpt lat="43.30839465873466" lon="10.512322725167456"><ele>7.0</ele><time>2026-04-06T08:41:51Z</time></trkpt><trkpt lat="43.308359645130935" lon="10.512247693424431"><ele>6.999999999999999</ele><time>2026-04-06T08:41:52Z</time></trkpt><trkpt lat="43.30832446995546" lon="10.51217382906447"><ele>6.999999999999999</ele><time>2026-04-06T08:41:53Z</time></trkpt><trkpt lat="43.30826719904011" lon="10.512099029563148"><ele>7.0</ele><time>2026-04-06T08:41:54Z</time></trkpt><trkpt lat="43.30819978596674" lon="10.511948008578603"><ele>7.0</ele><time>2026-04-06T08:41:56Z</time></trkpt><trkpt lat="43.3081317448978" lon="10.511800807528088"><ele>7.0</ele><time>2026-04-06T08:41:58Z</time></trkpt><trkpt lat="43.308086264278934" lon="10.51171856687913"><ele>6.999999999999999</ele><time>2026-04-06T08:41:59Z</time></trkpt><trkpt lat="43.30805277608879" lon="10.511630792190905"><ele>6.999999999999999</ele><time>2026-04-06T08:42:00Z</time></trkpt><trkpt lat="43.30799236457871" lon="10.511481189587617"><ele>7.0</ele><time>2026-04-06T08:42:02Z</time></trkpt><trkpt lat="43.30794242410848" lon="10.51139881980425"><ele>7.0</ele><time>2026-04-06T08:42:03Z</time></trkpt><trkpt lat="43.307877594621765" lon="10.511247950994548"><ele>7.199999999999999</ele><time>2026-04-06T08:42:05Z</time></trkpt><trkpt lat="43.30783846795354" lon="10.511168368265977"><ele>7.3999999999999995</ele><time>2026-04-06T08:42:06Z</time></trkpt><trkpt lat="43.30779869299008" lon="10.511086830727807"><ele>7.6000000000000005</ele><time>2026-04-06T08:42:07Z</time></trkpt><trkpt lat="43.30773816513281" lon="10.510936599756874"><ele>7.800000000000001</ele><time>2026-04-06T08:42:09Z</time></trkpt><trkpt lat="43.307695598061734" lon="10.510859508744874"><ele>8.0</ele><time>2026-04-06T08:42:10Z</time></trkpt><trkpt lat="43.30550687465192" lon="10.506286270155087"><ele>7.2</ele><time>2026-04-06T08:43:11Z</time></trkpt><trkpt lat="43.30544661677709" lon="10.506146644530727"><ele>6.4</ele><time>2026-04-06T08:43:13Z</time></trkpt><trkpt lat="43.30538984844241" lon="10.50601456816075"><ele>5.6000000000000005</ele><time>2026-04-06T08:43:15Z</time></trkpt><trkpt lat="43.305349734606054" lon="10.505899511488739"><ele>4.800000000000001</ele><time>2026-04-06T08:43:17Z</time></trkpt><trkpt lat="43.305296940442155" lon="10.50581179337585"><ele>4.0</ele><time>2026-04-06T08:43:18Z</time></trkpt><trkpt lat="43.30522444831731" lon="10.505677426633598"><ele>3.9999999999999996</ele><time>2026-04-06T08:43:20Z</time></trkpt><trkpt lat="43.30519198468533" lon="10.505598002504705"><ele>4.0</ele><time>2026-04-06T08:43:21Z</time></trkpt><trkpt lat="43.3051226031505" lon="10.505451380441292"><ele>4.0</ele><time>2026-04-06T08:43:23Z</time></trkpt><trkpt lat="43.305085132251335" lon="10.505378865939521"><ele>4.0</ele><time>2026-04-06T08:43:24Z</time></trkpt><trkpt lat="43.30500674770371" lon="10.505248686703366"><ele>3.9999999999999996</ele><time>2026-04-06T08:43:26Z</time></trkpt><trkpt lat="43.304969574256816" lon="10.505176288067892"><ele>4.0</ele><time>2026-04-06T08:43:27Z</time></trkpt><trkpt lat="43.304938263951776" lon="10.50509540324432"><ele>3.9999999999999996</ele><time>2026-04-06T08:43:28Z</time></trkpt><trkpt lat="43.30490294602625" lon="10.50502079764491"><ele>4.0</ele><time>2026-04-06T08:43:29Z</time></trkpt><trkpt lat="43.30486488565195" lon="10.50494126412154"><ele>4.0</ele><time>2026-04-06T08:43:30Z</time></trkpt><trkpt lat="43.30480198308995" lon="10.504803395039517"><ele>4.0</ele><time>2026-04-06T08:43:32Z</time></trkpt><trkpt lat="43.30476437493172" lon="10.50472553337208"><ele>3.9999999999999996</ele><time>2026-04-06T08:43:33Z</time></trkpt><trkpt lat="43.304718069797666" lon="10.504654216336325"><ele>4.0</ele><time>2026-04-06T08:43:34Z</time></trkpt><trkpt lat="43.30466751126832" lon="10.504573303995612"><ele>4.0</ele><time>2026-04-06T08:43:35Z</time></trkpt><trkpt lat="43.30460634337833" lon="10.504424346023091"><ele>4.0</ele><time>2026-04-06T08:43:37Z</time></trkpt><trkpt lat="43.30453586357092" lon="10.504279238467758"><ele>4.0</ele><time>2026-04-06T08:43:39Z</time></trkpt><trkpt lat="43.30450161238945" lon="10.50420612131352"><ele>4.0</ele><time>2026-04-06T08:43:40Z</time></trkpt><trkpt lat="43.304440058361685" lon="10.504071395895808"><ele>4.0</ele><time>2026-04-06T08:43:42Z</time></trkpt><trkpt lat="43.30438267265783" lon="10.503922420272177"><ele>3.9999999999999996</ele><time>2026-04-06T08:43:44Z</time></trkpt><trkpt lat="43.3043423020641" lon="10.503840338711575"><ele>4.0</ele><time>2026-04-06T08:43:45Z</time></trkpt><trkpt lat="43.304301430883754" lon="10.503760992328608"><ele>4.0</ele><time>2026-04-06T08:43:46Z</time></trkpt><trkpt lat="43.30426201184146" lon="10.503685098701276"><ele>4.0</ele><time>2026-04-06T08:43:47Z</time></trkpt><trkpt lat="43.30418952223041" lon="10.503540077855485"><ele>3.9999999999999996</ele><time>2026-04-06T08:43:49Z</time></trkpt><trkpt lat="43.304151987559806" lon="10.503468410504055"><ele>4.0</ele><time>2026-04-06T08:43:50Z</time></trkpt><trkpt lat="43.304119203304985" lon="10.503389544338699"><ele>3.9999999999999996</ele><time>2026-04-06T08:43:51Z</time></trkpt><trkpt lat="43.304076910794095" lon="10.503310707774233"><ele>4.0</ele><time>2026-04-06T08:43:52Z</time></trkpt><trkpt lat="43.304039840890034" lon="10.503237861941347"><ele>4.0</ele><time>2026-04-06T08:43:53Z</time></trkpt><trkpt lat="43.303972907234" lon="10.503099310655315"><ele>4.0</ele><time>2026-04-06T08:43:55Z</time></trkpt><trkpt lat="43.30393584622423" lon="10.50302287592577"><ele>3.9999999999999996</ele><time>2026-04-06T08:43:56Z</time></trkpt><trkpt lat="43.30389678237003" lon="10.502942389821614"><ele>4.0</ele><time>2026-04-06T08:43:57Z</time></trkpt><trkpt lat="43.30382072987141" lon="10.502803640089667"><ele>3.8000000000000003</ele><time>2026-04-06T08:43:59Z</time></trkpt><trkpt lat="43.303750529835824" lon="10.502660265267773"><ele>3.6000000000000005</ele><time>2026-04-06T08:44:01Z</time></trkpt><trkpt lat="43.30368275420169" lon="10.50251814649767"><ele>3.4</ele><time>2026-04-06T08:44:03Z</time></trkpt><trkpt lat="43.30362405327026" lon="10.502379890203462"><ele>3.2</ele><time>2026-04-06T08:44:05Z</time></trkpt><trkpt lat="43.30358692398306" lon="10.502305561989266"><ele>3.0</ele><time>2026-04-06T08:44:06Z</time></trkpt><trkpt lat="43.303526255131395" lon="10.502167967264114"><ele>3.0</ele><time>2026-04-06T08:44:08Z</time></trkpt><trkpt lat="43.303488456497085" lon="10.502088329659959"><ele>3.0</ele><time>2026-04-06T08:44:09Z</time></trkpt><trkpt lat="43.30344955200853" lon="10.502010196337704"><ele>3.0</ele><time>2026-04-06T08:44:10Z</time></trkpt><trkpt lat="43.30138773284799" lon="10.497686580102222"><ele>3.0</ele><time>2026-04-06T08:45:11Z</time></trkpt><trkpt lat="43.301312284259616" lon="10.497544726895153"><ele>3.0</ele><time>2026-04-06T08:45:13Z</time></trkpt><trkpt lat="43.30127788406634" lon="10.497467743038065"><ele>3.0</ele><time>2026-04-06T08:45:14Z</time></trkpt><trkpt lat="43.30124050440533" lon="10.497394114011211"><ele>3.0</ele><time>2026-04-06T08:45:15Z</time></trkpt><trkpt lat="43.30119821116096" lon="10.497318922169722"><ele>3.0</ele><time>2026-04-06T08:45:16Z</time></trkpt><trkpt lat="43.30112656208803" lon="10.497181419267289"><ele>3.0</ele><time>2026-04-06T08:45:18Z</time></trkpt><trkpt lat="43.3010897237615" lon="10.49710981569056"><ele>3.0</ele><time>2026-04-06T08:45:19Z</time></trkpt><trkpt lat="43.30101706763628" lon="10.496972279427853"><ele>3.0</ele><time>2026-04-06T08:45:21Z</time></trkpt><trkpt lat="43.30097250841639" lon="10.49686629465038"><ele>3.0</ele><time>2026-04-06T08:45:23Z</time></trkpt><trkpt lat="43.30093743674765" lon="10.496777747291404"><ele>3.0</ele><time>2026-04-06T08:45:25Z</time></trkpt><trkpt lat="43.300891773091045" lon="10.496680937524987"><ele>3.0</ele><time>2026-04-06T08:45:28Z</time></trkpt><trkpt lat="43.30086111762197" lon="10.496569973339094"><ele>3.0</ele><time>2026-04-06T08:45:30Z</time></trkpt><trkpt lat="43.300902478109336" lon="10.496442266969677"><ele>3.0</ele><time>2026-04-06T08:45:32Z</time></trkpt><trkpt lat="43.30100180549404" lon="10.496352879350816"><ele>3.0</ele><time>2026-04-06T08:45:34Z</time></trkpt><trkpt lat="43.30109963339493" lon="10.49626408581367"><ele>3.0</ele><time>2026-04-06T08:45:36Z</time></trkpt><trkpt lat="43.301188929890046" lon="10.496151675119954"><ele>3.0</ele><time>2026-04-06T08:45:38Z</time></trkpt><trkpt lat="43.301273519837785" lon="10.496036629938217"><ele>3.0</ele><time>2026-04-06T08:45:40Z</time></trkpt><trkpt lat="43.30136184486007" lon="10.4959427531528"><ele>3.0</ele><time>2026-04-06T08:45:42Z</time></trkpt><trkpt lat="43.30143934125716" lon="10.495840247108253"><ele>3.0</ele><time>2026-04-06T08:45:44Z</time></trkpt><trkpt lat="43.30152608016637" lon="10.495744972123466"><ele>3.0</ele><time>2026-04-06T08:45:46Z</time></trkpt><trkpt lat="43.30156974556867" lon="10.495679689864284"><ele>3.0</ele><time>2026-04-06T08:45:47Z</time></trkpt><trkpt lat="43.301614803029985" lon="10.495605658486538"><ele>3.0</ele><time>2026-04-06T08:45:48Z</time></trkpt><trkpt lat="43.301694101836965" lon="10.495520266171361"><ele>3.0</ele><time>2026-04-06T08:45:50Z</time></trkpt><trkpt lat="43.30178352096649" lon="10.495435162368441"><ele>3.0</ele><time>2026-04-06T08:45:52Z</time></trkpt><trkpt lat="43.301866695695935" lon="10.49532438105205"><ele>3.0</ele><time>2026-04-06T08:45:54Z</time></trkpt><trkpt lat="43.301913846314704" lon="10.495266488317377"><ele>3.0</ele><time>2026-04-06T08:45:55Z</time></trkpt><trkpt lat="43.30200314516045" lon="10.495166325934674"><ele>3.0</ele><time>2026-04-06T08:45:57Z</time></trkpt><trkpt lat="43.302086295524646" lon="10.495046304467188"><ele>3.0</ele><time>2026-04-06T08:45:59Z</time></trkpt><trkpt lat="43.30213021498607" lon="10.494984292902698"><ele>3.0</ele><time>2026-04-06T08:46:00Z</time></trkpt><trkpt lat="43.30217182767779" lon="10.49491565088934"><ele>3.0</ele><time>2026-04-06T08:46:01Z</time></trkpt><trkpt lat="43.302254052998165" lon="10.494786492424721"><ele>3.0</ele><time>2026-04-06T08:46:03Z</time></trkpt><trkpt lat="43.30232811747844" lon="10.494659625161804"><ele>3.0</ele><time>2026-04-06T08:46:05Z</time></trkpt><trkpt lat="43.30237367182379" lon="10.494596680899726"><ele>3.0</ele><time>2026-04-06T08:46:06Z</time></trkpt><trkpt lat="43.302464242031654" lon="10.494495427438249"><ele>3.0</ele><time>2026-04-06T08:46:08Z</time></trkpt><trkpt lat="43.302559655714525" lon="10.494401110565864"><ele>3.0</ele><time>2026-04-06T08:46:10Z</time></trkpt><trkpt lat="43.305655936394686" lon="10.49175460750066"><ele>2.5</ele><time>2026-04-06T08:47:11Z</time></trkpt><trkpt lat="43.30575872539699" lon="10.491662882713857"><ele>2.0</ele><time>2026-04-06T08:47:13Z</time></trkpt><trkpt lat="43.30586415184579" lon="10.491571856939348"><ele>1.5</ele><time>2026-04-06T08:47:15Z</time></trkpt><trkpt lat="43.305964148605675" lon="10.491475246817103"><ele>1.0</ele><time>2026-04-06T08:47:17Z</time></trkpt><trkpt lat="43.30606593752327" lon="10.49138268237094"><ele>1.0</ele><time>2026-04-06T08:47:19Z</time></trkpt><trkpt lat="43.306168436458606" lon="10.491291881322116"><ele>1.0</ele><time>2026-04-06T08:47:21Z</time></trkpt><trkpt lat="43.30627247065575" lon="10.491199444244971"><ele>1.0</ele><time>2026-04-06T08:47:23Z</time></trkpt><trkpt lat="43.30637796127184" lon="10.491111946547873"><ele>1.0</ele><time>2026-04-06T08:47:25Z</time></trkpt><trkpt lat="43.306478178092945" lon="10.491020208590605"><ele>1.5</ele><time>2026-04-06T08:47:27Z</time></trkpt><trkpt lat="43.30657964741776" lon="10.490928702560543"><ele>2.0</ele><time>2026-04-06T08:47:29Z</time></trkpt><trkpt lat="43.30668166046596" lon="10.49083830329776"><ele>2.5</ele><time>2026-04-06T08:47:31Z</time></trkpt><trkpt lat="43.30678406381259" lon="10.490744975635321"><ele>3.0</ele><time>2026-04-06T08:47:33Z</time></trkpt><trkpt lat="43.30688813331547" lon="10.490656078735004"><ele>3.0</ele><time>2026-04-06T08:47:35Z</time></trkpt><trkpt lat="43.30699061452487" lon="10.490562310915422"><ele>3.0</ele><time>2026-04-06T08:47:37Z</time></trkpt><trkpt lat="43.307044597076114" lon="10.490517167131944"><ele>3.0</ele><time>2026-04-06T08:47:38Z</time></trkpt><trkpt lat="43.307148333348856" lon="10.490420353591155"><ele>3.0</ele><time>2026-04-06T08:47:40Z</time></trkpt><trkpt lat="43.30725470850102" lon="10.490325329699571"><ele>3.0</ele><time>2026-04-06T08:47:42Z</time></trkpt><trkpt lat="43.3073590073138" lon="10.490230175783159"><ele>3.1666666666666665</ele><time>2026-04-06T08:47:44Z</time></trkpt><trkpt lat="43.30741544423667" lon="10.490185648583127"><ele>3.333333333333333</ele><time>2026-04-06T08:47:45Z</time></trkpt><trkpt lat="43.307525520659624" lon="10.490094077290301"><ele>3.5</ele><time>2026-04-06T08:47:47Z</time></trkpt><trkpt lat="43.3076291987791" lon="10.489999008122311"><ele>3.6666666666666665</ele><time>2026-04-06T08:47:49Z</time></trkpt><trkpt lat="43.30768615168371" lon="10.489953974500214"><ele>3.833333333333333</ele><time>2026-04-06T08:47:50Z</time></trkpt><trkpt lat="43.307741032862374" lon="10.489910512440085"><ele>4.0</ele><time>2026-04-06T08:47:51Z</time></trkpt><trkpt lat="43.307794360191586" lon="10.489861358535222"><ele>4.0</ele><time>2026-04-06T08:47:52Z</time></trkpt><trkpt lat="43.307895562555295" lon="10.489758662047686"><ele>4.0</ele><time>2026-04-06T08:47:54Z</time></trkpt><trkpt lat="43.3080018983755" lon="10.489664772424275"><ele>4.0</ele><time>2026-04-06T08:47:56Z</time></trkpt><trkpt lat="43.308107226094215" lon="10.489571328436956"><ele>4.0</ele><time>2026-04-06T08:47:58Z</time></trkpt><trkpt lat="43.30815927953577" lon="10.48952228072075"><ele>4.0</ele><time>2026-04-06T08:47:59Z</time></trkpt><trkpt lat="43.30821329617169" lon="10.489474316159368"><ele>3.75</ele><time>2026-04-06T08:48:00Z</time></trkpt><trkpt lat="43.30830808407988" lon="10.489384197234163"><ele>3.5</ele><time>2026-04-06T08:48:02Z</time></trkpt><trkpt lat="43.30838463367094" lon="10.489421800959853"><ele>3.25</ele><time>2026-04-06T08:48:05Z</time></trkpt><trkpt lat="43.308443982168335" lon="10.489518984266297"><ele>3.0</ele><time>2026-04-06T08:48:08Z</time></trkpt><trkpt lat="43.30870491747151" lon="10.489931161537472"><ele>3.0</ele><time>2026-04-06T08:50:15Z</time></trkpt><trkpt lat="43.308633141533306" lon="10.489817011748341"><ele>3.0</ele><time>2026-04-06T08:50:35Z</time></trkpt><trkpt lat="43.30857430278024" lon="10.489733842608912"><ele>3.0</ele><time>2026-04-06T08:50:38Z</time></trkpt><trkpt lat="43.3085337449433" lon="10.489659993554888"><ele>3.0</ele><time>2026-04-06T08:50:40Z</time></trkpt><trkpt lat="43.30847571161806" lon="10.489573624678894"><ele>3.0</ele><time>2026-04-06T08:50:43Z</time></trkpt><trkpt lat="43.30842044569337" lon="10.489491733192061"><ele>3.0</ele><time>2026-04-06T08:50:46Z</time></trkpt><trkpt lat="43.308382399818306" lon="10.48940899973168"><ele>2.6</ele><time>2026-04-06T08:50:49Z</time></trkpt><trkpt lat="43.30845664789781" lon="10.489311095831253"><ele>2.1999999999999997</ele><time>2026-04-06T08:50:52Z</time></trkpt><trkpt lat="43.308527477682325" lon="10.489234576945943"><ele>1.8</ele><time>2026-04-06T08:50:54Z</time></trkpt><trkpt lat="43.308614358040536" lon="10.48916672720651"><ele>1.4</ele><time>2026-04-06T08:50:56Z</time></trkpt><trkpt lat="43.30870165597833" lon="10.48908808987963"><ele>1.0</ele><time>2026-04-06T08:50:58Z</time></trkpt><trkpt lat="43.30879135839076" lon="10.489010794681148"><ele>1.0</ele><time>2026-04-06T08:51:00Z</time></trkpt><trkpt lat="43.30888221005562" lon="10.488927101007333"><ele>1.0</ele><time>2026-04-06T08:51:02Z</time></trkpt><trkpt lat="43.3089730406502" lon="10.488843422641922"><ele>1.0</ele><time>2026-04-06T08:51:04Z</time></trkpt><trkpt lat="43.309069533750346" lon="10.48875544394422"><ele>1.0</ele><time>2026-04-06T08:51:06Z</time></trkpt><trkpt lat="43.30916583275743" lon="10.488671789007263"><ele>1.0</ele><time>2026-04-06T08:51:08Z</time></trkpt><trkpt lat="43.30926499586454" lon="10.48858485992952"><ele>1.0</ele><time>2026-04-06T08:51:10Z</time></trkpt><trkpt lat="43.31201905149556" lon="10.485282627560688"><ele>1.0</ele><time>2026-04-06T08:52:11Z</time></trkpt><trkpt lat="43.31209973391655" lon="10.485152425639717"><ele>1.0</ele><time>2026-04-06T08:52:13Z</time></trkpt><trkpt lat="43.31217996260936" lon="10.485021402047735"><ele>1.0</ele><time>2026-04-06T08:52:15Z</time></trkpt><trkpt lat="43.31226078210162" lon="10.484887995479214"><ele>1.0</ele><time>2026-04-06T08:52:17Z</time></trkpt><trkpt lat="43.31234087219901" lon="10.484754102498066"><ele>0.9999999999999999</ele><time>2026-04-06T08:52:19Z</time></trkpt><trkpt lat="43.31238257056258" lon="10.484688361382114"><ele>1.0</ele><time>2026-04-06T08:52:20Z</time></trkpt><trkpt lat="43.31246097758279" lon="10.484555876072658"><ele>1.0</ele><time>2026-04-06T08:52:22Z</time></trkpt><trkpt lat="43.31254209787306" lon="10.484426997973019"><ele>1.0</ele><time>2026-04-06T08:52:24Z</time></trkpt><trkpt lat="43.31258604860097" lon="10.484363936280166"><ele>0.9999999999999999</ele><time>2026-04-06T08:52:25Z</time></trkpt><trkpt lat="43.31262651167283" lon="10.484296957897856"><ele>1.0</ele><time>2026-04-06T08:52:26Z</time></trkpt><trkpt lat="43.31271198146986" lon="10.484170323820123"><ele>1.25</ele><time>2026-04-06T08:52:28Z</time></trkpt><trkpt lat="43.31279126482752" lon="10.484041162873709"><ele>1.5</ele><time>2026-04-06T08:52:30Z</time></trkpt><trkpt lat="43.312870806194745" lon="10.483913538296445"><ele>1.75</ele><time>2026-04-06T08:52:32Z</time></trkpt><trkpt lat="43.31295155289734" lon="10.483780973217065"><ele>2.0</ele><time>2026-04-06T08:52:34Z</time></trkpt><trkpt lat="43.31302966011998" lon="10.483645821906148"><ele>1.6666666666666665</ele><time>2026-04-06T08:52:36Z</time></trkpt><trkpt lat="43.313110725783474" lon="10.483513491367749"><ele>1.3333333333333333</ele><time>2026-04-06T08:52:38Z</time></trkpt><trkpt lat="43.31318977132954" lon="10.483379420898242"><ele>1.0</ele><time>2026-04-06T08:52:40Z</time></trkpt><trkpt lat="43.31323260932302" lon="10.483313480392075"><ele>0.6666666666666666</ele><time>2026-04-06T08:52:41Z</time></trkpt><trkpt lat="43.31327508426891" lon="10.483246007506192"><ele>0.3333333333333333</ele><time>2026-04-06T08:52:42Z</time></trkpt><trkpt lat="43.31331435953579" lon="10.483177603098142"><ele>0.0</ele><time>2026-04-06T08:52:43Z</time></trkpt><trkpt lat="43.31340640540757" lon="10.48306417743264"><ele>0.0</ele><time>2026-04-06T08:52:45Z</time></trkpt><trkpt lat="43.31345613436899" lon="10.48300706312188"><ele>0.0</ele><time>2026-04-06T08:52:46Z</time></trkpt><trkpt lat="43.313508708107214" lon="10.482957628901145"><ele>0.0</ele><time>2026-04-06T08:52:47Z</time></trkpt><trkpt lat="43.313561517433136" lon="10.482907963897905"><ele>0.0</ele><time>2026-04-06T08:52:48Z</time></trkpt><trkpt lat="43.3136703850605" lon="10.482822792090202"><ele>0.0</ele><time>2026-04-06T08:52:50Z</time></trkpt><trkpt lat="43.313725048499315" lon="10.482776340194052"><ele>0.0</ele><time>2026-04-06T08:52:51Z</time></trkpt><trkpt lat="43.313828169060486" lon="10.482684395863213"><ele>0.75</ele><time>2026-04-06T08:52:53Z</time></trkpt><trkpt lat="43.31393368012326" lon="10.482593978598809"><ele>1.5</ele><time>2026-04-06T08:52:55Z</time></trkpt><trkpt lat="43.314031847488536" lon="10.482506072993276"><ele>2.25</ele><time>2026-04-06T08:52:57Z</time></trkpt><trkpt lat="43.314138331111" lon="10.482416502097166"><ele>3.0</ele><time>2026-04-06T08:52:59Z</time></trkpt><trkpt lat="43.31423349418144" lon="10.48233198590085"><ele>3.0</ele><time>2026-04-06T08:53:01Z</time></trkpt><trkpt lat="43.31428615439121" lon="10.482269450318304"><ele>3.0</ele><time>2026-04-06T08:53:02Z</time></trkpt><trkpt lat="43.3143829610679" lon="10.482168843840501"><ele>3.0</ele><time>2026-04-06T08:53:04Z</time></trkpt><trkpt lat="43.314475398113764" lon="10.48205584263228"><ele>3.0</ele><time>2026-04-06T08:53:06Z</time></trkpt><trkpt lat="43.314568717078735" lon="10.481947117547177"><ele>3.0</ele><time>2026-04-06T08:53:08Z</time></trkpt><trkpt lat="43.31465217274875" lon="10.481825352263293"><ele>2.0</ele><time>2026-04-06T08:53:10Z</time></trkpt><trkpt lat="43.316829340484894" lon="10.477777633973254"><ele>2.0</ele><time>2026-04-06T08:54:11Z</time></trkpt><trkpt lat="43.31689995579602" lon="10.477647519983275"><ele>2.0</ele><time>2026-04-06T08:54:13Z</time></trkpt><trkpt lat="43.316974002748736" lon="10.477514098533796"><ele>2.0</ele><time>2026-04-06T08:54:15Z</time></trkpt><trkpt lat="43.31704673704072" lon="10.477381634283988"><ele>2.0</ele><time>2026-04-06T08:54:17Z</time></trkpt><trkpt lat="43.31708364435076" lon="10.47730892082385"><ele>2.0</ele><time>2026-04-06T08:54:18Z</time></trkpt><trkpt lat="43.31715616025155" lon="10.477178663158817"><ele>2.0</ele><time>2026-04-06T08:54:20Z</time></trkpt><trkpt lat="43.317229388929704" lon="10.477044459556872"><ele>2.0</ele><time>2026-04-06T08:54:22Z</time></trkpt><trkpt lat="43.31730005540239" lon="10.47691025815057"><ele>2.0</ele><time>2026-04-06T08:54:24Z</time></trkpt><trkpt lat="43.317372644477096" lon="10.476775045682393"><ele>2.0</ele><time>2026-04-06T08:54:26Z</time></trkpt><trkpt lat="43.31744600614968" lon="10.476642324032042"><ele>1.5</ele><time>2026-04-06T08:54:28Z</time></trkpt><trkpt lat="43.317513255827905" lon="10.47651053792286"><ele>1.0</ele><time>2026-04-06T08:54:30Z</time></trkpt><trkpt lat="43.317584277157536" lon="10.476378591130695"><ele>0.5</ele><time>2026-04-06T08:54:32Z</time></trkpt><trkpt lat="43.317657807716095" lon="10.476242475449164"><ele>0.0</ele><time>2026-04-06T08:54:34Z</time></trkpt><trkpt lat="43.31772842364023" lon="10.47610714040029"><ele>-0.2</ele><time>2026-04-06T08:54:36Z</time></trkpt><trkpt lat="43.31779937307617" lon="10.475973079025819"><ele>-0.4</ele><time>2026-04-06T08:54:38Z</time></trkpt><trkpt lat="43.31787108029455" lon="10.475839580215053"><ele>-0.6000000000000001</ele><time>2026-04-06T08:54:40Z</time></trkpt><trkpt lat="43.317906285338516" lon="10.475767525054678"><ele>-0.8</ele><time>2026-04-06T08:54:41Z</time></trkpt><trkpt lat="43.31797925035037" lon="10.475632037825592"><ele>-1.0</ele><time>2026-04-06T08:54:43Z</time></trkpt><trkpt lat="43.3180512131791" lon="10.475499712519115"><ele>-0.8</ele><time>2026-04-06T08:54:45Z</time></trkpt><trkpt lat="43.31812552715151" lon="10.47536752450026"><ele>-0.6000000000000001</ele><time>2026-04-06T08:54:47Z</time></trkpt><trkpt lat="43.31819972915694" lon="10.47523287853863"><ele>-0.4</ele><time>2026-04-06T08:54:49Z</time></trkpt><trkpt lat="43.31827244804591" lon="10.475095825088163"><ele>-0.2</ele><time>2026-04-06T08:54:51Z</time></trkpt><trkpt lat="43.31830925369054" lon="10.475025165271795"><ele>0.0</ele><time>2026-04-06T08:54:52Z</time></trkpt><trkpt lat="43.31838236953638" lon="10.474888299502759"><ele>0.0</ele><time>2026-04-06T08:54:54Z</time></trkpt><trkpt lat="43.31845590776766" lon="10.474752112872586"><ele>0.0</ele><time>2026-04-06T08:54:56Z</time></trkpt><trkpt lat="43.318526172704225" lon="10.474620133260794"><ele>0.0</ele><time>2026-04-06T08:54:58Z</time></trkpt><trkpt lat="43.318562940001584" lon="10.474549816832436"><ele>0.0</ele><time>2026-04-06T08:54:59Z</time></trkpt><trkpt lat="43.31863273887523" lon="10.474417518028197"><ele>0.0</ele><time>2026-04-06T08:55:01Z</time></trkpt><trkpt lat="43.31870546930337" lon="10.474286962568556"><ele>-0.25</ele><time>2026-04-06T08:55:03Z</time></trkpt><trkpt lat="43.31877569544951" lon="10.474156977542437"><ele>-0.5</ele><time>2026-04-06T08:55:05Z</time></trkpt><trkpt lat="43.318847603621556" lon="10.474027193704865"><ele>-0.75</ele><time>2026-04-06T08:55:07Z</time></trkpt><trkpt lat="43.31891885647291" lon="10.47389752609153"><ele>-1.0</ele><time>2026-04-06T08:55:09Z</time></trkpt><trkpt lat="43.321286742951735" lon="10.469832437707508"><ele>-0.20000000000000007</ele><time>2026-04-06T08:56:11Z</time></trkpt><trkpt lat="43.32133506003411" lon="10.469775217116638"><ele>0.5999999999999999</ele><time>2026-04-06T08:56:12Z</time></trkpt><trkpt lat="43.321382900247905" lon="10.4697181217156"><ele>1.4</ele><time>2026-04-06T08:56:13Z</time></trkpt><trkpt lat="43.321479696255295" lon="10.469607068281539"><ele>2.1999999999999997</ele><time>2026-04-06T08:56:15Z</time></trkpt><trkpt lat="43.32157038646711" lon="10.46949495327271"><ele>3.0</ele><time>2026-04-06T08:56:17Z</time></trkpt><trkpt lat="43.32166166271426" lon="10.469380275683578"><ele>3.0</ele><time>2026-04-06T08:56:19Z</time></trkpt><trkpt lat="43.3217558178059" lon="10.469274264470167"><ele>3.0</ele><time>2026-04-06T08:56:21Z</time></trkpt><trkpt lat="43.32185513142719" lon="10.469167715955363"><ele>3.0</ele><time>2026-04-06T08:56:23Z</time></trkpt><trkpt lat="43.321905375363315" lon="10.469111833981504"><ele>3.0</ele><time>2026-04-06T08:56:24Z</time></trkpt><trkpt lat="43.321955689071046" lon="10.469057572738649"><ele>3.0</ele><time>2026-04-06T08:56:25Z</time></trkpt><trkpt lat="43.32200433712658" lon="10.46900178905093"><ele>3.0</ele><time>2026-04-06T08:56:26Z</time></trkpt><trkpt lat="43.32205347630447" lon="10.468945380960365"><ele>3.0</ele><time>2026-04-06T08:56:27Z</time></trkpt><trkpt lat="43.32215179093841" lon="10.4688415646499"><ele>3.0</ele><time>2026-04-06T08:56:29Z</time></trkpt><trkpt lat="43.322199620901024" lon="10.46878030793566"><ele>3.0</ele><time>2026-04-06T08:56:30Z</time></trkpt><trkpt lat="43.32229469205835" lon="10.468671810996945"><ele>3.0</ele><time>2026-04-06T08:56:32Z</time></trkpt><trkpt lat="43.322339724893084" lon="10.468609850719893"><ele>3.0</ele><time>2026-04-06T08:56:33Z</time></trkpt><trkpt lat="43.32243437077371" lon="10.46850582245719"><ele>2.6666666666666665</ele><time>2026-04-06T08:56:35Z</time></trkpt><trkpt lat="43.322485106817226" lon="10.468449877029219"><ele>2.3333333333333335</ele><time>2026-04-06T08:56:36Z</time></trkpt><trkpt lat="43.322580410409586" lon="10.468344733221404"><ele>2.0</ele><time>2026-04-06T08:56:38Z</time></trkpt><trkpt lat="43.32267893888936" lon="10.468237622915249"><ele>1.6666666666666665</ele><time>2026-04-06T08:56:40Z</time></trkpt><trkpt lat="43.32272770382567" lon="10.468182447547528"><ele>1.3333333333333333</ele><time>2026-04-06T08:56:41Z</time></trkpt><trkpt lat="43.3227778231432" lon="10.46812932215786"><ele>1.0</ele><time>2026-04-06T08:56:42Z</time></trkpt><trkpt lat="43.322876190353945" lon="10.468026930205088"><ele>1.0</ele><time>2026-04-06T08:56:44Z</time></trkpt><trkpt lat="43.322970994066885" lon="10.467923648487822"><ele>1.0</ele><time>2026-04-06T08:56:46Z</time></trkpt><trkpt lat="43.32302079274823" lon="10.467869043124207"><ele>1.0</ele><time>2026-04-06T08:56:47Z</time></trkpt><trkpt lat="43.32307102483535" lon="10.467816870430541"><ele>1.0</ele><time>2026-04-06T08:56:48Z</time></trkpt><trkpt lat="43.32316711739088" lon="10.46770495070169"><ele>1.0</ele><time>2026-04-06T08:56:50Z</time></trkpt><trkpt lat="43.32326327410643" lon="10.467599249461529"><ele>0.4</ele><time>2026-04-06T08:56:52Z</time></trkpt><trkpt lat="43.32335952509866" lon="10.467490582749623"><ele>-0.19999999999999996</ele><time>2026-04-06T08:56:54Z</time></trkpt><trkpt lat="43.32340899923942" lon="10.467436954561428"><ele>-0.8000000000000002</ele><time>2026-04-06T08:56:55Z</time></trkpt><trkpt lat="43.323505887024986" lon="10.467331706015793"><ele>-1.4000000000000001</ele><time>2026-04-06T08:56:57Z</time></trkpt><trkpt lat="43.323554985549606" lon="10.46727698798349"><ele>-2.0</ele><time>2026-04-06T08:56:58Z</time></trkpt><trkpt lat="43.32365410199877" lon="10.467174172588974"><ele>-1.25</ele><time>2026-04-06T08:57:00Z</time></trkpt><trkpt lat="43.32375065300857" lon="10.467072026061837"><ele>-0.5</ele><time>2026-04-06T08:57:02Z</time></trkpt><trkpt lat="43.32384549527374" lon="10.46696760480239"><ele>0.25</ele><time>2026-04-06T08:57:04Z</time></trkpt><trkpt lat="43.323945375017615" lon="10.466867068823692"><ele>1.0</ele><time>2026-04-06T08:57:06Z</time></trkpt><trkpt lat="43.32404135360821" lon="10.46676270535214"><ele>1.0</ele><time>2026-04-06T08:57:08Z</time></trkpt><trkpt lat="43.32409078727466" lon="10.466709122476518"><ele>1.0</ele><time>2026-04-06T08:57:09Z</time></trkpt><trkpt lat="43.327167233707605" lon="10.463500530205062"><ele>0.9999999999999999</ele><time>2026-04-06T08:58:11Z</time></trkpt><trkpt lat="43.32721510775916" lon="10.463444242214738"><ele>1.0</ele><time>2026-04-06T08:58:12Z</time></trkpt><trkpt lat="43.32726720704193" lon="10.463386608889682"><ele>1.0</ele><time>2026-04-06T08:58:13Z</time></trkpt><trkpt lat="43.32736760494002" lon="10.46328293670906"><ele>1.0</ele><time>2026-04-06T08:58:15Z</time></trkpt><trkpt lat="43.32746264199388" lon="10.463184230161906"><ele>0.9999999999999999</ele><time>2026-04-06T08:58:17Z</time></trkpt><trkpt lat="43.32751438160329" lon="10.463132099072858"><ele>1.0</ele><time>2026-04-06T08:58:18Z</time></trkpt><trkpt lat="43.32756506239674" lon="10.463079934832239"><ele>1.0</ele><time>2026-04-06T08:58:19Z</time></trkpt><trkpt lat="43.32761436418462" lon="10.463023084879994"><ele>1.0</ele><time>2026-04-06T08:58:20Z</time></trkpt><trkpt lat="43.32766348528153" lon="10.462967611422938"><ele>1.0</ele><time>2026-04-06T08:58:21Z</time></trkpt><trkpt lat="43.32776015296195" lon="10.462873133937476"><ele>1.0</ele><time>2026-04-06T08:58:23Z</time></trkpt><trkpt lat="43.327864306287104" lon="10.462771374384447"><ele>1.0</ele><time>2026-04-06T08:58:25Z</time></trkpt><trkpt lat="43.32796263792781" lon="10.462677581879467"><ele>1.3333333333333333</ele><time>2026-04-06T08:58:27Z</time></trkpt><trkpt lat="43.328070209668326" lon="10.462584928256213"><ele>1.6666666666666665</ele><time>2026-04-06T08:58:29Z</time></trkpt><trkpt lat="43.3281225427282" lon="10.462529257268686"><ele>2.0</ele><time>2026-04-06T08:58:30Z</time></trkpt><trkpt lat="43.32822731422983" lon="10.462440174677408"><ele>2.3333333333333335</ele><time>2026-04-06T08:58:32Z</time></trkpt><trkpt lat="43.32828151747691" lon="10.462387806453078"><ele>2.6666666666666665</ele><time>2026-04-06T08:58:33Z</time></trkpt><trkpt lat="43.32833425999219" lon="10.46234037991703"><ele>3.0</ele><time>2026-04-06T08:58:34Z</time></trkpt><trkpt lat="43.328436024939435" lon="10.462239878926525"><ele>3.0</ele><time>2026-04-06T08:58:36Z</time></trkpt><trkpt lat="43.32848898156037" lon="10.462187794015685"><ele>3.0</ele><time>2026-04-06T08:58:37Z</time></trkpt><trkpt lat="43.328592178810545" lon="10.462095869908756"><ele>3.0</ele><time>2026-04-06T08:58:39Z</time></trkpt><trkpt lat="43.32869197041779" lon="10.46199490328092"><ele>3.0</ele><time>2026-04-06T08:58:41Z</time></trkpt><trkpt lat="43.32874477728479" lon="10.461940230594045"><ele>3.0</ele><time>2026-04-06T08:58:42Z</time></trkpt><trkpt lat="43.3288434319568" lon="10.46184008486217"><ele>2.6</ele><time>2026-04-06T08:58:44Z</time></trkpt><trkpt lat="43.32895008294342" lon="10.461759136911635"><ele>2.1999999999999997</ele><time>2026-04-06T08:58:46Z</time></trkpt><trkpt lat="43.32907340045874" lon="10.461749088905192"><ele>1.8</ele><time>2026-04-06T08:58:48Z</time></trkpt><trkpt lat="43.32913606794426" lon="10.461729453218105"><ele>1.4</ele><time>2026-04-06T08:58:49Z</time></trkpt><trkpt lat="43.32925497733007" lon="10.461687827713854"><ele>1.0</ele><time>2026-04-06T08:58:51Z</time></trkpt><trkpt lat="43.32937369921234" lon="10.461646144258127"><ele>0.9999999999999999</ele><time>2026-04-06T08:58:53Z</time></trkpt><trkpt lat="43.3294960404072" lon="10.461606538192436"><ele>1.0</ele><time>2026-04-06T08:58:55Z</time></trkpt><trkpt lat="43.329617459760755" lon="10.461567457758214"><ele>1.0</ele><time>2026-04-06T08:58:57Z</time></trkpt><trkpt lat="43.32967886496796" lon="10.461547304840678"><ele>1.0</ele><time>2026-04-06T08:58:58Z</time></trkpt><trkpt lat="43.32974054688377" lon="10.461526052443261"><ele>0.9999999999999999</ele><time>2026-04-06T08:58:59Z</time></trkpt><trkpt lat="43.32980140794365" lon="10.461503320354756"><ele>1.0</ele><time>2026-04-06T08:59:00Z</time></trkpt><trkpt lat="43.32992325287346" lon="10.461468504100342"><ele>1.0</ele><time>2026-04-06T08:59:02Z</time></trkpt><trkpt lat="43.32998461231769" lon="10.461447985851448"><ele>1.0</ele><time>2026-04-06T08:59:03Z</time></trkpt><trkpt lat="43.33010546983281" lon="10.46140749523851"><ele>1.0</ele><time>2026-04-06T08:59:05Z</time></trkpt><trkpt lat="43.33022415865591" lon="10.461367780065194"><ele>1.0</ele><time>2026-04-06T08:59:07Z</time></trkpt><trkpt lat="43.330344231360826" lon="10.461324017002351"><ele>1.0</ele><time>2026-04-06T08:59:09Z</time></trkpt><trkpt lat="43.334105380494634" lon="10.460743648001337"><ele>1.0</ele><time>2026-04-06T09:00:11Z</time></trkpt><trkpt lat="43.33416997479747" lon="10.460739831073294"><ele>1.0</ele><time>2026-04-06T09:00:12Z</time></trkpt><trkpt lat="43.33428953754763" lon="10.460732327377508"><ele>1.0</ele><time>2026-04-06T09:00:14Z</time></trkpt><trkpt lat="43.33441196350322" lon="10.460731841143758"><ele>1.0</ele><time>2026-04-06T09:00:16Z</time></trkpt><trkpt lat="43.33453786037066" lon="10.460717487389"><ele>1.0</ele><time>2026-04-06T09:00:18Z</time></trkpt><trkpt lat="43.33460514221735" lon="10.46071587735966"><ele>0.8</ele><time>2026-04-06T09:00:19Z</time></trkpt><trkpt lat="43.334728301375854" lon="10.460695615591892"><ele>0.6000000000000001</ele><time>2026-04-06T09:00:21Z</time></trkpt><trkpt lat="43.3348513797682" lon="10.460672263963827"><ele>0.4</ele><time>2026-04-06T09:00:23Z</time></trkpt><trkpt lat="43.33491912524646" lon="10.460665362241762"><ele>0.2</ele><time>2026-04-06T09:00:24Z</time></trkpt><trkpt lat="43.33504227342815" lon="10.460647369293046"><ele>0.0</ele><time>2026-04-06T09:00:26Z</time></trkpt><trkpt lat="43.335104978382674" lon="10.46063671319771"><ele>0.0</ele><time>2026-04-06T09:00:27Z</time></trkpt><trkpt lat="43.335227283409395" lon="10.460610136616733"><ele>0.0</ele><time>2026-04-06T09:00:29Z</time></trkpt><trkpt lat="43.33534940627191" lon="10.460584744092756"><ele>0.0</ele><time>2026-04-06T09:00:31Z</time></trkpt><trkpt lat="43.33546955532005" lon="10.460563637410987"><ele>0.0</ele><time>2026-04-06T09:00:33Z</time></trkpt><trkpt lat="43.33559344572983" lon="10.460540223217693"><ele>0.16666666666666666</ele><time>2026-04-06T09:00:35Z</time></trkpt><trkpt lat="43.33565587902661" lon="10.460527564379946"><ele>0.3333333333333333</ele><time>2026-04-06T09:00:36Z</time></trkpt><trkpt lat="43.335777196429646" lon="10.460496411210553"><ele>0.5</ele><time>2026-04-06T09:00:38Z</time></trkpt><trkpt lat="43.3358405743971" lon="10.460493567180345"><ele>0.6666666666666666</ele><time>2026-04-06T09:00:39Z</time></trkpt><trkpt lat="43.33590800876778" lon="10.46048915552212"><ele>0.8333333333333333</ele><time>2026-04-06T09:00:40Z</time></trkpt><trkpt lat="43.33602785809864" lon="10.46047138291126"><ele>1.0</ele><time>2026-04-06T09:00:42Z</time></trkpt><trkpt lat="43.336153387326114" lon="10.460446553978654"><ele>1.25</ele><time>2026-04-06T09:00:44Z</time></trkpt><trkpt lat="43.33627520617107" lon="10.46042319050385"><ele>1.5</ele><time>2026-04-06T09:00:46Z</time></trkpt><trkpt lat="43.33639752709449" lon="10.460409865111604"><ele>1.75</ele><time>2026-04-06T09:00:48Z</time></trkpt><trkpt lat="43.33651774162979" lon="10.460413336124468"><ele>2.0</ele><time>2026-04-06T09:00:50Z</time></trkpt><trkpt lat="43.336638099866036" lon="10.460409264736114"><ele>2.0</ele><time>2026-04-06T09:00:52Z</time></trkpt><trkpt lat="43.33676361699031" lon="10.460409847604033"><ele>2.0</ele><time>2026-04-06T09:00:54Z</time></trkpt><trkpt lat="43.336884091882446" lon="10.460413840277212"><ele>2.0</ele><time>2026-04-06T09:00:56Z</time></trkpt><trkpt lat="43.337010411694216" lon="10.460414564382024"><ele>2.0</ele><time>2026-04-06T09:00:58Z</time></trkpt><trkpt lat="43.337132200008405" lon="10.460418717646544"><ele>1.8</ele><time>2026-04-06T09:01:00Z</time></trkpt><trkpt lat="43.337253992657914" lon="10.460420823239664"><ele>1.6</ele><time>2026-04-06T09:01:02Z</time></trkpt><trkpt lat="43.33737815411509" lon="10.460421497886381"><ele>1.4000000000000001</ele><time>2026-04-06T09:01:04Z</time></trkpt><trkpt lat="43.33744203671331" lon="10.46041907104417"><ele>1.2000000000000002</ele><time>2026-04-06T09:01:05Z</time></trkpt><trkpt lat="43.33756629597197" lon="10.460409981437934"><ele>1.0</ele><time>2026-04-06T09:01:07Z</time></trkpt><trkpt lat="43.33769281369834" lon="10.460388862403605"><ele>0.0</ele><time>2026-04-06T09:01:09Z</time></trkpt><trkpt lat="43.341515984225" lon="10.45955524249072"><ele>0.0</ele><time>2026-04-06T09:02:11Z</time></trkpt><trkpt lat="43.341638241228054" lon="10.459528947628877"><ele>0.0</ele><time>2026-04-06T09:02:13Z</time></trkpt><trkpt lat="43.34175874972081" lon="10.459501886285866"><ele>0.0</ele><time>2026-04-06T09:02:15Z</time></trkpt><trkpt lat="43.341876365628906" lon="10.459469279021542"><ele>0.0</ele><time>2026-04-06T09:02:17Z</time></trkpt><trkpt lat="43.341996003468964" lon="10.459438726132362"><ele>0.0</ele><time>2026-04-06T09:02:19Z</time></trkpt><trkpt lat="43.34211375206337" lon="10.459408024312795"><ele>0.0</ele><time>2026-04-06T09:02:21Z</time></trkpt><trkpt lat="43.34222896716796" lon="10.459368585516366"><ele>0.0</ele><time>2026-04-06T09:02:23Z</time></trkpt><trkpt lat="43.34234248102524" lon="10.459323362273688"><ele>0.0</ele><time>2026-04-06T09:02:25Z</time></trkpt><trkpt lat="43.34244883472302" lon="10.459287512537202"><ele>0.25</ele><time>2026-04-06T09:02:27Z</time></trkpt><trkpt lat="43.34255075711941" lon="10.45924714368681"><ele>0.5</ele><time>2026-04-06T09:02:29Z</time></trkpt><trkpt lat="43.342667680103055" lon="10.459201248371173"><ele>0.75</ele><time>2026-04-06T09:02:31Z</time></trkpt><trkpt lat="43.34279155897558" lon="10.459168667087013"><ele>1.0</ele><time>2026-04-06T09:02:33Z</time></trkpt><trkpt lat="43.3429082132211" lon="10.4591245423002"><ele>1.0</ele><time>2026-04-06T09:02:35Z</time></trkpt><trkpt lat="43.343019093788605" lon="10.459075827696072"><ele>1.0</ele><time>2026-04-06T09:02:37Z</time></trkpt><trkpt lat="43.34313234454775" lon="10.459032203454905"><ele>1.0</ele><time>2026-04-06T09:02:39Z</time></trkpt><trkpt lat="43.34324227759687" lon="10.458979866559003"><ele>1.0</ele><time>2026-04-06T09:02:41Z</time></trkpt><trkpt lat="43.343358447298215" lon="10.45893892240844"><ele>1.0</ele><time>2026-04-06T09:02:43Z</time></trkpt><trkpt lat="43.34347569477168" lon="10.458899962513017"><ele>1.0</ele><time>2026-04-06T09:02:45Z</time></trkpt><trkpt lat="43.343599282527656" lon="10.458870332428962"><ele>1.0</ele><time>2026-04-06T09:02:47Z</time></trkpt><trkpt lat="43.34371911836389" lon="10.458819093985745"><ele>1.0</ele><time>2026-04-06T09:02:49Z</time></trkpt><trkpt lat="43.34383962817872" lon="10.458769151393675"><ele>1.0</ele><time>2026-04-06T09:02:51Z</time></trkpt><trkpt lat="43.34396370416697" lon="10.458722279479394"><ele>1.0</ele><time>2026-04-06T09:02:53Z</time></trkpt><trkpt lat="43.344087434672275" lon="10.458683276521468"><ele>1.0</ele><time>2026-04-06T09:02:55Z</time></trkpt><trkpt lat="43.34415070817693" lon="10.458659188352776"><ele>1.0</ele><time>2026-04-06T09:02:56Z</time></trkpt><trkpt lat="43.344212620130634" lon="10.458633094282717"><ele>1.0</ele><time>2026-04-06T09:02:57Z</time></trkpt><trkpt lat="43.34427595947512" lon="10.458610792455557"><ele>1.0</ele><time>2026-04-06T09:02:58Z</time></trkpt><trkpt lat="43.34433731929066" lon="10.458586695310162"><ele>0.9999999999999999</ele><time>2026-04-06T09:02:59Z</time></trkpt><trkpt lat="43.34440034077656" lon="10.458565515984885"><ele>1.0</ele><time>2026-04-06T09:03:00Z</time></trkpt><trkpt lat="43.34446357790434" lon="10.458541873222453"><ele>1.0</ele><time>2026-04-06T09:03:01Z</time></trkpt><trkpt lat="43.34452481652093" lon="10.458515288597432"><ele>0.9999999999999999</ele><time>2026-04-06T09:03:02Z</time></trkpt><trkpt lat="43.34458650514321" lon="10.458490524875158"><ele>1.0</ele><time>2026-04-06T09:03:03Z</time></trkpt><trkpt lat="43.34464852551939" lon="10.458466938952586"><ele>1.0</ele><time>2026-04-06T09:03:04Z</time></trkpt><trkpt lat="43.34476826976186" lon="10.458418166343378"><ele>1.0</ele><time>2026-04-06T09:03:06Z</time></trkpt><trkpt lat="43.34482830267618" lon="10.458389639007718"><ele>1.0</ele><time>2026-04-06T09:03:07Z</time></trkpt><trkpt lat="43.34488742210857" lon="10.458350232610698"><ele>1.0</ele><time>2026-04-06T09:03:08Z</time></trkpt><trkpt lat="43.34500107558137" lon="10.458282162967556"><ele>1.0</ele><time>2026-04-06T09:03:10Z</time></trkpt><trkpt lat="43.34823794608883" lon="10.455665610265246"><ele>1.0</ele><time>2026-04-06T09:04:11Z</time></trkpt><trkpt lat="43.34834325498715" lon="10.455589249561752"><ele>1.0</ele><time>2026-04-06T09:04:13Z</time></trkpt><trkpt lat="43.3484469007353" lon="10.45550631063417"><ele>1.0</ele><time>2026-04-06T09:04:15Z</time></trkpt><trkpt lat="43.3485496263053" lon="10.455420845423095"><ele>1.0</ele><time>2026-04-06T09:04:17Z</time></trkpt><trkpt lat="43.34865621553161" lon="10.455335874429602"><ele>1.0</ele><time>2026-04-06T09:04:19Z</time></trkpt><trkpt lat="43.34876756713534" lon="10.455259890647541"><ele>1.0</ele><time>2026-04-06T09:04:21Z</time></trkpt><trkpt lat="43.34888176048586" lon="10.455196583848402"><ele>1.0</ele><time>2026-04-06T09:04:23Z</time></trkpt><trkpt lat="43.34899990143723" lon="10.455150221955341"><ele>1.0</ele><time>2026-04-06T09:04:25Z</time></trkpt><trkpt lat="43.349061957923" lon="10.455135198014606"><ele>1.0</ele><time>2026-04-06T09:04:26Z</time></trkpt><trkpt lat="43.34917784761113" lon="10.455098283263565"><ele>0.8</ele><time>2026-04-06T09:04:28Z</time></trkpt><trkpt lat="43.34929071995916" lon="10.455060311131502"><ele>0.6000000000000001</ele><time>2026-04-06T09:04:30Z</time></trkpt><trkpt lat="43.349400549974554" lon="10.455032180675564"><ele>0.4</ele><time>2026-04-06T09:04:32Z</time></trkpt><trkpt lat="43.349504721542544" lon="10.45499605632468"><ele>0.2</ele><time>2026-04-06T09:04:34Z</time></trkpt><trkpt lat="43.34960168046054" lon="10.454971235814545"><ele>0.0</ele><time>2026-04-06T09:04:36Z</time></trkpt><trkpt lat="43.34967956261502" lon="10.454948316340285"><ele>0.25</ele><time>2026-04-06T09:04:38Z</time></trkpt><trkpt lat="43.349752206074825" lon="10.454943293042277"><ele>0.5</ele><time>2026-04-06T09:04:40Z</time></trkpt><trkpt lat="43.349816169150635" lon="10.454950098973683"><ele>0.75</ele><time>2026-04-06T09:04:42Z</time></trkpt><trkpt lat="43.34980065868115" lon="10.45503649770708"><ele>1.0</ele><time>2026-04-06T09:04:45Z</time></trkpt><trkpt lat="43.349838839119045" lon="10.456336014034052"><ele>0.9999999999999999</ele><time>2026-04-06T09:06:11Z</time></trkpt><trkpt lat="43.349842073839454" lon="10.45645252224677"><ele>1.0</ele><time>2026-04-06T09:06:13Z</time></trkpt><trkpt lat="43.34984835310029" lon="10.456568855194236"><ele>1.0</ele><time>2026-04-06T09:06:15Z</time></trkpt><trkpt lat="43.349848067428205" lon="10.456683791422748"><ele>1.0</ele><time>2026-04-06T09:06:17Z</time></trkpt><trkpt lat="43.34985371514544" lon="10.45679262777705"><ele>0.9999999999999999</ele><time>2026-04-06T09:06:19Z</time></trkpt><trkpt lat="43.34985896428163" lon="10.45689447932218"><ele>1.0</ele><time>2026-04-06T09:06:21Z</time></trkpt><trkpt lat="43.34986367614356" lon="10.45699602377249"><ele>1.0</ele><time>2026-04-06T09:06:23Z</time></trkpt><trkpt lat="43.34987153392376" lon="10.457095727100407"><ele>0.9999999999999999</ele><time>2026-04-06T09:06:25Z</time></trkpt><trkpt lat="43.34988062274164" lon="10.45719586978698"><ele>1.0</ele><time>2026-04-06T09:06:27Z</time></trkpt><trkpt lat="43.3498872536483" lon="10.457292161042231"><ele>1.0</ele><time>2026-04-06T09:06:29Z</time></trkpt><trkpt lat="43.34989735045578" lon="10.45738776835788"><ele>0.9999999999999999</ele><time>2026-04-06T09:06:31Z</time></trkpt><trkpt lat="43.34992703974599" lon="10.457469333080526"><ele>1.0</ele><time>2026-04-06T09:06:33Z</time></trkpt><trkpt lat="43.3499876283191" lon="10.45751836421322"><ele>1.0</ele><time>2026-04-06T09:06:35Z</time></trkpt><trkpt lat="43.35006588432829" lon="10.457502552423918"><ele>1.3333333333333333</ele><time>2026-04-06T09:06:37Z</time></trkpt><trkpt lat="43.35013888132763" lon="10.457448073813607"><ele>1.6666666666666665</ele><time>2026-04-06T09:06:39Z</time></trkpt><trkpt lat="43.350213982601076" lon="10.457402597978428"><ele>2.0</ele><time>2026-04-06T09:06:41Z</time></trkpt><trkpt lat="43.35029028560005" lon="10.457362704450926"><ele>2.3333333333333335</ele><time>2026-04-06T09:06:43Z</time></trkpt><trkpt lat="43.35036138453781" lon="10.45731300905242"><ele>2.6666666666666665</ele><time>2026-04-06T09:06:45Z</time></trkpt><trkpt lat="43.35042518798393" lon="10.457248850681239"><ele>3.0</ele><time>2026-04-06T09:06:47Z</time></trkpt><trkpt lat="43.350489282597195" lon="10.457204477835042"><ele>2.9999999999999996</ele><time>2026-04-06T09:06:49Z</time></trkpt><trkpt lat="43.350551181769255" lon="10.457160876772056"><ele>3.0</ele><time>2026-04-06T09:06:51Z</time></trkpt><trkpt lat="43.350612776073504" lon="10.457123674228802"><ele>3.0</ele><time>2026-04-06T09:06:53Z</time></trkpt><trkpt lat="43.35067429450051" lon="10.45708447891147"><ele>3.0</ele><time>2026-04-06T09:06:55Z</time></trkpt><trkpt lat="43.35072880031142" lon="10.457039844800764"><ele>3.0</ele><time>2026-04-06T09:06:57Z</time></trkpt><trkpt lat="43.35081838821167" lon="10.456986162060016"><ele>2.9999999999999996</ele><time>2026-04-06T09:07:00Z</time></trkpt><trkpt lat="43.350888971588965" lon="10.456954490030391"><ele>3.0</ele><time>2026-04-06T09:07:02Z</time></trkpt><trkpt lat="43.350963310663765" lon="10.456929048451727"><ele>2.75</ele><time>2026-04-06T09:07:04Z</time></trkpt><trkpt lat="43.35103723451937" lon="10.456904307040201"><ele>2.5</ele><time>2026-04-06T09:07:06Z</time></trkpt><trkpt lat="43.3511140592794" lon="10.456874345928764"><ele>2.25</ele><time>2026-04-06T09:07:08Z</time></trkpt><trkpt lat="43.35119067575209" lon="10.456835056567636"><ele>2.0</ele><time>2026-04-06T09:07:10Z</time></trkpt><trkpt lat="43.35323311490074" lon="10.456122409845896"><ele>1.8</ele><time>2026-04-06T09:08:10.999Z</time></trkpt><trkpt lat="43.35332155959079" lon="10.456092191723082"><ele>1.6</ele><time>2026-04-06T09:08:13Z</time></trkpt><trkpt lat="43.353412816637494" lon="10.456058057608393"><ele>1.4000000000000001</ele><time>2026-04-06T09:08:15Z</time></trkpt><trkpt lat="43.353505689344786" lon="10.456023560881299"><ele>1.2000000000000002</ele><time>2026-04-06T09:08:17Z</time></trkpt><trkpt lat="43.353594082014546" lon="10.455996076047592"><ele>1.0</ele><time>2026-04-06T09:08:19Z</time></trkpt><trkpt lat="43.353679397792746" lon="10.455964443726241"><ele>0.9999999999999999</ele><time>2026-04-06T09:08:21Z</time></trkpt><trkpt lat="43.353761195818386" lon="10.455942724964792"><ele>1.0</ele><time>2026-04-06T09:08:23Z</time></trkpt><trkpt lat="43.35383545445986" lon="10.455974513909947"><ele>1.0</ele><time>2026-04-06T09:08:25Z</time></trkpt><trkpt lat="43.35391691091361" lon="10.45595549360824"><ele>1.0</ele><time>2026-04-06T09:08:27Z</time></trkpt><trkpt lat="43.35397989977647" lon="10.455888739236697"><ele>0.9999999999999999</ele><time>2026-04-06T09:08:29Z</time></trkpt><trkpt lat="43.35404518427919" lon="10.455844130536619"><ele>1.0</ele><time>2026-04-06T09:08:31Z</time></trkpt><trkpt lat="43.35411952410609" lon="10.455826534116607"><ele>1.0</ele><time>2026-04-06T09:08:33Z</time></trkpt><trkpt lat="43.35418947123975" lon="10.455808706656558"><ele>1.0</ele><time>2026-04-06T09:08:35Z</time></trkpt><trkpt lat="43.35426915287304" lon="10.455773477340706"><ele>1.0</ele><time>2026-04-06T09:08:37Z</time></trkpt><trkpt lat="43.35435963191385" lon="10.455734190731553"><ele>1.0</ele><time>2026-04-06T09:08:39Z</time></trkpt><trkpt lat="43.354456875022876" lon="10.455699808074364"><ele>1.0</ele><time>2026-04-06T09:08:41Z</time></trkpt><trkpt lat="43.35456279511187" lon="10.455665706109146"><ele>1.0</ele><time>2026-04-06T09:08:43Z</time></trkpt><trkpt lat="43.35467513118779" lon="10.455625402012794"><ele>1.0</ele><time>2026-04-06T09:08:45Z</time></trkpt><trkpt lat="43.354787510837944" lon="10.45558679137662"><ele>1.0</ele><time>2026-04-06T09:08:47Z</time></trkpt><trkpt lat="43.354894357918134" lon="10.45556442248204"><ele>1.0</ele><time>2026-04-06T09:08:49Z</time></trkpt><trkpt lat="43.35499765925425" lon="10.455586223379564"><ele>1.0</ele><time>2026-04-06T09:08:51Z</time></trkpt><trkpt lat="43.355064467600606" lon="10.455570216085517"><ele>1.0</ele><time>2026-04-06T09:08:52Z</time></trkpt><trkpt lat="43.35514207979354" lon="10.455589288127541"><ele>1.0</ele><time>2026-04-06T09:08:54Z</time></trkpt><trkpt lat="43.35522434618174" lon="10.45551409218114"><ele>1.0</ele><time>2026-04-06T09:08:56Z</time></trkpt><trkpt lat="43.35530756913368" lon="10.455428577774807"><ele>1.0</ele><time>2026-04-06T09:08:58Z</time></trkpt><trkpt lat="43.355408015751415" lon="10.455367448471405"><ele>1.0</ele><time>2026-04-06T09:09:00Z</time></trkpt><trkpt lat="43.35552166523365" lon="10.455318706421718"><ele>0.75</ele><time>2026-04-06T09:09:02Z</time></trkpt><trkpt lat="43.35563701432326" lon="10.455275286138436"><ele>0.5</ele><time>2026-04-06T09:09:04Z</time></trkpt><trkpt lat="43.355755005507056" lon="10.455230125571447"><ele>0.25</ele><time>2026-04-06T09:09:06Z</time></trkpt><trkpt lat="43.355878034930555" lon="10.455187359900942"><ele>0.0</ele><time>2026-04-06T09:09:08Z</time></trkpt><trkpt lat="43.355996448293105" lon="10.455145901438781"><ele>1.0</ele><time>2026-04-06T09:09:10Z</time></trkpt><trkpt lat="43.359646987926475" lon="10.453826578385225"><ele>0.8333333333333333</ele><time>2026-04-06T09:10:10.999Z</time></trkpt><trkpt lat="43.35977017316219" lon="10.453784556055483"><ele>0.6666666666666666</ele><time>2026-04-06T09:10:12.999Z</time></trkpt><trkpt lat="43.35983350370238" lon="10.45375870464972"><ele>0.5</ele><time>2026-04-06T09:10:13.999Z</time></trkpt><trkpt lat="43.35989439607176" lon="10.453736082552881"><ele>0.3333333333333333</ele><time>2026-04-06T09:10:14.999Z</time></trkpt><trkpt lat="43.35995672376604" lon="10.453714648833271"><ele>0.16666666666666666</ele><time>2026-04-06T09:10:15.999Z</time></trkpt><trkpt lat="43.360077687750376" lon="10.453671511676538"><ele>0.0</ele><time>2026-04-06T09:10:17.999Z</time></trkpt><trkpt lat="43.360139921934824" lon="10.453649875734902"><ele>0.0</ele><time>2026-04-06T09:10:19Z</time></trkpt><trkpt lat="43.36020263237507" lon="10.453627460367517"><ele>0.0</ele><time>2026-04-06T09:10:20Z</time></trkpt><trkpt lat="43.36026479571513" lon="10.45360348324427"><ele>0.0</ele><time>2026-04-06T09:10:21Z</time></trkpt><trkpt lat="43.360387844675664" lon="10.453558492166236"><ele>0.0</ele><time>2026-04-06T09:10:23Z</time></trkpt><trkpt lat="43.360510793135525" lon="10.45351493529836"><ele>0.0</ele><time>2026-04-06T09:10:25Z</time></trkpt><trkpt lat="43.3606280286398" lon="10.453469963209262"><ele>0.2</ele><time>2026-04-06T09:10:27Z</time></trkpt><trkpt lat="43.360743364436914" lon="10.453430968490155"><ele>0.4</ele><time>2026-04-06T09:10:29Z</time></trkpt><trkpt lat="43.36086127867577" lon="10.453391649375025"><ele>0.6000000000000001</ele><time>2026-04-06T09:10:31Z</time></trkpt><trkpt lat="43.360981118354296" lon="10.453343317844716"><ele>0.8</ele><time>2026-04-06T09:10:33Z</time></trkpt><trkpt lat="43.3610429322289" lon="10.453319804622542"><ele>1.0</ele><time>2026-04-06T09:10:34Z</time></trkpt><trkpt lat="43.361159730156515" lon="10.453278199958696"><ele>1.0</ele><time>2026-04-06T09:10:36Z</time></trkpt><trkpt lat="43.36127487873405" lon="10.453231262033029"><ele>1.0</ele><time>2026-04-06T09:10:38Z</time></trkpt><trkpt lat="43.36139286562909" lon="10.453185845064544"><ele>1.0</ele><time>2026-04-06T09:10:40Z</time></trkpt><trkpt lat="43.36151361764012" lon="10.453151751116408"><ele>1.0</ele><time>2026-04-06T09:10:42Z</time></trkpt><trkpt lat="43.36163354187612" lon="10.453114411533974"><ele>1.0</ele><time>2026-04-06T09:10:44Z</time></trkpt><trkpt lat="43.36175147416412" lon="10.453074019480638"><ele>1.0</ele><time>2026-04-06T09:10:46Z</time></trkpt><trkpt lat="43.36181283667465" lon="10.453051625324836"><ele>1.0</ele><time>2026-04-06T09:10:47Z</time></trkpt><trkpt lat="43.36193121883537" lon="10.453008364609651"><ele>1.0</ele><time>2026-04-06T09:10:49Z</time></trkpt><trkpt lat="43.36205020043094" lon="10.452964322951118"><ele>1.0</ele><time>2026-04-06T09:10:51Z</time></trkpt><trkpt lat="43.362169392613495" lon="10.452917545976256"><ele>1.0</ele><time>2026-04-06T09:10:53Z</time></trkpt><trkpt lat="43.36228779083926" lon="10.45287151381772"><ele>1.0</ele><time>2026-04-06T09:10:55Z</time></trkpt><trkpt lat="43.36240859459239" lon="10.452825092034294"><ele>1.0</ele><time>2026-04-06T09:10:57Z</time></trkpt><trkpt lat="43.3625255969869" lon="10.45278131333087"><ele>1.0</ele><time>2026-04-06T09:10:59Z</time></trkpt><trkpt lat="43.362640760208286" lon="10.452736729609686"><ele>1.0</ele><time>2026-04-06T09:11:01Z</time></trkpt><trkpt lat="43.362760011954826" lon="10.452693878598902"><ele>1.0</ele><time>2026-04-06T09:11:03Z</time></trkpt><trkpt lat="43.36288434341046" lon="10.452654229356332"><ele>1.0</ele><time>2026-04-06T09:11:05Z</time></trkpt><trkpt lat="43.3630045741717" lon="10.452615552034421"><ele>1.0</ele><time>2026-04-06T09:11:07Z</time></trkpt><trkpt lat="43.36312245262108" lon="10.452579306656615"><ele>1.0</ele><time>2026-04-06T09:11:09Z</time></trkpt><trkpt lat="43.36682423117162" lon="10.451254761125826"><ele>1.0</ele><time>2026-04-06T09:12:11Z</time></trkpt><trkpt lat="43.366944879032715" lon="10.451210265466178"><ele>1.0</ele><time>2026-04-06T09:12:13Z</time></trkpt><trkpt lat="43.36700841136697" lon="10.451190852275264"><ele>1.0</ele><time>2026-04-06T09:12:14Z</time></trkpt><trkpt lat="43.367127145985314" lon="10.45115244598728"><ele>1.0</ele><time>2026-04-06T09:12:16Z</time></trkpt><trkpt lat="43.367245584610714" lon="10.451110361830732"><ele>1.0</ele><time>2026-04-06T09:12:18Z</time></trkpt><trkpt lat="43.36736087113976" lon="10.451068287524485"><ele>0.75</ele><time>2026-04-06T09:12:20Z</time></trkpt><trkpt lat="43.367478754302944" lon="10.45102339636763"><ele>0.5</ele><time>2026-04-06T09:12:22Z</time></trkpt><trkpt lat="43.36759688435047" lon="10.45097810701705"><ele>0.25</ele><time>2026-04-06T09:12:24Z</time></trkpt><trkpt lat="43.367715007329394" lon="10.45093562128093"><ele>0.0</ele><time>2026-04-06T09:12:26Z</time></trkpt><trkpt lat="43.36783289459947" lon="10.450888615311598"><ele>0.0</ele><time>2026-04-06T09:12:28Z</time></trkpt><trkpt lat="43.36795227082277" lon="10.450845573637846"><ele>0.0</ele><time>2026-04-06T09:12:30Z</time></trkpt><trkpt lat="43.36806998177508" lon="10.450806716019143"><ele>0.0</ele><time>2026-04-06T09:12:32Z</time></trkpt><trkpt lat="43.36818905444351" lon="10.450762523921092"><ele>0.0</ele><time>2026-04-06T09:12:34Z</time></trkpt><trkpt lat="43.36830789465479" lon="10.450720673055166"><ele>0.16666666666666666</ele><time>2026-04-06T09:12:36Z</time></trkpt><trkpt lat="43.36837457219253" lon="10.450698089578307"><ele>0.3333333333333333</ele><time>2026-04-06T09:12:37Z</time></trkpt><trkpt lat="43.36843605629259" lon="10.450676913507468"><ele>0.5</ele><time>2026-04-06T09:12:38Z</time></trkpt><trkpt lat="43.36849891955558" lon="10.45065480415712"><ele>0.6666666666666666</ele><time>2026-04-06T09:12:39Z</time></trkpt><trkpt lat="43.36861941803934" lon="10.450610364243497"><ele>0.8333333333333333</ele><time>2026-04-06T09:12:41Z</time></trkpt><trkpt lat="43.36868032002479" lon="10.450588283338432"><ele>1.0</ele><time>2026-04-06T09:12:42Z</time></trkpt><trkpt lat="43.36879698435284" lon="10.450543012983232"><ele>1.1666666666666665</ele><time>2026-04-06T09:12:44Z</time></trkpt><trkpt lat="43.36891471328514" lon="10.450497393905442"><ele>1.3333333333333333</ele><time>2026-04-06T09:12:46Z</time></trkpt><trkpt lat="43.36897676312719" lon="10.450475010609546"><ele>1.5</ele><time>2026-04-06T09:12:47Z</time></trkpt><trkpt lat="43.36909723649686" lon="10.450432851799121"><ele>1.6666666666666665</ele><time>2026-04-06T09:12:49Z</time></trkpt><trkpt lat="43.36916029821347" lon="10.450410153343416"><ele>1.8333333333333333</ele><time>2026-04-06T09:12:50Z</time></trkpt><trkpt lat="43.36922464305332" lon="10.450386571823875"><ele>2.0</ele><time>2026-04-06T09:12:51Z</time></trkpt><trkpt lat="43.369343263828014" lon="10.450344129664554"><ele>2.2</ele><time>2026-04-06T09:12:53Z</time></trkpt><trkpt lat="43.369461322823305" lon="10.450300933485225"><ele>2.4000000000000004</ele><time>2026-04-06T09:12:55Z</time></trkpt><trkpt lat="43.36958257142363" lon="10.450262504146194"><ele>2.5999999999999996</ele><time>2026-04-06T09:12:57Z</time></trkpt><trkpt lat="43.36970060829029" lon="10.450221624840736"><ele>2.8</ele><time>2026-04-06T09:12:59Z</time></trkpt><trkpt lat="43.36976271853442" lon="10.45020254350018"><ele>3.0</ele><time>2026-04-06T09:13:00Z</time></trkpt><trkpt lat="43.3698278320291" lon="10.450184206715676"><ele>3.0</ele><time>2026-04-06T09:13:01Z</time></trkpt><trkpt lat="43.36994880711919" lon="10.450156577171981"><ele>3.0</ele><time>2026-04-06T09:13:03Z</time></trkpt><trkpt lat="43.3700122687371" lon="10.45014282526655"><ele>3.0</ele><time>2026-04-06T09:13:04Z</time></trkpt><trkpt lat="43.37013672469453" lon="10.450117860691266"><ele>3.0</ele><time>2026-04-06T09:13:06Z</time></trkpt><trkpt lat="43.3702574481086" lon="10.450103843247927"><ele>3.0</ele><time>2026-04-06T09:13:08Z</time></trkpt><trkpt lat="43.37038335926614" lon="10.450095195464407"><ele>1.0</ele><time>2026-04-06T09:13:10Z</time></trkpt><trkpt lat="43.3739746383812" lon="10.448915025877051"><ele>1.0</ele><time>2026-04-06T09:14:11Z</time></trkpt><trkpt lat="43.37408651318593" lon="10.448830924338548"><ele>1.0</ele><time>2026-04-06T09:14:12.999Z</time></trkpt><trkpt lat="43.37419332436454" lon="10.448748939899925"><ele>1.0</ele><time>2026-04-06T09:14:14.999Z</time></trkpt><trkpt lat="43.37429731166563" lon="10.448671774710808"><ele>1.0</ele><time>2026-04-06T09:14:16.999Z</time></trkpt><trkpt lat="43.3743592626757" lon="10.44860926449181"><ele>1.0</ele><time>2026-04-06T09:14:17.999Z</time></trkpt><trkpt lat="43.37446567131252" lon="10.44852530565445"><ele>1.25</ele><time>2026-04-06T09:14:19.999Z</time></trkpt><trkpt lat="43.37457117960504" lon="10.448439192702624"><ele>1.5</ele><time>2026-04-06T09:14:21.999Z</time></trkpt><trkpt lat="43.374673867856416" lon="10.448352056261058"><ele>1.75</ele><time>2026-04-06T09:14:23.999Z</time></trkpt><trkpt lat="43.37478344536307" lon="10.448273047559079"><ele>2.0</ele><time>2026-04-06T09:14:25.999Z</time></trkpt><trkpt lat="43.3748925029442" lon="10.448189497262637"><ele>2.0</ele><time>2026-04-06T09:14:27.999Z</time></trkpt><trkpt lat="43.37499957028536" lon="10.448102828424409"><ele>2.0</ele><time>2026-04-06T09:14:29.999Z</time></trkpt><trkpt lat="43.375054819364145" lon="10.448057930206085"><ele>2.0</ele><time>2026-04-06T09:14:31Z</time></trkpt><trkpt lat="43.37516010056537" lon="10.447971311041437"><ele>2.0</ele><time>2026-04-06T09:14:33Z</time></trkpt><trkpt lat="43.37526683964242" lon="10.447886051058564"><ele>2.0</ele><time>2026-04-06T09:14:35Z</time></trkpt><trkpt lat="43.37532176860564" lon="10.447841433434181"><ele>1.75</ele><time>2026-04-06T09:14:36Z</time></trkpt><trkpt lat="43.37543063443731" lon="10.44776058940621"><ele>1.5</ele><time>2026-04-06T09:14:38Z</time></trkpt><trkpt lat="43.3755368889289" lon="10.447680192211596"><ele>1.25</ele><time>2026-04-06T09:14:40Z</time></trkpt><trkpt lat="43.37563945069895" lon="10.447590577436895"><ele>1.0</ele><time>2026-04-06T09:14:42Z</time></trkpt><trkpt lat="43.37574383382858" lon="10.447508687174029"><ele>1.5</ele><time>2026-04-06T09:14:44Z</time></trkpt><trkpt lat="43.37584891682463" lon="10.447426504683326"><ele>2.0</ele><time>2026-04-06T09:14:46Z</time></trkpt><trkpt lat="43.37595294361456" lon="10.447346461580636"><ele>2.5</ele><time>2026-04-06T09:14:48Z</time></trkpt><trkpt lat="43.37605910869514" lon="10.447263534258784"><ele>3.0</ele><time>2026-04-06T09:14:50Z</time></trkpt><trkpt lat="43.37616339722328" lon="10.447176658935561"><ele>3.0</ele><time>2026-04-06T09:14:52Z</time></trkpt><trkpt lat="43.37626952456114" lon="10.447091277896796"><ele>3.0</ele><time>2026-04-06T09:14:54Z</time></trkpt><trkpt lat="43.3763738457505" lon="10.447009844965086"><ele>3.0</ele><time>2026-04-06T09:14:56Z</time></trkpt><trkpt lat="43.37647849478606" lon="10.446928417081166"><ele>3.0</ele><time>2026-04-06T09:14:58Z</time></trkpt><trkpt lat="43.376583142438356" lon="10.44684520159273"><ele>3.0</ele><time>2026-04-06T09:15:00Z</time></trkpt><trkpt lat="43.37668461620511" lon="10.446765717598806"><ele>3.0</ele><time>2026-04-06T09:15:02Z</time></trkpt><trkpt lat="43.37678813171908" lon="10.446686192929942"><ele>3.0</ele><time>2026-04-06T09:15:04Z</time></trkpt><trkpt lat="43.376892171093445" lon="10.446603306574298"><ele>3.0</ele><time>2026-04-06T09:15:06Z</time></trkpt><trkpt lat="43.37699292585558" lon="10.446527768067488"><ele>3.0</ele><time>2026-04-06T09:15:08Z</time></trkpt><trkpt lat="43.37709360778623" lon="10.44644812538665"><ele>3.0</ele><time>2026-04-06T09:15:10Z</time></trkpt><trkpt lat="43.380304621516835" lon="10.44391614175923"><ele>3.25</ele><time>2026-04-06T09:16:11Z</time></trkpt><trkpt lat="43.38041037131605" lon="10.44383516002369"><ele>3.5</ele><time>2026-04-06T09:16:13Z</time></trkpt><trkpt lat="43.380518186330534" lon="10.443748424368641"><ele>3.75</ele><time>2026-04-06T09:16:15Z</time></trkpt><trkpt lat="43.3806241523171" lon="10.443661576946894"><ele>4.0</ele><time>2026-04-06T09:16:17Z</time></trkpt><trkpt lat="43.380732015222435" lon="10.44357808965648"><ele>4.0</ele><time>2026-04-06T09:16:19Z</time></trkpt><trkpt lat="43.38078700550951" lon="10.44353575830987"><ele>4.0</ele><time>2026-04-06T09:16:20Z</time></trkpt><trkpt lat="43.380893405081714" lon="10.443448645564729"><ele>4.0</ele><time>2026-04-06T09:16:22Z</time></trkpt><trkpt lat="43.38099968376072" lon="10.443361863075431"><ele>4.0</ele><time>2026-04-06T09:16:24Z</time></trkpt><trkpt lat="43.38110419262193" lon="10.443284993523685"><ele>4.0</ele><time>2026-04-06T09:16:26Z</time></trkpt><trkpt lat="43.38120569501298" lon="10.443203844972789"><ele>4.0</ele><time>2026-04-06T09:16:28Z</time></trkpt><trkpt lat="43.381311146092294" lon="10.443114447525247"><ele>4.0</ele><time>2026-04-06T09:16:30Z</time></trkpt><trkpt lat="43.381415224871624" lon="10.443029832316883"><ele>4.0</ele><time>2026-04-06T09:16:32Z</time></trkpt><trkpt lat="43.381520250399895" lon="10.442940714911595"><ele>4.0</ele><time>2026-04-06T09:16:34Z</time></trkpt><trkpt lat="43.38162184076391" lon="10.442858642743102"><ele>3.75</ele><time>2026-04-06T09:16:36Z</time></trkpt><trkpt lat="43.381728913691234" lon="10.442784674863555"><ele>3.5</ele><time>2026-04-06T09:16:38Z</time></trkpt><trkpt lat="43.381831365375774" lon="10.442698001373895"><ele>3.25</ele><time>2026-04-06T09:16:40Z</time></trkpt><trkpt lat="43.38193507846519" lon="10.44261565663125"><ele>3.0</ele><time>2026-04-06T09:16:42Z</time></trkpt><trkpt lat="43.38204032422799" lon="10.442526500369572"><ele>3.0</ele><time>2026-04-06T09:16:44Z</time></trkpt><trkpt lat="43.38214398132891" lon="10.442447352482052"><ele>3.0</ele><time>2026-04-06T09:16:46Z</time></trkpt><trkpt lat="43.38224174243154" lon="10.442373377250185"><ele>3.0</ele><time>2026-04-06T09:16:48Z</time></trkpt><trkpt lat="43.382334169899" lon="10.442299088727959"><ele>3.0</ele><time>2026-04-06T09:16:50Z</time></trkpt><trkpt lat="43.38241906321078" lon="10.442228745575354"><ele>3.0</ele><time>2026-04-06T09:16:52Z</time></trkpt><trkpt lat="43.382507087763585" lon="10.442162687785485"><ele>3.8</ele><time>2026-04-06T09:16:54Z</time></trkpt><trkpt lat="43.3825935663867" lon="10.4420961260411"><ele>4.6</ele><time>2026-04-06T09:16:56Z</time></trkpt><trkpt lat="43.38269242604812" lon="10.442015557480767"><ele>5.3999999999999995</ele><time>2026-04-06T09:16:58Z</time></trkpt><trkpt lat="43.382793618871226" lon="10.441932581525679"><ele>6.199999999999999</ele><time>2026-04-06T09:17:00Z</time></trkpt><trkpt lat="43.382894136114366" lon="10.441855734263937"><ele>7.0</ele><time>2026-04-06T09:17:02Z</time></trkpt><trkpt lat="43.38299120638871" lon="10.441776654441078"><ele>7.25</ele><time>2026-04-06T09:17:04Z</time></trkpt><trkpt lat="43.383091643057384" lon="10.441695821755914"><ele>7.5</ele><time>2026-04-06T09:17:06Z</time></trkpt><trkpt lat="43.383193149765624" lon="10.441621041072649"><ele>7.75</ele><time>2026-04-06T09:17:08Z</time></trkpt><trkpt lat="43.383290725308555" lon="10.441538303183021"><ele>8.0</ele><time>2026-04-06T09:17:10Z</time></trkpt><trkpt lat="43.386505957944024" lon="10.439007526400117"><ele>8.166666666666666</ele><time>2026-04-06T09:18:11Z</time></trkpt><trkpt lat="43.38655975538363" lon="10.438958834939093"><ele>8.333333333333332</ele><time>2026-04-06T09:18:12Z</time></trkpt><trkpt lat="43.386616433922725" lon="10.438917569316018"><ele>8.5</ele><time>2026-04-06T09:18:13Z</time></trkpt><trkpt lat="43.38667004964326" lon="10.438871878296966"><ele>8.666666666666666</ele><time>2026-04-06T09:18:14Z</time></trkpt><trkpt lat="43.38670705819005" lon="10.438792228990824"><ele>8.833333333333334</ele><time>2026-04-06T09:18:15Z</time></trkpt><trkpt lat="43.38681757930798" lon="10.438704496462647"><ele>9.0</ele><time>2026-04-06T09:18:17Z</time></trkpt><trkpt lat="43.38692320583665" lon="10.438620506469732"><ele>9.000000000000002</ele><time>2026-04-06T09:18:19Z</time></trkpt><trkpt lat="43.38697935711424" lon="10.438575857187296"><ele>9.0</ele><time>2026-04-06T09:18:20Z</time></trkpt><trkpt lat="43.38703472348616" lon="10.438531832068568"><ele>9.0</ele><time>2026-04-06T09:18:21Z</time></trkpt><trkpt lat="43.38709076780416" lon="10.438487267849009"><ele>9.0</ele><time>2026-04-06T09:18:22Z</time></trkpt><trkpt lat="43.387147238475265" lon="10.438444819755556"><ele>9.0</ele><time>2026-04-06T09:18:23Z</time></trkpt><trkpt lat="43.38720760431592" lon="10.438404824578916"><ele>9.000000000000002</ele><time>2026-04-06T09:18:24Z</time></trkpt><trkpt lat="43.38726369152221" lon="10.43836457179282"><ele>9.0</ele><time>2026-04-06T09:18:25Z</time></trkpt><trkpt lat="43.38732104171352" lon="10.438319303416012"><ele>9.0</ele><time>2026-04-06T09:18:26Z</time></trkpt><trkpt lat="43.387379655517925" lon="10.438278981672532"><ele>9.0</ele><time>2026-04-06T09:18:27Z</time></trkpt><trkpt lat="43.38743436722511" lon="10.438232880539351"><ele>9.0</ele><time>2026-04-06T09:18:28Z</time></trkpt><trkpt lat="43.38749123836105" lon="10.438182058560805"><ele>9.0</ele><time>2026-04-06T09:18:29Z</time></trkpt><trkpt lat="43.38755109628821" lon="10.438133304854423"><ele>9.0</ele><time>2026-04-06T09:18:30Z</time></trkpt><trkpt lat="43.38760675579266" lon="10.438090144599565"><ele>9.0</ele><time>2026-04-06T09:18:31Z</time></trkpt><trkpt lat="43.38771560674286" lon="10.438005737905868"><ele>9.2</ele><time>2026-04-06T09:18:33Z</time></trkpt><trkpt lat="43.387771315529925" lon="10.437962539459514"><ele>9.4</ele><time>2026-04-06T09:18:34Z</time></trkpt><trkpt lat="43.38787837033666" lon="10.437896880123759"><ele>9.6</ele><time>2026-04-06T09:18:36Z</time></trkpt><trkpt lat="43.38797432562612" lon="10.437816016479134"><ele>9.8</ele><time>2026-04-06T09:18:37.999Z</time></trkpt><trkpt lat="43.38805011976847" lon="10.437766582693826"><ele>10.0</ele><time>2026-04-06T09:18:39.999Z</time></trkpt><trkpt lat="43.388147265473386" lon="10.43768695934243"><ele>10.0</ele><time>2026-04-06T09:18:41.999Z</time></trkpt><trkpt lat="43.38824966656946" lon="10.437607502263424"><ele>10.0</ele><time>2026-04-06T09:18:44Z</time></trkpt><trkpt lat="43.38835219566167" lon="10.437525722347177"><ele>10.0</ele><time>2026-04-06T09:18:46Z</time></trkpt><trkpt lat="43.388407159583586" lon="10.437483109651145"><ele>10.0</ele><time>2026-04-06T09:18:47Z</time></trkpt><trkpt lat="43.388509620198406" lon="10.437409129574629"><ele>10.0</ele><time>2026-04-06T09:18:49Z</time></trkpt><trkpt lat="43.38856462600854" lon="10.43736445153233"><ele>10.0</ele><time>2026-04-06T09:18:50Z</time></trkpt><trkpt lat="43.388611436889654" lon="10.437303393471279"><ele>10.0</ele><time>2026-04-06T09:18:51Z</time></trkpt><trkpt lat="43.388666697879216" lon="10.43725985574679"><ele>10.0</ele><time>2026-04-06T09:18:52Z</time></trkpt><trkpt lat="43.38872312262851" lon="10.437215401151574"><ele>10.0</ele><time>2026-04-06T09:18:53Z</time></trkpt><trkpt lat="43.38882943991679" lon="10.437131638392312"><ele>10.0</ele><time>2026-04-06T09:18:55Z</time></trkpt><trkpt lat="43.388933549701584" lon="10.437049616550812"><ele>10.0</ele><time>2026-04-06T09:18:57Z</time></trkpt><trkpt lat="43.38903702037567" lon="10.436967464175188"><ele>10.2</ele><time>2026-04-06T09:18:59Z</time></trkpt><trkpt lat="43.389149824224276" lon="10.436905125159884"><ele>10.4</ele><time>2026-04-06T09:19:01Z</time></trkpt><trkpt lat="43.38924590033248" lon="10.436803460408376"><ele>10.600000000000001</ele><time>2026-04-06T09:19:03Z</time></trkpt><trkpt lat="43.38935126382542" lon="10.436720812615695"><ele>10.8</ele><time>2026-04-06T09:19:05Z</time></trkpt><trkpt lat="43.38940658443167" lon="10.436677418816052"><ele>11.0</ele><time>2026-04-06T09:19:06Z</time></trkpt><trkpt lat="43.38951608194251" lon="10.436591528271988"><ele>11.0</ele><time>2026-04-06T09:19:08Z</time></trkpt><trkpt lat="43.38957155751226" lon="10.436548012844042"><ele>11.0</ele><time>2026-04-06T09:19:09Z</time></trkpt><trkpt lat="43.38962712688702" lon="10.43650429963479"><ele>11.0</ele><time>2026-04-06T09:19:10Z</time></trkpt><trkpt lat="43.393020640465224" lon="10.433843400372622"><ele>11.5</ele><time>2026-04-06T09:20:11Z</time></trkpt><trkpt lat="43.39312581372691" lon="10.433755688161078"><ele>12.0</ele><time>2026-04-06T09:20:13Z</time></trkpt><trkpt lat="43.393233399303" lon="10.433664949910067"><ele>12.5</ele><time>2026-04-06T09:20:15Z</time></trkpt><trkpt lat="43.39328958152143" lon="10.433618904019117"><ele>13.0</ele><time>2026-04-06T09:20:16Z</time></trkpt><trkpt lat="43.39334714260963" lon="10.433575227926674"><ele>13.500000000000002</ele><time>2026-04-06T09:20:17Z</time></trkpt><trkpt lat="43.39340542413936" lon="10.433531701920428"><ele>14.0</ele><time>2026-04-06T09:20:18Z</time></trkpt><trkpt lat="43.39351343140876" lon="10.43344013947093"><ele>14.000000000000002</ele><time>2026-04-06T09:20:20Z</time></trkpt><trkpt lat="43.39356923764535" lon="10.433397267740414"><ele>14.0</ele><time>2026-04-06T09:20:21Z</time></trkpt><trkpt lat="43.39362507055946" lon="10.43335223694348"><ele>14.0</ele><time>2026-04-06T09:20:22Z</time></trkpt><trkpt lat="43.39367893830497" lon="10.433307008980428"><ele>14.0</ele><time>2026-04-06T09:20:23Z</time></trkpt><trkpt lat="43.39378360935263" lon="10.433213692781967"><ele>14.000000000000002</ele><time>2026-04-06T09:20:25Z</time></trkpt><trkpt lat="43.393840379261896" lon="10.433167583211869"><ele>14.0</ele><time>2026-04-06T09:20:26Z</time></trkpt><trkpt lat="43.39389753310686" lon="10.43311643811046"><ele>14.2</ele><time>2026-04-06T09:20:27Z</time></trkpt><trkpt lat="43.39400731560787" lon="10.433029993996268"><ele>14.399999999999999</ele><time>2026-04-06T09:20:29Z</time></trkpt><trkpt lat="43.39411803387528" lon="10.432939853971098"><ele>14.6</ele><time>2026-04-06T09:20:31Z</time></trkpt><trkpt lat="43.39417514910914" lon="10.432894444583512"><ele>14.8</ele><time>2026-04-06T09:20:32Z</time></trkpt><trkpt lat="43.39423517600346" lon="10.432848722396662"><ele>15.0</ele><time>2026-04-06T09:20:33Z</time></trkpt><trkpt lat="43.3943491577664" lon="10.43275853738621"><ele>14.571428571428571</ele><time>2026-04-06T09:20:35Z</time></trkpt><trkpt lat="43.394406290931315" lon="10.432713408287835"><ele>14.142857142857142</ele><time>2026-04-06T09:20:36Z</time></trkpt><trkpt lat="43.39446302367518" lon="10.43266690659757"><ele>13.714285714285714</ele><time>2026-04-06T09:20:36.999Z</time></trkpt><trkpt lat="43.394520895531855" lon="10.432627275922234"><ele>13.285714285714285</ele><time>2026-04-06T09:20:37.999Z</time></trkpt><trkpt lat="43.39458038992017" lon="10.432586966798949"><ele>12.857142857142858</ele><time>2026-04-06T09:20:38.999Z</time></trkpt><trkpt lat="43.394637582253345" lon="10.432536944226156"><ele>12.428571428571427</ele><time>2026-04-06T09:20:39.999Z</time></trkpt><trkpt lat="43.39469435332215" lon="10.432493753823836"><ele>12.0</ele><time>2026-04-06T09:20:40.999Z</time></trkpt><trkpt lat="43.39474850842536" lon="10.43244491041319"><ele>11.999999999999998</ele><time>2026-04-06T09:20:41.999Z</time></trkpt><trkpt lat="43.3948052482289" lon="10.432398408805312"><ele>12.0</ele><time>2026-04-06T09:20:42.999Z</time></trkpt><trkpt lat="43.39485920204864" lon="10.432350487725868"><ele>12.0</ele><time>2026-04-06T09:20:43.999Z</time></trkpt><trkpt lat="43.39491590509349" lon="10.432308809423345"><ele>12.0</ele><time>2026-04-06T09:20:44.999Z</time></trkpt><trkpt lat="43.39497345170588" lon="10.432264726171956"><ele>12.0</ele><time>2026-04-06T09:20:45.999Z</time></trkpt><trkpt lat="43.39503200954143" lon="10.432222574532553"><ele>11.999999999999998</ele><time>2026-04-06T09:20:46.999Z</time></trkpt><trkpt lat="43.39508862262383" lon="10.432179517333182"><ele>12.0</ele><time>2026-04-06T09:20:47.999Z</time></trkpt><trkpt lat="43.395145186631225" lon="10.432133909111977"><ele>11.857142857142856</ele><time>2026-04-06T09:20:49Z</time></trkpt><trkpt lat="43.395203911470354" lon="10.432091239398856"><ele>11.714285714285714</ele><time>2026-04-06T09:20:50Z</time></trkpt><trkpt lat="43.39526169646817" lon="10.432051605814147"><ele>11.571428571428571</ele><time>2026-04-06T09:20:51Z</time></trkpt><trkpt lat="43.39532003453217" lon="10.43200956008569"><ele>11.428571428571427</ele><time>2026-04-06T09:20:52Z</time></trkpt><trkpt lat="43.395377758192886" lon="10.43196619452638"><ele>11.285714285714285</ele><time>2026-04-06T09:20:53Z</time></trkpt><trkpt lat="43.395437383994796" lon="10.431925423520536"><ele>11.142857142857142</ele><time>2026-04-06T09:20:54Z</time></trkpt><trkpt lat="43.39549573787414" lon="10.431884438537397"><ele>11.0</ele><time>2026-04-06T09:20:55Z</time></trkpt><trkpt lat="43.39555441740573" lon="10.431843500482646"><ele>10.857142857142858</ele><time>2026-04-06T09:20:56Z</time></trkpt><trkpt lat="43.395610572334846" lon="10.431800954866446"><ele>10.714285714285714</ele><time>2026-04-06T09:20:57Z</time></trkpt><trkpt lat="43.395665506759244" lon="10.43175621491454"><ele>10.571428571428571</ele><time>2026-04-06T09:20:58Z</time></trkpt><trkpt lat="43.39572695963142" lon="10.431714162379002"><ele>10.428571428571429</ele><time>2026-04-06T09:20:59Z</time></trkpt><trkpt lat="43.3957858361534" lon="10.431672138331022"><ele>10.285714285714286</ele><time>2026-04-06T09:21:00Z</time></trkpt><trkpt lat="43.395846336352825" lon="10.431636064235072"><ele>10.142857142857142</ele><time>2026-04-06T09:21:01Z</time></trkpt><trkpt lat="43.39590887440017" lon="10.431597953136839"><ele>10.0</ele><time>2026-04-06T09:21:02Z</time></trkpt><trkpt lat="43.39596421925487" lon="10.43155290387105"><ele>10.0</ele><time>2026-04-06T09:21:03Z</time></trkpt><trkpt lat="43.39602129294239" lon="10.431505813727366"><ele>10.0</ele><time>2026-04-06T09:21:04Z</time></trkpt><trkpt lat="43.39607718718325" lon="10.431458076536245"><ele>10.0</ele><time>2026-04-06T09:21:05Z</time></trkpt><trkpt lat="43.396188411382994" lon="10.431368645389227"><ele>10.0</ele><time>2026-04-06T09:21:07Z</time></trkpt><trkpt lat="43.39624501336631" lon="10.431326971212682"><ele>10.0</ele><time>2026-04-06T09:21:08Z</time></trkpt><trkpt lat="43.3963029985116" lon="10.431283030703979"><ele>10.0</ele><time>2026-04-06T09:21:09Z</time></trkpt><trkpt lat="43.399271513292454" lon="10.427704722721531"><ele>9.6</ele><time>2026-04-06T09:22:11Z</time></trkpt><trkpt lat="43.39932590241579" lon="10.427623690252506"><ele>9.2</ele><time>2026-04-06T09:22:13Z</time></trkpt><trkpt lat="43.399388365422496" lon="10.4275298593257"><ele>8.8</ele><time>2026-04-06T09:22:15Z</time></trkpt><trkpt lat="43.39946302394388" lon="10.427437116280002"><ele>8.4</ele><time>2026-04-06T09:22:17Z</time></trkpt><trkpt lat="43.39954666583676" lon="10.42733486670856"><ele>8.0</ele><time>2026-04-06T09:22:19Z</time></trkpt><trkpt lat="43.39962903957461" lon="10.42722360627488"><ele>8.25</ele><time>2026-04-06T09:22:21Z</time></trkpt><trkpt lat="43.39971454866676" lon="10.427119344809297"><ele>8.5</ele><time>2026-04-06T09:22:23Z</time></trkpt><trkpt lat="43.399799265418125" lon="10.427006161858396"><ele>8.75</ele><time>2026-04-06T09:22:25Z</time></trkpt><trkpt lat="43.39988745723266" lon="10.426888554889489"><ele>9.0</ele><time>2026-04-06T09:22:27Z</time></trkpt><trkpt lat="43.399977549627344" lon="10.426768695899687"><ele>9.0</ele><time>2026-04-06T09:22:29Z</time></trkpt><trkpt lat="43.400065839676024" lon="10.426651234592406"><ele>9.0</ele><time>2026-04-06T09:22:31Z</time></trkpt><trkpt lat="43.400156112741406" lon="10.426531472712913"><ele>9.0</ele><time>2026-04-06T09:22:33Z</time></trkpt><trkpt lat="43.4002016003061" lon="10.426471104959624"><ele>9.0</ele><time>2026-04-06T09:22:34Z</time></trkpt><trkpt lat="43.40029021362102" lon="10.426353503861566"><ele>9.0</ele><time>2026-04-06T09:22:36Z</time></trkpt><trkpt lat="43.400336694237716" lon="10.426291567908118"><ele>9.2</ele><time>2026-04-06T09:22:37Z</time></trkpt><trkpt lat="43.40042793035315" lon="10.426168121485066"><ele>9.4</ele><time>2026-04-06T09:22:38.999Z</time></trkpt><trkpt lat="43.400519387866034" lon="10.426045157540523"><ele>9.6</ele><time>2026-04-06T09:22:40.999Z</time></trkpt><trkpt lat="43.40056603061123" lon="10.42598301120896"><ele>9.8</ele><time>2026-04-06T09:22:41.999Z</time></trkpt><trkpt lat="43.40065595745718" lon="10.425863248150408"><ele>10.0</ele><time>2026-04-06T09:22:43.999Z</time></trkpt><trkpt lat="43.400702673381346" lon="10.425801032641322"><ele>10.0</ele><time>2026-04-06T09:22:44.999Z</time></trkpt><trkpt lat="43.400793469171404" lon="10.425680112295241"><ele>10.0</ele><time>2026-04-06T09:22:46.999Z</time></trkpt><trkpt lat="43.40084072584167" lon="10.425617176411006"><ele>10.0</ele><time>2026-04-06T09:22:47.999Z</time></trkpt><trkpt lat="43.40088570233072" lon="10.425556384615993"><ele>10.0</ele><time>2026-04-06T09:22:48.999Z</time></trkpt><trkpt lat="43.40093326410575" lon="10.425492364834243"><ele>10.0</ele><time>2026-04-06T09:22:49.999Z</time></trkpt><trkpt lat="43.400979634743734" lon="10.425430360278687"><ele>10.0</ele><time>2026-04-06T09:22:50.999Z</time></trkpt><trkpt lat="43.40102649736654" lon="10.425368108099729"><ele>10.0</ele><time>2026-04-06T09:22:51.999Z</time></trkpt><trkpt lat="43.40111722061178" lon="10.425247624484266"><ele>10.0</ele><time>2026-04-06T09:22:53.999Z</time></trkpt><trkpt lat="43.401207356050215" lon="10.425128374794216"><ele>10.0</ele><time>2026-04-06T09:22:56Z</time></trkpt><trkpt lat="43.40124173503172" lon="10.425051203848263"><ele>10.0</ele><time>2026-04-06T09:22:57Z</time></trkpt><trkpt lat="43.401342139072234" lon="10.424950103991515"><ele>10.0</ele><time>2026-04-06T09:22:59Z</time></trkpt><trkpt lat="43.401426498798614" lon="10.424838525583043"><ele>10.0</ele><time>2026-04-06T09:23:01Z</time></trkpt><trkpt lat="43.401511403007135" lon="10.424725863492831"><ele>10.0</ele><time>2026-04-06T09:23:03Z</time></trkpt><trkpt lat="43.401587814533606" lon="10.424599956129672"><ele>10.0</ele><time>2026-04-06T09:23:05Z</time></trkpt><trkpt lat="43.40167255355012" lon="10.424485657675115"><ele>10.0</ele><time>2026-04-06T09:23:07Z</time></trkpt><trkpt lat="43.40176141389829" lon="10.42437113671682"><ele>19.0</ele><time>2026-04-06T09:23:09Z</time></trkpt><trkpt lat="43.40378141993387" lon="10.423552610128992"><ele>19.0</ele><time>2026-04-06T09:24:11Z</time></trkpt><trkpt lat="43.403816862712134" lon="10.423626340774167"><ele>19.0</ele><time>2026-04-06T09:24:13Z</time></trkpt><trkpt lat="43.40386667916858" lon="10.423718257136185"><ele>19.0</ele><time>2026-04-06T09:24:15Z</time></trkpt><trkpt lat="43.40393544389935" lon="10.423864811407817"><ele>19.0</ele><time>2026-04-06T09:24:17Z</time></trkpt><trkpt lat="43.40397398747097" lon="10.423948801643796"><ele>19.0</ele><time>2026-04-06T09:24:18Z</time></trkpt><trkpt lat="43.4040227743685" lon="10.424047271302086"><ele>19.0</ele><time>2026-04-06T09:24:19Z</time></trkpt><trkpt lat="43.404071586068646" lon="10.424136401420181"><ele>19.0</ele><time>2026-04-06T09:24:20Z</time></trkpt><trkpt lat="43.404125095847455" lon="10.424219445458343"><ele>19.0</ele><time>2026-04-06T09:24:21Z</time></trkpt><trkpt lat="43.40421425196587" lon="10.42431928767702"><ele>19.0</ele><time>2026-04-06T09:24:23Z</time></trkpt><trkpt lat="43.40433799590598" lon="10.42429020554819"><ele>19.0</ele><time>2026-04-06T09:24:25Z</time></trkpt><trkpt lat="43.404426662872694" lon="10.42424365871324"><ele>19.0</ele><time>2026-04-06T09:24:27Z</time></trkpt><trkpt lat="43.40450568336053" lon="10.424212623375835"><ele>19.0</ele><time>2026-04-06T09:24:29Z</time></trkpt><trkpt lat="43.40459487591235" lon="10.424180658729705"><ele>19.0</ele><time>2026-04-06T09:24:31Z</time></trkpt><trkpt lat="43.404683035206205" lon="10.424149096943179"><ele>19.0</ele><time>2026-04-06T09:24:33Z</time></trkpt><trkpt lat="43.404771542064346" lon="10.424118967633028"><ele>19.0</ele><time>2026-04-06T09:24:35Z</time></trkpt><trkpt lat="43.404865588110084" lon="10.42409220444203"><ele>19.0</ele><time>2026-04-06T09:24:37Z</time></trkpt><trkpt lat="43.40495963985843" lon="10.424060597456169"><ele>19.333333333333332</ele><time>2026-04-06T09:24:39Z</time></trkpt><trkpt lat="43.40505179874755" lon="10.424033866671087"><ele>19.666666666666664</ele><time>2026-04-06T09:24:41Z</time></trkpt><trkpt lat="43.40513685564441" lon="10.424009654387485"><ele>20.0</ele><time>2026-04-06T09:24:43Z</time></trkpt><trkpt lat="43.40520027142379" lon="10.42396202052479"><ele>20.333333333333332</ele><time>2026-04-06T09:24:45Z</time></trkpt><trkpt lat="43.40527205355358" lon="10.423846143245832"><ele>20.666666666666668</ele><time>2026-04-06T09:24:48Z</time></trkpt><trkpt lat="43.40530347575065" lon="10.423741696847376"><ele>21.0</ele><time>2026-04-06T09:24:50Z</time></trkpt><trkpt lat="43.405339273685506" lon="10.423639270238827"><ele>21.333333333333332</ele><time>2026-04-06T09:24:52Z</time></trkpt><trkpt lat="43.405368463355565" lon="10.42352858080551"><ele>21.666666666666668</ele><time>2026-04-06T09:24:54Z</time></trkpt><trkpt lat="43.405400268651924" lon="10.423415830311642"><ele>22.0</ele><time>2026-04-06T09:24:56Z</time></trkpt><trkpt lat="43.40543566335936" lon="10.423304439325634"><ele>22.333333333333336</ele><time>2026-04-06T09:24:57.999Z</time></trkpt><trkpt lat="43.405471748303704" lon="10.423190312365977"><ele>22.666666666666668</ele><time>2026-04-06T09:24:59.999Z</time></trkpt><trkpt lat="43.40550147366669" lon="10.423074474754053"><ele>23.0</ele><time>2026-04-06T09:25:02Z</time></trkpt><trkpt lat="43.405533160444996" lon="10.42295599428155"><ele>23.25</ele><time>2026-04-06T09:25:04Z</time></trkpt><trkpt lat="43.40556394223365" lon="10.422836356694022"><ele>23.5</ele><time>2026-04-06T09:25:06Z</time></trkpt><trkpt lat="43.40560056574532" lon="10.422725340682161"><ele>23.75</ele><time>2026-04-06T09:25:08Z</time></trkpt><trkpt lat="43.40563345400433" lon="10.422608648532242"><ele>24.0</ele><time>2026-04-06T09:25:10Z</time></trkpt><trkpt lat="43.40639356493591" lon="10.419070366691475"><ele>25.2</ele><time>2026-04-06T09:26:11Z</time></trkpt><trkpt lat="43.40641231602383" lon="10.418937495110114"><ele>26.4</ele><time>2026-04-06T09:26:13Z</time></trkpt><trkpt lat="43.40643242251768" lon="10.418809305850475"><ele>27.6</ele><time>2026-04-06T09:26:15Z</time></trkpt><trkpt lat="43.40645572554385" lon="10.418676520023885"><ele>28.8</ele><time>2026-04-06T09:26:17Z</time></trkpt><trkpt lat="43.40647716411129" lon="10.418546286468619"><ele>30.0</ele><time>2026-04-06T09:26:19Z</time></trkpt><trkpt lat="43.406501596959174" lon="10.418418280228538"><ele>30.0</ele><time>2026-04-06T09:26:21Z</time></trkpt><trkpt lat="43.40652453168794" lon="10.418294091349138"><ele>30.0</ele><time>2026-04-06T09:26:23Z</time></trkpt><trkpt lat="43.40655783442614" lon="10.418178384434066"><ele>30.0</ele><time>2026-04-06T09:26:25Z</time></trkpt><trkpt lat="43.40658180982888" lon="10.418070833168724"><ele>30.0</ele><time>2026-04-06T09:26:27Z</time></trkpt><trkpt lat="43.40660969994383" lon="10.417973685274145"><ele>30.0</ele><time>2026-04-06T09:26:29Z</time></trkpt><trkpt lat="43.40664121730764" lon="10.417883417956233"><ele>30.0</ele><time>2026-04-06T09:26:31Z</time></trkpt><trkpt lat="43.40667285427457" lon="10.417789256331487"><ele>30.166666666666668</ele><time>2026-04-06T09:26:33Z</time></trkpt><trkpt lat="43.40669307205645" lon="10.417683326955839"><ele>30.333333333333336</ele><time>2026-04-06T09:26:35Z</time></trkpt><trkpt lat="43.406721472559404" lon="10.417582482300524"><ele>30.5</ele><time>2026-04-06T09:26:37Z</time></trkpt><trkpt lat="43.406749272936025" lon="10.41747697958343"><ele>30.666666666666668</ele><time>2026-04-06T09:26:39Z</time></trkpt><trkpt lat="43.406745300508845" lon="10.417366078035267"><ele>30.833333333333336</ele><time>2026-04-06T09:26:41Z</time></trkpt><trkpt lat="43.406751227220816" lon="10.417257091853392"><ele>31.0</ele><time>2026-04-06T09:26:43Z</time></trkpt><trkpt lat="43.4067646377384" lon="10.41714090355632"><ele>32.0</ele><time>2026-04-06T09:26:45Z</time></trkpt><trkpt lat="43.40676875920768" lon="10.417028947890389"><ele>33.0</ele><time>2026-04-06T09:26:47Z</time></trkpt><trkpt lat="43.406776143489466" lon="10.416914698383396"><ele>34.0</ele><time>2026-04-06T09:26:49Z</time></trkpt><trkpt lat="43.40678203137415" lon="10.416805406314847"><ele>35.0</ele><time>2026-04-06T09:26:51Z</time></trkpt><trkpt lat="43.40678873733322" lon="10.416697421442096"><ele>36.0</ele><time>2026-04-06T09:26:53Z</time></trkpt><trkpt lat="43.406797403421216" lon="10.416588717024258"><ele>37.0</ele><time>2026-04-06T09:26:55Z</time></trkpt><trkpt lat="43.406803170618986" lon="10.416483730743604"><ele>37.0</ele><time>2026-04-06T09:26:57Z</time></trkpt><trkpt lat="43.4068030274869" lon="10.416378781992307"><ele>37.0</ele><time>2026-04-06T09:26:59Z</time></trkpt><trkpt lat="43.40680755379712" lon="10.41628123200848"><ele>37.0</ele><time>2026-04-06T09:27:00.999Z</time></trkpt><trkpt lat="43.40681433559107" lon="10.416179097102715"><ele>37.0</ele><time>2026-04-06T09:27:02.999Z</time></trkpt><trkpt lat="43.40682320398692" lon="10.41608010762732"><ele>37.0</ele><time>2026-04-06T09:27:04.999Z</time></trkpt><trkpt lat="43.40683385670645" lon="10.415981115610707"><ele>37.0</ele><time>2026-04-06T09:27:07Z</time></trkpt><trkpt lat="43.40683792104504" lon="10.415875452650063"><ele>37.0</ele><time>2026-04-06T09:27:09Z</time></trkpt><trkpt lat="43.407003467679075" lon="10.412449839867403"><ele>39.0</ele><time>2026-04-06T09:28:11Z</time></trkpt><trkpt lat="43.4070199218378" lon="10.41235286457651"><ele>41.0</ele><time>2026-04-06T09:28:13Z</time></trkpt><trkpt lat="43.407010945015294" lon="10.412251829502992"><ele>43.0</ele><time>2026-04-06T09:28:16Z</time></trkpt><trkpt lat="43.40684582155481" lon="10.412217436306067"><ele>45.0</ele><time>2026-04-06T09:28:17Z</time></trkpt><trkpt lat="43.40683990514917" lon="10.412096100428954"><ele>47.0</ele><time>2026-04-06T09:28:19Z</time></trkpt><trkpt lat="43.40727045806087" lon="10.411992093673042"><ele>48.33333333333333</ele><time>2026-04-06T09:28:21Z</time></trkpt><trkpt lat="43.40730906076595" lon="10.411894968611655"><ele>49.666666666666664</ele><time>2026-04-06T09:28:23Z</time></trkpt><trkpt lat="43.407358738480276" lon="10.411804818119501"><ele>51.0</ele><time>2026-04-06T09:28:25Z</time></trkpt><trkpt lat="43.4074248407694" lon="10.411696051886473"><ele>52.33333333333333</ele><time>2026-04-06T09:28:27Z</time></trkpt><trkpt lat="43.40746260096387" lon="10.4115886832274"><ele>53.666666666666664</ele><time>2026-04-06T09:28:29Z</time></trkpt><trkpt lat="43.40751893152346" lon="10.411491792880103"><ele>55.0</ele><time>2026-04-06T09:28:32Z</time></trkpt><trkpt lat="43.40761117913243" lon="10.411483760878289"><ele>54.99999999999999</ele><time>2026-04-06T09:28:35Z</time></trkpt><trkpt lat="43.407694288590626" lon="10.411522924029013"><ele>55.0</ele><time>2026-04-06T09:28:38Z</time></trkpt><trkpt lat="43.40775684231272" lon="10.411543724532477"><ele>55.0</ele><time>2026-04-06T09:28:40Z</time></trkpt><trkpt lat="43.40782089572809" lon="10.411554936807685"><ele>55.0</ele><time>2026-04-06T09:28:42Z</time></trkpt><trkpt lat="43.40788813731014" lon="10.411583327415979"><ele>55.0</ele><time>2026-04-06T09:28:44Z</time></trkpt><trkpt lat="43.40795788919405" lon="10.411602607163124"><ele>54.99999999999999</ele><time>2026-04-06T09:28:46Z</time></trkpt><trkpt lat="43.408020255512916" lon="10.41164767851184"><ele>55.0</ele><time>2026-04-06T09:28:48Z</time></trkpt><trkpt lat="43.40806655880655" lon="10.411717047450932"><ele>55.666666666666664</ele><time>2026-04-06T09:28:50Z</time></trkpt><trkpt lat="43.40813638365142" lon="10.411812224250555"><ele>56.33333333333333</ele><time>2026-04-06T09:28:53Z</time></trkpt><trkpt lat="43.4081825122412" lon="10.411885259450196"><ele>57.0</ele><time>2026-04-06T09:28:55Z</time></trkpt><trkpt lat="43.40822719318247" lon="10.411957790489447"><ele>57.66666666666667</ele><time>2026-04-06T09:28:57Z</time></trkpt><trkpt lat="43.40828001272071" lon="10.412005426792218"><ele>58.333333333333336</ele><time>2026-04-06T09:28:59Z</time></trkpt><trkpt lat="43.408369781643295" lon="10.412043279712965"><ele>59.0</ele><time>2026-04-06T09:29:02Z</time></trkpt><trkpt lat="43.40843281697143" lon="10.412055278338963"><ele>59.0</ele><time>2026-04-06T09:29:04Z</time></trkpt><trkpt lat="43.408510065789706" lon="10.412034680586618"><ele>59.0</ele><time>2026-04-06T09:29:06Z</time></trkpt><trkpt lat="43.408582145979544" lon="10.411989450173804"><ele>59.0</ele><time>2026-04-06T09:29:07.999Z</time></trkpt><trkpt lat="43.40863004600022" lon="10.41189899770834"><ele>59.0</ele><time>2026-04-06T09:29:09.999Z</time></trkpt><trkpt lat="43.409207334628896" lon="10.412566097192734"><ele>72.0</ele><time>2026-04-06T09:30:11Z</time></trkpt><trkpt lat="43.40926852687085" lon="10.41252478958143"><ele>72.0</ele><time>2026-04-06T09:30:53Z</time></trkpt><trkpt lat="43.40921169432098" lon="10.412585997710716"><ele>72.0</ele><time>2026-04-06T09:30:58Z</time></trkpt><trkpt lat="43.40925028065627" lon="10.41269138147832"><ele>72.0</ele><time>2026-04-06T09:31:02Z</time></trkpt><trkpt lat="43.40931538342568" lon="10.412757935445256"><ele>72.0</ele><time>2026-04-06T09:31:05.999Z</time></trkpt><trkpt lat="43.40937692075919" lon="10.412787000075655"><ele>72.0</ele><time>2026-04-06T09:31:08.999Z</time></trkpt><trkpt lat="43.40937692075919" lon="10.412787000075655"><ele>72.0</ele><time>2026-04-06T09:31:08.999Z</time></trkpt></trkseg></trk></gpx>